<?xml version='1.0' encoding='UTF-8'?><gpx version="1.1" creator="JPX - https://github.com/jenetics/jpx" xmlns="http://www.topografix.com/GPX/1/1"><trk><trkseg><trkpt lat="45.7707331" lon="11.7720233"><ele>125.0</ele><time>2026-04-03T12:43:49.948Z</time></trkpt><trkpt lat="45.7707934" lon="11.7719339"><ele>125.0</ele><time>2026-04-03T12:43:52.915Z</time></trkpt><trkpt lat="45.7708682" lon="11.7718963"><ele>125.0</ele><time>2026-04-03T12:43:54.946Z</time></trkpt><trkpt lat="45.7709431" lon="11.7718678"><ele>125.0</ele><time>2026-04-03T12:43:56.947Z</time></trkpt><trkpt lat="45.7710284" lon="11.7719085"><ele>125.0</ele><time>2026-04-03T12:43:59.947Z</time></trkpt><trkpt lat="45.7710677" lon="11.7720709"><ele>124.8</ele><time>2026-04-03T12:44:01.939Z</time></trkpt><trkpt lat="45.7711011" lon="11.772229"><ele>124.6</ele><time>2026-04-03T12:44:03.95Z</time></trkpt><trkpt lat="45.7711394" lon="11.7723807"><ele>124.4</ele><time>2026-04-03T12:44:05.924Z</time></trkpt><trkpt lat="45.7711733" lon="11.7725162"><ele>124.2</ele><time>2026-04-03T12:44:07.939Z</time></trkpt><trkpt lat="45.7711985" lon="11.7726111"><ele>124.0</ele><time>2026-04-03T12:44:09.943Z</time></trkpt><trkpt lat="45.7712568" lon="11.7726767"><ele>124.0</ele><time>2026-04-03T12:44:11.928Z</time></trkpt><trkpt lat="45.7713209" lon="11.7726662"><ele>124.0</ele><time>2026-04-03T12:44:12.971Z</time></trkpt><trkpt lat="45.771381" lon="11.7726242"><ele>124.0</ele><time>2026-04-03T12:44:13.947Z</time></trkpt><trkpt lat="45.7714944" lon="11.7725543"><ele>124.0</ele><time>2026-04-03T12:44:15.937Z</time></trkpt><trkpt lat="45.7715818" lon="11.7725006"><ele>124.0</ele><time>2026-04-03T12:44:16.953Z</time></trkpt><trkpt lat="45.7716899" lon="11.772434"><ele>124.0</ele><time>2026-04-03T12:44:17.96Z</time></trkpt><trkpt lat="45.7717822" lon="11.7723604"><ele>124.0</ele><time>2026-04-03T12:44:19.034Z</time></trkpt><trkpt lat="45.7718803" lon="11.7722749"><ele>124.0</ele><time>2026-04-03T12:44:19.94Z</time></trkpt><trkpt lat="45.7719875" lon="11.7722057"><ele>124.0</ele><time>2026-04-03T12:44:20.941Z</time></trkpt><trkpt lat="45.7720866" lon="11.7721414"><ele>124.0</ele><time>2026-04-03T12:44:21.935Z</time></trkpt><trkpt lat="45.772185" lon="11.7720725"><ele>124.0</ele><time>2026-04-03T12:44:22.967Z</time></trkpt><trkpt lat="45.7722727" lon="11.7720133"><ele>124.0</ele><time>2026-04-03T12:44:23.945Z</time></trkpt><trkpt lat="45.7723637" lon="11.7719557"><ele>124.0</ele><time>2026-04-03T12:44:24.939Z</time></trkpt><trkpt lat="45.7724496" lon="11.7718981"><ele>124.0</ele><time>2026-04-03T12:44:25.949Z</time></trkpt><trkpt lat="45.7725273" lon="11.7718473"><ele>124.0</ele><time>2026-04-03T12:44:26.98Z</time></trkpt><trkpt lat="45.7725955" lon="11.7718081"><ele>124.0</ele><time>2026-04-03T12:44:27.985Z</time></trkpt><trkpt lat="45.7726585" lon="11.7717844"><ele>124.0</ele><time>2026-04-03T12:44:28.973Z</time></trkpt><trkpt lat="45.7727902" lon="11.7717064"><ele>124.0</ele><time>2026-04-03T12:44:31.923Z</time></trkpt><trkpt lat="45.772876" lon="11.7717233"><ele>124.0</ele><time>2026-04-03T12:44:35.94Z</time></trkpt><trkpt lat="45.7729415" lon="11.7718602"><ele>124.0</ele><time>2026-04-03T12:44:37.941Z</time></trkpt><trkpt lat="45.7730074" lon="11.7719756"><ele>124.0</ele><time>2026-04-03T12:44:38.97Z</time></trkpt><trkpt lat="45.7730752" lon="11.7720998"><ele>124.0</ele><time>2026-04-03T12:44:39.958Z</time></trkpt><trkpt lat="45.7731337" lon="11.7722176"><ele>124.0</ele><time>2026-04-03T12:44:40.937Z</time></trkpt><trkpt lat="45.7731798" lon="11.77233"><ele>124.0</ele><time>2026-04-03T12:44:41.949Z</time></trkpt><trkpt lat="45.7732189" lon="11.7724497"><ele>124.0</ele><time>2026-04-03T12:44:43.948Z</time></trkpt><trkpt lat="45.7733368" lon="11.7724697"><ele>124.0</ele><time>2026-04-03T12:44:50.947Z</time></trkpt><trkpt lat="45.7734289" lon="11.7724327"><ele>124.0</ele><time>2026-04-03T12:44:51.948Z</time></trkpt><trkpt lat="45.773544" lon="11.7723648"><ele>124.0</ele><time>2026-04-03T12:44:52.962Z</time></trkpt><trkpt lat="45.7736716" lon="11.7722943"><ele>124.0</ele><time>2026-04-03T12:44:53.952Z</time></trkpt><trkpt lat="45.7738121" lon="11.7722229"><ele>124.25</ele><time>2026-04-03T12:44:54.946Z</time></trkpt><trkpt lat="45.7739378" lon="11.7721594"><ele>124.5</ele><time>2026-04-03T12:44:55.937Z</time></trkpt><trkpt lat="45.7740477" lon="11.7720913"><ele>124.75</ele><time>2026-04-03T12:44:56.938Z</time></trkpt><trkpt lat="45.7741252" lon="11.7719874"><ele>125.0</ele><time>2026-04-03T12:44:57.921Z</time></trkpt><trkpt lat="45.7741708" lon="11.7718651"><ele>125.16666666666666</ele><time>2026-04-03T12:44:58.981Z</time></trkpt><trkpt lat="45.7742075" lon="11.7717096"><ele>125.33333333333333</ele><time>2026-04-03T12:44:59.927Z</time></trkpt><trkpt lat="45.7742199" lon="11.7715817"><ele>125.5</ele><time>2026-04-03T12:45:00.95Z</time></trkpt><trkpt lat="45.7742369" lon="11.7714903"><ele>125.66666666666666</ele><time>2026-04-03T12:45:01.958Z</time></trkpt><trkpt lat="45.7742876" lon="11.7714254"><ele>125.83333333333333</ele><time>2026-04-03T12:45:02.941Z</time></trkpt><trkpt lat="45.7743763" lon="11.7713672"><ele>126.0</ele><time>2026-04-03T12:45:03.97Z</time></trkpt><trkpt lat="45.7744603" lon="11.7712998"><ele>125.75</ele><time>2026-04-03T12:45:04.934Z</time></trkpt><trkpt lat="45.7745265" lon="11.7711999"><ele>125.5</ele><time>2026-04-03T12:45:05.929Z</time></trkpt><trkpt lat="45.7746005" lon="11.7710878"><ele>125.25</ele><time>2026-04-03T12:45:06.93Z</time></trkpt><trkpt lat="45.7746883" lon="11.7709908"><ele>125.0</ele><time>2026-04-03T12:45:07.93Z</time></trkpt><trkpt lat="45.7748208" lon="11.7709036"><ele>125.0</ele><time>2026-04-03T12:45:08.97Z</time></trkpt><trkpt lat="45.7749672" lon="11.7708233"><ele>125.0</ele><time>2026-04-03T12:45:09.957Z</time></trkpt><trkpt lat="45.7751089" lon="11.7707533"><ele>125.0</ele><time>2026-04-03T12:45:10.937Z</time></trkpt><trkpt lat="45.7752486" lon="11.7706858"><ele>125.25</ele><time>2026-04-03T12:45:11.933Z</time></trkpt><trkpt lat="45.7753843" lon="11.770624"><ele>125.5</ele><time>2026-04-03T12:45:12.948Z</time></trkpt><trkpt lat="45.7755099" lon="11.7705668"><ele>125.75</ele><time>2026-04-03T12:45:13.937Z</time></trkpt><trkpt lat="45.7756358" lon="11.7705064"><ele>126.0</ele><time>2026-04-03T12:45:14.937Z</time></trkpt><trkpt lat="45.7757756" lon="11.7704451"><ele>126.0</ele><time>2026-04-03T12:45:16.053Z</time></trkpt><trkpt lat="45.7760168" lon="11.7703693"><ele>126.0</ele><time>2026-04-03T12:45:17.932Z</time></trkpt><trkpt lat="45.776147" lon="11.7703411"><ele>126.0</ele><time>2026-04-03T12:45:18.96Z</time></trkpt><trkpt lat="45.7762739" lon="11.7703209"><ele>126.0</ele><time>2026-04-03T12:45:19.935Z</time></trkpt><trkpt lat="45.7764134" lon="11.7703051"><ele>126.0</ele><time>2026-04-03T12:45:20.948Z</time></trkpt><trkpt lat="45.776546" lon="11.7702825"><ele>126.0</ele><time>2026-04-03T12:45:21.924Z</time></trkpt><trkpt lat="45.7766838" lon="11.7702597"><ele>126.0</ele><time>2026-04-03T12:45:22.943Z</time></trkpt><trkpt lat="45.7768164" lon="11.7702314"><ele>126.0</ele><time>2026-04-03T12:45:23.94Z</time></trkpt><trkpt lat="45.7769487" lon="11.770195"><ele>126.0</ele><time>2026-04-03T12:45:24.963Z</time></trkpt><trkpt lat="45.7770685" lon="11.7701459"><ele>126.0</ele><time>2026-04-03T12:45:25.934Z</time></trkpt><trkpt lat="45.7771909" lon="11.7700745"><ele>126.0</ele><time>2026-04-03T12:45:26.949Z</time></trkpt><trkpt lat="45.7773139" lon="11.7699944"><ele>126.5</ele><time>2026-04-03T12:45:27.938Z</time></trkpt><trkpt lat="45.7774357" lon="11.7699172"><ele>127.0</ele><time>2026-04-03T12:45:28.936Z</time></trkpt><trkpt lat="45.7775629" lon="11.7698506"><ele>127.5</ele><time>2026-04-03T12:45:29.944Z</time></trkpt><trkpt lat="45.7776892" lon="11.7698062"><ele>128.0</ele><time>2026-04-03T12:45:30.938Z</time></trkpt><trkpt lat="45.7778149" lon="11.7697737"><ele>128.0</ele><time>2026-04-03T12:45:31.965Z</time></trkpt><trkpt lat="45.7779228" lon="11.7697622"><ele>128.0</ele><time>2026-04-03T12:45:32.958Z</time></trkpt><trkpt lat="45.7780097" lon="11.7697571"><ele>128.0</ele><time>2026-04-03T12:45:33.957Z</time></trkpt><trkpt lat="45.778101" lon="11.769795"><ele>128.0</ele><time>2026-04-03T12:45:35.956Z</time></trkpt><trkpt lat="45.7781475" lon="11.7699832"><ele>128.0</ele><time>2026-04-03T12:45:37.941Z</time></trkpt><trkpt lat="45.7781947" lon="11.7701926"><ele>128.33333333333331</ele><time>2026-04-03T12:45:39.158Z</time></trkpt><trkpt lat="45.7783013" lon="11.770554"><ele>128.66666666666666</ele><time>2026-04-03T12:45:40.947Z</time></trkpt><trkpt lat="45.7783558" lon="11.7707621"><ele>129.0</ele><time>2026-04-03T12:45:41.935Z</time></trkpt><trkpt lat="45.7784024" lon="11.7709632"><ele>129.0</ele><time>2026-04-03T12:45:42.923Z</time></trkpt><trkpt lat="45.7784448" lon="11.7711532"><ele>129.0</ele><time>2026-04-03T12:45:43.937Z</time></trkpt><trkpt lat="45.7784873" lon="11.771331"><ele>129.0</ele><time>2026-04-03T12:45:44.915Z</time></trkpt><trkpt lat="45.7785279" lon="11.7715158"><ele>129.0</ele><time>2026-04-03T12:45:45.956Z</time></trkpt><trkpt lat="45.7785672" lon="11.7716817"><ele>128.5</ele><time>2026-04-03T12:45:46.924Z</time></trkpt><trkpt lat="45.7786041" lon="11.771867"><ele>128.0</ele><time>2026-04-03T12:45:47.958Z</time></trkpt><trkpt lat="45.7786454" lon="11.7720387"><ele>127.5</ele><time>2026-04-03T12:45:48.942Z</time></trkpt><trkpt lat="45.7786915" lon="11.7722137"><ele>127.0</ele><time>2026-04-03T12:45:49.971Z</time></trkpt><trkpt lat="45.7787324" lon="11.7723927"><ele>127.0</ele><time>2026-04-03T12:45:50.953Z</time></trkpt><trkpt lat="45.7787853" lon="11.772592"><ele>127.0</ele><time>2026-04-03T12:45:51.939Z</time></trkpt><trkpt lat="45.7788405" lon="11.7728235"><ele>127.0</ele><time>2026-04-03T12:45:52.969Z</time></trkpt><trkpt lat="45.7788868" lon="11.773033"><ele>126.66666666666667</ele><time>2026-04-03T12:45:53.935Z</time></trkpt><trkpt lat="45.7789296" lon="11.7732412"><ele>126.33333333333334</ele><time>2026-04-03T12:45:54.968Z</time></trkpt><trkpt lat="45.7789831" lon="11.7734603"><ele>126.0</ele><time>2026-04-03T12:45:55.937Z</time></trkpt><trkpt lat="45.7790449" lon="11.7737234"><ele>126.0</ele><time>2026-04-03T12:45:57.04Z</time></trkpt><trkpt lat="45.7791062" lon="11.7739478"><ele>126.0</ele><time>2026-04-03T12:45:57.951Z</time></trkpt><trkpt lat="45.7791742" lon="11.7742066"><ele>126.0</ele><time>2026-04-03T12:45:58.978Z</time></trkpt><trkpt lat="45.7792506" lon="11.7744432"><ele>126.0</ele><time>2026-04-03T12:45:59.933Z</time></trkpt><trkpt lat="45.7793445" lon="11.7747183"><ele>126.0</ele><time>2026-04-03T12:46:01.051Z</time></trkpt><trkpt lat="45.7794216" lon="11.7749287"><ele>126.0</ele><time>2026-04-03T12:46:01.952Z</time></trkpt><trkpt lat="45.7795082" lon="11.7751591"><ele>126.33333333333334</ele><time>2026-04-03T12:46:02.967Z</time></trkpt><trkpt lat="45.7796063" lon="11.7753918"><ele>126.66666666666667</ele><time>2026-04-03T12:46:03.981Z</time></trkpt><trkpt lat="45.779706" lon="11.7756092"><ele>127.0</ele><time>2026-04-03T12:46:04.947Z</time></trkpt><trkpt lat="45.7798099" lon="11.7758028"><ele>127.0</ele><time>2026-04-03T12:46:05.957Z</time></trkpt><trkpt lat="45.7799255" lon="11.7759909"><ele>127.0</ele><time>2026-04-03T12:46:07.053Z</time></trkpt><trkpt lat="45.7800268" lon="11.7761119"><ele>127.0</ele><time>2026-04-03T12:46:07.978Z</time></trkpt><trkpt lat="45.7801206" lon="11.7761932"><ele>127.0</ele><time>2026-04-03T12:46:08.963Z</time></trkpt><trkpt lat="45.7802135" lon="11.7762352"><ele>127.25</ele><time>2026-04-03T12:46:09.935Z</time></trkpt><trkpt lat="45.7803322" lon="11.7762333"><ele>127.5</ele><time>2026-04-03T12:46:10.978Z</time></trkpt><trkpt lat="45.7804703" lon="11.7761997"><ele>127.75</ele><time>2026-04-03T12:46:11.938Z</time></trkpt><trkpt lat="45.780613" lon="11.7761758"><ele>128.0</ele><time>2026-04-03T12:46:12.942Z</time></trkpt><trkpt lat="45.7807275" lon="11.77617"><ele>128.0</ele><time>2026-04-03T12:46:13.942Z</time></trkpt><trkpt lat="45.7808262" lon="11.7761859"><ele>128.0</ele><time>2026-04-03T12:46:14.952Z</time></trkpt><trkpt lat="45.7809095" lon="11.7762298"><ele>128.0</ele><time>2026-04-03T12:46:15.932Z</time></trkpt><trkpt lat="45.7809728" lon="11.7763085"><ele>128.0</ele><time>2026-04-03T12:46:16.968Z</time></trkpt><trkpt lat="45.781029" lon="11.7764379"><ele>128.0</ele><time>2026-04-03T12:46:17.954Z</time></trkpt><trkpt lat="45.7810861" lon="11.7766368"><ele>127.66666666666666</ele><time>2026-04-03T12:46:19.003Z</time></trkpt><trkpt lat="45.7811517" lon="11.7768646"><ele>127.33333333333334</ele><time>2026-04-03T12:46:19.948Z</time></trkpt><trkpt lat="45.7812262" lon="11.7771052"><ele>127.0</ele><time>2026-04-03T12:46:20.966Z</time></trkpt><trkpt lat="45.7812955" lon="11.7773511"><ele>127.0</ele><time>2026-04-03T12:46:21.967Z</time></trkpt><trkpt lat="45.7813861" lon="11.7776148"><ele>127.0</ele><time>2026-04-03T12:46:22.946Z</time></trkpt><trkpt lat="45.7814698" lon="11.7778559"><ele>127.0</ele><time>2026-04-03T12:46:23.947Z</time></trkpt><trkpt lat="45.7815333" lon="11.7780775"><ele>127.0</ele><time>2026-04-03T12:46:24.92Z</time></trkpt><trkpt lat="45.7815946" lon="11.7783145"><ele>127.0</ele><time>2026-04-03T12:46:25.972Z</time></trkpt><trkpt lat="45.7816447" lon="11.7785319"><ele>127.0</ele><time>2026-04-03T12:46:26.925Z</time></trkpt><trkpt lat="45.7816821" lon="11.7787654"><ele>127.33333333333334</ele><time>2026-04-03T12:46:27.942Z</time></trkpt><trkpt lat="45.7817033" lon="11.7789948"><ele>127.66666666666666</ele><time>2026-04-03T12:46:28.94Z</time></trkpt><trkpt lat="45.7817044" lon="11.779221"><ele>128.0</ele><time>2026-04-03T12:46:29.968Z</time></trkpt><trkpt lat="45.7817001" lon="11.7794235"><ele>127.5</ele><time>2026-04-03T12:46:30.94Z</time></trkpt><trkpt lat="45.7816957" lon="11.7796736"><ele>127.0</ele><time>2026-04-03T12:46:31.959Z</time></trkpt><trkpt lat="45.7816924" lon="11.7798795"><ele>126.5</ele><time>2026-04-03T12:46:32.957Z</time></trkpt><trkpt lat="45.7817037" lon="11.7800518"><ele>126.0</ele><time>2026-04-03T12:46:33.938Z</time></trkpt><trkpt lat="45.7817366" lon="11.7802081"><ele>126.0</ele><time>2026-04-03T12:46:34.933Z</time></trkpt><trkpt lat="45.7817904" lon="11.7803285"><ele>126.0</ele><time>2026-04-03T12:46:35.927Z</time></trkpt><trkpt lat="45.781874" lon="11.7804197"><ele>126.0</ele><time>2026-04-03T12:46:36.937Z</time></trkpt><trkpt lat="45.7820101" lon="11.7805104"><ele>126.0</ele><time>2026-04-03T12:46:37.965Z</time></trkpt><trkpt lat="45.7821637" lon="11.780596"><ele>126.0</ele><time>2026-04-03T12:46:38.944Z</time></trkpt><trkpt lat="45.782313" lon="11.7806871"><ele>126.0</ele><time>2026-04-03T12:46:39.937Z</time></trkpt><trkpt lat="45.7824521" lon="11.7807742"><ele>126.0</ele><time>2026-04-03T12:46:40.939Z</time></trkpt><trkpt lat="45.7825631" lon="11.7808765"><ele>126.0</ele><time>2026-04-03T12:46:41.964Z</time></trkpt><trkpt lat="45.782657" lon="11.7810046"><ele>127.0</ele><time>2026-04-03T12:46:42.939Z</time></trkpt><trkpt lat="45.7827389" lon="11.7811824"><ele>128.0</ele><time>2026-04-03T12:46:43.971Z</time></trkpt><trkpt lat="45.7828041" lon="11.7813853"><ele>129.0</ele><time>2026-04-03T12:46:44.954Z</time></trkpt><trkpt lat="45.7828702" lon="11.7816129"><ele>129.0</ele><time>2026-04-03T12:46:45.957Z</time></trkpt><trkpt lat="45.7829398" lon="11.7818461"><ele>129.0</ele><time>2026-04-03T12:46:46.983Z</time></trkpt><trkpt lat="45.783009" lon="11.7820824"><ele>129.0</ele><time>2026-04-03T12:46:47.96Z</time></trkpt><trkpt lat="45.7830804" lon="11.7823293"><ele>129.0</ele><time>2026-04-03T12:46:48.963Z</time></trkpt><trkpt lat="45.7831543" lon="11.7825741"><ele>129.0</ele><time>2026-04-03T12:46:49.937Z</time></trkpt><trkpt lat="45.7832331" lon="11.7828342"><ele>129.0</ele><time>2026-04-03T12:46:50.954Z</time></trkpt><trkpt lat="45.783313" lon="11.7831085"><ele>130.0</ele><time>2026-04-03T12:46:52.023Z</time></trkpt><trkpt lat="45.783383" lon="11.7833502"><ele>131.0</ele><time>2026-04-03T12:46:52.954Z</time></trkpt><trkpt lat="45.7834605" lon="11.7836165"><ele>132.0</ele><time>2026-04-03T12:46:53.982Z</time></trkpt><trkpt lat="45.7835407" lon="11.7838756"><ele>133.33333333333334</ele><time>2026-04-03T12:46:54.962Z</time></trkpt><trkpt lat="45.7836188" lon="11.7841356"><ele>134.66666666666669</ele><time>2026-04-03T12:46:55.959Z</time></trkpt><trkpt lat="45.7837007" lon="11.7844167"><ele>136.0</ele><time>2026-04-03T12:46:56.98Z</time></trkpt><trkpt lat="45.7837754" lon="11.7846678"><ele>136.0</ele><time>2026-04-03T12:46:57.971Z</time></trkpt><trkpt lat="45.7838409" lon="11.7849012"><ele>136.0</ele><time>2026-04-03T12:46:58.971Z</time></trkpt><trkpt lat="45.7839018" lon="11.7851262"><ele>136.0</ele><time>2026-04-03T12:46:59.988Z</time></trkpt><trkpt lat="45.7839577" lon="11.7853426"><ele>135.5</ele><time>2026-04-03T12:47:00.957Z</time></trkpt><trkpt lat="45.7840147" lon="11.7855481"><ele>135.0</ele><time>2026-04-03T12:47:01.99Z</time></trkpt><trkpt lat="45.7840715" lon="11.7857313"><ele>134.5</ele><time>2026-04-03T12:47:02.95Z</time></trkpt><trkpt lat="45.7841532" lon="11.7859101"><ele>134.0</ele><time>2026-04-03T12:47:04.013Z</time></trkpt><trkpt lat="45.7842482" lon="11.7860435"><ele>133.66666666666666</ele><time>2026-04-03T12:47:05.06Z</time></trkpt><trkpt lat="45.7844849" lon="11.7861782"><ele>133.33333333333334</ele><time>2026-04-03T12:47:06.973Z</time></trkpt><trkpt lat="45.7846412" lon="11.7862326"><ele>133.0</ele><time>2026-04-03T12:47:07.943Z</time></trkpt><trkpt lat="45.7847964" lon="11.7862968"><ele>133.0</ele><time>2026-04-03T12:47:08.97Z</time></trkpt><trkpt lat="45.7849386" lon="11.7864135"><ele>133.0</ele><time>2026-04-03T12:47:09.938Z</time></trkpt><trkpt lat="45.7851137" lon="11.7865816"><ele>133.0</ele><time>2026-04-03T12:47:10.962Z</time></trkpt><trkpt lat="45.7852992" lon="11.7867656"><ele>132.66666666666669</ele><time>2026-04-03T12:47:11.95Z</time></trkpt><trkpt lat="45.7854861" lon="11.7869594"><ele>132.33333333333334</ele><time>2026-04-03T12:47:12.963Z</time></trkpt><trkpt lat="45.7856481" lon="11.7871353"><ele>132.0</ele><time>2026-04-03T12:47:13.947Z</time></trkpt><trkpt lat="45.7858084" lon="11.7873137"><ele>132.0</ele><time>2026-04-03T12:47:14.974Z</time></trkpt><trkpt lat="45.7859653" lon="11.7874842"><ele>132.0</ele><time>2026-04-03T12:47:16.072Z</time></trkpt><trkpt lat="45.7860931" lon="11.7876251"><ele>132.0</ele><time>2026-04-03T12:47:17.006Z</time></trkpt><trkpt lat="45.7862127" lon="11.7877563"><ele>132.5</ele><time>2026-04-03T12:47:17.959Z</time></trkpt><trkpt lat="45.7863342" lon="11.7878872"><ele>133.0</ele><time>2026-04-03T12:47:18.977Z</time></trkpt><trkpt lat="45.7864458" lon="11.7880078"><ele>133.5</ele><time>2026-04-03T12:47:19.978Z</time></trkpt><trkpt lat="45.7865579" lon="11.7881012"><ele>134.0</ele><time>2026-04-03T12:47:20.93Z</time></trkpt><trkpt lat="45.7866784" lon="11.7881693"><ele>134.0</ele><time>2026-04-03T12:47:21.97Z</time></trkpt><trkpt lat="45.7867766" lon="11.7882139"><ele>134.0</ele><time>2026-04-03T12:47:22.982Z</time></trkpt><trkpt lat="45.7868489" lon="11.7882574"><ele>134.0</ele><time>2026-04-03T12:47:23.935Z</time></trkpt><trkpt lat="45.7869242" lon="11.7883123"><ele>134.0</ele><time>2026-04-03T12:47:24.96Z</time></trkpt><trkpt lat="45.7869835" lon="11.7883799"><ele>134.0</ele><time>2026-04-03T12:47:25.962Z</time></trkpt><trkpt lat="45.7870287" lon="11.788467"><ele>134.0</ele><time>2026-04-03T12:47:26.951Z</time></trkpt><trkpt lat="45.7870661" lon="11.7885805"><ele>134.25</ele><time>2026-04-03T12:47:27.95Z</time></trkpt><trkpt lat="45.7870968" lon="11.7887311"><ele>134.5</ele><time>2026-04-03T12:47:28.946Z</time></trkpt><trkpt lat="45.7871165" lon="11.7889261"><ele>134.75</ele><time>2026-04-03T12:47:29.963Z</time></trkpt><trkpt lat="45.7871295" lon="11.7891722"><ele>135.0</ele><time>2026-04-03T12:47:30.96Z</time></trkpt><trkpt lat="45.7871503" lon="11.789446"><ele>135.0</ele><time>2026-04-03T12:47:31.936Z</time></trkpt><trkpt lat="45.7871844" lon="11.7896998"><ele>135.0</ele><time>2026-04-03T12:47:32.98Z</time></trkpt><trkpt lat="45.787216" lon="11.7899095"><ele>135.0</ele><time>2026-04-03T12:47:33.934Z</time></trkpt><trkpt lat="45.7872517" lon="11.7901218"><ele>136.66666666666666</ele><time>2026-04-03T12:47:34.965Z</time></trkpt><trkpt lat="45.7873025" lon="11.7903746"><ele>138.33333333333331</ele><time>2026-04-03T12:47:35.941Z</time></trkpt><trkpt lat="45.7873517" lon="11.7906285"><ele>140.0</ele><time>2026-04-03T12:47:36.96Z</time></trkpt><trkpt lat="45.7873913" lon="11.7908551"><ele>141.66666666666666</ele><time>2026-04-03T12:47:37.953Z</time></trkpt><trkpt lat="45.7874458" lon="11.7910558"><ele>143.33333333333334</ele><time>2026-04-03T12:47:38.945Z</time></trkpt><trkpt lat="45.7875349" lon="11.7912842"><ele>145.0</ele><time>2026-04-03T12:47:39.948Z</time></trkpt><trkpt lat="45.787624" lon="11.7914781"><ele>144.5</ele><time>2026-04-03T12:47:40.946Z</time></trkpt><trkpt lat="45.7876913" lon="11.7916596"><ele>144.0</ele><time>2026-04-03T12:47:41.957Z</time></trkpt><trkpt lat="45.7877283" lon="11.7918402"><ele>143.5</ele><time>2026-04-03T12:47:42.986Z</time></trkpt><trkpt lat="45.787734" lon="11.792032"><ele>143.0</ele><time>2026-04-03T12:47:43.977Z</time></trkpt><trkpt lat="45.7877279" lon="11.7922636"><ele>145.0</ele><time>2026-04-03T12:47:44.995Z</time></trkpt><trkpt lat="45.7877236" lon="11.7924805"><ele>147.0</ele><time>2026-04-03T12:47:46.034Z</time></trkpt><trkpt lat="45.7877335" lon="11.792653"><ele>149.0</ele><time>2026-04-03T12:47:46.983Z</time></trkpt><trkpt lat="45.7877747" lon="11.7928127"><ele>151.0</ele><time>2026-04-03T12:47:47.965Z</time></trkpt><trkpt lat="45.7878192" lon="11.7929258"><ele>151.83333333333334</ele><time>2026-04-03T12:47:48.936Z</time></trkpt><trkpt lat="45.7878545" lon="11.7930145"><ele>152.66666666666669</ele><time>2026-04-03T12:47:49.972Z</time></trkpt><trkpt lat="45.7878854" lon="11.7930969"><ele>153.5</ele><time>2026-04-03T12:47:50.943Z</time></trkpt><trkpt lat="45.7879008" lon="11.7932285"><ele>154.33333333333334</ele><time>2026-04-03T12:47:52.948Z</time></trkpt><trkpt lat="45.7878882" lon="11.7933721"><ele>155.16666666666666</ele><time>2026-04-03T12:47:54.989Z</time></trkpt><trkpt lat="45.7879277" lon="11.7932569"><ele>156.0</ele><time>2026-04-03T12:47:58.987Z</time></trkpt><trkpt lat="45.7879076" lon="11.7931566"><ele>156.0</ele><time>2026-04-03T12:47:59.971Z</time></trkpt><trkpt lat="45.7878849" lon="11.7930689"><ele>156.0</ele><time>2026-04-03T12:48:00.925Z</time></trkpt><trkpt lat="45.787853" lon="11.7929726"><ele>156.0</ele><time>2026-04-03T12:48:01.966Z</time></trkpt><trkpt lat="45.7878146" lon="11.7928567"><ele>156.0</ele><time>2026-04-03T12:48:03.084Z</time></trkpt><trkpt lat="45.787785" lon="11.7927728"><ele>156.0</ele><time>2026-04-03T12:48:04.015Z</time></trkpt><trkpt lat="45.7876913" lon="11.7926734"><ele>156.0</ele><time>2026-04-03T12:48:06.043Z</time></trkpt><trkpt lat="45.7875871" lon="11.79262"><ele>154.2</ele><time>2026-04-03T12:48:08.006Z</time></trkpt><trkpt lat="45.7874545" lon="11.7926105"><ele>152.39999999999998</ele><time>2026-04-03T12:48:09.965Z</time></trkpt><trkpt lat="45.7873605" lon="11.7926377"><ele>150.6</ele><time>2026-04-03T12:48:10.945Z</time></trkpt><trkpt lat="45.7872865" lon="11.7926594"><ele>148.79999999999998</ele><time>2026-04-03T12:48:11.935Z</time></trkpt><trkpt lat="45.7872176" lon="11.7926676"><ele>147.0</ele><time>2026-04-03T12:48:12.977Z</time></trkpt><trkpt lat="45.7871139" lon="11.7926596"><ele>147.0</ele><time>2026-04-03T12:48:14.935Z</time></trkpt><trkpt lat="45.7870091" lon="11.7926556"><ele>147.0</ele><time>2026-04-03T12:48:16.982Z</time></trkpt><trkpt lat="45.7869096" lon="11.7926613"><ele>147.0</ele><time>2026-04-03T12:48:18.954Z</time></trkpt><trkpt lat="45.7868226" lon="11.7926572"><ele>147.0</ele><time>2026-04-03T12:48:20.952Z</time></trkpt><trkpt lat="45.7869062" lon="11.7926849"><ele>147.0</ele><time>2026-04-03T12:48:39.967Z</time></trkpt><trkpt lat="45.7869951" lon="11.7926766"><ele>147.0</ele><time>2026-04-03T12:48:40.972Z</time></trkpt><trkpt lat="45.7870777" lon="11.7926778"><ele>147.0</ele><time>2026-04-03T12:48:41.94Z</time></trkpt><trkpt lat="45.7871567" lon="11.7926831"><ele>147.0</ele><time>2026-04-03T12:48:42.961Z</time></trkpt><trkpt lat="45.7872263" lon="11.7926841"><ele>147.0</ele><time>2026-04-03T12:48:44.004Z</time></trkpt><trkpt lat="45.7873579" lon="11.7926594"><ele>147.0</ele><time>2026-04-03T12:48:45.954Z</time></trkpt><trkpt lat="45.7874234" lon="11.7926372"><ele>147.0</ele><time>2026-04-03T12:48:47.011Z</time></trkpt><trkpt lat="45.7875136" lon="11.7926357"><ele>147.0</ele><time>2026-04-03T12:48:48.929Z</time></trkpt><trkpt lat="45.7875748" lon="11.7926586"><ele>147.0</ele><time>2026-04-03T12:48:49.932Z</time></trkpt><trkpt lat="45.7876676" lon="11.792711"><ele>147.0</ele><time>2026-04-03T12:48:51.958Z</time></trkpt><trkpt lat="45.7877194" lon="11.7926436"><ele>147.0</ele><time>2026-04-03T12:49:10.974Z</time></trkpt><trkpt lat="45.7877226" lon="11.7924021"><ele>147.0</ele><time>2026-04-03T12:49:12.936Z</time></trkpt><trkpt lat="45.7877349" lon="11.7922058"><ele>146.6</ele><time>2026-04-03T12:49:13.952Z</time></trkpt><trkpt lat="45.7877385" lon="11.7920278"><ele>146.2</ele><time>2026-04-03T12:49:14.985Z</time></trkpt><trkpt lat="45.7877247" lon="11.7918769"><ele>145.8</ele><time>2026-04-03T12:49:15.944Z</time></trkpt><trkpt lat="45.7876974" lon="11.7917268"><ele>145.4</ele><time>2026-04-03T12:49:16.963Z</time></trkpt><trkpt lat="45.7876521" lon="11.7915875"><ele>145.0</ele><time>2026-04-03T12:49:17.969Z</time></trkpt><trkpt lat="45.7875792" lon="11.7914416"><ele>145.0</ele><time>2026-04-03T12:49:18.983Z</time></trkpt><trkpt lat="45.7875028" lon="11.7912917"><ele>145.0</ele><time>2026-04-03T12:49:19.953Z</time></trkpt><trkpt lat="45.7874336" lon="11.7911203"><ele>145.0</ele><time>2026-04-03T12:49:20.997Z</time></trkpt><trkpt lat="45.7873901" lon="11.7909501"><ele>145.0</ele><time>2026-04-03T12:49:21.971Z</time></trkpt><trkpt lat="45.78736" lon="11.7907671"><ele>143.75</ele><time>2026-04-03T12:49:22.964Z</time></trkpt><trkpt lat="45.7873357" lon="11.7906017"><ele>142.5</ele><time>2026-04-03T12:49:23.96Z</time></trkpt><trkpt lat="45.7873113" lon="11.7904297"><ele>141.25</ele><time>2026-04-03T12:49:24.947Z</time></trkpt><trkpt lat="45.7872819" lon="11.7902312"><ele>140.0</ele><time>2026-04-03T12:49:26.091Z</time></trkpt><trkpt lat="45.7872308" lon="11.7898937"><ele>138.75</ele><time>2026-04-03T12:49:27.962Z</time></trkpt><trkpt lat="45.7872011" lon="11.7896891"><ele>137.5</ele><time>2026-04-03T12:49:29.007Z</time></trkpt><trkpt lat="45.7871796" lon="11.7895075"><ele>136.25</ele><time>2026-04-03T12:49:29.965Z</time></trkpt><trkpt lat="45.787159" lon="11.7893386"><ele>135.0</ele><time>2026-04-03T12:49:30.965Z</time></trkpt><trkpt lat="45.7871476" lon="11.7891679"><ele>135.0</ele><time>2026-04-03T12:49:31.953Z</time></trkpt><trkpt lat="45.7871362" lon="11.7889716"><ele>135.0</ele><time>2026-04-03T12:49:32.979Z</time></trkpt><trkpt lat="45.7871209" lon="11.7887798"><ele>135.0</ele><time>2026-04-03T12:49:34.05Z</time></trkpt><trkpt lat="45.7871052" lon="11.7886353"><ele>135.0</ele><time>2026-04-03T12:49:35.011Z</time></trkpt><trkpt lat="45.7870767" lon="11.7885142"><ele>135.33333333333334</ele><time>2026-04-03T12:49:35.984Z</time></trkpt><trkpt lat="45.78704" lon="11.7884218"><ele>135.66666666666666</ele><time>2026-04-03T12:49:36.966Z</time></trkpt><trkpt lat="45.7870164" lon="11.7883367"><ele>136.0</ele><time>2026-04-03T12:49:37.985Z</time></trkpt><trkpt lat="45.7870209" lon="11.7882437"><ele>136.33333333333331</ele><time>2026-04-03T12:49:38.983Z</time></trkpt><trkpt lat="45.7870484" lon="11.788137"><ele>136.66666666666666</ele><time>2026-04-03T12:49:39.972Z</time></trkpt><trkpt lat="45.7870938" lon="11.7880424"><ele>137.0</ele><time>2026-04-03T12:49:40.975Z</time></trkpt><trkpt lat="45.7871594" lon="11.7879418"><ele>137.0</ele><time>2026-04-03T12:49:41.995Z</time></trkpt><trkpt lat="45.7872469" lon="11.7878577"><ele>137.0</ele><time>2026-04-03T12:49:42.983Z</time></trkpt><trkpt lat="45.787353" lon="11.7878212"><ele>137.0</ele><time>2026-04-03T12:49:44.011Z</time></trkpt><trkpt lat="45.7874572" lon="11.787822"><ele>137.0</ele><time>2026-04-03T12:49:44.984Z</time></trkpt><trkpt lat="45.787576" lon="11.7878381"><ele>137.0</ele><time>2026-04-03T12:49:46.115Z</time></trkpt><trkpt lat="45.7878218" lon="11.7878355"><ele>137.66666666666666</ele><time>2026-04-03T12:49:47.969Z</time></trkpt><trkpt lat="45.7879622" lon="11.7878078"><ele>138.33333333333334</ele><time>2026-04-03T12:49:49.095Z</time></trkpt><trkpt lat="45.7882174" lon="11.7877276"><ele>139.0</ele><time>2026-04-03T12:49:50.951Z</time></trkpt><trkpt lat="45.7883615" lon="11.787713"><ele>139.0</ele><time>2026-04-03T12:49:51.97Z</time></trkpt><trkpt lat="45.7884725" lon="11.7877542"><ele>139.0</ele><time>2026-04-03T12:49:53.118Z</time></trkpt><trkpt lat="45.7886514" lon="11.7879064"><ele>139.0</ele><time>2026-04-03T12:49:54.968Z</time></trkpt><trkpt lat="45.7887195" lon="11.7880033"><ele>139.0</ele><time>2026-04-03T12:49:55.945Z</time></trkpt><trkpt lat="45.7887956" lon="11.7881082"><ele>139.0</ele><time>2026-04-03T12:49:57.063Z</time></trkpt><trkpt lat="45.7889299" lon="11.788226"><ele>139.0</ele><time>2026-04-03T12:49:58.939Z</time></trkpt><trkpt lat="45.7890388" lon="11.7882487"><ele>139.0</ele><time>2026-04-03T12:50:00.978Z</time></trkpt><trkpt lat="45.7891227" lon="11.7881469"><ele>139.0</ele><time>2026-04-03T12:50:02.961Z</time></trkpt><trkpt lat="45.7891858" lon="11.7880471"><ele>139.0</ele><time>2026-04-03T12:50:03.972Z</time></trkpt><trkpt lat="45.7892648" lon="11.7879647"><ele>139.0</ele><time>2026-04-03T12:50:04.94Z</time></trkpt><trkpt lat="45.7893491" lon="11.7878892"><ele>139.0</ele><time>2026-04-03T12:50:05.955Z</time></trkpt><trkpt lat="45.7894191" lon="11.7878003"><ele>139.0</ele><time>2026-04-03T12:50:06.962Z</time></trkpt><trkpt lat="45.7894678" lon="11.7876797"><ele>139.0</ele><time>2026-04-03T12:50:07.992Z</time></trkpt><trkpt lat="45.7895037" lon="11.7875148"><ele>139.0</ele><time>2026-04-03T12:50:08.975Z</time></trkpt><trkpt lat="45.7895434" lon="11.7873384"><ele>139.0</ele><time>2026-04-03T12:50:10.008Z</time></trkpt><trkpt lat="45.7895879" lon="11.7872103"><ele>139.0</ele><time>2026-04-03T12:50:10.943Z</time></trkpt><trkpt lat="45.7896483" lon="11.7871091"><ele>139.0</ele><time>2026-04-03T12:50:11.987Z</time></trkpt><trkpt lat="45.7897157" lon="11.7870537"><ele>139.0</ele><time>2026-04-03T12:50:12.941Z</time></trkpt><trkpt lat="45.7898201" lon="11.787018"><ele>139.0</ele><time>2026-04-03T12:50:13.966Z</time></trkpt><trkpt lat="45.7899555" lon="11.7870019"><ele>139.0</ele><time>2026-04-03T12:50:14.975Z</time></trkpt><trkpt lat="45.7900636" lon="11.7870147"><ele>139.0</ele><time>2026-04-03T12:50:15.974Z</time></trkpt><trkpt lat="45.7901622" lon="11.7870527"><ele>139.0</ele><time>2026-04-03T12:50:17.007Z</time></trkpt><trkpt lat="45.7902508" lon="11.7871175"><ele>139.0</ele><time>2026-04-03T12:50:17.945Z</time></trkpt><trkpt lat="45.7903668" lon="11.7872341"><ele>139.25</ele><time>2026-04-03T12:50:18.954Z</time></trkpt><trkpt lat="45.7904814" lon="11.7873348"><ele>139.5</ele><time>2026-04-03T12:50:19.981Z</time></trkpt><trkpt lat="45.79061" lon="11.7873975"><ele>139.75</ele><time>2026-04-03T12:50:20.951Z</time></trkpt><trkpt lat="45.7907797" lon="11.7874536"><ele>140.0</ele><time>2026-04-03T12:50:22.074Z</time></trkpt><trkpt lat="45.7910738" lon="11.7875024"><ele>141.0</ele><time>2026-04-03T12:50:23.997Z</time></trkpt><trkpt lat="45.791223" lon="11.7875097"><ele>142.0</ele><time>2026-04-03T12:50:24.996Z</time></trkpt><trkpt lat="45.7913658" lon="11.7875202"><ele>143.0</ele><time>2026-04-03T12:50:25.979Z</time></trkpt><trkpt lat="45.7915074" lon="11.7875393"><ele>144.0</ele><time>2026-04-03T12:50:26.984Z</time></trkpt><trkpt lat="45.7916508" lon="11.7875488"><ele>144.0</ele><time>2026-04-03T12:50:27.948Z</time></trkpt><trkpt lat="45.7918116" lon="11.7875332"><ele>144.0</ele><time>2026-04-03T12:50:28.975Z</time></trkpt><trkpt lat="45.7919709" lon="11.787491"><ele>144.0</ele><time>2026-04-03T12:50:29.978Z</time></trkpt><trkpt lat="45.7920997" lon="11.7874618"><ele>144.2</ele><time>2026-04-03T12:50:30.979Z</time></trkpt><trkpt lat="45.7921992" lon="11.7874417"><ele>144.4</ele><time>2026-04-03T12:50:31.976Z</time></trkpt><trkpt lat="45.7922958" lon="11.7874147"><ele>144.6</ele><time>2026-04-03T12:50:32.968Z</time></trkpt><trkpt lat="45.7923768" lon="11.7873612"><ele>144.8</ele><time>2026-04-03T12:50:33.922Z</time></trkpt><trkpt lat="45.7924632" lon="11.7872477"><ele>145.0</ele><time>2026-04-03T12:50:34.958Z</time></trkpt><trkpt lat="45.7925464" lon="11.7870892"><ele>145.0</ele><time>2026-04-03T12:50:35.932Z</time></trkpt><trkpt lat="45.7926372" lon="11.7868796"><ele>145.0</ele><time>2026-04-03T12:50:36.989Z</time></trkpt><trkpt lat="45.7927187" lon="11.7866942"><ele>145.0</ele><time>2026-04-03T12:50:37.942Z</time></trkpt><trkpt lat="45.7928064" lon="11.7865189"><ele>145.0</ele><time>2026-04-03T12:50:38.965Z</time></trkpt><trkpt lat="45.7928981" lon="11.7863689"><ele>145.0</ele><time>2026-04-03T12:50:39.972Z</time></trkpt><trkpt lat="45.792997" lon="11.7862282"><ele>145.0</ele><time>2026-04-03T12:50:40.974Z</time></trkpt><trkpt lat="45.7931025" lon="11.7860971"><ele>145.0</ele><time>2026-04-03T12:50:41.985Z</time></trkpt><trkpt lat="45.7932041" lon="11.7859769"><ele>145.0</ele><time>2026-04-03T12:50:42.967Z</time></trkpt><trkpt lat="45.7933028" lon="11.785866"><ele>145.0</ele><time>2026-04-03T12:50:43.944Z</time></trkpt><trkpt lat="45.7934089" lon="11.7857619"><ele>145.0</ele><time>2026-04-03T12:50:44.968Z</time></trkpt><trkpt lat="45.7935149" lon="11.7856729"><ele>145.0</ele><time>2026-04-03T12:50:45.965Z</time></trkpt><trkpt lat="45.7936351" lon="11.7856002"><ele>145.75</ele><time>2026-04-03T12:50:46.984Z</time></trkpt><trkpt lat="45.7937537" lon="11.7855318"><ele>146.5</ele><time>2026-04-03T12:50:47.968Z</time></trkpt><trkpt lat="45.7938723" lon="11.7854628"><ele>147.25</ele><time>2026-04-03T12:50:48.994Z</time></trkpt><trkpt lat="45.7939799" lon="11.7853897"><ele>148.0</ele><time>2026-04-03T12:50:49.974Z</time></trkpt><trkpt lat="45.7940889" lon="11.785309"><ele>148.0</ele><time>2026-04-03T12:50:50.987Z</time></trkpt><trkpt lat="45.7941875" lon="11.7852161"><ele>148.0</ele><time>2026-04-03T12:50:51.982Z</time></trkpt><trkpt lat="45.7943042" lon="11.7851236"><ele>148.0</ele><time>2026-04-03T12:50:52.978Z</time></trkpt><trkpt lat="45.7944122" lon="11.7850213"><ele>148.0</ele><time>2026-04-03T12:50:54.07Z</time></trkpt><trkpt lat="45.7945011" lon="11.784933"><ele>148.20000000000002</ele><time>2026-04-03T12:50:54.996Z</time></trkpt><trkpt lat="45.7945936" lon="11.7848432"><ele>148.4</ele><time>2026-04-03T12:50:55.996Z</time></trkpt><trkpt lat="45.7946751" lon="11.7847585"><ele>148.60000000000002</ele><time>2026-04-03T12:50:57Z</time></trkpt><trkpt lat="45.7947384" lon="11.7846957"><ele>148.8</ele><time>2026-04-03T12:50:58.008Z</time></trkpt><trkpt lat="45.794808" lon="11.7846451"><ele>149.0</ele><time>2026-04-03T12:50:58.979Z</time></trkpt><trkpt lat="45.7949001" lon="11.7846121"><ele>149.0</ele><time>2026-04-03T12:51:00.069Z</time></trkpt><trkpt lat="45.7949916" lon="11.7845722"><ele>149.0</ele><time>2026-04-03T12:51:00.986Z</time></trkpt><trkpt lat="45.7951039" lon="11.7845099"><ele>149.0</ele><time>2026-04-03T12:51:01.991Z</time></trkpt><trkpt lat="45.7952044" lon="11.7844364"><ele>149.0</ele><time>2026-04-03T12:51:03.007Z</time></trkpt><trkpt lat="45.7953222" lon="11.7843498"><ele>149.0</ele><time>2026-04-03T12:51:03.965Z</time></trkpt><trkpt lat="45.7954507" lon="11.7842807"><ele>149.0</ele><time>2026-04-03T12:51:04.946Z</time></trkpt><trkpt lat="45.7955935" lon="11.7842249"><ele>149.0</ele><time>2026-04-03T12:51:06.031Z</time></trkpt><trkpt lat="45.7957229" lon="11.7841766"><ele>149.0</ele><time>2026-04-03T12:51:06.937Z</time></trkpt><trkpt lat="45.7958722" lon="11.7841387"><ele>149.0</ele><time>2026-04-03T12:51:08.022Z</time></trkpt><trkpt lat="45.7959852" lon="11.7841191"><ele>149.0</ele><time>2026-04-03T12:51:08.941Z</time></trkpt><trkpt lat="45.7960981" lon="11.7841091"><ele>149.0</ele><time>2026-04-03T12:51:09.995Z</time></trkpt><trkpt lat="45.7961863" lon="11.7840921"><ele>149.0</ele><time>2026-04-03T12:51:11.038Z</time></trkpt><trkpt lat="45.7962734" lon="11.7840567"><ele>149.0</ele><time>2026-04-03T12:51:12.971Z</time></trkpt><trkpt lat="45.7963765" lon="11.7840486"><ele>149.8</ele><time>2026-04-03T12:51:15.952Z</time></trkpt><trkpt lat="45.7965008" lon="11.7840662"><ele>150.60000000000002</ele><time>2026-04-03T12:51:18.063Z</time></trkpt><trkpt lat="45.7966007" lon="11.7840993"><ele>151.4</ele><time>2026-04-03T12:51:20.997Z</time></trkpt><trkpt lat="45.7966669" lon="11.7841069"><ele>152.20000000000002</ele><time>2026-04-03T12:51:22.982Z</time></trkpt><trkpt lat="45.7965939" lon="11.7841189"><ele>153.0</ele><time>2026-04-03T12:51:32.993Z</time></trkpt><trkpt lat="45.7966657" lon="11.7842564"><ele>152.8</ele><time>2026-04-03T12:51:36.079Z</time></trkpt><trkpt lat="45.796758" lon="11.7843662"><ele>152.60000000000002</ele><time>2026-04-03T12:51:37.985Z</time></trkpt><trkpt lat="45.796816" lon="11.7844204"><ele>152.39999999999998</ele><time>2026-04-03T12:51:38.98Z</time></trkpt><trkpt lat="45.7968981" lon="11.7844906"><ele>152.2</ele><time>2026-04-03T12:51:39.974Z</time></trkpt><trkpt lat="45.7969737" lon="11.7845612"><ele>152.0</ele><time>2026-04-03T12:51:40.926Z</time></trkpt><trkpt lat="45.797054" lon="11.784616"><ele>152.0</ele><time>2026-04-03T12:51:41.984Z</time></trkpt><trkpt lat="45.7971345" lon="11.7846508"><ele>152.0</ele><time>2026-04-03T12:51:42.99Z</time></trkpt><trkpt lat="45.7972154" lon="11.7846754"><ele>152.0</ele><time>2026-04-03T12:51:43.999Z</time></trkpt><trkpt lat="45.7973069" lon="11.7846939"><ele>152.0</ele><time>2026-04-03T12:51:45.018Z</time></trkpt><trkpt lat="45.7974088" lon="11.7847047"><ele>152.0</ele><time>2026-04-03T12:51:46.031Z</time></trkpt><trkpt lat="45.7975215" lon="11.7847189"><ele>152.66666666666666</ele><time>2026-04-03T12:51:46.968Z</time></trkpt><trkpt lat="45.7976701" lon="11.7847206"><ele>153.33333333333334</ele><time>2026-04-03T12:51:47.988Z</time></trkpt><trkpt lat="45.7978243" lon="11.784714"><ele>154.0</ele><time>2026-04-03T12:51:48.99Z</time></trkpt><trkpt lat="45.7979779" lon="11.784701"><ele>154.0</ele><time>2026-04-03T12:51:49.954Z</time></trkpt><trkpt lat="45.7981607" lon="11.7846896"><ele>154.0</ele><time>2026-04-03T12:51:50.959Z</time></trkpt><trkpt lat="45.7983447" lon="11.7846916"><ele>154.0</ele><time>2026-04-03T12:51:51.984Z</time></trkpt><trkpt lat="45.7984932" lon="11.784685"><ele>153.75</ele><time>2026-04-03T12:51:52.981Z</time></trkpt><trkpt lat="45.7985999" lon="11.7846863"><ele>153.5</ele><time>2026-04-03T12:51:53.962Z</time></trkpt><trkpt lat="45.7987274" lon="11.7846715"><ele>153.25</ele><time>2026-04-03T12:51:54.969Z</time></trkpt><trkpt lat="45.798872" lon="11.7846371"><ele>153.0</ele><time>2026-04-03T12:51:56.001Z</time></trkpt><trkpt lat="45.7990231" lon="11.7845977"><ele>153.0</ele><time>2026-04-03T12:51:56.966Z</time></trkpt><trkpt lat="45.7991673" lon="11.7845634"><ele>153.0</ele><time>2026-04-03T12:51:57.956Z</time></trkpt><trkpt lat="45.7993149" lon="11.7845255"><ele>153.0</ele><time>2026-04-03T12:51:59.083Z</time></trkpt><trkpt lat="45.7994423" lon="11.7844911"><ele>153.0</ele><time>2026-04-03T12:52:00.164Z</time></trkpt><trkpt lat="45.7996242" lon="11.7843834"><ele>154.25</ele><time>2026-04-03T12:52:01.987Z</time></trkpt><trkpt lat="45.7997444" lon="11.7843134"><ele>155.5</ele><time>2026-04-03T12:52:02.958Z</time></trkpt><trkpt lat="45.7998937" lon="11.7842496"><ele>156.75</ele><time>2026-04-03T12:52:03.993Z</time></trkpt><trkpt lat="45.8000308" lon="11.7842054"><ele>158.0</ele><time>2026-04-03T12:52:05.009Z</time></trkpt><trkpt lat="45.8001157" lon="11.7841614"><ele>157.20000000000002</ele><time>2026-04-03T12:52:05.981Z</time></trkpt><trkpt lat="45.8001988" lon="11.7841261"><ele>156.4</ele><time>2026-04-03T12:52:06.979Z</time></trkpt><trkpt lat="45.8002591" lon="11.7840881"><ele>155.60000000000002</ele><time>2026-04-03T12:52:07.978Z</time></trkpt><trkpt lat="45.800338" lon="11.7840055"><ele>154.8</ele><time>2026-04-03T12:52:09.943Z</time></trkpt><trkpt lat="45.8003996" lon="11.7839256"><ele>154.0</ele><time>2026-04-03T12:52:11.963Z</time></trkpt><trkpt lat="45.8005121" lon="11.783781"><ele>154.0</ele><time>2026-04-03T12:52:13.988Z</time></trkpt><trkpt lat="45.800578" lon="11.7836938"><ele>154.0</ele><time>2026-04-03T12:52:15.002Z</time></trkpt><trkpt lat="45.8007093" lon="11.7836175"><ele>154.0</ele><time>2026-04-03T12:52:16.074Z</time></trkpt><trkpt lat="45.8008597" lon="11.7835695"><ele>154.0</ele><time>2026-04-03T12:52:16.982Z</time></trkpt><trkpt lat="45.8010514" lon="11.7835273"><ele>155.0</ele><time>2026-04-03T12:52:17.978Z</time></trkpt><trkpt lat="45.8012344" lon="11.7834956"><ele>156.0</ele><time>2026-04-03T12:52:18.957Z</time></trkpt><trkpt lat="45.80141" lon="11.7834477"><ele>157.0</ele><time>2026-04-03T12:52:19.948Z</time></trkpt><trkpt lat="45.8015791" lon="11.7833865"><ele>157.0</ele><time>2026-04-03T12:52:20.939Z</time></trkpt><trkpt lat="45.8017111" lon="11.7833221"><ele>157.0</ele><time>2026-04-03T12:52:22.094Z</time></trkpt><trkpt lat="45.8018141" lon="11.7832872"><ele>157.0</ele><time>2026-04-03T12:52:22.987Z</time></trkpt><trkpt lat="45.801909" lon="11.7832532"><ele>157.0</ele><time>2026-04-03T12:52:23.955Z</time></trkpt><trkpt lat="45.8020046" lon="11.7832105"><ele>157.0</ele><time>2026-04-03T12:52:25.025Z</time></trkpt><trkpt lat="45.8020851" lon="11.7831659"><ele>157.16666666666669</ele><time>2026-04-03T12:52:25.989Z</time></trkpt><trkpt lat="45.802166" lon="11.7831219"><ele>157.33333333333334</ele><time>2026-04-03T12:52:26.978Z</time></trkpt><trkpt lat="45.8022462" lon="11.7830778"><ele>157.5</ele><time>2026-04-03T12:52:27.982Z</time></trkpt><trkpt lat="45.8023235" lon="11.7830402"><ele>157.66666666666666</ele><time>2026-04-03T12:52:28.944Z</time></trkpt><trkpt lat="45.8024065" lon="11.7830198"><ele>157.83333333333331</ele><time>2026-04-03T12:52:29.999Z</time></trkpt><trkpt lat="45.8024864" lon="11.7830307"><ele>158.0</ele><time>2026-04-03T12:52:30.981Z</time></trkpt><trkpt lat="45.8026094" lon="11.7830717"><ele>158.0</ele><time>2026-04-03T12:52:31.989Z</time></trkpt><trkpt lat="45.8027279" lon="11.7831047"><ele>158.0</ele><time>2026-04-03T12:52:32.951Z</time></trkpt><trkpt lat="45.8028412" lon="11.7831414"><ele>158.0</ele><time>2026-04-03T12:52:33.972Z</time></trkpt><trkpt lat="45.8029495" lon="11.7831727"><ele>158.0</ele><time>2026-04-03T12:52:35.03Z</time></trkpt><trkpt lat="45.8030238" lon="11.7831891"><ele>158.0</ele><time>2026-04-03T12:52:35.972Z</time></trkpt><trkpt lat="45.8030937" lon="11.7831973"><ele>158.0</ele><time>2026-04-03T12:52:36.954Z</time></trkpt><trkpt lat="45.8031837" lon="11.7832292"><ele>158.0</ele><time>2026-04-03T12:52:38.968Z</time></trkpt><trkpt lat="45.8032757" lon="11.7833015"><ele>158.0</ele><time>2026-04-03T12:52:40.973Z</time></trkpt><trkpt lat="45.8033548" lon="11.7833496"><ele>158.0</ele><time>2026-04-03T12:52:42.993Z</time></trkpt><trkpt lat="45.8035631" lon="11.7833441"><ele>159.5</ele><time>2026-04-03T12:52:46.004Z</time></trkpt><trkpt lat="45.8036969" lon="11.7833225"><ele>161.0</ele><time>2026-04-03T12:52:47.005Z</time></trkpt><trkpt lat="45.8038477" lon="11.7833092"><ele>162.5</ele><time>2026-04-03T12:52:47.971Z</time></trkpt><trkpt lat="45.8039685" lon="11.7833036"><ele>164.0</ele><time>2026-04-03T12:52:48.963Z</time></trkpt><trkpt lat="45.8040635" lon="11.7833003"><ele>164.0</ele><time>2026-04-03T12:52:49.948Z</time></trkpt><trkpt lat="45.8041526" lon="11.7832918"><ele>164.0</ele><time>2026-04-03T12:52:50.959Z</time></trkpt><trkpt lat="45.8042366" lon="11.7832709"><ele>164.0</ele><time>2026-04-03T12:52:51.972Z</time></trkpt><trkpt lat="45.8043143" lon="11.7832364"><ele>164.0</ele><time>2026-04-03T12:52:52.96Z</time></trkpt><trkpt lat="45.8044143" lon="11.783163"><ele>164.0</ele><time>2026-04-03T12:52:53.953Z</time></trkpt><trkpt lat="45.8045433" lon="11.7830521"><ele>165.33333333333331</ele><time>2026-04-03T12:52:54.991Z</time></trkpt><trkpt lat="45.8046525" lon="11.7829607"><ele>166.66666666666666</ele><time>2026-04-03T12:52:55.97Z</time></trkpt><trkpt lat="45.8047997" lon="11.7828583"><ele>168.0</ele><time>2026-04-03T12:52:56.978Z</time></trkpt><trkpt lat="45.8049681" lon="11.7827442"><ele>165.66666666666666</ele><time>2026-04-03T12:52:57.974Z</time></trkpt><trkpt lat="45.8051587" lon="11.7826108"><ele>163.33333333333331</ele><time>2026-04-03T12:52:59.009Z</time></trkpt><trkpt lat="45.8053497" lon="11.7824858"><ele>161.0</ele><time>2026-04-03T12:53:00.073Z</time></trkpt><trkpt lat="45.8055007" lon="11.7823895"><ele>161.0</ele><time>2026-04-03T12:53:00.989Z</time></trkpt><trkpt lat="45.8056616" lon="11.7822837"><ele>161.0</ele><time>2026-04-03T12:53:01.978Z</time></trkpt><trkpt lat="45.8058267" lon="11.782167"><ele>161.0</ele><time>2026-04-03T12:53:03.065Z</time></trkpt><trkpt lat="45.8059629" lon="11.7820696"><ele>161.0</ele><time>2026-04-03T12:53:04.016Z</time></trkpt><trkpt lat="45.8060782" lon="11.7819828"><ele>161.0</ele><time>2026-04-03T12:53:04.985Z</time></trkpt><trkpt lat="45.8061571" lon="11.7819253"><ele>161.0</ele><time>2026-04-03T12:53:05.951Z</time></trkpt><trkpt lat="45.8062275" lon="11.7818856"><ele>161.0</ele><time>2026-04-03T12:53:19.978Z</time></trkpt><trkpt lat="45.8061631" lon="11.7818648"><ele>161.0</ele><time>2026-04-03T12:53:25.956Z</time></trkpt><trkpt lat="45.8060966" lon="11.7819453"><ele>161.0</ele><time>2026-04-03T12:53:26.981Z</time></trkpt><trkpt lat="45.806025" lon="11.7820092"><ele>161.0</ele><time>2026-04-03T12:53:27.999Z</time></trkpt><trkpt lat="45.8059078" lon="11.7820969"><ele>161.0</ele><time>2026-04-03T12:53:28.979Z</time></trkpt><trkpt lat="45.805772" lon="11.7821912"><ele>161.0</ele><time>2026-04-03T12:53:29.964Z</time></trkpt><trkpt lat="45.8056056" lon="11.7823108"><ele>161.0</ele><time>2026-04-03T12:53:30.981Z</time></trkpt><trkpt lat="45.805464" lon="11.7824123"><ele>161.0</ele><time>2026-04-03T12:53:31.941Z</time></trkpt><trkpt lat="45.8053177" lon="11.7825113"><ele>161.0</ele><time>2026-04-03T12:53:32.993Z</time></trkpt><trkpt lat="45.805188" lon="11.7825933"><ele>160.75</ele><time>2026-04-03T12:53:33.99Z</time></trkpt><trkpt lat="45.8050656" lon="11.7826702"><ele>160.5</ele><time>2026-04-03T12:53:34.999Z</time></trkpt><trkpt lat="45.8049565" lon="11.7827422"><ele>160.25</ele><time>2026-04-03T12:53:35.978Z</time></trkpt><trkpt lat="45.8048481" lon="11.7828197"><ele>160.0</ele><time>2026-04-03T12:53:36.973Z</time></trkpt><trkpt lat="45.8047497" lon="11.7828923"><ele>160.66666666666669</ele><time>2026-04-03T12:53:37.952Z</time></trkpt><trkpt lat="45.8046649" lon="11.7829561"><ele>161.33333333333334</ele><time>2026-04-03T12:53:38.945Z</time></trkpt><trkpt lat="45.8045849" lon="11.7830191"><ele>162.0</ele><time>2026-04-03T12:53:39.997Z</time></trkpt><trkpt lat="45.8045145" lon="11.7830777"><ele>162.66666666666666</ele><time>2026-04-03T12:53:40.96Z</time></trkpt><trkpt lat="45.8044513" lon="11.7831369"><ele>163.33333333333331</ele><time>2026-04-03T12:53:41.969Z</time></trkpt><trkpt lat="45.8043867" lon="11.7831937"><ele>164.0</ele><time>2026-04-03T12:53:42.991Z</time></trkpt><trkpt lat="45.8043182" lon="11.783237"><ele>164.0</ele><time>2026-04-03T12:53:43.95Z</time></trkpt><trkpt lat="45.8042321" lon="11.7832729"><ele>164.0</ele><time>2026-04-03T12:53:44.987Z</time></trkpt><trkpt lat="45.8041457" lon="11.7832878"><ele>164.0</ele><time>2026-04-03T12:53:45.944Z</time></trkpt><trkpt lat="45.8040403" lon="11.7832981"><ele>164.0</ele><time>2026-04-03T12:53:46.974Z</time></trkpt><trkpt lat="45.8039304" lon="11.7833053"><ele>164.0</ele><time>2026-04-03T12:53:47.975Z</time></trkpt><trkpt lat="45.8038136" lon="11.7833159"><ele>164.0</ele><time>2026-04-03T12:53:48.968Z</time></trkpt><trkpt lat="45.8037125" lon="11.7833232"><ele>164.0</ele><time>2026-04-03T12:53:49.95Z</time></trkpt><trkpt lat="45.8036246" lon="11.7833337"><ele>164.0</ele><time>2026-04-03T12:53:50.995Z</time></trkpt><trkpt lat="45.8035467" lon="11.7833445"><ele>164.0</ele><time>2026-04-03T12:53:51.988Z</time></trkpt><trkpt lat="45.8034413" lon="11.7833605"><ele>164.0</ele><time>2026-04-03T12:53:53.947Z</time></trkpt><trkpt lat="45.8033627" lon="11.7833989"><ele>162.79999999999998</ele><time>2026-04-03T12:53:55.992Z</time></trkpt><trkpt lat="45.8033099" lon="11.7834851"><ele>161.6</ele><time>2026-04-03T12:53:58.034Z</time></trkpt><trkpt lat="45.8032785" lon="11.7836273"><ele>160.4</ele><time>2026-04-03T12:53:59.952Z</time></trkpt><trkpt lat="45.8032654" lon="11.783807"><ele>159.2</ele><time>2026-04-03T12:54:01.954Z</time></trkpt><trkpt lat="45.8032578" lon="11.7839047"><ele>158.0</ele><time>2026-04-03T12:54:03.12Z</time></trkpt><trkpt lat="45.8032903" lon="11.7840915"><ele>158.0</ele><time>2026-04-03T12:54:05.119Z</time></trkpt><trkpt lat="45.8033273" lon="11.7842878"><ele>158.0</ele><time>2026-04-03T12:54:06.976Z</time></trkpt><trkpt lat="45.8033357" lon="11.7843964"><ele>158.0</ele><time>2026-04-03T12:54:08.004Z</time></trkpt><trkpt lat="45.8033127" lon="11.7845395"><ele>158.0</ele><time>2026-04-03T12:54:09.992Z</time></trkpt><trkpt lat="45.8033024" lon="11.7847092"><ele>158.0</ele><time>2026-04-03T12:54:11.951Z</time></trkpt><trkpt lat="45.8032745" lon="11.7848037"><ele>158.16666666666666</ele><time>2026-04-03T12:54:12.965Z</time></trkpt><trkpt lat="45.8032626" lon="11.7848984"><ele>158.33333333333331</ele><time>2026-04-03T12:54:15.951Z</time></trkpt><trkpt lat="45.803229" lon="11.7850029"><ele>158.5</ele><time>2026-04-03T12:54:17.944Z</time></trkpt><trkpt lat="45.8031994" lon="11.7850859"><ele>158.66666666666666</ele><time>2026-04-03T12:54:19.079Z</time></trkpt><trkpt lat="45.8031694" lon="11.7851657"><ele>158.83333333333334</ele><time>2026-04-03T12:54:20.964Z</time></trkpt><trkpt lat="45.8031378" lon="11.785246"><ele>159.0</ele><time>2026-04-03T12:54:22.95Z</time></trkpt><trkpt lat="45.8030473" lon="11.785359"><ele>159.5</ele><time>2026-04-03T12:54:24.989Z</time></trkpt><trkpt lat="45.802998" lon="11.7854342"><ele>160.0</ele><time>2026-04-03T12:54:25.988Z</time></trkpt><trkpt lat="45.8029513" lon="11.7855162"><ele>160.5</ele><time>2026-04-03T12:54:26.983Z</time></trkpt><trkpt lat="45.8029156" lon="11.7856033"><ele>161.0</ele><time>2026-04-03T12:54:27.975Z</time></trkpt><trkpt lat="45.8028687" lon="11.7857433"><ele>161.5</ele><time>2026-04-03T12:54:29.959Z</time></trkpt><trkpt lat="45.8028373" lon="11.7858443"><ele>162.0</ele><time>2026-04-03T12:54:30.995Z</time></trkpt><trkpt lat="45.8028004" lon="11.7859507"><ele>162.39999999999998</ele><time>2026-04-03T12:54:31.976Z</time></trkpt><trkpt lat="45.8027569" lon="11.7860571"><ele>162.79999999999998</ele><time>2026-04-03T12:54:33.088Z</time></trkpt><trkpt lat="45.802685" lon="11.7861721"><ele>163.2</ele><time>2026-04-03T12:54:34.948Z</time></trkpt><trkpt lat="45.8026276" lon="11.7862425"><ele>163.6</ele><time>2026-04-03T12:54:36.951Z</time></trkpt><trkpt lat="45.8025877" lon="11.7863964"><ele>164.0</ele><time>2026-04-03T12:54:38.956Z</time></trkpt><trkpt lat="45.8025454" lon="11.7865443"><ele>163.2</ele><time>2026-04-03T12:54:40.999Z</time></trkpt><trkpt lat="45.8025232" lon="11.7866402"><ele>162.39999999999998</ele><time>2026-04-03T12:54:41.957Z</time></trkpt><trkpt lat="45.8024938" lon="11.7867455"><ele>161.6</ele><time>2026-04-03T12:54:43.032Z</time></trkpt><trkpt lat="45.8024481" lon="11.786908"><ele>160.8</ele><time>2026-04-03T12:54:44.998Z</time></trkpt><trkpt lat="45.8024268" lon="11.7870094"><ele>160.0</ele><time>2026-04-03T12:54:45.986Z</time></trkpt><trkpt lat="45.8023824" lon="11.7871774"><ele>158.8</ele><time>2026-04-03T12:54:47.946Z</time></trkpt><trkpt lat="45.8023586" lon="11.7872932"><ele>157.6</ele><time>2026-04-03T12:54:48.951Z</time></trkpt><trkpt lat="45.8023478" lon="11.7873896"><ele>156.4</ele><time>2026-04-03T12:54:49.968Z</time></trkpt><trkpt lat="45.8023188" lon="11.7875701"><ele>155.2</ele><time>2026-04-03T12:54:51.981Z</time></trkpt><trkpt lat="45.8022917" lon="11.787689"><ele>154.0</ele><time>2026-04-03T12:54:52.965Z</time></trkpt><trkpt lat="45.8022483" lon="11.78785"><ele>153.83333333333334</ele><time>2026-04-03T12:54:54.008Z</time></trkpt><trkpt lat="45.8022118" lon="11.7879842"><ele>153.66666666666669</ele><time>2026-04-03T12:54:54.972Z</time></trkpt><trkpt lat="45.8021809" lon="11.7880919"><ele>153.5</ele><time>2026-04-03T12:54:55.972Z</time></trkpt><trkpt lat="45.8021493" lon="11.7882066"><ele>153.33333333333334</ele><time>2026-04-03T12:54:56.954Z</time></trkpt><trkpt lat="45.8021141" lon="11.7883276"><ele>153.16666666666666</ele><time>2026-04-03T12:54:57.984Z</time></trkpt><trkpt lat="45.8020875" lon="11.7884375"><ele>153.0</ele><time>2026-04-03T12:54:58.987Z</time></trkpt><trkpt lat="45.802068" lon="11.7885429"><ele>152.6</ele><time>2026-04-03T12:55:00.059Z</time></trkpt><trkpt lat="45.8020585" lon="11.7886459"><ele>152.20000000000002</ele><time>2026-04-03T12:55:00.965Z</time></trkpt><trkpt lat="45.8020501" lon="11.788778"><ele>151.8</ele><time>2026-04-03T12:55:01.958Z</time></trkpt><trkpt lat="45.8020333" lon="11.7889277"><ele>151.4</ele><time>2026-04-03T12:55:03.094Z</time></trkpt><trkpt lat="45.802011" lon="11.7891248"><ele>151.0</ele><time>2026-04-03T12:55:04.997Z</time></trkpt><trkpt lat="45.8019895" lon="11.7892914"><ele>150.8</ele><time>2026-04-03T12:55:06.971Z</time></trkpt><trkpt lat="45.8020183" lon="11.7894488"><ele>150.6</ele><time>2026-04-03T12:55:09.99Z</time></trkpt><trkpt lat="45.8021077" lon="11.7894581"><ele>150.4</ele><time>2026-04-03T12:55:12.934Z</time></trkpt><trkpt lat="45.8021765" lon="11.7894105"><ele>150.2</ele><time>2026-04-03T12:55:14.023Z</time></trkpt><trkpt lat="45.8022576" lon="11.789415"><ele>150.0</ele><time>2026-04-03T12:55:15.961Z</time></trkpt><trkpt lat="45.8023343" lon="11.789548"><ele>150.0</ele><time>2026-04-03T12:55:17.972Z</time></trkpt><trkpt lat="45.80237" lon="11.7896741"><ele>150.0</ele><time>2026-04-03T12:55:18.965Z</time></trkpt><trkpt lat="45.8024279" lon="11.7898183"><ele>150.0</ele><time>2026-04-03T12:55:19.983Z</time></trkpt><trkpt lat="45.8025021" lon="11.7899452"><ele>150.0</ele><time>2026-04-03T12:55:20.974Z</time></trkpt><trkpt lat="45.8025718" lon="11.7900519"><ele>150.0</ele><time>2026-04-03T12:55:21.978Z</time></trkpt><trkpt lat="45.8026428" lon="11.7901418"><ele>150.16666666666666</ele><time>2026-04-03T12:55:22.974Z</time></trkpt><trkpt lat="45.8026949" lon="11.7902307"><ele>150.33333333333334</ele><time>2026-04-03T12:55:23.971Z</time></trkpt><trkpt lat="45.8027262" lon="11.7903255"><ele>150.5</ele><time>2026-04-03T12:55:24.966Z</time></trkpt><trkpt lat="45.8027512" lon="11.7904364"><ele>150.66666666666669</ele><time>2026-04-03T12:55:25.98Z</time></trkpt><trkpt lat="45.8027591" lon="11.7905298"><ele>150.83333333333334</ele><time>2026-04-03T12:55:26.949Z</time></trkpt><trkpt lat="45.8027068" lon="11.7906685"><ele>151.0</ele><time>2026-04-03T12:55:28.946Z</time></trkpt><trkpt lat="45.8026416" lon="11.7907223"><ele>150.4</ele><time>2026-04-03T12:55:29.986Z</time></trkpt><trkpt lat="45.8025654" lon="11.7907757"><ele>149.8</ele><time>2026-04-03T12:55:30.984Z</time></trkpt><trkpt lat="45.8025097" lon="11.790906"><ele>149.20000000000002</ele><time>2026-04-03T12:55:33.001Z</time></trkpt><trkpt lat="45.8025118" lon="11.791009"><ele>148.6</ele><time>2026-04-03T12:55:34.086Z</time></trkpt><trkpt lat="45.8025688" lon="11.7912111"><ele>148.0</ele><time>2026-04-03T12:55:35.977Z</time></trkpt><trkpt lat="45.8025881" lon="11.7913108"><ele>147.83333333333334</ele><time>2026-04-03T12:55:37.047Z</time></trkpt><trkpt lat="45.8026101" lon="11.7914103"><ele>147.66666666666669</ele><time>2026-04-03T12:55:38.006Z</time></trkpt><trkpt lat="45.8026319" lon="11.7915025"><ele>147.5</ele><time>2026-04-03T12:55:38.969Z</time></trkpt><trkpt lat="45.8026521" lon="11.7915928"><ele>147.33333333333334</ele><time>2026-04-03T12:55:40.008Z</time></trkpt><trkpt lat="45.8026928" lon="11.7917733"><ele>147.16666666666666</ele><time>2026-04-03T12:55:41.962Z</time></trkpt><trkpt lat="45.8027134" lon="11.7918627"><ele>147.0</ele><time>2026-04-03T12:55:42.991Z</time></trkpt><trkpt lat="45.8027416" lon="11.7919687"><ele>147.66666666666666</ele><time>2026-04-03T12:55:44.974Z</time></trkpt><trkpt lat="45.8027958" lon="11.7920333"><ele>148.33333333333334</ele><time>2026-04-03T12:56:03.987Z</time></trkpt><trkpt lat="45.8028898" lon="11.7919973"><ele>149.0</ele><time>2026-04-03T12:56:06.01Z</time></trkpt><trkpt lat="45.8029607" lon="11.7919571"><ele>149.66666666666669</ele><time>2026-04-03T12:56:06.942Z</time></trkpt><trkpt lat="45.8030283" lon="11.7919323"><ele>150.33333333333334</ele><time>2026-04-03T12:56:07.966Z</time></trkpt><trkpt lat="45.8031162" lon="11.7919004"><ele>151.0</ele><time>2026-04-03T12:56:08.971Z</time></trkpt><trkpt lat="45.8032144" lon="11.7918646"><ele>151.0</ele><time>2026-04-03T12:56:09.956Z</time></trkpt><trkpt lat="45.8033265" lon="11.7918245"><ele>151.0</ele><time>2026-04-03T12:56:10.972Z</time></trkpt><trkpt lat="45.8034372" lon="11.7917787"><ele>151.0</ele><time>2026-04-03T12:56:11.993Z</time></trkpt><trkpt lat="45.8035505" lon="11.7917292"><ele>151.0</ele><time>2026-04-03T12:56:12.98Z</time></trkpt><trkpt lat="45.8036723" lon="11.7916779"><ele>150.75</ele><time>2026-04-03T12:56:13.99Z</time></trkpt><trkpt lat="45.8037969" lon="11.7916259"><ele>150.5</ele><time>2026-04-03T12:56:14.975Z</time></trkpt><trkpt lat="45.8039244" lon="11.7915692"><ele>150.25</ele><time>2026-04-03T12:56:15.972Z</time></trkpt><trkpt lat="45.8040574" lon="11.7915118"><ele>150.0</ele><time>2026-04-03T12:56:16.992Z</time></trkpt><trkpt lat="45.8041824" lon="11.7914563"><ele>150.0</ele><time>2026-04-03T12:56:17.969Z</time></trkpt><trkpt lat="45.8043097" lon="11.7913975"><ele>150.0</ele><time>2026-04-03T12:56:18.97Z</time></trkpt><trkpt lat="45.8044376" lon="11.7913423"><ele>150.0</ele><time>2026-04-03T12:56:19.969Z</time></trkpt><trkpt lat="45.8045753" lon="11.7912884"><ele>150.0</ele><time>2026-04-03T12:56:20.98Z</time></trkpt><trkpt lat="45.8047121" lon="11.7912281"><ele>149.8</ele><time>2026-04-03T12:56:21.989Z</time></trkpt><trkpt lat="45.8048338" lon="11.7911731"><ele>149.6</ele><time>2026-04-03T12:56:22.975Z</time></trkpt><trkpt lat="45.8049561" lon="11.7911283"><ele>149.4</ele><time>2026-04-03T12:56:24.944Z</time></trkpt><trkpt lat="45.8050048" lon="11.7911892"><ele>149.2</ele><time>2026-04-03T12:56:39.953Z</time></trkpt><trkpt lat="45.805019" lon="11.7912863"><ele>149.0</ele><time>2026-04-03T12:56:42.977Z</time></trkpt><trkpt lat="45.8050147" lon="11.7911531"><ele>149.0</ele><time>2026-04-03T12:56:50.949Z</time></trkpt><trkpt lat="45.8050534" lon="11.7910786"><ele>149.0</ele><time>2026-04-03T12:56:52.946Z</time></trkpt><trkpt lat="45.8051182" lon="11.7910356"><ele>149.0</ele><time>2026-04-03T12:56:53.969Z</time></trkpt><trkpt lat="45.8052223" lon="11.7909968"><ele>149.0</ele><time>2026-04-03T12:56:54.989Z</time></trkpt><trkpt lat="45.8053361" lon="11.7909457"><ele>149.0</ele><time>2026-04-03T12:56:55.972Z</time></trkpt><trkpt lat="45.8054653" lon="11.7908871"><ele>149.25</ele><time>2026-04-03T12:56:56.983Z</time></trkpt><trkpt lat="45.8056067" lon="11.7908299"><ele>149.5</ele><time>2026-04-03T12:56:57.976Z</time></trkpt><trkpt lat="45.8057428" lon="11.7907741"><ele>149.75</ele><time>2026-04-03T12:56:58.994Z</time></trkpt><trkpt lat="45.8058562" lon="11.7907264"><ele>150.0</ele><time>2026-04-03T12:56:59.937Z</time></trkpt><trkpt lat="45.8060017" lon="11.7906611"><ele>151.0</ele><time>2026-04-03T12:57:00.973Z</time></trkpt><trkpt lat="45.806147" lon="11.7905943"><ele>152.0</ele><time>2026-04-03T12:57:01.934Z</time></trkpt><trkpt lat="45.8063043" lon="11.7905302"><ele>153.0</ele><time>2026-04-03T12:57:02.95Z</time></trkpt><trkpt lat="45.8064612" lon="11.7904709"><ele>153.0</ele><time>2026-04-03T12:57:03.957Z</time></trkpt><trkpt lat="45.8066109" lon="11.7904177"><ele>153.0</ele><time>2026-04-03T12:57:04.945Z</time></trkpt><trkpt lat="45.8067634" lon="11.790373"><ele>153.0</ele><time>2026-04-03T12:57:05.998Z</time></trkpt><trkpt lat="45.8068951" lon="11.7903386"><ele>153.0</ele><time>2026-04-03T12:57:06.953Z</time></trkpt><trkpt lat="45.8070318" lon="11.7903036"><ele>152.75</ele><time>2026-04-03T12:57:07.976Z</time></trkpt><trkpt lat="45.807158" lon="11.7902704"><ele>152.5</ele><time>2026-04-03T12:57:08.957Z</time></trkpt><trkpt lat="45.807284" lon="11.7902404"><ele>152.25</ele><time>2026-04-03T12:57:09.967Z</time></trkpt><trkpt lat="45.8074092" lon="11.7902144"><ele>152.0</ele><time>2026-04-03T12:57:10.948Z</time></trkpt><trkpt lat="45.8075382" lon="11.790184"><ele>152.75</ele><time>2026-04-03T12:57:11.934Z</time></trkpt><trkpt lat="45.8076713" lon="11.7901522"><ele>153.5</ele><time>2026-04-03T12:57:12.951Z</time></trkpt><trkpt lat="45.8077994" lon="11.7901224"><ele>154.25</ele><time>2026-04-03T12:57:13.936Z</time></trkpt><trkpt lat="45.8079283" lon="11.790093"><ele>155.0</ele><time>2026-04-03T12:57:14.948Z</time></trkpt><trkpt lat="45.8080497" lon="11.790064"><ele>155.0</ele><time>2026-04-03T12:57:15.953Z</time></trkpt><trkpt lat="45.8081688" lon="11.7900393"><ele>155.0</ele><time>2026-04-03T12:57:16.958Z</time></trkpt><trkpt lat="45.8082953" lon="11.7900069"><ele>155.0</ele><time>2026-04-03T12:57:17.982Z</time></trkpt><trkpt lat="45.8084165" lon="11.7899694"><ele>155.0</ele><time>2026-04-03T12:57:18.96Z</time></trkpt><trkpt lat="45.8085387" lon="11.7899244"><ele>156.25</ele><time>2026-04-03T12:57:19.94Z</time></trkpt><trkpt lat="45.8086691" lon="11.7898647"><ele>157.5</ele><time>2026-04-03T12:57:20.974Z</time></trkpt><trkpt lat="45.8087969" lon="11.7897962"><ele>158.75</ele><time>2026-04-03T12:57:21.976Z</time></trkpt><trkpt lat="45.8089222" lon="11.7897195"><ele>160.0</ele><time>2026-04-03T12:57:22.968Z</time></trkpt><trkpt lat="45.8090494" lon="11.7896267"><ele>160.0</ele><time>2026-04-03T12:57:23.983Z</time></trkpt><trkpt lat="45.8091872" lon="11.789512"><ele>160.0</ele><time>2026-04-03T12:57:25.088Z</time></trkpt><trkpt lat="45.8094402" lon="11.789325"><ele>160.0</ele><time>2026-04-03T12:57:26.995Z</time></trkpt><trkpt lat="45.8095758" lon="11.7892254"><ele>163.66666666666669</ele><time>2026-04-03T12:57:27.984Z</time></trkpt><trkpt lat="45.8097112" lon="11.7891266"><ele>167.33333333333334</ele><time>2026-04-03T12:57:28.968Z</time></trkpt><trkpt lat="45.8098533" lon="11.7890284"><ele>171.0</ele><time>2026-04-03T12:57:29.982Z</time></trkpt><trkpt lat="45.8099873" lon="11.7889326"><ele>171.0</ele><time>2026-04-03T12:57:30.942Z</time></trkpt><trkpt lat="45.8101309" lon="11.7888279"><ele>171.0</ele><time>2026-04-03T12:57:31.982Z</time></trkpt><trkpt lat="45.8102682" lon="11.7887312"><ele>171.0</ele><time>2026-04-03T12:57:32.986Z</time></trkpt><trkpt lat="45.810392" lon="11.7886435"><ele>172.75</ele><time>2026-04-03T12:57:33.962Z</time></trkpt><trkpt lat="45.8105062" lon="11.7885674"><ele>174.5</ele><time>2026-04-03T12:57:34.957Z</time></trkpt><trkpt lat="45.810631" lon="11.7884915"><ele>176.25</ele><time>2026-04-03T12:57:35.979Z</time></trkpt><trkpt lat="45.8107422" lon="11.7884309"><ele>178.0</ele><time>2026-04-03T12:57:36.938Z</time></trkpt><trkpt lat="45.8108369" lon="11.7883892"><ele>178.60000000000002</ele><time>2026-04-03T12:57:38.002Z</time></trkpt><trkpt lat="45.8109" lon="11.7883772"><ele>179.20000000000002</ele><time>2026-04-03T12:57:38.958Z</time></trkpt><trkpt lat="45.8110024" lon="11.7884305"><ele>179.8</ele><time>2026-04-03T12:57:41.021Z</time></trkpt><trkpt lat="45.8111102" lon="11.788549"><ele>180.4</ele><time>2026-04-03T12:57:42.964Z</time></trkpt><trkpt lat="45.8111897" lon="11.7886261"><ele>181.0</ele><time>2026-04-03T12:57:44.006Z</time></trkpt><trkpt lat="45.8112559" lon="11.7886999"><ele>181.5</ele><time>2026-04-03T12:57:44.964Z</time></trkpt><trkpt lat="45.8113196" lon="11.7887675"><ele>182.0</ele><time>2026-04-03T12:57:45.958Z</time></trkpt><trkpt lat="45.811373" lon="11.7888305"><ele>182.5</ele><time>2026-04-03T12:57:46.98Z</time></trkpt><trkpt lat="45.8114233" lon="11.7888898"><ele>183.0</ele><time>2026-04-03T12:57:48.045Z</time></trkpt><trkpt lat="45.8115059" lon="11.7889832"><ele>183.5</ele><time>2026-04-03T12:57:49.984Z</time></trkpt><trkpt lat="45.8115715" lon="11.7890656"><ele>184.0</ele><time>2026-04-03T12:57:52.182Z</time></trkpt><trkpt lat="45.8116341" lon="11.789142"><ele>184.0</ele><time>2026-04-03T12:57:55.068Z</time></trkpt><trkpt lat="45.8116955" lon="11.7892068"><ele>184.0</ele><time>2026-04-03T12:57:57.074Z</time></trkpt><trkpt lat="45.8117652" lon="11.7892836"><ele>184.0</ele><time>2026-04-03T12:57:59.088Z</time></trkpt><trkpt lat="45.8118526" lon="11.7893872"><ele>184.0</ele><time>2026-04-03T12:58:00.982Z</time></trkpt><trkpt lat="45.8119039" lon="11.7894479"><ele>184.0</ele><time>2026-04-03T12:58:02.004Z</time></trkpt><trkpt lat="45.8119791" lon="11.7895437"><ele>184.0</ele><time>2026-04-03T12:58:04.001Z</time></trkpt><trkpt lat="45.8120179" lon="11.7896304"><ele>184.83333333333334</ele><time>2026-04-03T12:58:06.038Z</time></trkpt><trkpt lat="45.8120648" lon="11.7896919"><ele>185.66666666666669</ele><time>2026-04-03T12:58:09.02Z</time></trkpt><trkpt lat="45.8121354" lon="11.7897219"><ele>186.5</ele><time>2026-04-03T12:58:39.944Z</time></trkpt><trkpt lat="45.8121922" lon="11.7897867"><ele>187.33333333333334</ele><time>2026-04-03T12:58:40.968Z</time></trkpt><trkpt lat="45.8122566" lon="11.7898615"><ele>188.16666666666666</ele><time>2026-04-03T12:58:41.995Z</time></trkpt><trkpt lat="45.812338" lon="11.7899487"><ele>189.0</ele><time>2026-04-03T12:58:43.008Z</time></trkpt><trkpt lat="45.812432" lon="11.7900532"><ele>189.0</ele><time>2026-04-03T12:58:44.028Z</time></trkpt><trkpt lat="45.8125229" lon="11.7901566"><ele>189.0</ele><time>2026-04-03T12:58:45.024Z</time></trkpt><trkpt lat="45.8126028" lon="11.7902496"><ele>189.0</ele><time>2026-04-03T12:58:45.978Z</time></trkpt><trkpt lat="45.812694" lon="11.7903568"><ele>189.0</ele><time>2026-04-03T12:58:46.994Z</time></trkpt><trkpt lat="45.8127846" lon="11.7904602"><ele>189.25</ele><time>2026-04-03T12:58:47.943Z</time></trkpt><trkpt lat="45.8129082" lon="11.7906067"><ele>189.5</ele><time>2026-04-03T12:58:49.112Z</time></trkpt><trkpt lat="45.8130181" lon="11.7907364"><ele>189.75</ele><time>2026-04-03T12:58:50.029Z</time></trkpt><trkpt lat="45.8131312" lon="11.7908671"><ele>190.0</ele><time>2026-04-03T12:58:50.971Z</time></trkpt><trkpt lat="45.8132613" lon="11.7910198"><ele>190.25</ele><time>2026-04-03T12:58:52.079Z</time></trkpt><trkpt lat="45.813364" lon="11.7911396"><ele>190.5</ele><time>2026-04-03T12:58:53.005Z</time></trkpt><trkpt lat="45.8134726" lon="11.7912658"><ele>190.75</ele><time>2026-04-03T12:58:54.061Z</time></trkpt><trkpt lat="45.8135628" lon="11.7913716"><ele>191.0</ele><time>2026-04-03T12:58:54.996Z</time></trkpt><trkpt lat="45.8136555" lon="11.7914804"><ele>191.0</ele><time>2026-04-03T12:58:56.004Z</time></trkpt><trkpt lat="45.8137408" lon="11.7915815"><ele>191.0</ele><time>2026-04-03T12:58:56.961Z</time></trkpt><trkpt lat="45.813831" lon="11.791686"><ele>191.0</ele><time>2026-04-03T12:58:57.996Z</time></trkpt><trkpt lat="45.8139154" lon="11.7917851"><ele>191.0</ele><time>2026-04-03T12:58:59.003Z</time></trkpt><trkpt lat="45.8140027" lon="11.7918822"><ele>191.0</ele><time>2026-04-03T12:58:59.983Z</time></trkpt><trkpt lat="45.8141065" lon="11.791996"><ele>191.25</ele><time>2026-04-03T12:59:01.001Z</time></trkpt><trkpt lat="45.8142102" lon="11.7921012"><ele>191.5</ele><time>2026-04-03T12:59:01.978Z</time></trkpt><trkpt lat="45.8143149" lon="11.7921929"><ele>191.75</ele><time>2026-04-03T12:59:02.977Z</time></trkpt><trkpt lat="45.8144208" lon="11.7922731"><ele>192.0</ele><time>2026-04-03T12:59:03.978Z</time></trkpt><trkpt lat="45.8145432" lon="11.7923552"><ele>192.0</ele><time>2026-04-03T12:59:05.079Z</time></trkpt><trkpt lat="45.8146481" lon="11.7924388"><ele>192.0</ele><time>2026-04-03T12:59:06.04Z</time></trkpt><trkpt lat="45.814753" lon="11.7925245"><ele>192.0</ele><time>2026-04-03T12:59:07.045Z</time></trkpt><trkpt lat="45.8148429" lon="11.7926068"><ele>192.0</ele><time>2026-04-03T12:59:07.97Z</time></trkpt><trkpt lat="45.8149376" lon="11.7927043"><ele>191.5</ele><time>2026-04-03T12:59:08.96Z</time></trkpt><trkpt lat="45.8150365" lon="11.7928294"><ele>191.0</ele><time>2026-04-03T12:59:09.989Z</time></trkpt><trkpt lat="45.8151165" lon="11.7929548"><ele>190.5</ele><time>2026-04-03T12:59:10.938Z</time></trkpt><trkpt lat="45.8151993" lon="11.7931276"><ele>190.0</ele><time>2026-04-03T12:59:12.109Z</time></trkpt><trkpt lat="45.8153151" lon="11.7934429"><ele>189.2</ele><time>2026-04-03T12:59:14.027Z</time></trkpt><trkpt lat="45.8153534" lon="11.7935938"><ele>188.4</ele><time>2026-04-03T12:59:15.012Z</time></trkpt><trkpt lat="45.81538" lon="11.7937337"><ele>187.60000000000002</ele><time>2026-04-03T12:59:15.995Z</time></trkpt><trkpt lat="45.8154002" lon="11.7938559"><ele>186.8</ele><time>2026-04-03T12:59:16.96Z</time></trkpt><trkpt lat="45.8154124" lon="11.7939672"><ele>186.0</ele><time>2026-04-03T12:59:18.044Z</time></trkpt><trkpt lat="45.8153519" lon="11.7941182"><ele>186.0</ele><time>2026-04-03T12:59:21.074Z</time></trkpt><trkpt lat="45.8152547" lon="11.7941281"><ele>186.0</ele><time>2026-04-03T12:59:23Z</time></trkpt><trkpt lat="45.8151408" lon="11.794111"><ele>186.0</ele><time>2026-04-03T12:59:24.956Z</time></trkpt><trkpt lat="45.815071" lon="11.7940988"><ele>186.0</ele><time>2026-04-03T12:59:25.991Z</time></trkpt><trkpt lat="45.8149978" lon="11.7940905"><ele>186.0</ele><time>2026-04-03T12:59:26.964Z</time></trkpt><trkpt lat="45.8149159" lon="11.7940854"><ele>186.0</ele><time>2026-04-03T12:59:27.977Z</time></trkpt><trkpt lat="45.8148349" lon="11.7940863"><ele>185.5</ele><time>2026-04-03T12:59:29.005Z</time></trkpt><trkpt lat="45.8147611" lon="11.7940927"><ele>185.0</ele><time>2026-04-03T12:59:29.975Z</time></trkpt><trkpt lat="45.8146762" lon="11.7941042"><ele>184.5</ele><time>2026-04-03T12:59:30.983Z</time></trkpt><trkpt lat="45.8145827" lon="11.794118"><ele>184.0</ele><time>2026-04-03T12:59:31.994Z</time></trkpt><trkpt lat="45.8144895" lon="11.794134"><ele>183.5</ele><time>2026-04-03T12:59:32.998Z</time></trkpt><trkpt lat="45.8143894" lon="11.7941609"><ele>183.0</ele><time>2026-04-03T12:59:33.967Z</time></trkpt><trkpt lat="45.8142783" lon="11.7941919"><ele>182.16666666666666</ele><time>2026-04-03T12:59:35.121Z</time></trkpt><trkpt lat="45.8142005" lon="11.7942085"><ele>181.33333333333334</ele><time>2026-04-03T12:59:36.024Z</time></trkpt><trkpt lat="45.8141242" lon="11.7942227"><ele>180.5</ele><time>2026-04-03T12:59:36.948Z</time></trkpt><trkpt lat="45.8140388" lon="11.7942452"><ele>179.66666666666669</ele><time>2026-04-03T12:59:37.984Z</time></trkpt><trkpt lat="45.8139517" lon="11.7942687"><ele>178.83333333333334</ele><time>2026-04-03T12:59:38.942Z</time></trkpt><trkpt lat="45.813846" lon="11.794299"><ele>178.0</ele><time>2026-04-03T12:59:39.979Z</time></trkpt><trkpt lat="45.8137333" lon="11.7943325"><ele>177.60000000000002</ele><time>2026-04-03T12:59:40.994Z</time></trkpt><trkpt lat="45.8136139" lon="11.7943538"><ele>177.20000000000002</ele><time>2026-04-03T12:59:41.98Z</time></trkpt><trkpt lat="45.8135008" lon="11.7943806"><ele>176.8</ele><time>2026-04-03T12:59:42.99Z</time></trkpt><trkpt lat="45.8134211" lon="11.7944038"><ele>176.4</ele><time>2026-04-03T12:59:43.98Z</time></trkpt><trkpt lat="45.8133381" lon="11.7944362"><ele>176.0</ele><time>2026-04-03T12:59:44.996Z</time></trkpt><trkpt lat="45.8132515" lon="11.7944585"><ele>175.66666666666666</ele><time>2026-04-03T12:59:45.978Z</time></trkpt><trkpt lat="45.8131674" lon="11.794459"><ele>175.33333333333331</ele><time>2026-04-03T12:59:46.932Z</time></trkpt><trkpt lat="45.813069" lon="11.7944594"><ele>175.0</ele><time>2026-04-03T12:59:48.05Z</time></trkpt><trkpt lat="45.8129905" lon="11.794449"><ele>174.66666666666666</ele><time>2026-04-03T12:59:49Z</time></trkpt><trkpt lat="45.8129303" lon="11.7944219"><ele>174.33333333333334</ele><time>2026-04-03T12:59:49.988Z</time></trkpt><trkpt lat="45.8128454" lon="11.7944087"><ele>174.0</ele><time>2026-04-03T12:59:51.972Z</time></trkpt><trkpt lat="45.8127659" lon="11.7944928"><ele>173.2</ele><time>2026-04-03T12:59:54.973Z</time></trkpt><trkpt lat="45.8126328" lon="11.7945343"><ele>172.39999999999998</ele><time>2026-04-03T12:59:56.999Z</time></trkpt><trkpt lat="45.8125529" lon="11.7945319"><ele>171.6</ele><time>2026-04-03T12:59:57.972Z</time></trkpt><trkpt lat="45.8124655" lon="11.7945281"><ele>170.8</ele><time>2026-04-03T12:59:59.006Z</time></trkpt><trkpt lat="45.8123545" lon="11.7945396"><ele>170.0</ele><time>2026-04-03T12:59:59.962Z</time></trkpt><trkpt lat="45.8122399" lon="11.7945859"><ele>170.0</ele><time>2026-04-03T13:00:01Z</time></trkpt><trkpt lat="45.8121293" lon="11.7946423"><ele>170.0</ele><time>2026-04-03T13:00:02.003Z</time></trkpt><trkpt lat="45.8120165" lon="11.7947015"><ele>170.0</ele><time>2026-04-03T13:00:02.988Z</time></trkpt><trkpt lat="45.811912" lon="11.7947276"><ele>170.0</ele><time>2026-04-03T13:00:03.977Z</time></trkpt><trkpt lat="45.811826" lon="11.7947573"><ele>170.0</ele><time>2026-04-03T13:00:05.007Z</time></trkpt><trkpt lat="45.8117539" lon="11.794778"><ele>169.33333333333331</ele><time>2026-04-03T13:00:05.952Z</time></trkpt><trkpt lat="45.8116635" lon="11.7947957"><ele>168.66666666666666</ele><time>2026-04-03T13:00:07.093Z</time></trkpt><trkpt lat="45.8115106" lon="11.7948475"><ele>168.0</ele><time>2026-04-03T13:00:08.986Z</time></trkpt><trkpt lat="45.8114487" lon="11.794892"><ele>167.33333333333334</ele><time>2026-04-03T13:00:09.959Z</time></trkpt><trkpt lat="45.8114012" lon="11.7949563"><ele>166.66666666666669</ele><time>2026-04-03T13:00:10.987Z</time></trkpt><trkpt lat="45.811356" lon="11.7950259"><ele>166.0</ele><time>2026-04-03T13:00:12.03Z</time></trkpt><trkpt lat="45.8112771" lon="11.7951714"><ele>165.8</ele><time>2026-04-03T13:00:13.96Z</time></trkpt><trkpt lat="45.8112384" lon="11.7952571"><ele>165.60000000000002</ele><time>2026-04-03T13:00:14.996Z</time></trkpt><trkpt lat="45.8112012" lon="11.7953396"><ele>165.4</ele><time>2026-04-03T13:00:16.03Z</time></trkpt><trkpt lat="45.8111451" lon="11.7954716"><ele>165.2</ele><time>2026-04-03T13:00:17.967Z</time></trkpt><trkpt lat="45.8110986" lon="11.7955553"><ele>165.0</ele><time>2026-04-03T13:00:19.092Z</time></trkpt><trkpt lat="45.8109825" lon="11.7956424"><ele>164.5</ele><time>2026-04-03T13:00:20.981Z</time></trkpt><trkpt lat="45.8109096" lon="11.795646"><ele>164.0</ele><time>2026-04-03T13:00:21.973Z</time></trkpt><trkpt lat="45.8108325" lon="11.7956238"><ele>163.5</ele><time>2026-04-03T13:00:23Z</time></trkpt><trkpt lat="45.8107524" lon="11.7956023"><ele>163.0</ele><time>2026-04-03T13:00:23.975Z</time></trkpt><trkpt lat="45.8106704" lon="11.7955765"><ele>162.5</ele><time>2026-04-03T13:00:24.974Z</time></trkpt><trkpt lat="45.8105881" lon="11.7955468"><ele>162.0</ele><time>2026-04-03T13:00:25.969Z</time></trkpt><trkpt lat="45.810497" lon="11.7955345"><ele>162.0</ele><time>2026-04-03T13:00:26.975Z</time></trkpt><trkpt lat="45.8104097" lon="11.7955412"><ele>162.0</ele><time>2026-04-03T13:00:27.997Z</time></trkpt><trkpt lat="45.8103295" lon="11.7955521"><ele>162.0</ele><time>2026-04-03T13:00:28.999Z</time></trkpt><trkpt lat="45.8102596" lon="11.7955651"><ele>162.0</ele><time>2026-04-03T13:00:29.959Z</time></trkpt><trkpt lat="45.8101912" lon="11.7955785"><ele>162.0</ele><time>2026-04-03T13:00:30.983Z</time></trkpt><trkpt lat="45.8101243" lon="11.7955921"><ele>162.0</ele><time>2026-04-03T13:00:31.977Z</time></trkpt><trkpt lat="45.8100529" lon="11.7956022"><ele>162.0</ele><time>2026-04-03T13:00:33.004Z</time></trkpt><trkpt lat="45.8099843" lon="11.7956122"><ele>161.8</ele><time>2026-04-03T13:00:33.959Z</time></trkpt><trkpt lat="45.8099211" lon="11.7956282"><ele>161.6</ele><time>2026-04-03T13:00:35.059Z</time></trkpt><trkpt lat="45.8098238" lon="11.7957119"><ele>161.4</ele><time>2026-04-03T13:00:37.023Z</time></trkpt><trkpt lat="45.8098092" lon="11.7958781"><ele>161.20000000000002</ele><time>2026-04-03T13:00:38.966Z</time></trkpt><trkpt lat="45.8098246" lon="11.7960219"><ele>161.0</ele><time>2026-04-03T13:00:40.005Z</time></trkpt><trkpt lat="45.8098359" lon="11.7961471"><ele>161.0</ele><time>2026-04-03T13:00:40.948Z</time></trkpt><trkpt lat="45.8098318" lon="11.7962812"><ele>161.0</ele><time>2026-04-03T13:00:41.972Z</time></trkpt><trkpt lat="45.8098159" lon="11.7964183"><ele>161.0</ele><time>2026-04-03T13:00:43.022Z</time></trkpt><trkpt lat="45.8097902" lon="11.7965394"><ele>161.0</ele><time>2026-04-03T13:00:44.09Z</time></trkpt><trkpt lat="45.8097541" lon="11.7966902"><ele>161.0</ele><time>2026-04-03T13:00:45.979Z</time></trkpt><trkpt lat="45.8097106" lon="11.7967951"><ele>161.0</ele><time>2026-04-03T13:00:49.005Z</time></trkpt><trkpt lat="45.8095674" lon="11.7968133"><ele>161.0</ele><time>2026-04-03T13:00:56.021Z</time></trkpt><trkpt lat="45.8094899" lon="11.7967906"><ele>161.0</ele><time>2026-04-03T13:00:57.095Z</time></trkpt><trkpt lat="45.8093558" lon="11.7967749"><ele>161.0</ele><time>2026-04-03T13:00:59.023Z</time></trkpt><trkpt lat="45.8092706" lon="11.7967704"><ele>161.0</ele><time>2026-04-03T13:01:00.044Z</time></trkpt><trkpt lat="45.8091956" lon="11.7967683"><ele>160.20000000000002</ele><time>2026-04-03T13:01:00.994Z</time></trkpt><trkpt lat="45.8091029" lon="11.7967537"><ele>159.4</ele><time>2026-04-03T13:01:01.987Z</time></trkpt><trkpt lat="45.8089891" lon="11.7967216"><ele>158.6</ele><time>2026-04-03T13:01:02.998Z</time></trkpt><trkpt lat="45.8088762" lon="11.7966775"><ele>157.8</ele><time>2026-04-03T13:01:03.999Z</time></trkpt><trkpt lat="45.8087766" lon="11.7966328"><ele>157.0</ele><time>2026-04-03T13:01:04.981Z</time></trkpt><trkpt lat="45.8086773" lon="11.7965845"><ele>157.0</ele><time>2026-04-03T13:01:05.988Z</time></trkpt><trkpt lat="45.8085758" lon="11.7965368"><ele>157.0</ele><time>2026-04-03T13:01:06.988Z</time></trkpt><trkpt lat="45.8084617" lon="11.7964812"><ele>157.0</ele><time>2026-04-03T13:01:08.013Z</time></trkpt><trkpt lat="45.8083453" lon="11.7964225"><ele>157.0</ele><time>2026-04-03T13:01:08.972Z</time></trkpt><trkpt lat="45.8082372" lon="11.7963632"><ele>156.0</ele><time>2026-04-03T13:01:09.98Z</time></trkpt><trkpt lat="45.8081412" lon="11.7963057"><ele>155.0</ele><time>2026-04-03T13:01:10.994Z</time></trkpt><trkpt lat="45.8080632" lon="11.7962535"><ele>154.0</ele><time>2026-04-03T13:01:11.986Z</time></trkpt><trkpt lat="45.8079841" lon="11.7962048"><ele>153.0</ele><time>2026-04-03T13:01:13.002Z</time></trkpt><trkpt lat="45.8078806" lon="11.7961578"><ele>152.0</ele><time>2026-04-03T13:01:14.122Z</time></trkpt><trkpt lat="45.8076906" lon="11.7961036"><ele>152.0</ele><time>2026-04-03T13:01:15.989Z</time></trkpt><trkpt lat="45.8076108" lon="11.7960776"><ele>152.0</ele><time>2026-04-03T13:01:16.964Z</time></trkpt><trkpt lat="45.8075298" lon="11.7960453"><ele>152.0</ele><time>2026-04-03T13:01:17.986Z</time></trkpt><trkpt lat="45.8074524" lon="11.7960154"><ele>152.0</ele><time>2026-04-03T13:01:18.996Z</time></trkpt><trkpt lat="45.8073382" lon="11.7959864"><ele>152.0</ele><time>2026-04-03T13:01:21.973Z</time></trkpt><trkpt lat="45.807291" lon="11.7960585"><ele>152.0</ele><time>2026-04-03T13:01:25.977Z</time></trkpt><trkpt lat="45.8072694" lon="11.7962156"><ele>152.33333333333331</ele><time>2026-04-03T13:01:27.962Z</time></trkpt><trkpt lat="45.8072685" lon="11.7963149"><ele>152.66666666666666</ele><time>2026-04-03T13:01:28.978Z</time></trkpt><trkpt lat="45.8072754" lon="11.7964226"><ele>153.0</ele><time>2026-04-03T13:01:29.976Z</time></trkpt><trkpt lat="45.8072845" lon="11.7965425"><ele>153.33333333333334</ele><time>2026-04-03T13:01:30.967Z</time></trkpt><trkpt lat="45.8072884" lon="11.7966496"><ele>153.66666666666669</ele><time>2026-04-03T13:01:32.993Z</time></trkpt><trkpt lat="45.8072418" lon="11.7967519"><ele>154.0</ele><time>2026-04-03T13:01:40.082Z</time></trkpt><trkpt lat="45.8071815" lon="11.7969006"><ele>154.6</ele><time>2026-04-03T13:01:42.969Z</time></trkpt><trkpt lat="45.8071615" lon="11.7970421"><ele>155.2</ele><time>2026-04-03T13:01:45.001Z</time></trkpt><trkpt lat="45.8071596" lon="11.7972382"><ele>155.79999999999998</ele><time>2026-04-03T13:01:46.966Z</time></trkpt><trkpt lat="45.8071434" lon="11.7973681"><ele>156.4</ele><time>2026-04-03T13:01:47.989Z</time></trkpt><trkpt lat="45.8071292" lon="11.7975062"><ele>157.0</ele><time>2026-04-03T13:01:48.985Z</time></trkpt><trkpt lat="45.8071131" lon="11.7976855"><ele>157.0</ele><time>2026-04-03T13:01:49.965Z</time></trkpt><trkpt lat="45.8070941" lon="11.7979281"><ele>157.0</ele><time>2026-04-03T13:01:50.96Z</time></trkpt><trkpt lat="45.8070779" lon="11.7981587"><ele>157.0</ele><time>2026-04-03T13:01:51.995Z</time></trkpt><trkpt lat="45.807065" lon="11.7983937"><ele>157.0</ele><time>2026-04-03T13:01:52.964Z</time></trkpt><trkpt lat="45.8070521" lon="11.7985921"><ele>157.0</ele><time>2026-04-03T13:01:53.951Z</time></trkpt><trkpt lat="45.8070384" lon="11.7988151"><ele>157.0</ele><time>2026-04-03T13:01:54.968Z</time></trkpt><trkpt lat="45.8070271" lon="11.7990059"><ele>157.0</ele><time>2026-04-03T13:01:55.991Z</time></trkpt><trkpt lat="45.8070188" lon="11.7991642"><ele>157.0</ele><time>2026-04-03T13:01:57.003Z</time></trkpt><trkpt lat="45.8070152" lon="11.7993158"><ele>157.0</ele><time>2026-04-03T13:01:58.082Z</time></trkpt><trkpt lat="45.8070397" lon="11.7995815"><ele>157.0</ele><time>2026-04-03T13:02:00.004Z</time></trkpt><trkpt lat="45.8070632" lon="11.799741"><ele>157.0</ele><time>2026-04-03T13:02:00.988Z</time></trkpt><trkpt lat="45.8070897" lon="11.7998813"><ele>157.2</ele><time>2026-04-03T13:02:01.986Z</time></trkpt><trkpt lat="45.8071165" lon="11.8000676"><ele>157.39999999999998</ele><time>2026-04-03T13:02:03.08Z</time></trkpt><trkpt lat="45.8071291" lon="11.8002171"><ele>157.60000000000002</ele><time>2026-04-03T13:02:03.991Z</time></trkpt><trkpt lat="45.8071409" lon="11.8003373"><ele>157.8</ele><time>2026-04-03T13:02:04.986Z</time></trkpt><trkpt lat="45.8071565" lon="11.8004436"><ele>158.0</ele><time>2026-04-03T13:02:05.962Z</time></trkpt><trkpt lat="45.8071737" lon="11.8005333"><ele>158.0</ele><time>2026-04-03T13:02:06.961Z</time></trkpt><trkpt lat="45.8072021" lon="11.8006863"><ele>158.0</ele><time>2026-04-03T13:02:08.979Z</time></trkpt><trkpt lat="45.8072261" lon="11.8008268"><ele>158.0</ele><time>2026-04-03T13:02:10.969Z</time></trkpt><trkpt lat="45.8072184" lon="11.8010317"><ele>158.0</ele><time>2026-04-03T13:02:12.995Z</time></trkpt><trkpt lat="45.8071983" lon="11.8011668"><ele>158.20000000000002</ele><time>2026-04-03T13:02:13.952Z</time></trkpt><trkpt lat="45.8071717" lon="11.8013306"><ele>158.4</ele><time>2026-04-03T13:02:14.988Z</time></trkpt><trkpt lat="45.8071509" lon="11.8014651"><ele>158.60000000000002</ele><time>2026-04-03T13:02:15.948Z</time></trkpt><trkpt lat="45.8071397" lon="11.8015978"><ele>158.8</ele><time>2026-04-03T13:02:16.935Z</time></trkpt><trkpt lat="45.8071435" lon="11.8017428"><ele>159.0</ele><time>2026-04-03T13:02:17.967Z</time></trkpt><trkpt lat="45.8071577" lon="11.8018822"><ele>159.4</ele><time>2026-04-03T13:02:18.959Z</time></trkpt><trkpt lat="45.8071602" lon="11.8020336"><ele>159.8</ele><time>2026-04-03T13:02:19.965Z</time></trkpt><trkpt lat="45.8071513" lon="11.8021756"><ele>160.20000000000002</ele><time>2026-04-03T13:02:20.975Z</time></trkpt><trkpt lat="45.8071417" lon="11.8023146"><ele>160.60000000000002</ele><time>2026-04-03T13:02:22.071Z</time></trkpt><trkpt lat="45.8071256" lon="11.8024205"><ele>161.0</ele><time>2026-04-03T13:02:22.974Z</time></trkpt><trkpt lat="45.8070993" lon="11.8025205"><ele>161.0</ele><time>2026-04-03T13:02:23.991Z</time></trkpt><trkpt lat="45.8070746" lon="11.8026264"><ele>161.0</ele><time>2026-04-03T13:02:24.95Z</time></trkpt><trkpt lat="45.807054" lon="11.8027633"><ele>161.0</ele><time>2026-04-03T13:02:25.982Z</time></trkpt><trkpt lat="45.8070492" lon="11.8028869"><ele>161.0</ele><time>2026-04-03T13:02:26.95Z</time></trkpt><trkpt lat="45.8070526" lon="11.8030069"><ele>161.0</ele><time>2026-04-03T13:02:27.953Z</time></trkpt><trkpt lat="45.8070581" lon="11.80312"><ele>161.0</ele><time>2026-04-03T13:02:28.964Z</time></trkpt><trkpt lat="45.8070754" lon="11.8032364"><ele>161.16666666666666</ele><time>2026-04-03T13:02:29.985Z</time></trkpt><trkpt lat="45.8071048" lon="11.8033297"><ele>161.33333333333331</ele><time>2026-04-03T13:02:30.979Z</time></trkpt><trkpt lat="45.8071496" lon="11.8034108"><ele>161.5</ele><time>2026-04-03T13:02:31.945Z</time></trkpt><trkpt lat="45.8071943" lon="11.8034836"><ele>161.66666666666666</ele><time>2026-04-03T13:02:32.942Z</time></trkpt><trkpt lat="45.8072383" lon="11.8035734"><ele>161.83333333333334</ele><time>2026-04-03T13:02:33.998Z</time></trkpt><trkpt lat="45.8072734" lon="11.8036872"><ele>162.0</ele><time>2026-04-03T13:02:34.979Z</time></trkpt><trkpt lat="45.807295" lon="11.8038078"><ele>162.33333333333334</ele><time>2026-04-03T13:02:35.977Z</time></trkpt><trkpt lat="45.8073039" lon="11.8039766"><ele>162.66666666666669</ele><time>2026-04-03T13:02:36.943Z</time></trkpt><trkpt lat="45.8073197" lon="11.8041831"><ele>163.0</ele><time>2026-04-03T13:02:38.071Z</time></trkpt><trkpt lat="45.8073595" lon="11.804453"><ele>163.42857142857144</ele><time>2026-04-03T13:02:39.98Z</time></trkpt><trkpt lat="45.8073902" lon="11.804559"><ele>163.85714285714283</ele><time>2026-04-03T13:02:40.963Z</time></trkpt><trkpt lat="45.8074191" lon="11.8046628"><ele>164.28571428571428</ele><time>2026-04-03T13:02:42.006Z</time></trkpt><trkpt lat="45.8074371" lon="11.8047758"><ele>164.71428571428572</ele><time>2026-04-03T13:02:42.997Z</time></trkpt><trkpt lat="45.8074406" lon="11.8048789"><ele>165.14285714285717</ele><time>2026-04-03T13:02:43.976Z</time></trkpt><trkpt lat="45.8074328" lon="11.8049752"><ele>165.57142857142856</ele><time>2026-04-03T13:02:44.96Z</time></trkpt><trkpt lat="45.8074213" lon="11.8050708"><ele>166.0</ele><time>2026-04-03T13:02:45.972Z</time></trkpt><trkpt lat="45.8074108" lon="11.805165"><ele>166.66666666666669</ele><time>2026-04-03T13:02:46.995Z</time></trkpt><trkpt lat="45.8074172" lon="11.805346"><ele>167.33333333333334</ele><time>2026-04-03T13:02:48.99Z</time></trkpt><trkpt lat="45.8074335" lon="11.8054411"><ele>168.0</ele><time>2026-04-03T13:02:50.004Z</time></trkpt><trkpt lat="45.8074545" lon="11.8055295"><ele>168.66666666666666</ele><time>2026-04-03T13:02:51.007Z</time></trkpt><trkpt lat="45.807477" lon="11.8056158"><ele>169.33333333333331</ele><time>2026-04-03T13:02:51.98Z</time></trkpt><trkpt lat="45.8074863" lon="11.8057065"><ele>170.0</ele><time>2026-04-03T13:02:52.992Z</time></trkpt><trkpt lat="45.8074715" lon="11.8059133"><ele>170.0</ele><time>2026-04-03T13:02:55.055Z</time></trkpt><trkpt lat="45.8074548" lon="11.8060427"><ele>170.0</ele><time>2026-04-03T13:02:55.984Z</time></trkpt><trkpt lat="45.8074463" lon="11.8061944"><ele>170.0</ele><time>2026-04-03T13:02:56.965Z</time></trkpt><trkpt lat="45.8074315" lon="11.8063741"><ele>170.0</ele><time>2026-04-03T13:02:57.988Z</time></trkpt><trkpt lat="45.8074142" lon="11.8065387"><ele>170.0</ele><time>2026-04-03T13:02:58.987Z</time></trkpt><trkpt lat="45.8073991" lon="11.8066775"><ele>170.0</ele><time>2026-04-03T13:03:00.008Z</time></trkpt><trkpt lat="45.8073911" lon="11.8067964"><ele>170.0</ele><time>2026-04-03T13:03:01.014Z</time></trkpt><trkpt lat="45.8073916" lon="11.8068991"><ele>170.0</ele><time>2026-04-03T13:03:01.987Z</time></trkpt><trkpt lat="45.807391" lon="11.807032"><ele>170.0</ele><time>2026-04-03T13:03:02.992Z</time></trkpt><trkpt lat="45.8073924" lon="11.8071572"><ele>170.0</ele><time>2026-04-03T13:03:03.958Z</time></trkpt><trkpt lat="45.8073937" lon="11.8072838"><ele>170.0</ele><time>2026-04-03T13:03:05.02Z</time></trkpt><trkpt lat="45.8073967" lon="11.8073809"><ele>170.16666666666666</ele><time>2026-04-03T13:03:05.967Z</time></trkpt><trkpt lat="45.8074038" lon="11.8074757"><ele>170.33333333333331</ele><time>2026-04-03T13:03:06.971Z</time></trkpt><trkpt lat="45.8074216" lon="11.8076012"><ele>170.5</ele><time>2026-04-03T13:03:07.974Z</time></trkpt><trkpt lat="45.8074427" lon="11.8077211"><ele>170.66666666666666</ele><time>2026-04-03T13:03:08.976Z</time></trkpt><trkpt lat="45.8074562" lon="11.8078339"><ele>170.83333333333334</ele><time>2026-04-03T13:03:09.965Z</time></trkpt><trkpt lat="45.8074588" lon="11.8079392"><ele>171.0</ele><time>2026-04-03T13:03:10.963Z</time></trkpt><trkpt lat="45.8074427" lon="11.8080758"><ele>171.0</ele><time>2026-04-03T13:03:11.98Z</time></trkpt><trkpt lat="45.8074016" lon="11.8082546"><ele>171.0</ele><time>2026-04-03T13:03:13.09Z</time></trkpt><trkpt lat="45.8073464" lon="11.8084657"><ele>171.0</ele><time>2026-04-03T13:03:15.021Z</time></trkpt><trkpt lat="45.8073322" lon="11.8086232"><ele>171.0</ele><time>2026-04-03T13:03:16.998Z</time></trkpt><trkpt lat="45.8073324" lon="11.8087734"><ele>171.33333333333334</ele><time>2026-04-03T13:03:18.966Z</time></trkpt><trkpt lat="45.8073229" lon="11.8088996"><ele>171.66666666666666</ele><time>2026-04-03T13:03:20.989Z</time></trkpt><trkpt lat="45.807304" lon="11.8090269"><ele>172.0</ele><time>2026-04-03T13:03:22.988Z</time></trkpt><trkpt lat="45.8072687" lon="11.8091358"><ele>172.33333333333331</ele><time>2026-04-03T13:03:25.004Z</time></trkpt><trkpt lat="45.8072393" lon="11.8092541"><ele>172.66666666666666</ele><time>2026-04-03T13:03:39.993Z</time></trkpt><trkpt lat="45.807209" lon="11.8093846"><ele>173.0</ele><time>2026-04-03T13:03:41.951Z</time></trkpt><trkpt lat="45.8071749" lon="11.8094862"><ele>173.5</ele><time>2026-04-03T13:03:42.982Z</time></trkpt><trkpt lat="45.8071379" lon="11.8095927"><ele>174.0</ele><time>2026-04-03T13:03:44.104Z</time></trkpt><trkpt lat="45.8071053" lon="11.8098008"><ele>174.5</ele><time>2026-04-03T13:03:45.958Z</time></trkpt><trkpt lat="45.8070882" lon="11.8099745"><ele>175.0</ele><time>2026-04-03T13:03:46.959Z</time></trkpt><trkpt lat="45.8070731" lon="11.8101202"><ele>175.4</ele><time>2026-04-03T13:03:47.943Z</time></trkpt><trkpt lat="45.807065" lon="11.8102286"><ele>175.8</ele><time>2026-04-03T13:03:48.969Z</time></trkpt><trkpt lat="45.8070693" lon="11.8103285"><ele>176.2</ele><time>2026-04-03T13:03:49.939Z</time></trkpt><trkpt lat="45.8070981" lon="11.8105028"><ele>176.6</ele><time>2026-04-03T13:03:51.948Z</time></trkpt><trkpt lat="45.8071214" lon="11.8106459"><ele>177.0</ele><time>2026-04-03T13:03:52.958Z</time></trkpt><trkpt lat="45.8071551" lon="11.8108254"><ele>177.0</ele><time>2026-04-03T13:03:53.99Z</time></trkpt><trkpt lat="45.8071838" lon="11.8109567"><ele>177.0</ele><time>2026-04-03T13:03:54.962Z</time></trkpt><trkpt lat="45.8072021" lon="11.8110656"><ele>177.0</ele><time>2026-04-03T13:03:55.953Z</time></trkpt><trkpt lat="45.8072061" lon="11.8111728"><ele>177.0</ele><time>2026-04-03T13:03:56.934Z</time></trkpt><trkpt lat="45.8071959" lon="11.8112904"><ele>177.0</ele><time>2026-04-03T13:03:57.968Z</time></trkpt><trkpt lat="45.8071771" lon="11.8114348"><ele>177.0</ele><time>2026-04-03T13:03:58.978Z</time></trkpt><trkpt lat="45.8071582" lon="11.811616"><ele>177.25</ele><time>2026-04-03T13:03:59.967Z</time></trkpt><trkpt lat="45.8071343" lon="11.8118288"><ele>177.5</ele><time>2026-04-03T13:04:00.956Z</time></trkpt><trkpt lat="45.8071145" lon="11.8120225"><ele>177.75</ele><time>2026-04-03T13:04:02.042Z</time></trkpt><trkpt lat="45.8071007" lon="11.8121918"><ele>178.0</ele><time>2026-04-03T13:04:02.982Z</time></trkpt><trkpt lat="45.8070954" lon="11.8123567"><ele>178.0</ele><time>2026-04-03T13:04:03.975Z</time></trkpt><trkpt lat="45.8070912" lon="11.812508"><ele>178.0</ele><time>2026-04-03T13:04:04.961Z</time></trkpt><trkpt lat="45.8070923" lon="11.8126972"><ele>178.0</ele><time>2026-04-03T13:04:05.979Z</time></trkpt><trkpt lat="45.8070888" lon="11.8129013"><ele>178.0</ele><time>2026-04-03T13:04:06.954Z</time></trkpt><trkpt lat="45.8071069" lon="11.813053"><ele>178.33333333333334</ele><time>2026-04-03T13:04:07.952Z</time></trkpt><trkpt lat="45.8071192" lon="11.8131765"><ele>178.66666666666669</ele><time>2026-04-03T13:04:08.96Z</time></trkpt><trkpt lat="45.807141" lon="11.8133177"><ele>179.0</ele><time>2026-04-03T13:04:11.006Z</time></trkpt><trkpt lat="45.8071146" lon="11.8134367"><ele>179.33333333333334</ele><time>2026-04-03T13:04:13.972Z</time></trkpt><trkpt lat="45.8070838" lon="11.8135421"><ele>179.66666666666666</ele><time>2026-04-03T13:04:14.982Z</time></trkpt><trkpt lat="45.8070549" lon="11.8136655"><ele>180.0</ele><time>2026-04-03T13:04:15.955Z</time></trkpt><trkpt lat="45.8070208" lon="11.8138458"><ele>181.33333333333334</ele><time>2026-04-03T13:04:16.95Z</time></trkpt><trkpt lat="45.8069794" lon="11.8140563"><ele>182.66666666666669</ele><time>2026-04-03T13:04:18.019Z</time></trkpt><trkpt lat="45.8069387" lon="11.8142734"><ele>184.0</ele><time>2026-04-03T13:04:18.958Z</time></trkpt><trkpt lat="45.8068945" lon="11.814516"><ele>184.0</ele><time>2026-04-03T13:04:19.985Z</time></trkpt><trkpt lat="45.8068546" lon="11.8147342"><ele>184.0</ele><time>2026-04-03T13:04:21.01Z</time></trkpt><trkpt lat="45.8068195" lon="11.81492"><ele>184.0</ele><time>2026-04-03T13:04:21.998Z</time></trkpt><trkpt lat="45.8067888" lon="11.8150852"><ele>184.0</ele><time>2026-04-03T13:04:22.957Z</time></trkpt><trkpt lat="45.8067517" lon="11.8152554"><ele>183.79999999999998</ele><time>2026-04-03T13:04:23.984Z</time></trkpt><trkpt lat="45.8067248" lon="11.8153954"><ele>183.6</ele><time>2026-04-03T13:04:24.968Z</time></trkpt><trkpt lat="45.8067037" lon="11.8154949"><ele>183.4</ele><time>2026-04-03T13:04:25.968Z</time></trkpt><trkpt lat="45.806638" lon="11.8155952"><ele>183.2</ele><time>2026-04-03T13:04:27.991Z</time></trkpt><trkpt lat="45.8065822" lon="11.8156413"><ele>183.0</ele><time>2026-04-03T13:04:29.084Z</time></trkpt><trkpt lat="45.8064991" lon="11.8157667"><ele>183.0</ele><time>2026-04-03T13:04:30.989Z</time></trkpt><trkpt lat="45.8064693" lon="11.8158469"><ele>183.0</ele><time>2026-04-03T13:04:31.964Z</time></trkpt><trkpt lat="45.8064429" lon="11.8160084"><ele>183.0</ele><time>2026-04-03T13:04:33.959Z</time></trkpt><trkpt lat="45.8064227" lon="11.8161145"><ele>183.0</ele><time>2026-04-03T13:04:34.976Z</time></trkpt><trkpt lat="45.8064038" lon="11.8162379"><ele>183.0</ele><time>2026-04-03T13:04:35.988Z</time></trkpt><trkpt lat="45.8063826" lon="11.816356"><ele>183.0</ele><time>2026-04-03T13:04:36.99Z</time></trkpt><trkpt lat="45.8063578" lon="11.8164915"><ele>183.2</ele><time>2026-04-03T13:04:37.98Z</time></trkpt><trkpt lat="45.806329" lon="11.8166475"><ele>183.4</ele><time>2026-04-03T13:04:38.953Z</time></trkpt><trkpt lat="45.8063091" lon="11.816801"><ele>183.6</ele><time>2026-04-03T13:04:39.992Z</time></trkpt><trkpt lat="45.8062878" lon="11.816949"><ele>183.79999999999998</ele><time>2026-04-03T13:04:40.977Z</time></trkpt><trkpt lat="45.8062647" lon="11.8170867"><ele>184.0</ele><time>2026-04-03T13:04:41.937Z</time></trkpt><trkpt lat="45.8062375" lon="11.8172324"><ele>184.2</ele><time>2026-04-03T13:04:42.968Z</time></trkpt><trkpt lat="45.8062188" lon="11.8173598"><ele>184.39999999999998</ele><time>2026-04-03T13:04:43.984Z</time></trkpt><trkpt lat="45.8062045" lon="11.817483"><ele>184.6</ele><time>2026-04-03T13:04:44.966Z</time></trkpt><trkpt lat="45.8062002" lon="11.8176169"><ele>184.8</ele><time>2026-04-03T13:04:45.946Z</time></trkpt><trkpt lat="45.8062051" lon="11.8177683"><ele>185.0</ele><time>2026-04-03T13:04:46.964Z</time></trkpt><trkpt lat="45.8062255" lon="11.8179311"><ele>185.33333333333331</ele><time>2026-04-03T13:04:48.001Z</time></trkpt><trkpt lat="45.8062529" lon="11.8181266"><ele>185.66666666666666</ele><time>2026-04-03T13:04:49.004Z</time></trkpt><trkpt lat="45.8062767" lon="11.8183501"><ele>186.0</ele><time>2026-04-03T13:04:50.097Z</time></trkpt><trkpt lat="45.8063056" lon="11.8186464"><ele>186.4</ele><time>2026-04-03T13:04:52.079Z</time></trkpt><trkpt lat="45.8062819" lon="11.8189103"><ele>186.8</ele><time>2026-04-03T13:04:53.957Z</time></trkpt><trkpt lat="45.8062495" lon="11.8190433"><ele>187.20000000000002</ele><time>2026-04-03T13:04:54.979Z</time></trkpt><trkpt lat="45.8062205" lon="11.8191426"><ele>187.60000000000002</ele><time>2026-04-03T13:04:55.974Z</time></trkpt><trkpt lat="45.8061891" lon="11.8192446"><ele>188.0</ele><time>2026-04-03T13:04:56.963Z</time></trkpt><trkpt lat="45.8061427" lon="11.8193837"><ele>188.2</ele><time>2026-04-03T13:04:57.967Z</time></trkpt><trkpt lat="45.806084" lon="11.8195537"><ele>188.4</ele><time>2026-04-03T13:04:58.951Z</time></trkpt><trkpt lat="45.8060345" lon="11.8197181"><ele>188.6</ele><time>2026-04-03T13:05:00.036Z</time></trkpt><trkpt lat="45.8059944" lon="11.8198501"><ele>188.79999999999998</ele><time>2026-04-03T13:05:01Z</time></trkpt><trkpt lat="45.8059629" lon="11.8199561"><ele>189.0</ele><time>2026-04-03T13:05:01.957Z</time></trkpt><trkpt lat="45.8059388" lon="11.8200459"><ele>188.75</ele><time>2026-04-03T13:05:02.959Z</time></trkpt><trkpt lat="45.8059117" lon="11.8202039"><ele>188.5</ele><time>2026-04-03T13:05:04.985Z</time></trkpt><trkpt lat="45.8058853" lon="11.8204117"><ele>188.25</ele><time>2026-04-03T13:05:06.996Z</time></trkpt><trkpt lat="45.8058735" lon="11.8205425"><ele>188.0</ele><time>2026-04-03T13:05:07.957Z</time></trkpt><trkpt lat="45.8058635" lon="11.8206809"><ele>188.0</ele><time>2026-04-03T13:05:08.952Z</time></trkpt><trkpt lat="45.8058534" lon="11.8208276"><ele>188.0</ele><time>2026-04-03T13:05:09.989Z</time></trkpt><trkpt lat="45.805841" lon="11.8209689"><ele>188.0</ele><time>2026-04-03T13:05:11Z</time></trkpt><trkpt lat="45.8058313" lon="11.8210957"><ele>188.0</ele><time>2026-04-03T13:05:11.945Z</time></trkpt><trkpt lat="45.8058182" lon="11.8212226"><ele>188.0</ele><time>2026-04-03T13:05:12.962Z</time></trkpt><trkpt lat="45.8057923" lon="11.8213487"><ele>188.0</ele><time>2026-04-03T13:05:13.969Z</time></trkpt><trkpt lat="45.8057632" lon="11.8214726"><ele>188.0</ele><time>2026-04-03T13:05:14.993Z</time></trkpt><trkpt lat="45.8057335" lon="11.8215898"><ele>188.0</ele><time>2026-04-03T13:05:15.962Z</time></trkpt><trkpt lat="45.8057055" lon="11.821709"><ele>188.0</ele><time>2026-04-03T13:05:16.958Z</time></trkpt><trkpt lat="45.8056762" lon="11.8218323"><ele>188.0</ele><time>2026-04-03T13:05:17.957Z</time></trkpt><trkpt lat="45.8056466" lon="11.8219745"><ele>188.0</ele><time>2026-04-03T13:05:19.094Z</time></trkpt><trkpt lat="45.8056239" lon="11.822095"><ele>188.0</ele><time>2026-04-03T13:05:19.998Z</time></trkpt><trkpt lat="45.8056026" lon="11.8222106"><ele>188.0</ele><time>2026-04-03T13:05:20.959Z</time></trkpt><trkpt lat="45.8055837" lon="11.8223262"><ele>188.0</ele><time>2026-04-03T13:05:21.959Z</time></trkpt><trkpt lat="45.8055677" lon="11.8224274"><ele>188.0</ele><time>2026-04-03T13:05:23.087Z</time></trkpt><trkpt lat="45.8055205" lon="11.822605"><ele>188.0</ele><time>2026-04-03T13:05:24.948Z</time></trkpt><trkpt lat="45.8054992" lon="11.822706"><ele>188.0</ele><time>2026-04-03T13:05:25.942Z</time></trkpt><trkpt lat="45.8054817" lon="11.8228365"><ele>188.0</ele><time>2026-04-03T13:05:26.929Z</time></trkpt><trkpt lat="45.805472" lon="11.8229894"><ele>188.0</ele><time>2026-04-03T13:05:27.972Z</time></trkpt><trkpt lat="45.805467" lon="11.8231192"><ele>188.0</ele><time>2026-04-03T13:05:28.939Z</time></trkpt><trkpt lat="45.8054706" lon="11.8232564"><ele>188.0</ele><time>2026-04-03T13:05:30.02Z</time></trkpt><trkpt lat="45.8054794" lon="11.8233923"><ele>188.0</ele><time>2026-04-03T13:05:30.953Z</time></trkpt><trkpt lat="45.8054876" lon="11.8235403"><ele>188.0</ele><time>2026-04-03T13:05:31.96Z</time></trkpt><trkpt lat="45.8054977" lon="11.8236691"><ele>188.0</ele><time>2026-04-03T13:05:32.951Z</time></trkpt><trkpt lat="45.8055107" lon="11.8237935"><ele>188.0</ele><time>2026-04-03T13:05:33.968Z</time></trkpt><trkpt lat="45.8055163" lon="11.8239073"><ele>188.4</ele><time>2026-04-03T13:05:34.981Z</time></trkpt><trkpt lat="45.805522" lon="11.8240031"><ele>188.8</ele><time>2026-04-03T13:05:35.964Z</time></trkpt><trkpt lat="45.805535" lon="11.8241697"><ele>189.2</ele><time>2026-04-03T13:05:37.985Z</time></trkpt><trkpt lat="45.8055411" lon="11.8243367"><ele>189.6</ele><time>2026-04-03T13:05:39.976Z</time></trkpt><trkpt lat="45.8055498" lon="11.8245209"><ele>190.0</ele><time>2026-04-03T13:05:41.997Z</time></trkpt><trkpt lat="45.805561" lon="11.8246147"><ele>190.0</ele><time>2026-04-03T13:05:42.987Z</time></trkpt><trkpt lat="45.8055683" lon="11.8247178"><ele>190.0</ele><time>2026-04-03T13:05:43.99Z</time></trkpt><trkpt lat="45.8055724" lon="11.8248332"><ele>190.0</ele><time>2026-04-03T13:05:44.977Z</time></trkpt><trkpt lat="45.805571" lon="11.8249312"><ele>190.0</ele><time>2026-04-03T13:05:45.962Z</time></trkpt><trkpt lat="45.8055724" lon="11.8250246"><ele>190.0</ele><time>2026-04-03T13:05:46.979Z</time></trkpt><trkpt lat="45.8055738" lon="11.8251886"><ele>190.0</ele><time>2026-04-03T13:05:48.963Z</time></trkpt><trkpt lat="45.8055825" lon="11.8253363"><ele>190.25</ele><time>2026-04-03T13:05:50.96Z</time></trkpt><trkpt lat="45.8055983" lon="11.8255069"><ele>190.5</ele><time>2026-04-03T13:05:52.989Z</time></trkpt><trkpt lat="45.8056101" lon="11.8256312"><ele>190.75</ele><time>2026-04-03T13:05:53.979Z</time></trkpt><trkpt lat="45.8056198" lon="11.8258131"><ele>191.0</ele><time>2026-04-03T13:05:54.971Z</time></trkpt><trkpt lat="45.8056273" lon="11.8260088"><ele>190.33333333333331</ele><time>2026-04-03T13:05:55.979Z</time></trkpt><trkpt lat="45.8056295" lon="11.826221"><ele>189.66666666666666</ele><time>2026-04-03T13:05:56.983Z</time></trkpt><trkpt lat="45.805639" lon="11.8264367"><ele>189.0</ele><time>2026-04-03T13:05:58.011Z</time></trkpt><trkpt lat="45.8056561" lon="11.8266627"><ele>189.5</ele><time>2026-04-03T13:05:58.961Z</time></trkpt><trkpt lat="45.8056791" lon="11.826883"><ele>190.0</ele><time>2026-04-03T13:05:59.998Z</time></trkpt><trkpt lat="45.8056975" lon="11.8270701"><ele>190.5</ele><time>2026-04-03T13:06:00.967Z</time></trkpt><trkpt lat="45.805711" lon="11.8272437"><ele>191.0</ele><time>2026-04-03T13:06:01.963Z</time></trkpt><trkpt lat="45.8057205" lon="11.8274161"><ele>191.0</ele><time>2026-04-03T13:06:02.99Z</time></trkpt><trkpt lat="45.805728" lon="11.82758"><ele>191.0</ele><time>2026-04-03T13:06:03.999Z</time></trkpt><trkpt lat="45.8057307" lon="11.8277338"><ele>191.0</ele><time>2026-04-03T13:06:05.007Z</time></trkpt><trkpt lat="45.8057326" lon="11.827865"><ele>191.0</ele><time>2026-04-03T13:06:05.961Z</time></trkpt><trkpt lat="45.8057325" lon="11.8279921"><ele>191.0</ele><time>2026-04-03T13:06:06.957Z</time></trkpt><trkpt lat="45.8057302" lon="11.8281128"><ele>190.60000000000002</ele><time>2026-04-03T13:06:08.018Z</time></trkpt><trkpt lat="45.8057285" lon="11.8282243"><ele>190.2</ele><time>2026-04-03T13:06:08.991Z</time></trkpt><trkpt lat="45.8057349" lon="11.8283375"><ele>189.8</ele><time>2026-04-03T13:06:09.971Z</time></trkpt><trkpt lat="45.8057512" lon="11.8284748"><ele>189.39999999999998</ele><time>2026-04-03T13:06:10.959Z</time></trkpt><trkpt lat="45.8057845" lon="11.8286749"><ele>189.0</ele><time>2026-04-03T13:06:12.216Z</time></trkpt><trkpt lat="45.8057979" lon="11.828953"><ele>189.0</ele><time>2026-04-03T13:06:14.003Z</time></trkpt><trkpt lat="45.8057999" lon="11.8291236"><ele>189.0</ele><time>2026-04-03T13:06:15.083Z</time></trkpt><trkpt lat="45.8058046" lon="11.829326"><ele>189.0</ele><time>2026-04-03T13:06:16.003Z</time></trkpt><trkpt lat="45.8058104" lon="11.8296047"><ele>189.0</ele><time>2026-04-03T13:06:17.194Z</time></trkpt><trkpt lat="45.8058145" lon="11.8299807"><ele>189.0</ele><time>2026-04-03T13:06:18.981Z</time></trkpt><trkpt lat="45.8058186" lon="11.8301732"><ele>189.0</ele><time>2026-04-03T13:06:19.987Z</time></trkpt><trkpt lat="45.8058175" lon="11.8303848"><ele>189.75</ele><time>2026-04-03T13:06:21.001Z</time></trkpt><trkpt lat="45.8058132" lon="11.8305802"><ele>190.5</ele><time>2026-04-03T13:06:21.951Z</time></trkpt><trkpt lat="45.8058023" lon="11.8307957"><ele>191.25</ele><time>2026-04-03T13:06:22.978Z</time></trkpt><trkpt lat="45.805793" lon="11.8310022"><ele>192.0</ele><time>2026-04-03T13:06:23.992Z</time></trkpt><trkpt lat="45.8057889" lon="11.8311913"><ele>192.0</ele><time>2026-04-03T13:06:24.987Z</time></trkpt><trkpt lat="45.8057874" lon="11.8313747"><ele>192.0</ele><time>2026-04-03T13:06:26.012Z</time></trkpt><trkpt lat="45.8057918" lon="11.8315338"><ele>192.0</ele><time>2026-04-03T13:06:26.976Z</time></trkpt><trkpt lat="45.8057957" lon="11.8316937"><ele>192.0</ele><time>2026-04-03T13:06:28Z</time></trkpt><trkpt lat="45.805797" lon="11.8318295"><ele>192.0</ele><time>2026-04-03T13:06:28.957Z</time></trkpt><trkpt lat="45.8057923" lon="11.8319774"><ele>192.0</ele><time>2026-04-03T13:06:30.091Z</time></trkpt><trkpt lat="45.8057759" lon="11.8321592"><ele>192.0</ele><time>2026-04-03T13:06:31.98Z</time></trkpt><trkpt lat="45.805767" lon="11.8322573"><ele>192.0</ele><time>2026-04-03T13:06:32.993Z</time></trkpt><trkpt lat="45.8057683" lon="11.8323875"><ele>192.0</ele><time>2026-04-03T13:06:33.99Z</time></trkpt><trkpt lat="45.8057752" lon="11.8325521"><ele>192.0</ele><time>2026-04-03T13:06:35Z</time></trkpt><trkpt lat="45.8057793" lon="11.8327006"><ele>191.6</ele><time>2026-04-03T13:06:35.968Z</time></trkpt><trkpt lat="45.8057814" lon="11.832837"><ele>191.2</ele><time>2026-04-03T13:06:36.96Z</time></trkpt><trkpt lat="45.8057803" lon="11.8329731"><ele>190.8</ele><time>2026-04-03T13:06:37.984Z</time></trkpt><trkpt lat="45.8057804" lon="11.8331025"><ele>190.4</ele><time>2026-04-03T13:06:38.962Z</time></trkpt><trkpt lat="45.8057811" lon="11.8332316"><ele>190.0</ele><time>2026-04-03T13:06:39.976Z</time></trkpt><trkpt lat="45.8057886" lon="11.8333595"><ele>189.8</ele><time>2026-04-03T13:06:40.974Z</time></trkpt><trkpt lat="45.8057936" lon="11.8334869"><ele>189.6</ele><time>2026-04-03T13:06:41.96Z</time></trkpt><trkpt lat="45.8057974" lon="11.8336222"><ele>189.39999999999998</ele><time>2026-04-03T13:06:42.969Z</time></trkpt><trkpt lat="45.805801" lon="11.8337497"><ele>189.2</ele><time>2026-04-03T13:06:43.964Z</time></trkpt><trkpt lat="45.8058072" lon="11.833873"><ele>189.0</ele><time>2026-04-03T13:06:44.943Z</time></trkpt><trkpt lat="45.8058135" lon="11.8340085"><ele>189.0</ele><time>2026-04-03T13:06:45.987Z</time></trkpt><trkpt lat="45.8058181" lon="11.8341483"><ele>189.0</ele><time>2026-04-03T13:06:47.077Z</time></trkpt><trkpt lat="45.8058308" lon="11.8344267"><ele>189.0</ele><time>2026-04-03T13:06:49.096Z</time></trkpt><trkpt lat="45.8058518" lon="11.8346794"><ele>188.83333333333334</ele><time>2026-04-03T13:06:50.968Z</time></trkpt><trkpt lat="45.8058632" lon="11.8348036"><ele>188.66666666666666</ele><time>2026-04-03T13:06:51.966Z</time></trkpt><trkpt lat="45.8058671" lon="11.8349167"><ele>188.5</ele><time>2026-04-03T13:06:52.964Z</time></trkpt><trkpt lat="45.8058671" lon="11.835023"><ele>188.33333333333331</ele><time>2026-04-03T13:06:53.961Z</time></trkpt><trkpt lat="45.8058614" lon="11.8351293"><ele>188.16666666666666</ele><time>2026-04-03T13:06:55.029Z</time></trkpt><trkpt lat="45.8058417" lon="11.8352989"><ele>188.0</ele><time>2026-04-03T13:06:57.017Z</time></trkpt><trkpt lat="45.8058136" lon="11.8354423"><ele>187.60000000000002</ele><time>2026-04-03T13:06:58.955Z</time></trkpt><trkpt lat="45.8057627" lon="11.8355815"><ele>187.20000000000002</ele><time>2026-04-03T13:07:00.963Z</time></trkpt><trkpt lat="45.8057353" lon="11.8356653"><ele>186.8</ele><time>2026-04-03T13:07:01.977Z</time></trkpt><trkpt lat="45.805703" lon="11.8357559"><ele>186.4</ele><time>2026-04-03T13:07:02.982Z</time></trkpt><trkpt lat="45.8056782" lon="11.8359325"><ele>186.0</ele><time>2026-04-03T13:07:05.035Z</time></trkpt><trkpt lat="45.8056852" lon="11.8360606"><ele>185.5</ele><time>2026-04-03T13:07:05.992Z</time></trkpt><trkpt lat="45.8056915" lon="11.8362076"><ele>185.0</ele><time>2026-04-03T13:07:06.994Z</time></trkpt><trkpt lat="45.8057013" lon="11.8363734"><ele>184.5</ele><time>2026-04-03T13:07:08.012Z</time></trkpt><trkpt lat="45.8057093" lon="11.8365461"><ele>184.0</ele><time>2026-04-03T13:07:08.976Z</time></trkpt><trkpt lat="45.8057139" lon="11.8367269"><ele>184.66666666666669</ele><time>2026-04-03T13:07:09.972Z</time></trkpt><trkpt lat="45.8057195" lon="11.8369739"><ele>185.33333333333334</ele><time>2026-04-03T13:07:11.005Z</time></trkpt><trkpt lat="45.8057228" lon="11.837213"><ele>186.0</ele><time>2026-04-03T13:07:11.993Z</time></trkpt><trkpt lat="45.8057273" lon="11.8374281"><ele>186.0</ele><time>2026-04-03T13:07:12.979Z</time></trkpt><trkpt lat="45.8057324" lon="11.8376305"><ele>186.0</ele><time>2026-04-03T13:07:14.014Z</time></trkpt><trkpt lat="45.805738" lon="11.8378104"><ele>186.0</ele><time>2026-04-03T13:07:15.001Z</time></trkpt><trkpt lat="45.8057418" lon="11.8379848"><ele>186.0</ele><time>2026-04-03T13:07:15.991Z</time></trkpt><trkpt lat="45.8057412" lon="11.8381558"><ele>185.75</ele><time>2026-04-03T13:07:17.108Z</time></trkpt><trkpt lat="45.8057553" lon="11.8384521"><ele>185.5</ele><time>2026-04-03T13:07:19.009Z</time></trkpt><trkpt lat="45.8057645" lon="11.8386144"><ele>185.25</ele><time>2026-04-03T13:07:19.955Z</time></trkpt><trkpt lat="45.8057695" lon="11.8387833"><ele>185.0</ele><time>2026-04-03T13:07:20.998Z</time></trkpt><trkpt lat="45.8057693" lon="11.8389107"><ele>184.83333333333331</ele><time>2026-04-03T13:07:21.966Z</time></trkpt><trkpt lat="45.8057716" lon="11.8390429"><ele>184.66666666666666</ele><time>2026-04-03T13:07:22.969Z</time></trkpt><trkpt lat="45.8057832" lon="11.8391593"><ele>184.5</ele><time>2026-04-03T13:07:23.982Z</time></trkpt><trkpt lat="45.8058077" lon="11.8392901"><ele>184.33333333333334</ele><time>2026-04-03T13:07:24.985Z</time></trkpt><trkpt lat="45.8058448" lon="11.8394175"><ele>184.16666666666669</ele><time>2026-04-03T13:07:25.997Z</time></trkpt><trkpt lat="45.8058764" lon="11.8395284"><ele>184.0</ele><time>2026-04-03T13:07:26.978Z</time></trkpt><trkpt lat="45.8059004" lon="11.8396691"><ele>183.0</ele><time>2026-04-03T13:07:27.985Z</time></trkpt><trkpt lat="45.8059175" lon="11.8398507"><ele>182.0</ele><time>2026-04-03T13:07:28.987Z</time></trkpt><trkpt lat="45.8059397" lon="11.8400276"><ele>181.0</ele><time>2026-04-03T13:07:29.963Z</time></trkpt><trkpt lat="45.8059571" lon="11.8401924"><ele>180.0</ele><time>2026-04-03T13:07:30.998Z</time></trkpt><trkpt lat="45.805973" lon="11.8403484"><ele>180.5</ele><time>2026-04-03T13:07:31.967Z</time></trkpt><trkpt lat="45.806" lon="11.8404955"><ele>181.0</ele><time>2026-04-03T13:07:33.004Z</time></trkpt><trkpt lat="45.8060286" lon="11.8406235"><ele>181.5</ele><time>2026-04-03T13:07:33.96Z</time></trkpt><trkpt lat="45.8060602" lon="11.840758"><ele>182.0</ele><time>2026-04-03T13:07:35.056Z</time></trkpt><trkpt lat="45.8060792" lon="11.8408538"><ele>182.5</ele><time>2026-04-03T13:07:35.97Z</time></trkpt><trkpt lat="45.8060976" lon="11.8409503"><ele>183.0</ele><time>2026-04-03T13:07:36.984Z</time></trkpt><trkpt lat="45.8061252" lon="11.8410928"><ele>183.2</ele><time>2026-04-03T13:07:39.001Z</time></trkpt><trkpt lat="45.8061668" lon="11.8412125"><ele>183.4</ele><time>2026-04-03T13:07:41.005Z</time></trkpt><trkpt lat="45.8062352" lon="11.841346"><ele>183.6</ele><time>2026-04-03T13:07:42.969Z</time></trkpt><trkpt lat="45.8062699" lon="11.8414214"><ele>183.79999999999998</ele><time>2026-04-03T13:07:43.968Z</time></trkpt><trkpt lat="45.8063003" lon="11.8415583"><ele>184.0</ele><time>2026-04-03T13:07:45.962Z</time></trkpt><trkpt lat="45.8063135" lon="11.8416942"><ele>184.25</ele><time>2026-04-03T13:07:47.973Z</time></trkpt><trkpt lat="45.8063402" lon="11.8418867"><ele>184.5</ele><time>2026-04-03T13:07:49.971Z</time></trkpt><trkpt lat="45.8063555" lon="11.8420098"><ele>184.75</ele><time>2026-04-03T13:07:50.958Z</time></trkpt><trkpt lat="45.8063678" lon="11.8421651"><ele>185.0</ele><time>2026-04-03T13:07:51.978Z</time></trkpt><trkpt lat="45.806392" lon="11.8423695"><ele>185.0</ele><time>2026-04-03T13:07:53.016Z</time></trkpt><trkpt lat="45.8064117" lon="11.8425217"><ele>185.0</ele><time>2026-04-03T13:07:53.962Z</time></trkpt><trkpt lat="45.8064261" lon="11.8426726"><ele>185.0</ele><time>2026-04-03T13:07:55.056Z</time></trkpt><trkpt lat="45.8064378" lon="11.8427719"><ele>185.0</ele><time>2026-04-03T13:07:55.972Z</time></trkpt><trkpt lat="45.8064541" lon="11.8428766"><ele>185.0</ele><time>2026-04-03T13:07:56.999Z</time></trkpt><trkpt lat="45.8064783" lon="11.843043"><ele>184.85714285714283</ele><time>2026-04-03T13:07:58.972Z</time></trkpt><trkpt lat="45.8064921" lon="11.8431381"><ele>184.71428571428572</ele><time>2026-04-03T13:07:59.999Z</time></trkpt><trkpt lat="45.8065169" lon="11.8432308"><ele>184.57142857142856</ele><time>2026-04-03T13:08:00.97Z</time></trkpt><trkpt lat="45.8065575" lon="11.8433092"><ele>184.42857142857142</ele><time>2026-04-03T13:08:01.973Z</time></trkpt><trkpt lat="45.8065949" lon="11.8433828"><ele>184.28571428571428</ele><time>2026-04-03T13:08:02.964Z</time></trkpt><trkpt lat="45.8066204" lon="11.8434667"><ele>184.14285714285714</ele><time>2026-04-03T13:08:03.996Z</time></trkpt><trkpt lat="45.8066364" lon="11.8435657"><ele>184.0</ele><time>2026-04-03T13:08:04.973Z</time></trkpt><trkpt lat="45.806653" lon="11.8436875"><ele>184.0</ele><time>2026-04-03T13:08:05.955Z</time></trkpt><trkpt lat="45.806668" lon="11.8438543"><ele>184.0</ele><time>2026-04-03T13:08:06.966Z</time></trkpt><trkpt lat="45.8066794" lon="11.8439966"><ele>184.0</ele><time>2026-04-03T13:08:07.976Z</time></trkpt><trkpt lat="45.8066925" lon="11.8441225"><ele>184.0</ele><time>2026-04-03T13:08:08.952Z</time></trkpt><trkpt lat="45.806706" lon="11.8442611"><ele>184.0</ele><time>2026-04-03T13:08:09.977Z</time></trkpt><trkpt lat="45.8067248" lon="11.8444361"><ele>185.0</ele><time>2026-04-03T13:08:11.014Z</time></trkpt><trkpt lat="45.8067524" lon="11.8446282"><ele>186.0</ele><time>2026-04-03T13:08:12.004Z</time></trkpt><trkpt lat="45.8067836" lon="11.8448536"><ele>187.0</ele><time>2026-04-03T13:08:12.993Z</time></trkpt><trkpt lat="45.806821" lon="11.8451122"><ele>187.33333333333334</ele><time>2026-04-03T13:08:13.973Z</time></trkpt><trkpt lat="45.8068594" lon="11.8453505"><ele>187.66666666666666</ele><time>2026-04-03T13:08:14.986Z</time></trkpt><trkpt lat="45.8068958" lon="11.845584"><ele>188.0</ele><time>2026-04-03T13:08:16.064Z</time></trkpt><trkpt lat="45.8069319" lon="11.8457695"><ele>188.33333333333331</ele><time>2026-04-03T13:08:16.969Z</time></trkpt><trkpt lat="45.8069842" lon="11.8459972"><ele>188.66666666666666</ele><time>2026-04-03T13:08:18.024Z</time></trkpt><trkpt lat="45.8070368" lon="11.8462092"><ele>189.0</ele><time>2026-04-03T13:08:18.997Z</time></trkpt><trkpt lat="45.8070863" lon="11.8464083"><ele>189.0</ele><time>2026-04-03T13:08:20Z</time></trkpt><trkpt lat="45.8071361" lon="11.8465914"><ele>189.0</ele><time>2026-04-03T13:08:21.015Z</time></trkpt><trkpt lat="45.8071766" lon="11.8467394"><ele>189.0</ele><time>2026-04-03T13:08:21.984Z</time></trkpt><trkpt lat="45.8072136" lon="11.8468694"><ele>189.0</ele><time>2026-04-03T13:08:22.999Z</time></trkpt><trkpt lat="45.8072434" lon="11.846981"><ele>189.0</ele><time>2026-04-03T13:08:23.998Z</time></trkpt><trkpt lat="45.8072764" lon="11.8470877"><ele>189.0</ele><time>2026-04-03T13:08:25.023Z</time></trkpt><trkpt lat="45.8073171" lon="11.8472085"><ele>189.0</ele><time>2026-04-03T13:08:25.996Z</time></trkpt><trkpt lat="45.8073731" lon="11.847378"><ele>189.0</ele><time>2026-04-03T13:08:26.992Z</time></trkpt><trkpt lat="45.8074338" lon="11.8475643"><ele>189.0</ele><time>2026-04-03T13:08:27.989Z</time></trkpt><trkpt lat="45.8074859" lon="11.8477422"><ele>189.0</ele><time>2026-04-03T13:08:29.012Z</time></trkpt><trkpt lat="45.8075231" lon="11.8478965"><ele>189.0</ele><time>2026-04-03T13:08:29.985Z</time></trkpt><trkpt lat="45.807556" lon="11.848036"><ele>189.0</ele><time>2026-04-03T13:08:31.001Z</time></trkpt><trkpt lat="45.8075853" lon="11.8481581"><ele>189.0</ele><time>2026-04-03T13:08:31.998Z</time></trkpt><trkpt lat="45.8076124" lon="11.8482624"><ele>189.0</ele><time>2026-04-03T13:08:32.954Z</time></trkpt><trkpt lat="45.8076435" lon="11.848372"><ele>189.33333333333334</ele><time>2026-04-03T13:08:33.991Z</time></trkpt><trkpt lat="45.807682" lon="11.8484692"><ele>189.66666666666666</ele><time>2026-04-03T13:08:34.987Z</time></trkpt><trkpt lat="45.8077266" lon="11.8485483"><ele>190.0</ele><time>2026-04-03T13:08:35.99Z</time></trkpt><trkpt lat="45.8077788" lon="11.84861"><ele>190.33333333333331</ele><time>2026-04-03T13:08:36.967Z</time></trkpt><trkpt lat="45.8078422" lon="11.8486724"><ele>190.66666666666666</ele><time>2026-04-03T13:08:37.974Z</time></trkpt><trkpt lat="45.8079178" lon="11.8487476"><ele>191.0</ele><time>2026-04-03T13:08:39.107Z</time></trkpt><trkpt lat="45.8080558" lon="11.8489258"><ele>191.0</ele><time>2026-04-03T13:08:40.988Z</time></trkpt><trkpt lat="45.8081236" lon="11.849034"><ele>191.0</ele><time>2026-04-03T13:08:42.014Z</time></trkpt><trkpt lat="45.8081842" lon="11.8491458"><ele>191.0</ele><time>2026-04-03T13:08:43.009Z</time></trkpt><trkpt lat="45.8082532" lon="11.8492572"><ele>191.0</ele><time>2026-04-03T13:08:43.98Z</time></trkpt><trkpt lat="45.8083447" lon="11.8493847"><ele>191.0</ele><time>2026-04-03T13:08:45.002Z</time></trkpt><trkpt lat="45.8084715" lon="11.8495545"><ele>191.5</ele><time>2026-04-03T13:08:46.115Z</time></trkpt><trkpt lat="45.8085599" lon="11.8496887"><ele>192.0</ele><time>2026-04-03T13:08:47.056Z</time></trkpt><trkpt lat="45.8086427" lon="11.8498206"><ele>192.5</ele><time>2026-04-03T13:08:47.984Z</time></trkpt><trkpt lat="45.80873" lon="11.8499583"><ele>193.0</ele><time>2026-04-03T13:08:48.997Z</time></trkpt><trkpt lat="45.8088074" lon="11.8500816"><ele>193.5</ele><time>2026-04-03T13:08:49.985Z</time></trkpt><trkpt lat="45.8088968" lon="11.850232"><ele>194.0</ele><time>2026-04-03T13:08:50.972Z</time></trkpt><trkpt lat="45.8089923" lon="11.8503935"><ele>194.5</ele><time>2026-04-03T13:08:52.002Z</time></trkpt><trkpt lat="45.8090956" lon="11.850554"><ele>195.0</ele><time>2026-04-03T13:08:53.004Z</time></trkpt><trkpt lat="45.8091909" lon="11.8507036"><ele>195.0</ele><time>2026-04-03T13:08:53.986Z</time></trkpt><trkpt lat="45.8092774" lon="11.8508474"><ele>195.0</ele><time>2026-04-03T13:08:54.996Z</time></trkpt><trkpt lat="45.8093547" lon="11.8509884"><ele>195.0</ele><time>2026-04-03T13:08:55.992Z</time></trkpt><trkpt lat="45.8094218" lon="11.8511187"><ele>195.0</ele><time>2026-04-03T13:08:56.984Z</time></trkpt><trkpt lat="45.8094827" lon="11.8512409"><ele>195.33333333333334</ele><time>2026-04-03T13:08:57.982Z</time></trkpt><trkpt lat="45.8095388" lon="11.8513547"><ele>195.66666666666669</ele><time>2026-04-03T13:08:58.977Z</time></trkpt><trkpt lat="45.8095838" lon="11.8514363"><ele>196.0</ele><time>2026-04-03T13:08:59.961Z</time></trkpt><trkpt lat="45.8096275" lon="11.851522"><ele>196.33333333333334</ele><time>2026-04-03T13:09:00.991Z</time></trkpt><trkpt lat="45.8096713" lon="11.8516084"><ele>196.66666666666669</ele><time>2026-04-03T13:09:01.96Z</time></trkpt><trkpt lat="45.8097202" lon="11.8517179"><ele>197.0</ele><time>2026-04-03T13:09:02.961Z</time></trkpt><trkpt lat="45.8097893" lon="11.8518787"><ele>197.0</ele><time>2026-04-03T13:09:03.963Z</time></trkpt><trkpt lat="45.8098743" lon="11.8520721"><ele>197.0</ele><time>2026-04-03T13:09:04.981Z</time></trkpt><trkpt lat="45.8099476" lon="11.8522482"><ele>197.0</ele><time>2026-04-03T13:09:05.993Z</time></trkpt><trkpt lat="45.8100077" lon="11.8524107"><ele>197.0</ele><time>2026-04-03T13:09:06.974Z</time></trkpt><trkpt lat="45.810062" lon="11.8525729"><ele>196.33333333333334</ele><time>2026-04-03T13:09:07.98Z</time></trkpt><trkpt lat="45.8101091" lon="11.8527173"><ele>195.66666666666669</ele><time>2026-04-03T13:09:09.014Z</time></trkpt><trkpt lat="45.8101522" lon="11.8528423"><ele>195.0</ele><time>2026-04-03T13:09:10.077Z</time></trkpt><trkpt lat="45.8101841" lon="11.8529416"><ele>194.33333333333331</ele><time>2026-04-03T13:09:10.991Z</time></trkpt><trkpt lat="45.8102114" lon="11.8530383"><ele>193.66666666666666</ele><time>2026-04-03T13:09:11.971Z</time></trkpt><trkpt lat="45.8102392" lon="11.8531293"><ele>193.0</ele><time>2026-04-03T13:09:13.002Z</time></trkpt><trkpt lat="45.81027" lon="11.8532214"><ele>193.0</ele><time>2026-04-03T13:09:17.998Z</time></trkpt><trkpt lat="45.8103138" lon="11.8533534"><ele>193.0</ele><time>2026-04-03T13:09:19.985Z</time></trkpt><trkpt lat="45.810348" lon="11.8534607"><ele>193.0</ele><time>2026-04-03T13:09:21.002Z</time></trkpt><trkpt lat="45.8104005" lon="11.8536184"><ele>193.0</ele><time>2026-04-03T13:09:21.977Z</time></trkpt><trkpt lat="45.8104585" lon="11.8538016"><ele>193.0</ele><time>2026-04-03T13:09:22.967Z</time></trkpt><trkpt lat="45.8105373" lon="11.8540293"><ele>192.5</ele><time>2026-04-03T13:09:24.001Z</time></trkpt><trkpt lat="45.810611" lon="11.8542265"><ele>192.0</ele><time>2026-04-03T13:09:24.988Z</time></trkpt><trkpt lat="45.8106825" lon="11.8544147"><ele>191.5</ele><time>2026-04-03T13:09:26Z</time></trkpt><trkpt lat="45.8107475" lon="11.8545821"><ele>191.0</ele><time>2026-04-03T13:09:27.006Z</time></trkpt><trkpt lat="45.8107901" lon="11.8547025"><ele>191.0</ele><time>2026-04-03T13:09:28.015Z</time></trkpt><trkpt lat="45.8108459" lon="11.8548528"><ele>191.0</ele><time>2026-04-03T13:09:30.042Z</time></trkpt><trkpt lat="45.8108864" lon="11.8549662"><ele>191.0</ele><time>2026-04-03T13:09:31.986Z</time></trkpt><trkpt lat="45.8109142" lon="11.8550558"><ele>191.0</ele><time>2026-04-03T13:09:33.964Z</time></trkpt><trkpt lat="45.8108571" lon="11.8548718"><ele>191.0</ele><time>2026-04-03T13:09:48.99Z</time></trkpt><trkpt lat="45.8108173" lon="11.8547499"><ele>191.0</ele><time>2026-04-03T13:09:50.054Z</time></trkpt><trkpt lat="45.810762" lon="11.8545949"><ele>191.0</ele><time>2026-04-03T13:09:51.028Z</time></trkpt><trkpt lat="45.8106918" lon="11.8544166"><ele>191.0</ele><time>2026-04-03T13:09:51.99Z</time></trkpt><trkpt lat="45.8106322" lon="11.8542612"><ele>191.0</ele><time>2026-04-03T13:09:53.039Z</time></trkpt><trkpt lat="45.8105753" lon="11.8541207"><ele>191.0</ele><time>2026-04-03T13:09:54.01Z</time></trkpt><trkpt lat="45.8105277" lon="11.8539885"><ele>191.0</ele><time>2026-04-03T13:09:54.991Z</time></trkpt><trkpt lat="45.810486" lon="11.8538684"><ele>191.0</ele><time>2026-04-03T13:09:55.958Z</time></trkpt><trkpt lat="45.8104478" lon="11.8537532"><ele>191.0</ele><time>2026-04-03T13:09:56.998Z</time></trkpt><trkpt lat="45.8104145" lon="11.8536575"><ele>191.0</ele><time>2026-04-03T13:09:57.996Z</time></trkpt><trkpt lat="45.8103718" lon="11.8534981"><ele>191.20000000000002</ele><time>2026-04-03T13:09:59.975Z</time></trkpt><trkpt lat="45.8103277" lon="11.8533724"><ele>191.4</ele><time>2026-04-03T13:10:01.968Z</time></trkpt><trkpt lat="45.8102769" lon="11.8533121"><ele>191.6</ele><time>2026-04-03T13:10:03.952Z</time></trkpt><trkpt lat="45.8101326" lon="11.8533528"><ele>191.8</ele><time>2026-04-03T13:10:05.985Z</time></trkpt><trkpt lat="45.8100314" lon="11.8534274"><ele>192.0</ele><time>2026-04-03T13:10:06.958Z</time></trkpt><trkpt lat="45.8099282" lon="11.8535106"><ele>191.5</ele><time>2026-04-03T13:10:07.937Z</time></trkpt><trkpt lat="45.8098155" lon="11.8535893"><ele>191.0</ele><time>2026-04-03T13:10:08.942Z</time></trkpt><trkpt lat="45.8096997" lon="11.8536691"><ele>190.5</ele><time>2026-04-03T13:10:09.992Z</time></trkpt><trkpt lat="45.8095886" lon="11.8537476"><ele>190.0</ele><time>2026-04-03T13:10:10.983Z</time></trkpt><trkpt lat="45.8094694" lon="11.8538251"><ele>190.0</ele><time>2026-04-03T13:10:11.985Z</time></trkpt><trkpt lat="45.8093502" lon="11.8539048"><ele>190.0</ele><time>2026-04-03T13:10:12.984Z</time></trkpt><trkpt lat="45.8092383" lon="11.8539867"><ele>190.0</ele><time>2026-04-03T13:10:13.962Z</time></trkpt><trkpt lat="45.8091279" lon="11.8540645"><ele>190.0</ele><time>2026-04-03T13:10:14.973Z</time></trkpt><trkpt lat="45.8090166" lon="11.8541449"><ele>188.75</ele><time>2026-04-03T13:10:15.979Z</time></trkpt><trkpt lat="45.8088984" lon="11.8542322"><ele>187.5</ele><time>2026-04-03T13:10:16.985Z</time></trkpt><trkpt lat="45.8087597" lon="11.8543299"><ele>186.25</ele><time>2026-04-03T13:10:18.009Z</time></trkpt><trkpt lat="45.8086253" lon="11.8544186"><ele>185.0</ele><time>2026-04-03T13:10:18.973Z</time></trkpt><trkpt lat="45.808487" lon="11.8545149"><ele>184.0</ele><time>2026-04-03T13:10:20.052Z</time></trkpt><trkpt lat="45.8083547" lon="11.8546123"><ele>183.0</ele><time>2026-04-03T13:10:21.03Z</time></trkpt><trkpt lat="45.8082135" lon="11.8547159"><ele>182.0</ele><time>2026-04-03T13:10:22.035Z</time></trkpt><trkpt lat="45.8080615" lon="11.8548248"><ele>182.0</ele><time>2026-04-03T13:10:23.074Z</time></trkpt><trkpt lat="45.8079197" lon="11.8549206"><ele>182.0</ele><time>2026-04-03T13:10:24.036Z</time></trkpt><trkpt lat="45.8077772" lon="11.8550211"><ele>182.0</ele><time>2026-04-03T13:10:25.051Z</time></trkpt><trkpt lat="45.8076136" lon="11.8551343"><ele>179.5</ele><time>2026-04-03T13:10:26.172Z</time></trkpt><trkpt lat="45.8073418" lon="11.8553275"><ele>177.0</ele><time>2026-04-03T13:10:28.068Z</time></trkpt><trkpt lat="45.8072068" lon="11.8554207"><ele>177.0</ele><time>2026-04-03T13:10:29.018Z</time></trkpt><trkpt lat="45.8070615" lon="11.8555189"><ele>177.0</ele><time>2026-04-03T13:10:30.046Z</time></trkpt><trkpt lat="45.8069233" lon="11.8556173"><ele>177.0</ele><time>2026-04-03T13:10:31.029Z</time></trkpt><trkpt lat="45.8067809" lon="11.8557174"><ele>176.0</ele><time>2026-04-03T13:10:32.044Z</time></trkpt><trkpt lat="45.8066387" lon="11.8558183"><ele>175.0</ele><time>2026-04-03T13:10:33.05Z</time></trkpt><trkpt lat="45.8065007" lon="11.8559185"><ele>174.0</ele><time>2026-04-03T13:10:34.038Z</time></trkpt><trkpt lat="45.8063607" lon="11.8560161"><ele>173.5</ele><time>2026-04-03T13:10:35.033Z</time></trkpt><trkpt lat="45.8062175" lon="11.8561135"><ele>173.0</ele><time>2026-04-03T13:10:36.05Z</time></trkpt><trkpt lat="45.8060838" lon="11.8562046"><ele>172.5</ele><time>2026-04-03T13:10:37.039Z</time></trkpt><trkpt lat="45.8059671" lon="11.8562862"><ele>172.0</ele><time>2026-04-03T13:10:38.066Z</time></trkpt><trkpt lat="45.8058765" lon="11.8563519"><ele>171.6</ele><time>2026-04-03T13:10:39.044Z</time></trkpt><trkpt lat="45.8058044" lon="11.8564016"><ele>171.2</ele><time>2026-04-03T13:10:40.031Z</time></trkpt><trkpt lat="45.8057231" lon="11.8564586"><ele>170.8</ele><time>2026-04-03T13:10:42.032Z</time></trkpt><trkpt lat="45.8056702" lon="11.8565129"><ele>170.4</ele><time>2026-04-03T13:10:45.004Z</time></trkpt><trkpt lat="45.8057009" lon="11.8567726"><ele>170.0</ele><time>2026-04-03T13:10:47.959Z</time></trkpt><trkpt lat="45.805704" lon="11.8568762"><ele>169.25</ele><time>2026-04-03T13:10:48.935Z</time></trkpt><trkpt lat="45.8057097" lon="11.8570208"><ele>168.5</ele><time>2026-04-03T13:10:50.091Z</time></trkpt><trkpt lat="45.8057119" lon="11.8573076"><ele>167.75</ele><time>2026-04-03T13:10:51.95Z</time></trkpt><trkpt lat="45.8057211" lon="11.8574535"><ele>167.0</ele><time>2026-04-03T13:10:52.939Z</time></trkpt><trkpt lat="45.8057431" lon="11.857608"><ele>166.8</ele><time>2026-04-03T13:10:53.965Z</time></trkpt><trkpt lat="45.8057694" lon="11.857763"><ele>166.6</ele><time>2026-04-03T13:10:54.951Z</time></trkpt><trkpt lat="45.8058053" lon="11.8579201"><ele>166.4</ele><time>2026-04-03T13:10:55.952Z</time></trkpt><trkpt lat="45.8058371" lon="11.8580762"><ele>166.20000000000002</ele><time>2026-04-03T13:10:56.972Z</time></trkpt><trkpt lat="45.8058733" lon="11.8582209"><ele>166.0</ele><time>2026-04-03T13:10:57.947Z</time></trkpt><trkpt lat="45.805878" lon="11.8583684"><ele>165.83333333333334</ele><time>2026-04-03T13:10:58.97Z</time></trkpt><trkpt lat="45.8059051" lon="11.8585152"><ele>165.66666666666669</ele><time>2026-04-03T13:10:59.987Z</time></trkpt><trkpt lat="45.8059207" lon="11.8586552"><ele>165.5</ele><time>2026-04-03T13:11:01.049Z</time></trkpt><trkpt lat="45.8059309" lon="11.8587626"><ele>165.33333333333334</ele><time>2026-04-03T13:11:01.985Z</time></trkpt><trkpt lat="45.8059449" lon="11.8588778"><ele>165.16666666666666</ele><time>2026-04-03T13:11:02.977Z</time></trkpt><trkpt lat="45.805972" lon="11.8589938"><ele>165.0</ele><time>2026-04-03T13:11:03.956Z</time></trkpt><trkpt lat="45.8060062" lon="11.8591149"><ele>165.0</ele><time>2026-04-03T13:11:04.932Z</time></trkpt><trkpt lat="45.8060457" lon="11.8592493"><ele>165.0</ele><time>2026-04-03T13:11:05.934Z</time></trkpt><trkpt lat="45.806096" lon="11.8593902"><ele>165.0</ele><time>2026-04-03T13:11:06.974Z</time></trkpt><trkpt lat="45.8061441" lon="11.8595228"><ele>165.0</ele><time>2026-04-03T13:11:07.983Z</time></trkpt><trkpt lat="45.8061912" lon="11.8596549"><ele>165.0</ele><time>2026-04-03T13:11:08.991Z</time></trkpt><trkpt lat="45.8062343" lon="11.8597886"><ele>165.0</ele><time>2026-04-03T13:11:09.957Z</time></trkpt><trkpt lat="45.806282" lon="11.8599344"><ele>165.0</ele><time>2026-04-03T13:11:10.967Z</time></trkpt><trkpt lat="45.8063243" lon="11.8600822"><ele>165.0</ele><time>2026-04-03T13:11:11.975Z</time></trkpt><trkpt lat="45.8063665" lon="11.8602396"><ele>165.0</ele><time>2026-04-03T13:11:13.013Z</time></trkpt><trkpt lat="45.8064034" lon="11.8603738"><ele>165.0</ele><time>2026-04-03T13:11:13.966Z</time></trkpt><trkpt lat="45.8064365" lon="11.8605152"><ele>164.83333333333334</ele><time>2026-04-03T13:11:14.993Z</time></trkpt><trkpt lat="45.8064672" lon="11.8606352"><ele>164.66666666666666</ele><time>2026-04-03T13:11:15.96Z</time></trkpt><trkpt lat="45.8065018" lon="11.8607562"><ele>164.5</ele><time>2026-04-03T13:11:17.033Z</time></trkpt><trkpt lat="45.8065311" lon="11.8608526"><ele>164.33333333333331</ele><time>2026-04-03T13:11:17.97Z</time></trkpt><trkpt lat="45.8065602" lon="11.8609482"><ele>164.16666666666666</ele><time>2026-04-03T13:11:18.968Z</time></trkpt><trkpt lat="45.8065964" lon="11.8610594"><ele>164.0</ele><time>2026-04-03T13:11:20.961Z</time></trkpt><trkpt lat="45.8065698" lon="11.8611552"><ele>163.39999999999998</ele><time>2026-04-03T13:11:23.967Z</time></trkpt><trkpt lat="45.8064707" lon="11.8611816"><ele>162.8</ele><time>2026-04-03T13:11:25.988Z</time></trkpt><trkpt lat="45.8063979" lon="11.86118"><ele>162.2</ele><time>2026-04-03T13:11:27.038Z</time></trkpt><trkpt lat="45.8062907" lon="11.8611973"><ele>161.60000000000002</ele><time>2026-04-03T13:11:28.955Z</time></trkpt><trkpt lat="45.8061523" lon="11.8612434"><ele>161.0</ele><time>2026-04-03T13:11:30.951Z</time></trkpt><trkpt lat="45.8060713" lon="11.8612733"><ele>161.0</ele><time>2026-04-03T13:11:31.954Z</time></trkpt><trkpt lat="45.8059987" lon="11.8612962"><ele>161.0</ele><time>2026-04-03T13:11:32.953Z</time></trkpt><trkpt lat="45.8059114" lon="11.8613269"><ele>161.0</ele><time>2026-04-03T13:11:34.229Z</time></trkpt><trkpt lat="45.8057677" lon="11.8613762"><ele>161.0</ele><time>2026-04-03T13:11:35.993Z</time></trkpt><trkpt lat="45.805684" lon="11.8613996"><ele>161.0</ele><time>2026-04-03T13:11:36.986Z</time></trkpt><trkpt lat="45.8055961" lon="11.8614152"><ele>160.60000000000002</ele><time>2026-04-03T13:11:37.99Z</time></trkpt><trkpt lat="45.8055028" lon="11.8614416"><ele>160.20000000000002</ele><time>2026-04-03T13:11:38.999Z</time></trkpt><trkpt lat="45.8054104" lon="11.8614622"><ele>159.8</ele><time>2026-04-03T13:11:40.001Z</time></trkpt><trkpt lat="45.8053034" lon="11.8614845"><ele>159.4</ele><time>2026-04-03T13:11:41.06Z</time></trkpt><trkpt lat="45.8052065" lon="11.861501"><ele>159.0</ele><time>2026-04-03T13:11:42.039Z</time></trkpt><trkpt lat="45.8051199" lon="11.8615167"><ele>158.8</ele><time>2026-04-03T13:11:42.957Z</time></trkpt><trkpt lat="45.8050252" lon="11.8615438"><ele>158.60000000000002</ele><time>2026-04-03T13:11:43.99Z</time></trkpt><trkpt lat="45.8049255" lon="11.8615868"><ele>158.4</ele><time>2026-04-03T13:11:44.988Z</time></trkpt><trkpt lat="45.8048271" lon="11.8616408"><ele>158.20000000000002</ele><time>2026-04-03T13:11:45.993Z</time></trkpt><trkpt lat="45.804738" lon="11.8616812"><ele>158.0</ele><time>2026-04-03T13:11:46.97Z</time></trkpt><trkpt lat="45.8046543" lon="11.8617143"><ele>158.0</ele><time>2026-04-03T13:11:47.971Z</time></trkpt><trkpt lat="45.8045829" lon="11.8617446"><ele>158.0</ele><time>2026-04-03T13:11:48.949Z</time></trkpt><trkpt lat="45.8045103" lon="11.8617762"><ele>158.0</ele><time>2026-04-03T13:11:49.973Z</time></trkpt><trkpt lat="45.8044404" lon="11.8618015"><ele>158.0</ele><time>2026-04-03T13:11:50.961Z</time></trkpt><trkpt lat="45.804375" lon="11.8618258"><ele>158.0</ele><time>2026-04-03T13:11:51.981Z</time></trkpt><trkpt lat="45.8042964" lon="11.8618584"><ele>158.0</ele><time>2026-04-03T13:11:53.977Z</time></trkpt><trkpt lat="45.804229" lon="11.8619475"><ele>156.75</ele><time>2026-04-03T13:11:57.008Z</time></trkpt><trkpt lat="45.8042096" lon="11.8621375"><ele>155.5</ele><time>2026-04-03T13:11:58.988Z</time></trkpt><trkpt lat="45.8041973" lon="11.8622814"><ele>154.25</ele><time>2026-04-03T13:11:59.997Z</time></trkpt><trkpt lat="45.8041852" lon="11.8624285"><ele>153.0</ele><time>2026-04-03T13:12:00.989Z</time></trkpt><trkpt lat="45.8041873" lon="11.862599"><ele>153.25</ele><time>2026-04-03T13:12:02.035Z</time></trkpt><trkpt lat="45.8041881" lon="11.8627658"><ele>153.5</ele><time>2026-04-03T13:12:02.966Z</time></trkpt><trkpt lat="45.804194" lon="11.862944"><ele>153.75</ele><time>2026-04-03T13:12:03.982Z</time></trkpt><trkpt lat="45.804202" lon="11.863137"><ele>154.0</ele><time>2026-04-03T13:12:04.959Z</time></trkpt><trkpt lat="45.8042114" lon="11.8633355"><ele>154.5</ele><time>2026-04-03T13:12:05.978Z</time></trkpt><trkpt lat="45.8042218" lon="11.8635407"><ele>155.0</ele><time>2026-04-03T13:12:06.966Z</time></trkpt><trkpt lat="45.8042293" lon="11.8637518"><ele>155.5</ele><time>2026-04-03T13:12:07.968Z</time></trkpt><trkpt lat="45.8042395" lon="11.8639612"><ele>156.0</ele><time>2026-04-03T13:12:08.962Z</time></trkpt><trkpt lat="45.804251" lon="11.8641668"><ele>155.75</ele><time>2026-04-03T13:12:09.963Z</time></trkpt><trkpt lat="45.8042543" lon="11.8643722"><ele>155.5</ele><time>2026-04-03T13:12:10.995Z</time></trkpt><trkpt lat="45.8042481" lon="11.8645643"><ele>155.25</ele><time>2026-04-03T13:12:12.004Z</time></trkpt><trkpt lat="45.8042349" lon="11.8647606"><ele>155.0</ele><time>2026-04-03T13:12:13.014Z</time></trkpt><trkpt lat="45.8042175" lon="11.8649547"><ele>154.75</ele><time>2026-04-03T13:12:14.001Z</time></trkpt><trkpt lat="45.8041961" lon="11.8651405"><ele>154.5</ele><time>2026-04-03T13:12:14.983Z</time></trkpt><trkpt lat="45.8041741" lon="11.8653206"><ele>154.25</ele><time>2026-04-03T13:12:16.001Z</time></trkpt><trkpt lat="45.8041467" lon="11.8654927"><ele>154.0</ele><time>2026-04-03T13:12:17.001Z</time></trkpt><trkpt lat="45.8041235" lon="11.8656512"><ele>154.0</ele><time>2026-04-03T13:12:17.998Z</time></trkpt><trkpt lat="45.8041011" lon="11.8657948"><ele>154.0</ele><time>2026-04-03T13:12:18.993Z</time></trkpt><trkpt lat="45.8040859" lon="11.8659104"><ele>154.0</ele><time>2026-04-03T13:12:19.986Z</time></trkpt><trkpt lat="45.8040713" lon="11.8660384"><ele>154.0</ele><time>2026-04-03T13:12:21.991Z</time></trkpt><trkpt lat="45.8040482" lon="11.8661575"><ele>154.0</ele><time>2026-04-03T13:12:31.992Z</time></trkpt><trkpt lat="45.8040502" lon="11.866254"><ele>154.0</ele><time>2026-04-03T13:12:41.983Z</time></trkpt><trkpt lat="45.804129" lon="11.8663792"><ele>154.2</ele><time>2026-04-03T13:12:43.973Z</time></trkpt><trkpt lat="45.804174" lon="11.8664801"><ele>154.4</ele><time>2026-04-03T13:12:44.953Z</time></trkpt><trkpt lat="45.8042328" lon="11.8666282"><ele>154.6</ele><time>2026-04-03T13:12:45.979Z</time></trkpt><trkpt lat="45.8042819" lon="11.8667685"><ele>154.8</ele><time>2026-04-03T13:12:46.939Z</time></trkpt><trkpt lat="45.8043392" lon="11.866924"><ele>155.0</ele><time>2026-04-03T13:12:47.927Z</time></trkpt><trkpt lat="45.8043965" lon="11.8670822"><ele>154.75</ele><time>2026-04-03T13:12:48.945Z</time></trkpt><trkpt lat="45.8044532" lon="11.8672387"><ele>154.5</ele><time>2026-04-03T13:12:49.96Z</time></trkpt><trkpt lat="45.8045086" lon="11.8673921"><ele>154.25</ele><time>2026-04-03T13:12:50.978Z</time></trkpt><trkpt lat="45.8045568" lon="11.8675498"><ele>154.0</ele><time>2026-04-03T13:12:52.005Z</time></trkpt><trkpt lat="45.8045963" lon="11.8677041"><ele>154.0</ele><time>2026-04-03T13:12:52.961Z</time></trkpt><trkpt lat="45.8046384" lon="11.8678714"><ele>154.0</ele><time>2026-04-03T13:12:53.983Z</time></trkpt><trkpt lat="45.8046783" lon="11.8680355"><ele>154.0</ele><time>2026-04-03T13:12:54.965Z</time></trkpt><trkpt lat="45.8047203" lon="11.8682046"><ele>154.0</ele><time>2026-04-03T13:12:55.964Z</time></trkpt><trkpt lat="45.8047621" lon="11.8683772"><ele>153.5</ele><time>2026-04-03T13:12:56.965Z</time></trkpt><trkpt lat="45.8048068" lon="11.8685566"><ele>153.0</ele><time>2026-04-03T13:12:58.015Z</time></trkpt><trkpt lat="45.8048495" lon="11.8687271"><ele>152.5</ele><time>2026-04-03T13:12:58.982Z</time></trkpt><trkpt lat="45.8048904" lon="11.8689026"><ele>152.0</ele><time>2026-04-03T13:12:59.95Z</time></trkpt><trkpt lat="45.8049343" lon="11.8690904"><ele>151.75</ele><time>2026-04-03T13:13:00.953Z</time></trkpt><trkpt lat="45.8049799" lon="11.8692786"><ele>151.5</ele><time>2026-04-03T13:13:01.983Z</time></trkpt><trkpt lat="45.8050231" lon="11.8694594"><ele>151.25</ele><time>2026-04-03T13:13:02.956Z</time></trkpt><trkpt lat="45.8050703" lon="11.8696514"><ele>151.0</ele><time>2026-04-03T13:13:03.98Z</time></trkpt><trkpt lat="45.8051119" lon="11.8698361"><ele>151.0</ele><time>2026-04-03T13:13:04.964Z</time></trkpt><trkpt lat="45.8051557" lon="11.8700238"><ele>151.0</ele><time>2026-04-03T13:13:05.972Z</time></trkpt><trkpt lat="45.8051996" lon="11.8702057"><ele>151.0</ele><time>2026-04-03T13:13:06.956Z</time></trkpt><trkpt lat="45.8052441" lon="11.8704024"><ele>151.0</ele><time>2026-04-03T13:13:07.98Z</time></trkpt><trkpt lat="45.8052872" lon="11.8705998"><ele>150.75</ele><time>2026-04-03T13:13:08.99Z</time></trkpt><trkpt lat="45.8053257" lon="11.8708011"><ele>150.5</ele><time>2026-04-03T13:13:10.008Z</time></trkpt><trkpt lat="45.8053485" lon="11.8709858"><ele>150.25</ele><time>2026-04-03T13:13:10.972Z</time></trkpt><trkpt lat="45.8053522" lon="11.8711928"><ele>150.0</ele><time>2026-04-03T13:13:12.036Z</time></trkpt><trkpt lat="45.8053418" lon="11.8713814"><ele>149.0</ele><time>2026-04-03T13:13:12.985Z</time></trkpt><trkpt lat="45.8053167" lon="11.8715812"><ele>148.0</ele><time>2026-04-03T13:13:13.969Z</time></trkpt><trkpt lat="45.8052756" lon="11.8717822"><ele>147.0</ele><time>2026-04-03T13:13:14.995Z</time></trkpt><trkpt lat="45.8052159" lon="11.8719891"><ele>146.0</ele><time>2026-04-03T13:13:16.136Z</time></trkpt><trkpt lat="45.8051535" lon="11.8721381"><ele>145.5</ele><time>2026-04-03T13:13:17.049Z</time></trkpt><trkpt lat="45.8050692" lon="11.8722914"><ele>145.0</ele><time>2026-04-03T13:13:18.068Z</time></trkpt><trkpt lat="45.8049816" lon="11.8724193"><ele>144.5</ele><time>2026-04-03T13:13:19.03Z</time></trkpt><trkpt lat="45.8048762" lon="11.8725428"><ele>144.0</ele><time>2026-04-03T13:13:20.052Z</time></trkpt><trkpt lat="45.8047758" lon="11.8726576"><ele>143.5</ele><time>2026-04-03T13:13:21.03Z</time></trkpt><trkpt lat="45.8046631" lon="11.8727799"><ele>143.0</ele><time>2026-04-03T13:13:22.056Z</time></trkpt><trkpt lat="45.8045544" lon="11.8728967"><ele>142.5</ele><time>2026-04-03T13:13:23.036Z</time></trkpt><trkpt lat="45.8044394" lon="11.8730228"><ele>142.0</ele><time>2026-04-03T13:13:24.043Z</time></trkpt><trkpt lat="45.8043269" lon="11.8731638"><ele>142.0</ele><time>2026-04-03T13:13:25.052Z</time></trkpt><trkpt lat="45.8042155" lon="11.8733265"><ele>142.0</ele><time>2026-04-03T13:13:26.114Z</time></trkpt><trkpt lat="45.8041274" lon="11.8734844"><ele>142.0</ele><time>2026-04-03T13:13:27.038Z</time></trkpt><trkpt lat="45.804038" lon="11.8736699"><ele>141.0</ele><time>2026-04-03T13:13:28.06Z</time></trkpt><trkpt lat="45.8039509" lon="11.8738551"><ele>140.0</ele><time>2026-04-03T13:13:29.04Z</time></trkpt><trkpt lat="45.8038601" lon="11.8740394"><ele>139.0</ele><time>2026-04-03T13:13:30.029Z</time></trkpt><trkpt lat="45.8037681" lon="11.8742303"><ele>138.33333333333334</ele><time>2026-04-03T13:13:31.053Z</time></trkpt><trkpt lat="45.8036845" lon="11.8744241"><ele>137.66666666666666</ele><time>2026-04-03T13:13:32.062Z</time></trkpt><trkpt lat="45.8036139" lon="11.8746181"><ele>137.0</ele><time>2026-04-03T13:13:33.048Z</time></trkpt><trkpt lat="45.8035479" lon="11.8748081"><ele>137.66666666666666</ele><time>2026-04-03T13:13:34.015Z</time></trkpt><trkpt lat="45.8034757" lon="11.8750083"><ele>138.33333333333334</ele><time>2026-04-03T13:13:35.049Z</time></trkpt><trkpt lat="45.8034045" lon="11.8752024"><ele>139.0</ele><time>2026-04-03T13:13:36.062Z</time></trkpt><trkpt lat="45.8033395" lon="11.8753918"><ele>139.0</ele><time>2026-04-03T13:13:37.04Z</time></trkpt><trkpt lat="45.8032729" lon="11.8755851"><ele>139.0</ele><time>2026-04-03T13:13:38.032Z</time></trkpt><trkpt lat="45.8032029" lon="11.8757834"><ele>139.0</ele><time>2026-04-03T13:13:39.047Z</time></trkpt><trkpt lat="45.8031319" lon="11.8759868"><ele>138.0</ele><time>2026-04-03T13:13:40.077Z</time></trkpt><trkpt lat="45.8030658" lon="11.8761802"><ele>137.0</ele><time>2026-04-03T13:13:41.046Z</time></trkpt><trkpt lat="45.8029998" lon="11.8763748"><ele>136.0</ele><time>2026-04-03T13:13:42.024Z</time></trkpt><trkpt lat="45.8029324" lon="11.8765657"><ele>136.0</ele><time>2026-04-03T13:13:43.005Z</time></trkpt><trkpt lat="45.8028668" lon="11.8767509"><ele>136.0</ele><time>2026-04-03T13:13:44.021Z</time></trkpt><trkpt lat="45.8028051" lon="11.8769236"><ele>136.0</ele><time>2026-04-03T13:13:45.019Z</time></trkpt><trkpt lat="45.8027363" lon="11.8771194"><ele>136.0</ele><time>2026-04-03T13:13:46.105Z</time></trkpt><trkpt lat="45.8026694" lon="11.8773135"><ele>136.0</ele><time>2026-04-03T13:13:47.138Z</time></trkpt><trkpt lat="45.8026079" lon="11.8774894"><ele>136.0</ele><time>2026-04-03T13:13:48.038Z</time></trkpt><trkpt lat="45.8025376" lon="11.8777"><ele>136.0</ele><time>2026-04-03T13:13:49.061Z</time></trkpt><trkpt lat="45.8024696" lon="11.8779028"><ele>135.0</ele><time>2026-04-03T13:13:50.024Z</time></trkpt><trkpt lat="45.8023945" lon="11.8781198"><ele>134.0</ele><time>2026-04-03T13:13:51.033Z</time></trkpt><trkpt lat="45.8023217" lon="11.8783337"><ele>133.0</ele><time>2026-04-03T13:13:52.018Z</time></trkpt><trkpt lat="45.8022476" lon="11.8785542"><ele>132.33333333333334</ele><time>2026-04-03T13:13:53.023Z</time></trkpt><trkpt lat="45.8021687" lon="11.8787781"><ele>131.66666666666666</ele><time>2026-04-03T13:13:54.049Z</time></trkpt><trkpt lat="45.8020926" lon="11.878991"><ele>131.0</ele><time>2026-04-03T13:13:55.025Z</time></trkpt><trkpt lat="45.8020164" lon="11.8791999"><ele>132.0</ele><time>2026-04-03T13:13:56.007Z</time></trkpt><trkpt lat="45.8019339" lon="11.8794297"><ele>133.0</ele><time>2026-04-03T13:13:57.092Z</time></trkpt><trkpt lat="45.8018616" lon="11.8796273"><ele>134.0</ele><time>2026-04-03T13:13:58.052Z</time></trkpt><trkpt lat="45.8017849" lon="11.8798377"><ele>131.66666666666666</ele><time>2026-04-03T13:13:59.091Z</time></trkpt><trkpt lat="45.8017155" lon="11.8800272"><ele>129.33333333333334</ele><time>2026-04-03T13:14:00.035Z</time></trkpt><trkpt lat="45.8016376" lon="11.8802296"><ele>127.0</ele><time>2026-04-03T13:14:01.038Z</time></trkpt><trkpt lat="45.8015562" lon="11.8804363"><ele>127.0</ele><time>2026-04-03T13:14:02.054Z</time></trkpt><trkpt lat="45.8014737" lon="11.8806322"><ele>127.0</ele><time>2026-04-03T13:14:03.04Z</time></trkpt><trkpt lat="45.8013871" lon="11.8808287"><ele>127.0</ele><time>2026-04-03T13:14:04.064Z</time></trkpt><trkpt lat="45.8013045" lon="11.8810176"><ele>129.33333333333334</ele><time>2026-04-03T13:14:05.044Z</time></trkpt><trkpt lat="45.8012171" lon="11.8812165"><ele>131.66666666666666</ele><time>2026-04-03T13:14:06.075Z</time></trkpt><trkpt lat="45.801131" lon="11.8814098"><ele>134.0</ele><time>2026-04-03T13:14:07.057Z</time></trkpt><trkpt lat="45.8010449" lon="11.8815999"><ele>131.66666666666666</ele><time>2026-04-03T13:14:08.021Z</time></trkpt><trkpt lat="45.8009557" lon="11.8817979"><ele>129.33333333333334</ele><time>2026-04-03T13:14:09.031Z</time></trkpt><trkpt lat="45.8008689" lon="11.8819975"><ele>127.0</ele><time>2026-04-03T13:14:10.042Z</time></trkpt><trkpt lat="45.8007981" lon="11.8821949"><ele>127.0</ele><time>2026-04-03T13:14:11.024Z</time></trkpt><trkpt lat="45.8007428" lon="11.882399"><ele>127.0</ele><time>2026-04-03T13:14:12.021Z</time></trkpt><trkpt lat="45.8007085" lon="11.8826128"><ele>127.0</ele><time>2026-04-03T13:14:13.046Z</time></trkpt><trkpt lat="45.800689" lon="11.8828376"><ele>127.0</ele><time>2026-04-03T13:14:14.065Z</time></trkpt><trkpt lat="45.8006848" lon="11.8830702"><ele>127.0</ele><time>2026-04-03T13:14:15.048Z</time></trkpt><trkpt lat="45.8006997" lon="11.8833026"><ele>127.0</ele><time>2026-04-03T13:14:16.036Z</time></trkpt><trkpt lat="45.8007269" lon="11.8835338"><ele>126.33333333333334</ele><time>2026-04-03T13:14:17.055Z</time></trkpt><trkpt lat="45.8007529" lon="11.8837639"><ele>125.66666666666666</ele><time>2026-04-03T13:14:18.08Z</time></trkpt><trkpt lat="45.8007808" lon="11.883975"><ele>125.0</ele><time>2026-04-03T13:14:19.033Z</time></trkpt><trkpt lat="45.8008197" lon="11.8842072"><ele>124.33333333333333</ele><time>2026-04-03T13:14:20.064Z</time></trkpt><trkpt lat="45.8008694" lon="11.8844265"><ele>123.66666666666666</ele><time>2026-04-03T13:14:21.051Z</time></trkpt><trkpt lat="45.8009344" lon="11.8846555"><ele>123.0</ele><time>2026-04-03T13:14:22.18Z</time></trkpt><trkpt lat="45.8010504" lon="11.8850295"><ele>124.60000000000001</ele><time>2026-04-03T13:14:24.058Z</time></trkpt><trkpt lat="45.8011114" lon="11.8852133"><ele>126.20000000000002</ele><time>2026-04-03T13:14:25.079Z</time></trkpt><trkpt lat="45.8011605" lon="11.8853659"><ele>127.8</ele><time>2026-04-03T13:14:26.081Z</time></trkpt><trkpt lat="45.8011894" lon="11.8854704"><ele>129.4</ele><time>2026-04-03T13:14:27.051Z</time></trkpt><trkpt lat="45.801202" lon="11.8855784"><ele>131.0</ele><time>2026-04-03T13:14:29.058Z</time></trkpt><trkpt lat="45.8012521" lon="11.8855195"><ele>131.0</ele><time>2026-04-03T13:14:37.053Z</time></trkpt><trkpt lat="45.8011769" lon="11.885343"><ele>131.0</ele><time>2026-04-03T13:14:39.015Z</time></trkpt><trkpt lat="45.8011427" lon="11.8852386"><ele>131.0</ele><time>2026-04-03T13:14:39.965Z</time></trkpt><trkpt lat="45.8010896" lon="11.8850754"><ele>131.0</ele><time>2026-04-03T13:14:41.002Z</time></trkpt><trkpt lat="45.8010376" lon="11.8849281"><ele>129.4</ele><time>2026-04-03T13:14:42.009Z</time></trkpt><trkpt lat="45.8009951" lon="11.8847938"><ele>127.8</ele><time>2026-04-03T13:14:42.974Z</time></trkpt><trkpt lat="45.8009591" lon="11.8846699"><ele>126.20000000000002</ele><time>2026-04-03T13:14:43.972Z</time></trkpt><trkpt lat="45.8009316" lon="11.884565"><ele>124.60000000000001</ele><time>2026-04-03T13:14:44.971Z</time></trkpt><trkpt lat="45.8009076" lon="11.8844636"><ele>123.0</ele><time>2026-04-03T13:14:45.994Z</time></trkpt><trkpt lat="45.8008704" lon="11.8843229"><ele>123.0</ele><time>2026-04-03T13:14:47.964Z</time></trkpt><trkpt lat="45.8007991" lon="11.8842859"><ele>123.0</ele><time>2026-04-03T13:14:49.983Z</time></trkpt><trkpt lat="45.8006667" lon="11.8843668"><ele>123.0</ele><time>2026-04-03T13:14:51.948Z</time></trkpt><trkpt lat="45.8005475" lon="11.8844321"><ele>123.0</ele><time>2026-04-03T13:14:52.978Z</time></trkpt><trkpt lat="45.800441" lon="11.8844882"><ele>123.0</ele><time>2026-04-03T13:14:53.948Z</time></trkpt><trkpt lat="45.8003423" lon="11.8845346"><ele>123.00000000000001</ele><time>2026-04-03T13:14:54.975Z</time></trkpt><trkpt lat="45.8002746" lon="11.8845898"><ele>123.00000000000001</ele><time>2026-04-03T13:14:55.972Z</time></trkpt><trkpt lat="45.800232" lon="11.8846714"><ele>123.0</ele><time>2026-04-03T13:14:57Z</time></trkpt><trkpt lat="45.8002007" lon="11.8848009"><ele>123.0</ele><time>2026-04-03T13:14:57.988Z</time></trkpt><trkpt lat="45.8001735" lon="11.8849814"><ele>121.80000000000001</ele><time>2026-04-03T13:14:59.016Z</time></trkpt><trkpt lat="45.8001363" lon="11.8851243"><ele>120.60000000000001</ele><time>2026-04-03T13:14:59.975Z</time></trkpt><trkpt lat="45.8000904" lon="11.8852666"><ele>119.39999999999999</ele><time>2026-04-03T13:15:01.011Z</time></trkpt><trkpt lat="45.8000356" lon="11.8853914"><ele>118.19999999999999</ele><time>2026-04-03T13:15:02Z</time></trkpt><trkpt lat="45.7999714" lon="11.8855185"><ele>117.0</ele><time>2026-04-03T13:15:02.973Z</time></trkpt><trkpt lat="45.7999037" lon="11.8856544"><ele>117.0</ele><time>2026-04-03T13:15:04.001Z</time></trkpt><trkpt lat="45.7998494" lon="11.8857967"><ele>116.99999999999999</ele><time>2026-04-03T13:15:05.014Z</time></trkpt><trkpt lat="45.7998113" lon="11.8859392"><ele>116.99999999999999</ele><time>2026-04-03T13:15:06Z</time></trkpt><trkpt lat="45.7997917" lon="11.886082"><ele>117.0</ele><time>2026-04-03T13:15:07.036Z</time></trkpt><trkpt lat="45.7997836" lon="11.8862181"><ele>117.0</ele><time>2026-04-03T13:15:07.993Z</time></trkpt><trkpt lat="45.7997714" lon="11.8863542"><ele>116.6</ele><time>2026-04-03T13:15:08.985Z</time></trkpt><trkpt lat="45.7997384" lon="11.8864721"><ele>116.19999999999999</ele><time>2026-04-03T13:15:10.002Z</time></trkpt><trkpt lat="45.7996837" lon="11.8865558"><ele>115.8</ele><time>2026-04-03T13:15:11.003Z</time></trkpt><trkpt lat="45.7996049" lon="11.8866325"><ele>115.4</ele><time>2026-04-03T13:15:12.009Z</time></trkpt><trkpt lat="45.7995096" lon="11.8867034"><ele>115.0</ele><time>2026-04-03T13:15:13.017Z</time></trkpt><trkpt lat="45.7994013" lon="11.8867839"><ele>114.75</ele><time>2026-04-03T13:15:14.046Z</time></trkpt><trkpt lat="45.7992862" lon="11.8868652"><ele>114.5</ele><time>2026-04-03T13:15:14.993Z</time></trkpt><trkpt lat="45.7991715" lon="11.8869466"><ele>114.25</ele><time>2026-04-03T13:15:16.043Z</time></trkpt><trkpt lat="45.7990799" lon="11.8870185"><ele>114.0</ele><time>2026-04-03T13:15:16.972Z</time></trkpt><trkpt lat="45.7989943" lon="11.8870881"><ele>114.0</ele><time>2026-04-03T13:15:17.984Z</time></trkpt><trkpt lat="45.7989215" lon="11.8871527"><ele>114.0</ele><time>2026-04-03T13:15:18.995Z</time></trkpt><trkpt lat="45.7988622" lon="11.8872416"><ele>114.0</ele><time>2026-04-03T13:15:20.063Z</time></trkpt><trkpt lat="45.7988307" lon="11.887356"><ele>114.0</ele><time>2026-04-03T13:15:21.152Z</time></trkpt><trkpt lat="45.7988457" lon="11.8876148"><ele>114.0</ele><time>2026-04-03T13:15:23.015Z</time></trkpt><trkpt lat="45.7989024" lon="11.8878117"><ele>113.33333333333334</ele><time>2026-04-03T13:15:24.11Z</time></trkpt><trkpt lat="45.7990007" lon="11.8881867"><ele>112.66666666666667</ele><time>2026-04-03T13:15:26.038Z</time></trkpt><trkpt lat="45.7990569" lon="11.8883584"><ele>112.0</ele><time>2026-04-03T13:15:26.979Z</time></trkpt><trkpt lat="45.7991341" lon="11.8885599"><ele>111.66666666666667</ele><time>2026-04-03T13:15:28.111Z</time></trkpt><trkpt lat="45.7992779" lon="11.8888602"><ele>111.33333333333334</ele><time>2026-04-03T13:15:29.992Z</time></trkpt><trkpt lat="45.7993558" lon="11.8890171"><ele>111.0</ele><time>2026-04-03T13:15:30.995Z</time></trkpt><trkpt lat="45.7994329" lon="11.8891827"><ele>110.75</ele><time>2026-04-03T13:15:32.033Z</time></trkpt><trkpt lat="45.7995025" lon="11.8893292"><ele>110.5</ele><time>2026-04-03T13:15:32.991Z</time></trkpt><trkpt lat="45.7995773" lon="11.8894893"><ele>110.25</ele><time>2026-04-03T13:15:34.009Z</time></trkpt><trkpt lat="45.7996499" lon="11.8896405"><ele>110.0</ele><time>2026-04-03T13:15:35.025Z</time></trkpt><trkpt lat="45.7997049" lon="11.8897811"><ele>109.99999999999999</ele><time>2026-04-03T13:15:35.978Z</time></trkpt><trkpt lat="45.7997427" lon="11.8899163"><ele>110.0</ele><time>2026-04-03T13:15:36.983Z</time></trkpt><trkpt lat="45.7997616" lon="11.8900311"><ele>110.0</ele><time>2026-04-03T13:15:38.001Z</time></trkpt><trkpt lat="45.7997629" lon="11.890126"><ele>110.0</ele><time>2026-04-03T13:15:38.994Z</time></trkpt><trkpt lat="45.799739" lon="11.8902222"><ele>109.99999999999999</ele><time>2026-04-03T13:15:40.009Z</time></trkpt><trkpt lat="45.7996976" lon="11.8903043"><ele>110.0</ele><time>2026-04-03T13:15:40.98Z</time></trkpt><trkpt lat="45.7996376" lon="11.8903988"><ele>109.25</ele><time>2026-04-03T13:15:41.982Z</time></trkpt><trkpt lat="45.7995475" lon="11.89053"><ele>108.5</ele><time>2026-04-03T13:15:43.116Z</time></trkpt><trkpt lat="45.7993957" lon="11.8906992"><ele>107.75</ele><time>2026-04-03T13:15:45.044Z</time></trkpt><trkpt lat="45.7993022" lon="11.8907752"><ele>107.0</ele><time>2026-04-03T13:15:45.995Z</time></trkpt><trkpt lat="45.7991875" lon="11.8908354"><ele>107.0</ele><time>2026-04-03T13:15:46.977Z</time></trkpt><trkpt lat="45.799057" lon="11.8908774"><ele>107.0</ele><time>2026-04-03T13:15:47.974Z</time></trkpt><trkpt lat="45.7988983" lon="11.8909177"><ele>107.0</ele><time>2026-04-03T13:15:48.965Z</time></trkpt><trkpt lat="45.7987378" lon="11.8909446"><ele>104.66666666666666</ele><time>2026-04-03T13:15:49.97Z</time></trkpt><trkpt lat="45.7985691" lon="11.8909776"><ele>102.33333333333334</ele><time>2026-04-03T13:15:51.008Z</time></trkpt><trkpt lat="45.7984091" lon="11.8910247"><ele>100.0</ele><time>2026-04-03T13:15:51.998Z</time></trkpt><trkpt lat="45.7982508" lon="11.8910767"><ele>99.33333333333334</ele><time>2026-04-03T13:15:53.009Z</time></trkpt><trkpt lat="45.7980964" lon="11.8911278"><ele>98.66666666666666</ele><time>2026-04-03T13:15:54.035Z</time></trkpt><trkpt lat="45.7979489" lon="11.8911798"><ele>98.0</ele><time>2026-04-03T13:15:55.027Z</time></trkpt><trkpt lat="45.7978008" lon="11.8912375"><ele>98.25</ele><time>2026-04-03T13:15:56.039Z</time></trkpt><trkpt lat="45.7976623" lon="11.8912921"><ele>98.5</ele><time>2026-04-03T13:15:57.014Z</time></trkpt><trkpt lat="45.7975176" lon="11.8913483"><ele>98.75</ele><time>2026-04-03T13:15:58.008Z</time></trkpt><trkpt lat="45.7973725" lon="11.8914044"><ele>99.0</ele><time>2026-04-03T13:15:59.024Z</time></trkpt><trkpt lat="45.7972234" lon="11.8914631"><ele>99.0</ele><time>2026-04-03T13:16:00.02Z</time></trkpt><trkpt lat="45.7970735" lon="11.8915185"><ele>99.0</ele><time>2026-04-03T13:16:01.021Z</time></trkpt><trkpt lat="45.7969251" lon="11.8915614"><ele>99.0</ele><time>2026-04-03T13:16:02.006Z</time></trkpt><trkpt lat="45.7967746" lon="11.8916048"><ele>101.0</ele><time>2026-04-03T13:16:02.985Z</time></trkpt><trkpt lat="45.7966232" lon="11.8916448"><ele>103.0</ele><time>2026-04-03T13:16:03.989Z</time></trkpt><trkpt lat="45.7964762" lon="11.8916837"><ele>105.0</ele><time>2026-04-03T13:16:04.968Z</time></trkpt><trkpt lat="45.796319" lon="11.89173"><ele>104.33333333333334</ele><time>2026-04-03T13:16:06.006Z</time></trkpt><trkpt lat="45.7961711" lon="11.891774"><ele>103.66666666666667</ele><time>2026-04-03T13:16:06.966Z</time></trkpt><trkpt lat="45.7960153" lon="11.8918174"><ele>103.0</ele><time>2026-04-03T13:16:07.996Z</time></trkpt><trkpt lat="45.7958627" lon="11.8918627"><ele>101.75</ele><time>2026-04-03T13:16:09.023Z</time></trkpt><trkpt lat="45.7957168" lon="11.8919033"><ele>100.5</ele><time>2026-04-03T13:16:10.045Z</time></trkpt><trkpt lat="45.7955823" lon="11.8919377"><ele>99.25</ele><time>2026-04-03T13:16:11.014Z</time></trkpt><trkpt lat="45.7954472" lon="11.8919748"><ele>98.0</ele><time>2026-04-03T13:16:12.023Z</time></trkpt><trkpt lat="45.7953128" lon="11.8920119"><ele>98.0</ele><time>2026-04-03T13:16:13.011Z</time></trkpt><trkpt lat="45.7951853" lon="11.8920512"><ele>98.0</ele><time>2026-04-03T13:16:13.993Z</time></trkpt><trkpt lat="45.7950591" lon="11.8920881"><ele>98.0</ele><time>2026-04-03T13:16:15.018Z</time></trkpt><trkpt lat="45.7949337" lon="11.8921262"><ele>98.0</ele><time>2026-04-03T13:16:16.1Z</time></trkpt><trkpt lat="45.7948324" lon="11.8921503"><ele>98.49999999999999</ele><time>2026-04-03T13:16:17.035Z</time></trkpt><trkpt lat="45.7947319" lon="11.8921742"><ele>99.0</ele><time>2026-04-03T13:16:17.998Z</time></trkpt><trkpt lat="45.7946527" lon="11.8921867"><ele>99.5</ele><time>2026-04-03T13:16:18.976Z</time></trkpt><trkpt lat="45.7945514" lon="11.8922057"><ele>100.0</ele><time>2026-04-03T13:16:20.986Z</time></trkpt><trkpt lat="45.7944937" lon="11.8923094"><ele>100.49999999999999</ele><time>2026-04-03T13:16:23.002Z</time></trkpt><trkpt lat="45.7944776" lon="11.8924015"><ele>101.0</ele><time>2026-04-03T13:16:24.003Z</time></trkpt><trkpt lat="45.7944485" lon="11.8925077"><ele>100.0</ele><time>2026-04-03T13:16:24.996Z</time></trkpt><trkpt lat="45.7943942" lon="11.8926393"><ele>99.0</ele><time>2026-04-03T13:16:26.022Z</time></trkpt><trkpt lat="45.7943229" lon="11.8927665"><ele>98.0</ele><time>2026-04-03T13:16:26.998Z</time></trkpt><trkpt lat="45.7942396" lon="11.8929046"><ele>97.0</ele><time>2026-04-03T13:16:28.032Z</time></trkpt><trkpt lat="45.7941673" lon="11.8930362"><ele>97.0</ele><time>2026-04-03T13:16:29.022Z</time></trkpt><trkpt lat="45.79411" lon="11.893168"><ele>97.0</ele><time>2026-04-03T13:16:29.998Z</time></trkpt><trkpt lat="45.794068" lon="11.8933034"><ele>97.0</ele><time>2026-04-03T13:16:30.997Z</time></trkpt><trkpt lat="45.7940379" lon="11.8934606"><ele>97.0</ele><time>2026-04-03T13:16:31.993Z</time></trkpt><trkpt lat="45.7940237" lon="11.8936312"><ele>97.0</ele><time>2026-04-03T13:16:32.978Z</time></trkpt><trkpt lat="45.7940164" lon="11.8937969"><ele>97.0</ele><time>2026-04-03T13:16:33.974Z</time></trkpt><trkpt lat="45.7940167" lon="11.8939721"><ele>97.0</ele><time>2026-04-03T13:16:34.991Z</time></trkpt><trkpt lat="45.7940204" lon="11.8941558"><ele>97.0</ele><time>2026-04-03T13:16:36.037Z</time></trkpt><trkpt lat="45.7940221" lon="11.8943207"><ele>97.0</ele><time>2026-04-03T13:16:37.001Z</time></trkpt><trkpt lat="45.7940072" lon="11.8944704"><ele>97.0</ele><time>2026-04-03T13:16:37.981Z</time></trkpt><trkpt lat="45.7939569" lon="11.8946191"><ele>97.0</ele><time>2026-04-03T13:16:38.972Z</time></trkpt><trkpt lat="45.7938752" lon="11.8947543"><ele>97.0</ele><time>2026-04-03T13:16:39.978Z</time></trkpt><trkpt lat="45.793775" lon="11.8948985"><ele>97.0</ele><time>2026-04-03T13:16:41.002Z</time></trkpt><trkpt lat="45.7936723" lon="11.8950619"><ele>96.8</ele><time>2026-04-03T13:16:42.025Z</time></trkpt><trkpt lat="45.7935939" lon="11.8952001"><ele>96.6</ele><time>2026-04-03T13:16:42.977Z</time></trkpt><trkpt lat="45.7935263" lon="11.8953388"><ele>96.39999999999999</ele><time>2026-04-03T13:16:44.031Z</time></trkpt><trkpt lat="45.7934916" lon="11.8954638"><ele>96.19999999999999</ele><time>2026-04-03T13:16:44.981Z</time></trkpt><trkpt lat="45.7934834" lon="11.8955783"><ele>96.0</ele><time>2026-04-03T13:16:46.013Z</time></trkpt><trkpt lat="45.7934854" lon="11.8956694"><ele>95.4</ele><time>2026-04-03T13:16:47.014Z</time></trkpt><trkpt lat="45.7934896" lon="11.89576"><ele>94.8</ele><time>2026-04-03T13:16:49.005Z</time></trkpt><trkpt lat="45.7933909" lon="11.8958589"><ele>94.2</ele><time>2026-04-03T13:16:51.983Z</time></trkpt><trkpt lat="45.7932967" lon="11.8958649"><ele>93.60000000000001</ele><time>2026-04-03T13:16:52.969Z</time></trkpt><trkpt lat="45.7931851" lon="11.8958664"><ele>93.0</ele><time>2026-04-03T13:16:53.984Z</time></trkpt><trkpt lat="45.7930605" lon="11.8958651"><ele>93.0</ele><time>2026-04-03T13:16:55.009Z</time></trkpt><trkpt lat="45.7929093" lon="11.8958591"><ele>93.0</ele><time>2026-04-03T13:16:55.981Z</time></trkpt><trkpt lat="45.7927694" lon="11.8958555"><ele>93.0</ele><time>2026-04-03T13:16:56.984Z</time></trkpt><trkpt lat="45.7926401" lon="11.8958594"><ele>93.0</ele><time>2026-04-03T13:16:57.973Z</time></trkpt><trkpt lat="45.7925146" lon="11.8958707"><ele>93.0</ele><time>2026-04-03T13:16:59Z</time></trkpt><trkpt lat="45.7924011" lon="11.8958927"><ele>93.0</ele><time>2026-04-03T13:16:59.965Z</time></trkpt><trkpt lat="45.7922864" lon="11.8959321"><ele>93.0</ele><time>2026-04-03T13:17:00.976Z</time></trkpt><trkpt lat="45.7921817" lon="11.8959735"><ele>93.0</ele><time>2026-04-03T13:17:01.978Z</time></trkpt><trkpt lat="45.7921019" lon="11.8960218"><ele>93.0</ele><time>2026-04-03T13:17:02.988Z</time></trkpt><trkpt lat="45.7920223" lon="11.8961475"><ele>94.16666666666667</ele><time>2026-04-03T13:17:04.982Z</time></trkpt><trkpt lat="45.7920264" lon="11.8963022"><ele>95.33333333333334</ele><time>2026-04-03T13:17:07.003Z</time></trkpt><trkpt lat="45.7920427" lon="11.8964007"><ele>96.5</ele><time>2026-04-03T13:17:09.016Z</time></trkpt><trkpt lat="45.7920519" lon="11.8965132"><ele>97.66666666666667</ele><time>2026-04-03T13:17:13.086Z</time></trkpt><trkpt lat="45.7919676" lon="11.8965654"><ele>98.83333333333334</ele><time>2026-04-03T13:17:15.954Z</time></trkpt><trkpt lat="45.7918839" lon="11.896612"><ele>100.0</ele><time>2026-04-03T13:17:17.975Z</time></trkpt><trkpt lat="45.7918227" lon="11.8966468"><ele>100.0</ele><time>2026-04-03T13:17:18.963Z</time></trkpt><trkpt lat="45.7917546" lon="11.8966832"><ele>100.0</ele><time>2026-04-03T13:17:19.968Z</time></trkpt><trkpt lat="45.7916575" lon="11.8967342"><ele>100.0</ele><time>2026-04-03T13:17:21.012Z</time></trkpt><trkpt lat="45.7915485" lon="11.8967954"><ele>100.0</ele><time>2026-04-03T13:17:21.997Z</time></trkpt><trkpt lat="45.7914261" lon="11.8968629"><ele>100.0</ele><time>2026-04-03T13:17:22.995Z</time></trkpt><trkpt lat="45.7912814" lon="11.8969384"><ele>99.33333333333334</ele><time>2026-04-03T13:17:24.003Z</time></trkpt><trkpt lat="45.7911414" lon="11.8970052"><ele>98.66666666666666</ele><time>2026-04-03T13:17:24.982Z</time></trkpt><trkpt lat="45.7909623" lon="11.897097"><ele>98.0</ele><time>2026-04-03T13:17:26.187Z</time></trkpt><trkpt lat="45.7908452" lon="11.8971583"><ele>98.0</ele><time>2026-04-03T13:17:26.997Z</time></trkpt><trkpt lat="45.7907059" lon="11.8972294"><ele>98.0</ele><time>2026-04-03T13:17:27.981Z</time></trkpt><trkpt lat="45.7905669" lon="11.8973013"><ele>98.0</ele><time>2026-04-03T13:17:29Z</time></trkpt><trkpt lat="45.7904372" lon="11.8973716"><ele>98.0</ele><time>2026-04-03T13:17:29.987Z</time></trkpt><trkpt lat="45.7903061" lon="11.8974415"><ele>98.0</ele><time>2026-04-03T13:17:31.01Z</time></trkpt><trkpt lat="45.7901837" lon="11.8975116"><ele>98.0</ele><time>2026-04-03T13:17:32.001Z</time></trkpt><trkpt lat="45.7900628" lon="11.8975903"><ele>98.0</ele><time>2026-04-03T13:17:32.984Z</time></trkpt><trkpt lat="45.7899332" lon="11.8976758"><ele>98.0</ele><time>2026-04-03T13:17:34.012Z</time></trkpt><trkpt lat="45.7898077" lon="11.8977568"><ele>97.75</ele><time>2026-04-03T13:17:35.015Z</time></trkpt><trkpt lat="45.7896741" lon="11.8978459"><ele>97.5</ele><time>2026-04-03T13:17:36.074Z</time></trkpt><trkpt lat="45.7895555" lon="11.897919"><ele>97.25</ele><time>2026-04-03T13:17:37.009Z</time></trkpt><trkpt lat="45.7894234" lon="11.8979922"><ele>97.0</ele><time>2026-04-03T13:17:38.011Z</time></trkpt><trkpt lat="45.7892874" lon="11.8980597"><ele>96.5</ele><time>2026-04-03T13:17:39.014Z</time></trkpt><trkpt lat="45.7891581" lon="11.8981234"><ele>96.0</ele><time>2026-04-03T13:17:39.976Z</time></trkpt><trkpt lat="45.7890115" lon="11.8981917"><ele>95.5</ele><time>2026-04-03T13:17:41.009Z</time></trkpt><trkpt lat="45.7888751" lon="11.8982546"><ele>95.0</ele><time>2026-04-03T13:17:42.01Z</time></trkpt><trkpt lat="45.7887329" lon="11.8983124"><ele>95.0</ele><time>2026-04-03T13:17:42.994Z</time></trkpt><trkpt lat="45.7885719" lon="11.8983755"><ele>95.0</ele><time>2026-04-03T13:17:44.119Z</time></trkpt><trkpt lat="45.7884438" lon="11.8984236"><ele>95.0</ele><time>2026-04-03T13:17:45.027Z</time></trkpt><trkpt lat="45.7883107" lon="11.8984654"><ele>95.0</ele><time>2026-04-03T13:17:46.02Z</time></trkpt><trkpt lat="45.7881883" lon="11.8985036"><ele>94.8</ele><time>2026-04-03T13:17:47.008Z</time></trkpt><trkpt lat="45.7880767" lon="11.8985355"><ele>94.6</ele><time>2026-04-03T13:17:47.989Z</time></trkpt><trkpt lat="45.7879695" lon="11.8985558"><ele>94.4</ele><time>2026-04-03T13:17:49.038Z</time></trkpt><trkpt lat="45.7878703" lon="11.8985622"><ele>94.2</ele><time>2026-04-03T13:17:49.994Z</time></trkpt><trkpt lat="45.787773" lon="11.8985677"><ele>94.0</ele><time>2026-04-03T13:17:50.971Z</time></trkpt><trkpt lat="45.7876738" lon="11.8985833"><ele>93.83333333333333</ele><time>2026-04-03T13:17:52.092Z</time></trkpt><trkpt lat="45.7875982" lon="11.8986155"><ele>93.66666666666666</ele><time>2026-04-03T13:17:53.038Z</time></trkpt><trkpt lat="45.7875321" lon="11.8986721"><ele>93.5</ele><time>2026-04-03T13:17:53.964Z</time></trkpt><trkpt lat="45.7874793" lon="11.8987629"><ele>93.33333333333333</ele><time>2026-04-03T13:17:54.999Z</time></trkpt><trkpt lat="45.7874451" lon="11.8988748"><ele>93.16666666666667</ele><time>2026-04-03T13:17:55.995Z</time></trkpt><trkpt lat="45.7874411" lon="11.8990064"><ele>93.0</ele><time>2026-04-03T13:17:57.04Z</time></trkpt><trkpt lat="45.7874638" lon="11.899117"><ele>93.0</ele><time>2026-04-03T13:17:58.007Z</time></trkpt><trkpt lat="45.7875099" lon="11.8992149"><ele>93.0</ele><time>2026-04-03T13:17:58.989Z</time></trkpt><trkpt lat="45.7875811" lon="11.8992936"><ele>93.0</ele><time>2026-04-03T13:17:59.978Z</time></trkpt><trkpt lat="45.7876872" lon="11.8993752"><ele>93.0</ele><time>2026-04-03T13:18:00.994Z</time></trkpt><trkpt lat="45.7877957" lon="11.899471"><ele>93.0</ele><time>2026-04-03T13:18:01.988Z</time></trkpt><trkpt lat="45.7878959" lon="11.8996009"><ele>93.5</ele><time>2026-04-03T13:18:03.044Z</time></trkpt><trkpt lat="45.7879805" lon="11.8997592"><ele>94.0</ele><time>2026-04-03T13:18:04.036Z</time></trkpt><trkpt lat="45.7880387" lon="11.8999386"><ele>94.5</ele><time>2026-04-03T13:18:05.004Z</time></trkpt><trkpt lat="45.7880927" lon="11.9001408"><ele>95.0</ele><time>2026-04-03T13:18:05.982Z</time></trkpt><trkpt lat="45.7881402" lon="11.9003645"><ele>95.33333333333334</ele><time>2026-04-03T13:18:07.114Z</time></trkpt><trkpt lat="45.7881961" lon="11.9007148"><ele>95.66666666666667</ele><time>2026-04-03T13:18:08.965Z</time></trkpt><trkpt lat="45.7882268" lon="11.9009055"><ele>96.0</ele><time>2026-04-03T13:18:10.013Z</time></trkpt><trkpt lat="45.7882576" lon="11.9010797"><ele>96.25</ele><time>2026-04-03T13:18:11.007Z</time></trkpt><trkpt lat="45.7882927" lon="11.9012522"><ele>96.5</ele><time>2026-04-03T13:18:12.023Z</time></trkpt><trkpt lat="45.7883207" lon="11.9014187"><ele>96.75</ele><time>2026-04-03T13:18:13.024Z</time></trkpt><trkpt lat="45.7883516" lon="11.9015995"><ele>97.0</ele><time>2026-04-03T13:18:14.049Z</time></trkpt><trkpt lat="45.7883795" lon="11.9017601"><ele>97.0</ele><time>2026-04-03T13:18:14.967Z</time></trkpt><trkpt lat="45.7884098" lon="11.9019444"><ele>97.0</ele><time>2026-04-03T13:18:16.022Z</time></trkpt><trkpt lat="45.788444" lon="11.9021183"><ele>97.0</ele><time>2026-04-03T13:18:17.03Z</time></trkpt><trkpt lat="45.78848" lon="11.9023004"><ele>97.0</ele><time>2026-04-03T13:18:18.073Z</time></trkpt><trkpt lat="45.7885123" lon="11.9024635"><ele>97.75</ele><time>2026-04-03T13:18:19Z</time></trkpt><trkpt lat="45.7885481" lon="11.9026438"><ele>98.5</ele><time>2026-04-03T13:18:20.017Z</time></trkpt><trkpt lat="45.7885808" lon="11.9028172"><ele>99.25</ele><time>2026-04-03T13:18:20.989Z</time></trkpt><trkpt lat="45.7886117" lon="11.9029958"><ele>100.0</ele><time>2026-04-03T13:18:22.008Z</time></trkpt><trkpt lat="45.7886456" lon="11.903179"><ele>100.0</ele><time>2026-04-03T13:18:23.017Z</time></trkpt><trkpt lat="45.7886772" lon="11.9033543"><ele>100.0</ele><time>2026-04-03T13:18:23.994Z</time></trkpt><trkpt lat="45.7887096" lon="11.9035336"><ele>100.0</ele><time>2026-04-03T13:18:24.974Z</time></trkpt><trkpt lat="45.7887449" lon="11.9037236"><ele>100.0</ele><time>2026-04-03T13:18:25.997Z</time></trkpt><trkpt lat="45.7887768" lon="11.9039058"><ele>99.75</ele><time>2026-04-03T13:18:26.985Z</time></trkpt><trkpt lat="45.7888074" lon="11.9040923"><ele>99.5</ele><time>2026-04-03T13:18:27.988Z</time></trkpt><trkpt lat="45.7888336" lon="11.9042758"><ele>99.25</ele><time>2026-04-03T13:18:29.01Z</time></trkpt><trkpt lat="45.7888575" lon="11.9044465"><ele>99.0</ele><time>2026-04-03T13:18:29.998Z</time></trkpt><trkpt lat="45.7888764" lon="11.904616"><ele>99.4</ele><time>2026-04-03T13:18:31.017Z</time></trkpt><trkpt lat="45.7888904" lon="11.9047698"><ele>99.80000000000001</ele><time>2026-04-03T13:18:31.963Z</time></trkpt><trkpt lat="45.7889029" lon="11.9049328"><ele>100.19999999999999</ele><time>2026-04-03T13:18:33.027Z</time></trkpt><trkpt lat="45.7889174" lon="11.9050822"><ele>100.6</ele><time>2026-04-03T13:18:34.008Z</time></trkpt><trkpt lat="45.7889302" lon="11.9052235"><ele>101.0</ele><time>2026-04-03T13:18:34.983Z</time></trkpt><trkpt lat="45.7889429" lon="11.9053607"><ele>101.33333333333333</ele><time>2026-04-03T13:18:36.016Z</time></trkpt><trkpt lat="45.7889515" lon="11.9054846"><ele>101.66666666666666</ele><time>2026-04-03T13:18:37Z</time></trkpt><trkpt lat="45.788961" lon="11.9056031"><ele>102.0</ele><time>2026-04-03T13:18:38.011Z</time></trkpt><trkpt lat="45.788964" lon="11.9057213"><ele>102.33333333333334</ele><time>2026-04-03T13:18:39.018Z</time></trkpt><trkpt lat="45.7889514" lon="11.9058526"><ele>102.66666666666667</ele><time>2026-04-03T13:18:39.976Z</time></trkpt><trkpt lat="45.7889317" lon="11.9059879"><ele>103.0</ele><time>2026-04-03T13:18:41.024Z</time></trkpt><trkpt lat="45.7889049" lon="11.9060911"><ele>103.33333333333334</ele><time>2026-04-03T13:18:42.028Z</time></trkpt><trkpt lat="45.7888748" lon="11.9061727"><ele>103.66666666666667</ele><time>2026-04-03T13:18:43.029Z</time></trkpt><trkpt lat="45.7888352" lon="11.9063268"><ele>104.0</ele><time>2026-04-03T13:18:45.202Z</time></trkpt><trkpt lat="45.7888689" lon="11.9064767"><ele>104.33333333333334</ele><time>2026-04-03T13:18:47.043Z</time></trkpt><trkpt lat="45.788915" lon="11.9065447"><ele>104.66666666666667</ele><time>2026-04-03T13:18:48.059Z</time></trkpt><trkpt lat="45.788981" lon="11.9066238"><ele>105.0</ele><time>2026-04-03T13:18:49.045Z</time></trkpt><trkpt lat="45.7890365" lon="11.9067363"><ele>105.0</ele><time>2026-04-03T13:18:50.059Z</time></trkpt><trkpt lat="45.7890831" lon="11.9069018"><ele>105.0</ele><time>2026-04-03T13:18:51.087Z</time></trkpt><trkpt lat="45.7891169" lon="11.9071445"><ele>105.0</ele><time>2026-04-03T13:18:52.207Z</time></trkpt><trkpt lat="45.7891625" lon="11.9075973"><ele>105.0</ele><time>2026-04-03T13:18:54.044Z</time></trkpt><trkpt lat="45.7891846" lon="11.9078532"><ele>105.0</ele><time>2026-04-03T13:18:55.065Z</time></trkpt><trkpt lat="45.7892075" lon="11.9080904"><ele>105.0</ele><time>2026-04-03T13:18:56.061Z</time></trkpt><trkpt lat="45.7892312" lon="11.90834"><ele>104.66666666666666</ele><time>2026-04-03T13:18:57.086Z</time></trkpt><trkpt lat="45.7892462" lon="11.9085799"><ele>104.33333333333333</ele><time>2026-04-03T13:18:58.049Z</time></trkpt><trkpt lat="45.7892689" lon="11.9088128"><ele>104.0</ele><time>2026-04-03T13:18:58.976Z</time></trkpt><trkpt lat="45.7892931" lon="11.909069"><ele>104.0</ele><time>2026-04-03T13:19:00Z</time></trkpt><trkpt lat="45.7893187" lon="11.9093228"><ele>104.0</ele><time>2026-04-03T13:19:00.992Z</time></trkpt><trkpt lat="45.7893414" lon="11.9095817"><ele>104.0</ele><time>2026-04-03T13:19:02.022Z</time></trkpt><trkpt lat="45.7893666" lon="11.909848"><ele>106.0</ele><time>2026-04-03T13:19:03.075Z</time></trkpt><trkpt lat="45.7893931" lon="11.9101"><ele>108.0</ele><time>2026-04-03T13:19:04.08Z</time></trkpt><trkpt lat="45.7894164" lon="11.9103527"><ele>110.0</ele><time>2026-04-03T13:19:05.094Z</time></trkpt><trkpt lat="45.789443" lon="11.9105852"><ele>110.0</ele><time>2026-04-03T13:19:06.061Z</time></trkpt><trkpt lat="45.7894676" lon="11.9108301"><ele>110.0</ele><time>2026-04-03T13:19:07.077Z</time></trkpt><trkpt lat="45.7894899" lon="11.911063"><ele>110.0</ele><time>2026-04-03T13:19:08.067Z</time></trkpt><trkpt lat="45.7895049" lon="11.9112959"><ele>109.0</ele><time>2026-04-03T13:19:09.056Z</time></trkpt><trkpt lat="45.78952" lon="11.9115403"><ele>108.0</ele><time>2026-04-03T13:19:10.06Z</time></trkpt><trkpt lat="45.7895297" lon="11.9117891"><ele>107.0</ele><time>2026-04-03T13:19:11.081Z</time></trkpt><trkpt lat="45.7895313" lon="11.9120312"><ele>106.66666666666666</ele><time>2026-04-03T13:19:12.063Z</time></trkpt><trkpt lat="45.7895222" lon="11.9122857"><ele>106.33333333333334</ele><time>2026-04-03T13:19:13.063Z</time></trkpt><trkpt lat="45.7895059" lon="11.9125388"><ele>106.0</ele><time>2026-04-03T13:19:14.064Z</time></trkpt><trkpt lat="45.7894858" lon="11.9127919"><ele>107.0</ele><time>2026-04-03T13:19:15.062Z</time></trkpt><trkpt lat="45.7894716" lon="11.9130575"><ele>108.0</ele><time>2026-04-03T13:19:16.102Z</time></trkpt><trkpt lat="45.7894577" lon="11.913294"><ele>109.0</ele><time>2026-04-03T13:19:17.036Z</time></trkpt><trkpt lat="45.7894442" lon="11.9135533"><ele>109.33333333333334</ele><time>2026-04-03T13:19:18.06Z</time></trkpt><trkpt lat="45.7894269" lon="11.9138047"><ele>109.66666666666666</ele><time>2026-04-03T13:19:19.053Z</time></trkpt><trkpt lat="45.7894106" lon="11.9140643"><ele>110.0</ele><time>2026-04-03T13:19:20.076Z</time></trkpt><trkpt lat="45.7893989" lon="11.9143156"><ele>109.0</ele><time>2026-04-03T13:19:21.06Z</time></trkpt><trkpt lat="45.7893825" lon="11.914571"><ele>108.0</ele><time>2026-04-03T13:19:22.064Z</time></trkpt><trkpt lat="45.7893635" lon="11.9148226"><ele>107.0</ele><time>2026-04-03T13:19:23.054Z</time></trkpt><trkpt lat="45.7893491" lon="11.915077"><ele>105.66666666666666</ele><time>2026-04-03T13:19:24.07Z</time></trkpt><trkpt lat="45.7893368" lon="11.915315"><ele>104.33333333333334</ele><time>2026-04-03T13:19:25.038Z</time></trkpt><trkpt lat="45.7893247" lon="11.9155689"><ele>103.0</ele><time>2026-04-03T13:19:26.089Z</time></trkpt><trkpt lat="45.7893134" lon="11.9158066"><ele>103.33333333333334</ele><time>2026-04-03T13:19:27.072Z</time></trkpt><trkpt lat="45.7892998" lon="11.9160431"><ele>103.66666666666666</ele><time>2026-04-03T13:19:28.07Z</time></trkpt><trkpt lat="45.7892822" lon="11.9162874"><ele>104.0</ele><time>2026-04-03T13:19:29.115Z</time></trkpt><trkpt lat="45.7892702" lon="11.9165039"><ele>103.66666666666666</ele><time>2026-04-03T13:19:30.042Z</time></trkpt><trkpt lat="45.7892605" lon="11.9167469"><ele>103.33333333333334</ele><time>2026-04-03T13:19:31.074Z</time></trkpt><trkpt lat="45.7892557" lon="11.9169816"><ele>103.0</ele><time>2026-04-03T13:19:32.054Z</time></trkpt><trkpt lat="45.7892578" lon="11.9172427"><ele>103.0</ele><time>2026-04-03T13:19:33.118Z</time></trkpt><trkpt lat="45.7892696" lon="11.9174813"><ele>103.0</ele><time>2026-04-03T13:19:34.08Z</time></trkpt><trkpt lat="45.7892845" lon="11.9177202"><ele>103.0</ele><time>2026-04-03T13:19:35.03Z</time></trkpt><trkpt lat="45.7893055" lon="11.9179795"><ele>103.33333333333334</ele><time>2026-04-03T13:19:36.077Z</time></trkpt><trkpt lat="45.7893254" lon="11.918218"><ele>103.66666666666666</ele><time>2026-04-03T13:19:37.059Z</time></trkpt><trkpt lat="45.789348" lon="11.9184582"><ele>104.0</ele><time>2026-04-03T13:19:38.053Z</time></trkpt><trkpt lat="45.7893728" lon="11.9187233"><ele>104.0</ele><time>2026-04-03T13:19:39.149Z</time></trkpt><trkpt lat="45.7894058" lon="11.9189449"><ele>104.0</ele><time>2026-04-03T13:19:40.068Z</time></trkpt><trkpt lat="45.7894341" lon="11.9191872"><ele>104.0</ele><time>2026-04-03T13:19:41.056Z</time></trkpt><trkpt lat="45.7894593" lon="11.9194192"><ele>104.25</ele><time>2026-04-03T13:19:42.058Z</time></trkpt><trkpt lat="45.7894824" lon="11.9196408"><ele>104.5</ele><time>2026-04-03T13:19:43.065Z</time></trkpt><trkpt lat="45.7895063" lon="11.9198441"><ele>104.75</ele><time>2026-04-03T13:19:44.068Z</time></trkpt><trkpt lat="45.789533" lon="11.920044"><ele>105.0</ele><time>2026-04-03T13:19:45.126Z</time></trkpt><trkpt lat="45.7895524" lon="11.9201995"><ele>105.16666666666667</ele><time>2026-04-03T13:19:46.046Z</time></trkpt><trkpt lat="45.7895698" lon="11.9203499"><ele>105.33333333333334</ele><time>2026-04-03T13:19:47.049Z</time></trkpt><trkpt lat="45.789583" lon="11.9204708"><ele>105.5</ele><time>2026-04-03T13:19:48.05Z</time></trkpt><trkpt lat="45.7895925" lon="11.9205603"><ele>105.66666666666667</ele><time>2026-04-03T13:19:49.05Z</time></trkpt><trkpt lat="45.7896084" lon="11.9206908"><ele>105.83333333333334</ele><time>2026-04-03T13:19:51.186Z</time></trkpt><trkpt lat="45.7896179" lon="11.9208089"><ele>106.0</ele><time>2026-04-03T13:19:54.084Z</time></trkpt><trkpt lat="45.7896917" lon="11.9209358"><ele>106.0</ele><time>2026-04-03T13:19:57.065Z</time></trkpt><trkpt lat="45.7898158" lon="11.9209264"><ele>106.0</ele><time>2026-04-03T13:19:59.026Z</time></trkpt><trkpt lat="45.7899135" lon="11.920878"><ele>106.0</ele><time>2026-04-03T13:20:00.058Z</time></trkpt><trkpt lat="45.7900148" lon="11.920818"><ele>106.0</ele><time>2026-04-03T13:20:01.056Z</time></trkpt><trkpt lat="45.7901211" lon="11.9207666"><ele>106.0</ele><time>2026-04-03T13:20:02.066Z</time></trkpt><trkpt lat="45.7902282" lon="11.9207233"><ele>107.5</ele><time>2026-04-03T13:20:03.106Z</time></trkpt><trkpt lat="45.7903344" lon="11.920672"><ele>109.0</ele><time>2026-04-03T13:20:04.098Z</time></trkpt><trkpt lat="45.7904409" lon="11.9206223"><ele>110.5</ele><time>2026-04-03T13:20:05.082Z</time></trkpt><trkpt lat="45.7905512" lon="11.9205718"><ele>112.0</ele><time>2026-04-03T13:20:06.121Z</time></trkpt><trkpt lat="45.7906606" lon="11.9205304"><ele>112.0</ele><time>2026-04-03T13:20:07.14Z</time></trkpt><trkpt lat="45.7907741" lon="11.9204827"><ele>111.99999999999999</ele><time>2026-04-03T13:20:08.171Z</time></trkpt><trkpt lat="45.790866" lon="11.9204399"><ele>111.99999999999999</ele><time>2026-04-03T13:20:09.078Z</time></trkpt><trkpt lat="45.7909553" lon="11.9204032"><ele>112.0</ele><time>2026-04-03T13:20:10.115Z</time></trkpt><trkpt lat="45.7910178" lon="11.9203764"><ele>112.0</ele><time>2026-04-03T13:20:11.118Z</time></trkpt><trkpt lat="45.7911154" lon="11.9203459"><ele>112.19999999999999</ele><time>2026-04-03T13:20:13.165Z</time></trkpt><trkpt lat="45.7912476" lon="11.9203953"><ele>112.39999999999999</ele><time>2026-04-03T13:20:15.086Z</time></trkpt><trkpt lat="45.7913325" lon="11.9204672"><ele>112.60000000000001</ele><time>2026-04-03T13:20:16.151Z</time></trkpt><trkpt lat="45.7913987" lon="11.9205579"><ele>112.80000000000001</ele><time>2026-04-03T13:20:17.087Z</time></trkpt><trkpt lat="45.7914711" lon="11.9206998"><ele>113.0</ele><time>2026-04-03T13:20:18.088Z</time></trkpt><trkpt lat="45.7915437" lon="11.9208849"><ele>112.25</ele><time>2026-04-03T13:20:19.035Z</time></trkpt><trkpt lat="45.7916102" lon="11.9210839"><ele>111.5</ele><time>2026-04-03T13:20:20.058Z</time></trkpt><trkpt lat="45.7916715" lon="11.9212707"><ele>110.75</ele><time>2026-04-03T13:20:21.056Z</time></trkpt><trkpt lat="45.7917287" lon="11.9214519"><ele>110.0</ele><time>2026-04-03T13:20:22.094Z</time></trkpt><trkpt lat="45.7917905" lon="11.9216304"><ele>110.66666666666666</ele><time>2026-04-03T13:20:23.146Z</time></trkpt><trkpt lat="45.7918448" lon="11.9217962"><ele>111.33333333333334</ele><time>2026-04-03T13:20:24.091Z</time></trkpt><trkpt lat="45.7919121" lon="11.9220029"><ele>112.0</ele><time>2026-04-03T13:20:25.093Z</time></trkpt><trkpt lat="45.7919929" lon="11.9222484"><ele>112.0</ele><time>2026-04-03T13:20:26.125Z</time></trkpt><trkpt lat="45.7920711" lon="11.9224944"><ele>112.0</ele><time>2026-04-03T13:20:27.08Z</time></trkpt><trkpt lat="45.7921617" lon="11.9227707"><ele>112.0</ele><time>2026-04-03T13:20:28.103Z</time></trkpt><trkpt lat="45.7922537" lon="11.923039"><ele>111.33333333333334</ele><time>2026-04-03T13:20:29.072Z</time></trkpt><trkpt lat="45.7923448" lon="11.9233365"><ele>110.66666666666666</ele><time>2026-04-03T13:20:30.129Z</time></trkpt><trkpt lat="45.7924296" lon="11.9236023"><ele>110.0</ele><time>2026-04-03T13:20:31.11Z</time></trkpt><trkpt lat="45.7925274" lon="11.9238845"><ele>113.0</ele><time>2026-04-03T13:20:32.236Z</time></trkpt><trkpt lat="45.7926792" lon="11.924349"><ele>116.0</ele><time>2026-04-03T13:20:34.108Z</time></trkpt><trkpt lat="45.7927587" lon="11.9246076"><ele>116.0</ele><time>2026-04-03T13:20:35.138Z</time></trkpt><trkpt lat="45.7928355" lon="11.9248733"><ele>116.0</ele><time>2026-04-03T13:20:36.174Z</time></trkpt><trkpt lat="45.7929111" lon="11.9251332"><ele>116.0</ele><time>2026-04-03T13:20:37.168Z</time></trkpt><trkpt lat="45.7929908" lon="11.9253899"><ele>115.33333333333333</ele><time>2026-04-03T13:20:38.14Z</time></trkpt><trkpt lat="45.7930568" lon="11.9256614"><ele>114.66666666666666</ele><time>2026-04-03T13:20:39.117Z</time></trkpt><trkpt lat="45.7931179" lon="11.9259437"><ele>114.0</ele><time>2026-04-03T13:20:40.121Z</time></trkpt><trkpt lat="45.7931673" lon="11.926225"><ele>113.66666666666666</ele><time>2026-04-03T13:20:41.095Z</time></trkpt><trkpt lat="45.7932225" lon="11.9265196"><ele>113.33333333333333</ele><time>2026-04-03T13:20:42.118Z</time></trkpt><trkpt lat="45.7932782" lon="11.9268257"><ele>113.0</ele><time>2026-04-03T13:20:43.163Z</time></trkpt><trkpt lat="45.7933386" lon="11.9271341"><ele>112.0</ele><time>2026-04-03T13:20:44.214Z</time></trkpt><trkpt lat="45.7933852" lon="11.9273998"><ele>111.0</ele><time>2026-04-03T13:20:45.116Z</time></trkpt><trkpt lat="45.7934339" lon="11.9276866"><ele>110.0</ele><time>2026-04-03T13:20:46.105Z</time></trkpt><trkpt lat="45.7934837" lon="11.9279497"><ele>111.0</ele><time>2026-04-03T13:20:47.127Z</time></trkpt><trkpt lat="45.793525" lon="11.9281594"><ele>112.0</ele><time>2026-04-03T13:20:48.114Z</time></trkpt><trkpt lat="45.7935782" lon="11.9283373"><ele>113.0</ele><time>2026-04-03T13:20:49.095Z</time></trkpt><trkpt lat="45.7936561" lon="11.9285183"><ele>114.0</ele><time>2026-04-03T13:20:50.091Z</time></trkpt><trkpt lat="45.793773" lon="11.9287166"><ele>114.0</ele><time>2026-04-03T13:20:51.147Z</time></trkpt><trkpt lat="45.7939119" lon="11.9289046"><ele>114.0</ele><time>2026-04-03T13:20:52.145Z</time></trkpt><trkpt lat="45.7940574" lon="11.9291264"><ele>114.0</ele><time>2026-04-03T13:20:53.154Z</time></trkpt><trkpt lat="45.7941881" lon="11.9293445"><ele>113.66666666666666</ele><time>2026-04-03T13:20:54.137Z</time></trkpt><trkpt lat="45.7943024" lon="11.9295682"><ele>113.33333333333333</ele><time>2026-04-03T13:20:55.208Z</time></trkpt><trkpt lat="45.7943665" lon="11.9297629"><ele>113.0</ele><time>2026-04-03T13:20:56.136Z</time></trkpt><trkpt lat="45.7944149" lon="11.9299778"><ele>115.66666666666666</ele><time>2026-04-03T13:20:57.123Z</time></trkpt><trkpt lat="45.7944407" lon="11.9302029"><ele>118.33333333333334</ele><time>2026-04-03T13:20:58.072Z</time></trkpt><trkpt lat="45.7944394" lon="11.930435"><ele>121.0</ele><time>2026-04-03T13:20:59.102Z</time></trkpt><trkpt lat="45.7944188" lon="11.9306465"><ele>121.0</ele><time>2026-04-03T13:21:00.117Z</time></trkpt><trkpt lat="45.7944204" lon="11.9308521"><ele>121.0</ele><time>2026-04-03T13:21:01.152Z</time></trkpt><trkpt lat="45.7944503" lon="11.9310633"><ele>121.0</ele><time>2026-04-03T13:21:02.138Z</time></trkpt><trkpt lat="45.7945009" lon="11.9312815"><ele>120.75</ele><time>2026-04-03T13:21:03.151Z</time></trkpt><trkpt lat="45.7945375" lon="11.9314782"><ele>120.5</ele><time>2026-04-03T13:21:04.178Z</time></trkpt><trkpt lat="45.7945726" lon="11.9316677"><ele>120.25</ele><time>2026-04-03T13:21:05.093Z</time></trkpt><trkpt lat="45.7946162" lon="11.9318613"><ele>120.0</ele><time>2026-04-03T13:21:06.094Z</time></trkpt><trkpt lat="45.7946608" lon="11.9320361"><ele>119.6</ele><time>2026-04-03T13:21:07.171Z</time></trkpt><trkpt lat="45.7946957" lon="11.9321681"><ele>119.2</ele><time>2026-04-03T13:21:08.145Z</time></trkpt><trkpt lat="45.7947284" lon="11.9322962"><ele>118.80000000000001</ele><time>2026-04-03T13:21:09.141Z</time></trkpt><trkpt lat="45.7947548" lon="11.9323994"><ele>118.4</ele><time>2026-04-03T13:21:10.1Z</time></trkpt><trkpt lat="45.7947812" lon="11.9325018"><ele>118.0</ele><time>2026-04-03T13:21:11.162Z</time></trkpt><trkpt lat="45.7948207" lon="11.9326508"><ele>117.4</ele><time>2026-04-03T13:21:13.121Z</time></trkpt><trkpt lat="45.7948723" lon="11.9328013"><ele>116.80000000000001</ele><time>2026-04-03T13:21:15.217Z</time></trkpt><trkpt lat="45.7949086" lon="11.9329223"><ele>116.2</ele><time>2026-04-03T13:21:17.117Z</time></trkpt><trkpt lat="45.7949555" lon="11.9330739"><ele>115.6</ele><time>2026-04-03T13:21:19.138Z</time></trkpt><trkpt lat="45.7949857" lon="11.9331602"><ele>115.0</ele><time>2026-04-03T13:21:20.136Z</time></trkpt><trkpt lat="45.7950191" lon="11.9332576"><ele>115.0</ele><time>2026-04-03T13:21:21.128Z</time></trkpt><trkpt lat="45.7950556" lon="11.9333666"><ele>115.0</ele><time>2026-04-03T13:21:22.06Z</time></trkpt><trkpt lat="45.7950932" lon="11.9335169"><ele>115.0</ele><time>2026-04-03T13:21:23.169Z</time></trkpt><trkpt lat="45.7951244" lon="11.9336854"><ele>115.0</ele><time>2026-04-03T13:21:24.099Z</time></trkpt><trkpt lat="45.7951675" lon="11.9339142"><ele>117.33333333333334</ele><time>2026-04-03T13:21:25.107Z</time></trkpt><trkpt lat="45.7952126" lon="11.9341607"><ele>119.66666666666666</ele><time>2026-04-03T13:21:26.102Z</time></trkpt><trkpt lat="45.7952636" lon="11.9344436"><ele>122.0</ele><time>2026-04-03T13:21:27.142Z</time></trkpt><trkpt lat="45.795309" lon="11.9346965"><ele>122.0</ele><time>2026-04-03T13:21:28.199Z</time></trkpt><trkpt lat="45.7953951" lon="11.9351159"><ele>122.0</ele><time>2026-04-03T13:21:30.058Z</time></trkpt><trkpt lat="45.7954456" lon="11.9353539"><ele>122.0</ele><time>2026-04-03T13:21:31.122Z</time></trkpt><trkpt lat="45.7954927" lon="11.9355862"><ele>122.0</ele><time>2026-04-03T13:21:32.099Z</time></trkpt><trkpt lat="45.7955473" lon="11.935816"><ele>122.0</ele><time>2026-04-03T13:21:33.131Z</time></trkpt><trkpt lat="45.7955971" lon="11.936025"><ele>121.75</ele><time>2026-04-03T13:21:34.145Z</time></trkpt><trkpt lat="45.7956433" lon="11.9362139"><ele>121.5</ele><time>2026-04-03T13:21:35.127Z</time></trkpt><trkpt lat="45.7956881" lon="11.9363956"><ele>121.25</ele><time>2026-04-03T13:21:36.089Z</time></trkpt><trkpt lat="45.7957314" lon="11.9365779"><ele>121.0</ele><time>2026-04-03T13:21:37.112Z</time></trkpt><trkpt lat="45.7957731" lon="11.9367403"><ele>120.25</ele><time>2026-04-03T13:21:38.089Z</time></trkpt><trkpt lat="45.7958188" lon="11.9368929"><ele>119.5</ele><time>2026-04-03T13:21:39.056Z</time></trkpt><trkpt lat="45.7958672" lon="11.9370693"><ele>118.75</ele><time>2026-04-03T13:21:40.06Z</time></trkpt><trkpt lat="45.7959043" lon="11.9372548"><ele>118.0</ele><time>2026-04-03T13:21:41.07Z</time></trkpt><trkpt lat="45.7959208" lon="11.9374277"><ele>118.0</ele><time>2026-04-03T13:21:42.071Z</time></trkpt><trkpt lat="45.7959105" lon="11.9376057"><ele>118.0</ele><time>2026-04-03T13:21:43.106Z</time></trkpt><trkpt lat="45.7958637" lon="11.9378126"><ele>118.0</ele><time>2026-04-03T13:21:44.147Z</time></trkpt><trkpt lat="45.7958037" lon="11.9380383"><ele>118.0</ele><time>2026-04-03T13:21:45.11Z</time></trkpt><trkpt lat="45.7957554" lon="11.9383019"><ele>116.66666666666667</ele><time>2026-04-03T13:21:46.096Z</time></trkpt><trkpt lat="45.7957192" lon="11.9385608"><ele>115.33333333333334</ele><time>2026-04-03T13:21:47.092Z</time></trkpt><trkpt lat="45.7956876" lon="11.9388155"><ele>114.0</ele><time>2026-04-03T13:21:48.131Z</time></trkpt><trkpt lat="45.7956602" lon="11.9390364"><ele>114.25</ele><time>2026-04-03T13:21:49.132Z</time></trkpt><trkpt lat="45.7956394" lon="11.9392213"><ele>114.5</ele><time>2026-04-03T13:21:50.088Z</time></trkpt><trkpt lat="45.7956168" lon="11.9393888"><ele>114.75</ele><time>2026-04-03T13:21:51.097Z</time></trkpt><trkpt lat="45.7955944" lon="11.939569"><ele>115.0</ele><time>2026-04-03T13:21:52.133Z</time></trkpt><trkpt lat="45.7955748" lon="11.9397754"><ele>115.0</ele><time>2026-04-03T13:21:53.234Z</time></trkpt><trkpt lat="45.7955657" lon="11.9399397"><ele>115.0</ele><time>2026-04-03T13:21:54.166Z</time></trkpt><trkpt lat="45.7955674" lon="11.9401085"><ele>115.0</ele><time>2026-04-03T13:21:55.089Z</time></trkpt><trkpt lat="45.7955835" lon="11.9402925"><ele>115.0</ele><time>2026-04-03T13:21:56.158Z</time></trkpt><trkpt lat="45.7956032" lon="11.9404552"><ele>114.75</ele><time>2026-04-03T13:21:57.106Z</time></trkpt><trkpt lat="45.7956346" lon="11.940624"><ele>114.5</ele><time>2026-04-03T13:21:58.121Z</time></trkpt><trkpt lat="45.7956704" lon="11.9407942"><ele>114.25</ele><time>2026-04-03T13:21:59.11Z</time></trkpt><trkpt lat="45.7957159" lon="11.9409878"><ele>114.0</ele><time>2026-04-03T13:22:00.156Z</time></trkpt><trkpt lat="45.7957612" lon="11.9411737"><ele>113.66666666666666</ele><time>2026-04-03T13:22:01.084Z</time></trkpt><trkpt lat="45.7958132" lon="11.9413839"><ele>113.33333333333333</ele><time>2026-04-03T13:22:02.109Z</time></trkpt><trkpt lat="45.7958622" lon="11.941581"><ele>113.0</ele><time>2026-04-03T13:22:03.124Z</time></trkpt><trkpt lat="45.7959144" lon="11.9417885"><ele>113.0</ele><time>2026-04-03T13:22:04.155Z</time></trkpt><trkpt lat="45.7959672" lon="11.9421038"><ele>113.0</ele><time>2026-04-03T13:22:05.768Z</time></trkpt><trkpt lat="45.7960133" lon="11.9422875"><ele>113.0</ele><time>2026-04-03T13:22:06.768Z</time></trkpt><trkpt lat="45.7960505" lon="11.9424629"><ele>113.75</ele><time>2026-04-03T13:22:07.767Z</time></trkpt><trkpt lat="45.7960938" lon="11.9426345"><ele>114.5</ele><time>2026-04-03T13:22:08.768Z</time></trkpt><trkpt lat="45.7961498" lon="11.9428264"><ele>115.25</ele><time>2026-04-03T13:22:10.154Z</time></trkpt><trkpt lat="45.7961975" lon="11.9429989"><ele>116.0</ele><time>2026-04-03T13:22:11.07Z</time></trkpt><trkpt lat="45.7962401" lon="11.9431756"><ele>116.0</ele><time>2026-04-03T13:22:12.082Z</time></trkpt><trkpt lat="45.7962691" lon="11.9433411"><ele>116.0</ele><time>2026-04-03T13:22:13.088Z</time></trkpt><trkpt lat="45.796291" lon="11.9434839"><ele>116.0</ele><time>2026-04-03T13:22:14.07Z</time></trkpt><trkpt lat="45.7963062" lon="11.9436301"><ele>116.0</ele><time>2026-04-03T13:22:15.042Z</time></trkpt><trkpt lat="45.7963219" lon="11.9437849"><ele>116.0</ele><time>2026-04-03T13:22:16.076Z</time></trkpt><trkpt lat="45.7963372" lon="11.9439405"><ele>116.19999999999999</ele><time>2026-04-03T13:22:17.102Z</time></trkpt><trkpt lat="45.7963517" lon="11.9440989"><ele>116.39999999999999</ele><time>2026-04-03T13:22:18.141Z</time></trkpt><trkpt lat="45.7963661" lon="11.9442415"><ele>116.6</ele><time>2026-04-03T13:22:19.104Z</time></trkpt><trkpt lat="45.7963812" lon="11.9443876"><ele>116.8</ele><time>2026-04-03T13:22:20.091Z</time></trkpt><trkpt lat="45.7964103" lon="11.9445433"><ele>117.0</ele><time>2026-04-03T13:22:21.093Z</time></trkpt><trkpt lat="45.7964579" lon="11.9447016"><ele>117.0</ele><time>2026-04-03T13:22:22.105Z</time></trkpt><trkpt lat="45.7965213" lon="11.9448507"><ele>117.0</ele><time>2026-04-03T13:22:23.088Z</time></trkpt><trkpt lat="45.7966028" lon="11.9450006"><ele>117.0</ele><time>2026-04-03T13:22:24.106Z</time></trkpt><trkpt lat="45.7967073" lon="11.9451736"><ele>117.0</ele><time>2026-04-03T13:22:25.141Z</time></trkpt><trkpt lat="45.7968207" lon="11.9453642"><ele>117.0</ele><time>2026-04-03T13:22:26.117Z</time></trkpt><trkpt lat="45.7969389" lon="11.945561"><ele>117.0</ele><time>2026-04-03T13:22:27.094Z</time></trkpt><trkpt lat="45.7970662" lon="11.9457924"><ele>117.0</ele><time>2026-04-03T13:22:28.11Z</time></trkpt><trkpt lat="45.7971905" lon="11.9460204"><ele>117.33333333333334</ele><time>2026-04-03T13:22:29.134Z</time></trkpt><trkpt lat="45.7973033" lon="11.9462172"><ele>117.66666666666667</ele><time>2026-04-03T13:22:30.098Z</time></trkpt><trkpt lat="45.7974111" lon="11.9464209"><ele>118.0</ele><time>2026-04-03T13:22:31.126Z</time></trkpt><trkpt lat="45.7975127" lon="11.9466206"><ele>117.66666666666667</ele><time>2026-04-03T13:22:32.088Z</time></trkpt><trkpt lat="45.7976186" lon="11.9468286"><ele>117.33333333333334</ele><time>2026-04-03T13:22:33.108Z</time></trkpt><trkpt lat="45.7977188" lon="11.9470436"><ele>117.0</ele><time>2026-04-03T13:22:34.159Z</time></trkpt><trkpt lat="45.7978" lon="11.9472389"><ele>117.66666666666666</ele><time>2026-04-03T13:22:35.088Z</time></trkpt><trkpt lat="45.7978891" lon="11.9474507"><ele>118.33333333333333</ele><time>2026-04-03T13:22:36.131Z</time></trkpt><trkpt lat="45.7979712" lon="11.9476436"><ele>119.0</ele><time>2026-04-03T13:22:37.097Z</time></trkpt><trkpt lat="45.7980571" lon="11.9478399"><ele>119.0</ele><time>2026-04-03T13:22:38.113Z</time></trkpt><trkpt lat="45.7981421" lon="11.948039"><ele>119.0</ele><time>2026-04-03T13:22:39.149Z</time></trkpt><trkpt lat="45.7982199" lon="11.9482239"><ele>119.0</ele><time>2026-04-03T13:22:40.116Z</time></trkpt><trkpt lat="45.7982968" lon="11.9484162"><ele>118.66666666666666</ele><time>2026-04-03T13:22:41.115Z</time></trkpt><trkpt lat="45.7983736" lon="11.9486061"><ele>118.33333333333334</ele><time>2026-04-03T13:22:42.103Z</time></trkpt><trkpt lat="45.7984567" lon="11.9488057"><ele>118.0</ele><time>2026-04-03T13:22:43.133Z</time></trkpt><trkpt lat="45.7985339" lon="11.9490053"><ele>117.66666666666667</ele><time>2026-04-03T13:22:44.11Z</time></trkpt><trkpt lat="45.7986157" lon="11.9492084"><ele>117.33333333333334</ele><time>2026-04-03T13:22:45.127Z</time></trkpt><trkpt lat="45.7987036" lon="11.9494018"><ele>117.0</ele><time>2026-04-03T13:22:46.114Z</time></trkpt><trkpt lat="45.798794" lon="11.9495835"><ele>117.0</ele><time>2026-04-03T13:22:47.101Z</time></trkpt><trkpt lat="45.7988876" lon="11.9497582"><ele>117.0</ele><time>2026-04-03T13:22:48.103Z</time></trkpt><trkpt lat="45.7989961" lon="11.9499412"><ele>117.0</ele><time>2026-04-03T13:22:49.102Z</time></trkpt><trkpt lat="45.7991129" lon="11.9501295"><ele>117.33333333333334</ele><time>2026-04-03T13:22:50.157Z</time></trkpt><trkpt lat="45.7992116" lon="11.950304"><ele>117.66666666666667</ele><time>2026-04-03T13:22:51.152Z</time></trkpt><trkpt lat="45.7992918" lon="11.9504758"><ele>118.0</ele><time>2026-04-03T13:22:52.094Z</time></trkpt><trkpt lat="45.799365" lon="11.9506797"><ele>119.33333333333334</ele><time>2026-04-03T13:22:53.124Z</time></trkpt><trkpt lat="45.7994273" lon="11.9508905"><ele>120.66666666666666</ele><time>2026-04-03T13:22:54.129Z</time></trkpt><trkpt lat="45.799491" lon="11.9510892"><ele>122.0</ele><time>2026-04-03T13:22:55.109Z</time></trkpt><trkpt lat="45.7995506" lon="11.9513115"><ele>122.0</ele><time>2026-04-03T13:22:56.158Z</time></trkpt><trkpt lat="45.7995973" lon="11.9515237"><ele>122.0</ele><time>2026-04-03T13:22:57.15Z</time></trkpt><trkpt lat="45.7996437" lon="11.9517194"><ele>122.0</ele><time>2026-04-03T13:22:58.103Z</time></trkpt><trkpt lat="45.7996941" lon="11.9519213"><ele>122.0</ele><time>2026-04-03T13:22:59.109Z</time></trkpt><trkpt lat="45.79975" lon="11.9521352"><ele>121.75</ele><time>2026-04-03T13:23:00.159Z</time></trkpt><trkpt lat="45.7997996" lon="11.952335"><ele>121.5</ele><time>2026-04-03T13:23:01.133Z</time></trkpt><trkpt lat="45.7998508" lon="11.9525346"><ele>121.25</ele><time>2026-04-03T13:23:02.146Z</time></trkpt><trkpt lat="45.799901" lon="11.9527325"><ele>121.0</ele><time>2026-04-03T13:23:03.146Z</time></trkpt><trkpt lat="45.7999365" lon="11.9529273"><ele>121.0</ele><time>2026-04-03T13:23:04.093Z</time></trkpt><trkpt lat="45.7999598" lon="11.9531411"><ele>121.0</ele><time>2026-04-03T13:23:05.091Z</time></trkpt><trkpt lat="45.7999647" lon="11.953383"><ele>121.0</ele><time>2026-04-03T13:23:06.179Z</time></trkpt><trkpt lat="45.7999621" lon="11.9535964"><ele>121.0</ele><time>2026-04-03T13:23:07.135Z</time></trkpt><trkpt lat="45.7999673" lon="11.953823"><ele>121.0</ele><time>2026-04-03T13:23:08.133Z</time></trkpt><trkpt lat="45.7999801" lon="11.9540533"><ele>121.0</ele><time>2026-04-03T13:23:09.129Z</time></trkpt><trkpt lat="45.8000099" lon="11.9542806"><ele>120.66666666666667</ele><time>2026-04-03T13:23:10.134Z</time></trkpt><trkpt lat="45.8000543" lon="11.9544989"><ele>120.33333333333334</ele><time>2026-04-03T13:23:11.154Z</time></trkpt><trkpt lat="45.800108" lon="11.954702"><ele>120.0</ele><time>2026-04-03T13:23:12.143Z</time></trkpt><trkpt lat="45.8001693" lon="11.9548997"><ele>120.75</ele><time>2026-04-03T13:23:13.128Z</time></trkpt><trkpt lat="45.8002391" lon="11.9551011"><ele>121.5</ele><time>2026-04-03T13:23:14.153Z</time></trkpt><trkpt lat="45.8003149" lon="11.9552874"><ele>122.25</ele><time>2026-04-03T13:23:15.152Z</time></trkpt><trkpt lat="45.800393" lon="11.9554422"><ele>123.0</ele><time>2026-04-03T13:23:16.098Z</time></trkpt><trkpt lat="45.8004913" lon="11.9555995"><ele>123.0</ele><time>2026-04-03T13:23:17.191Z</time></trkpt><trkpt lat="45.8005792" lon="11.9557037"><ele>123.0</ele><time>2026-04-03T13:23:18.105Z</time></trkpt><trkpt lat="45.8006923" lon="11.9557926"><ele>123.0</ele><time>2026-04-03T13:23:19.093Z</time></trkpt><trkpt lat="45.8008204" lon="11.9558547"><ele>123.0</ele><time>2026-04-03T13:23:20.113Z</time></trkpt><trkpt lat="45.8009622" lon="11.9558995"><ele>124.33333333333334</ele><time>2026-04-03T13:23:21.09Z</time></trkpt><trkpt lat="45.8011273" lon="11.955953"><ele>125.66666666666667</ele><time>2026-04-03T13:23:22.068Z</time></trkpt><trkpt lat="45.8013137" lon="11.9560199"><ele>127.0</ele><time>2026-04-03T13:23:23.179Z</time></trkpt><trkpt lat="45.8014636" lon="11.9560726"><ele>127.0</ele><time>2026-04-03T13:23:24.123Z</time></trkpt><trkpt lat="45.8016088" lon="11.9561121"><ele>127.0</ele><time>2026-04-03T13:23:25.103Z</time></trkpt><trkpt lat="45.8017391" lon="11.956153"><ele>127.0</ele><time>2026-04-03T13:23:26.11Z</time></trkpt><trkpt lat="45.801859" lon="11.9562027"><ele>127.0</ele><time>2026-04-03T13:23:27.083Z</time></trkpt><trkpt lat="45.8019588" lon="11.9562918"><ele>128.25</ele><time>2026-04-03T13:23:28.113Z</time></trkpt><trkpt lat="45.8020316" lon="11.956417"><ele>129.5</ele><time>2026-04-03T13:23:29.17Z</time></trkpt><trkpt lat="45.8020806" lon="11.9565663"><ele>130.75</ele><time>2026-04-03T13:23:30.165Z</time></trkpt><trkpt lat="45.8021086" lon="11.9567221"><ele>132.0</ele><time>2026-04-03T13:23:31.079Z</time></trkpt><trkpt lat="45.802139" lon="11.9569104"><ele>132.0</ele><time>2026-04-03T13:23:32.097Z</time></trkpt><trkpt lat="45.8021834" lon="11.9570916"><ele>132.0</ele><time>2026-04-03T13:23:33.122Z</time></trkpt><trkpt lat="45.8022264" lon="11.9572539"><ele>132.0</ele><time>2026-04-03T13:23:34.127Z</time></trkpt><trkpt lat="45.802293" lon="11.957414"><ele>132.0</ele><time>2026-04-03T13:23:35.212Z</time></trkpt><trkpt lat="45.8023608" lon="11.9575362"><ele>132.0</ele><time>2026-04-03T13:23:36.123Z</time></trkpt><trkpt lat="45.8024395" lon="11.9576461"><ele>132.0</ele><time>2026-04-03T13:23:37.105Z</time></trkpt><trkpt lat="45.8025212" lon="11.9577678"><ele>132.0</ele><time>2026-04-03T13:23:38.134Z</time></trkpt><trkpt lat="45.8025923" lon="11.9578859"><ele>132.0</ele><time>2026-04-03T13:23:39.101Z</time></trkpt><trkpt lat="45.8026439" lon="11.958018"><ele>132.0</ele><time>2026-04-03T13:23:40.143Z</time></trkpt><trkpt lat="45.8026812" lon="11.9581426"><ele>132.25</ele><time>2026-04-03T13:23:41.157Z</time></trkpt><trkpt lat="45.8027077" lon="11.9582736"><ele>132.5</ele><time>2026-04-03T13:23:42.134Z</time></trkpt><trkpt lat="45.8027272" lon="11.9584332"><ele>132.75</ele><time>2026-04-03T13:23:43.135Z</time></trkpt><trkpt lat="45.8027483" lon="11.9586229"><ele>133.0</ele><time>2026-04-03T13:23:44.157Z</time></trkpt><trkpt lat="45.8027654" lon="11.9587986"><ele>133.0</ele><time>2026-04-03T13:23:45.1Z</time></trkpt><trkpt lat="45.8027807" lon="11.9589833"><ele>133.0</ele><time>2026-04-03T13:23:46.086Z</time></trkpt><trkpt lat="45.8027989" lon="11.9591859"><ele>133.0</ele><time>2026-04-03T13:23:47.143Z</time></trkpt><trkpt lat="45.8028206" lon="11.9593776"><ele>133.0</ele><time>2026-04-03T13:23:48.134Z</time></trkpt><trkpt lat="45.8028362" lon="11.9595561"><ele>132.25</ele><time>2026-04-03T13:23:49.067Z</time></trkpt><trkpt lat="45.8028562" lon="11.9597571"><ele>131.5</ele><time>2026-04-03T13:23:50.124Z</time></trkpt><trkpt lat="45.8028915" lon="11.959937"><ele>130.75</ele><time>2026-04-03T13:23:51.11Z</time></trkpt><trkpt lat="45.802938" lon="11.9601208"><ele>130.0</ele><time>2026-04-03T13:23:52.131Z</time></trkpt><trkpt lat="45.8029945" lon="11.9602892"><ele>129.75</ele><time>2026-04-03T13:23:53.11Z</time></trkpt><trkpt lat="45.8030615" lon="11.9604499"><ele>129.5</ele><time>2026-04-03T13:23:54.083Z</time></trkpt><trkpt lat="45.8031431" lon="11.960619"><ele>129.25</ele><time>2026-04-03T13:23:55.129Z</time></trkpt><trkpt lat="45.8032318" lon="11.9607753"><ele>129.0</ele><time>2026-04-03T13:23:56.087Z</time></trkpt><trkpt lat="45.8033317" lon="11.9609433"><ele>129.0</ele><time>2026-04-03T13:23:57.122Z</time></trkpt><trkpt lat="45.8034488" lon="11.9611256"><ele>129.0</ele><time>2026-04-03T13:23:58.223Z</time></trkpt><trkpt lat="45.8036549" lon="11.9614388"><ele>130.0</ele><time>2026-04-03T13:24:00.088Z</time></trkpt><trkpt lat="45.8037594" lon="11.9615908"><ele>131.0</ele><time>2026-04-03T13:24:01.062Z</time></trkpt><trkpt lat="45.8038693" lon="11.9617352"><ele>132.0</ele><time>2026-04-03T13:24:02.073Z</time></trkpt><trkpt lat="45.8039851" lon="11.9618828"><ele>132.25</ele><time>2026-04-03T13:24:03.132Z</time></trkpt><trkpt lat="45.8040934" lon="11.9620004"><ele>132.5</ele><time>2026-04-03T13:24:04.054Z</time></trkpt><trkpt lat="45.8042252" lon="11.9621185"><ele>132.75</ele><time>2026-04-03T13:24:05.085Z</time></trkpt><trkpt lat="45.8043457" lon="11.9622278"><ele>133.0</ele><time>2026-04-03T13:24:06.075Z</time></trkpt><trkpt lat="45.8044661" lon="11.962333"><ele>134.0</ele><time>2026-04-03T13:24:07.086Z</time></trkpt><trkpt lat="45.8045751" lon="11.9624306"><ele>135.0</ele><time>2026-04-03T13:24:08.062Z</time></trkpt><trkpt lat="45.8046976" lon="11.9625206"><ele>136.0</ele><time>2026-04-03T13:24:09.094Z</time></trkpt><trkpt lat="45.8048172" lon="11.9626255"><ele>137.0</ele><time>2026-04-03T13:24:10.162Z</time></trkpt><trkpt lat="45.8049014" lon="11.9627308"><ele>137.0</ele><time>2026-04-03T13:24:11.083Z</time></trkpt><trkpt lat="45.8049812" lon="11.9628645"><ele>137.0</ele><time>2026-04-03T13:24:12.057Z</time></trkpt><trkpt lat="45.8050473" lon="11.9630234"><ele>137.0</ele><time>2026-04-03T13:24:13.065Z</time></trkpt><trkpt lat="45.8051013" lon="11.9632047"><ele>137.0</ele><time>2026-04-03T13:24:14.087Z</time></trkpt><trkpt lat="45.8051518" lon="11.9633911"><ele>139.66666666666666</ele><time>2026-04-03T13:24:15.087Z</time></trkpt><trkpt lat="45.8052084" lon="11.9635774"><ele>142.33333333333334</ele><time>2026-04-03T13:24:16.065Z</time></trkpt><trkpt lat="45.8052667" lon="11.9637933"><ele>145.0</ele><time>2026-04-03T13:24:17.106Z</time></trkpt><trkpt lat="45.8053376" lon="11.9640265"><ele>143.66666666666669</ele><time>2026-04-03T13:24:18.106Z</time></trkpt><trkpt lat="45.8054145" lon="11.9642948"><ele>142.33333333333334</ele><time>2026-04-03T13:24:19.122Z</time></trkpt><trkpt lat="45.8054896" lon="11.9645826"><ele>141.0</ele><time>2026-04-03T13:24:20.109Z</time></trkpt><trkpt lat="45.8055673" lon="11.9648858"><ele>140.5</ele><time>2026-04-03T13:24:21.102Z</time></trkpt><trkpt lat="45.8056477" lon="11.9652037"><ele>140.0</ele><time>2026-04-03T13:24:22.116Z</time></trkpt><trkpt lat="45.8057179" lon="11.9654954"><ele>140.0</ele><time>2026-04-03T13:24:23.07Z</time></trkpt><trkpt lat="45.8057845" lon="11.9657781"><ele>140.0</ele><time>2026-04-03T13:24:24.086Z</time></trkpt><trkpt lat="45.8058473" lon="11.9660517"><ele>140.0</ele><time>2026-04-03T13:24:25.107Z</time></trkpt><trkpt lat="45.8059104" lon="11.9663081"><ele>139.33333333333331</ele><time>2026-04-03T13:24:26.166Z</time></trkpt><trkpt lat="45.8059528" lon="11.9665323"><ele>138.66666666666666</ele><time>2026-04-03T13:24:27.14Z</time></trkpt><trkpt lat="45.805964" lon="11.9667419"><ele>138.0</ele><time>2026-04-03T13:24:28.085Z</time></trkpt><trkpt lat="45.8059493" lon="11.9669807"><ele>137.33333333333334</ele><time>2026-04-03T13:24:29.103Z</time></trkpt><trkpt lat="45.8059086" lon="11.9672738"><ele>136.66666666666669</ele><time>2026-04-03T13:24:30.154Z</time></trkpt><trkpt lat="45.8058793" lon="11.9675426"><ele>136.0</ele><time>2026-04-03T13:24:31.155Z</time></trkpt><trkpt lat="45.8058757" lon="11.9677576"><ele>136.0</ele><time>2026-04-03T13:24:32.087Z</time></trkpt><trkpt lat="45.8058915" lon="11.9679958"><ele>136.0</ele><time>2026-04-03T13:24:33.166Z</time></trkpt><trkpt lat="45.8059307" lon="11.9681854"><ele>136.0</ele><time>2026-04-03T13:24:34.075Z</time></trkpt><trkpt lat="45.8059944" lon="11.9684186"><ele>137.0</ele><time>2026-04-03T13:24:35.159Z</time></trkpt><trkpt lat="45.8060749" lon="11.9686244"><ele>138.0</ele><time>2026-04-03T13:24:36.096Z</time></trkpt><trkpt lat="45.8061651" lon="11.9688453"><ele>139.0</ele><time>2026-04-03T13:24:37.088Z</time></trkpt><trkpt lat="45.8062549" lon="11.9690706"><ele>138.66666666666669</ele><time>2026-04-03T13:24:38.091Z</time></trkpt><trkpt lat="45.8063478" lon="11.9692882"><ele>138.33333333333334</ele><time>2026-04-03T13:24:39.09Z</time></trkpt><trkpt lat="45.8064322" lon="11.9695051"><ele>138.0</ele><time>2026-04-03T13:24:40.106Z</time></trkpt><trkpt lat="45.8065212" lon="11.9697239"><ele>138.0</ele><time>2026-04-03T13:24:41.143Z</time></trkpt><trkpt lat="45.8066135" lon="11.9699545"><ele>138.0</ele><time>2026-04-03T13:24:42.113Z</time></trkpt><trkpt lat="45.8067121" lon="11.9701974"><ele>138.0</ele><time>2026-04-03T13:24:43.094Z</time></trkpt><trkpt lat="45.8068188" lon="11.9704629"><ele>139.66666666666666</ele><time>2026-04-03T13:24:44.112Z</time></trkpt><trkpt lat="45.8069148" lon="11.9707133"><ele>141.33333333333331</ele><time>2026-04-03T13:24:45.126Z</time></trkpt><trkpt lat="45.8069915" lon="11.970937"><ele>143.0</ele><time>2026-04-03T13:24:46.106Z</time></trkpt><trkpt lat="45.8070541" lon="11.9711614"><ele>143.0</ele><time>2026-04-03T13:24:47.098Z</time></trkpt><trkpt lat="45.8071073" lon="11.9713719"><ele>143.0</ele><time>2026-04-03T13:24:48.09Z</time></trkpt><trkpt lat="45.807165" lon="11.9715845"><ele>143.0</ele><time>2026-04-03T13:24:49.107Z</time></trkpt><trkpt lat="45.807221" lon="11.9717904"><ele>142.33333333333331</ele><time>2026-04-03T13:24:50.108Z</time></trkpt><trkpt lat="45.8072807" lon="11.9719884"><ele>141.66666666666666</ele><time>2026-04-03T13:24:51.105Z</time></trkpt><trkpt lat="45.8073527" lon="11.9721785"><ele>141.0</ele><time>2026-04-03T13:24:52.082Z</time></trkpt><trkpt lat="45.8074352" lon="11.972359"><ele>141.33333333333334</ele><time>2026-04-03T13:24:53.062Z</time></trkpt><trkpt lat="45.8075439" lon="11.9725715"><ele>141.66666666666669</ele><time>2026-04-03T13:24:54.159Z</time></trkpt><trkpt lat="45.8076772" lon="11.9727737"><ele>142.0</ele><time>2026-04-03T13:24:55.11Z</time></trkpt><trkpt lat="45.8078247" lon="11.9729989"><ele>142.33333333333334</ele><time>2026-04-03T13:24:56.138Z</time></trkpt><trkpt lat="45.8079528" lon="11.9731988"><ele>142.66666666666666</ele><time>2026-04-03T13:24:57.061Z</time></trkpt><trkpt lat="45.8081003" lon="11.973422"><ele>143.0</ele><time>2026-04-03T13:24:58.136Z</time></trkpt><trkpt lat="45.8083351" lon="11.9737606"><ele>143.0</ele><time>2026-04-03T13:25:00.035Z</time></trkpt><trkpt lat="45.8084468" lon="11.97391"><ele>143.0</ele><time>2026-04-03T13:25:00.995Z</time></trkpt><trkpt lat="45.8085633" lon="11.9740625"><ele>143.0</ele><time>2026-04-03T13:25:02.015Z</time></trkpt><trkpt lat="45.8086832" lon="11.9742149"><ele>143.5</ele><time>2026-04-03T13:25:03.018Z</time></trkpt><trkpt lat="45.808792" lon="11.9743523"><ele>144.0</ele><time>2026-04-03T13:25:04.019Z</time></trkpt><trkpt lat="45.8088939" lon="11.9744781"><ele>144.5</ele><time>2026-04-03T13:25:05.025Z</time></trkpt><trkpt lat="45.8089903" lon="11.9745931"><ele>145.0</ele><time>2026-04-03T13:25:06.029Z</time></trkpt><trkpt lat="45.8090826" lon="11.9747005"><ele>145.0</ele><time>2026-04-03T13:25:06.991Z</time></trkpt><trkpt lat="45.8091628" lon="11.9748098"><ele>145.0</ele><time>2026-04-03T13:25:08.002Z</time></trkpt><trkpt lat="45.8092281" lon="11.9749089"><ele>145.0</ele><time>2026-04-03T13:25:09.039Z</time></trkpt><trkpt lat="45.8092734" lon="11.9749849"><ele>145.0</ele><time>2026-04-03T13:25:10Z</time></trkpt><trkpt lat="45.8093125" lon="11.9750652"><ele>145.0</ele><time>2026-04-03T13:25:10.983Z</time></trkpt><trkpt lat="45.8093612" lon="11.9752159"><ele>145.5</ele><time>2026-04-03T13:25:13.021Z</time></trkpt><trkpt lat="45.8094554" lon="11.9753255"><ele>146.0</ele><time>2026-04-03T13:25:15.006Z</time></trkpt><trkpt lat="45.8095216" lon="11.9753984"><ele>146.5</ele><time>2026-04-03T13:25:16.165Z</time></trkpt><trkpt lat="45.8095944" lon="11.9756071"><ele>147.0</ele><time>2026-04-03T13:25:17.986Z</time></trkpt><trkpt lat="45.8096436" lon="11.9757952"><ele>146.0</ele><time>2026-04-03T13:25:19.034Z</time></trkpt><trkpt lat="45.8097153" lon="11.9759873"><ele>145.0</ele><time>2026-04-03T13:25:20.05Z</time></trkpt><trkpt lat="45.8098056" lon="11.97618"><ele>144.0</ele><time>2026-04-03T13:25:20.965Z</time></trkpt><trkpt lat="45.8099235" lon="11.9763858"><ele>144.0</ele><time>2026-04-03T13:25:22.002Z</time></trkpt><trkpt lat="45.8100755" lon="11.9765706"><ele>144.0</ele><time>2026-04-03T13:25:23.003Z</time></trkpt><trkpt lat="45.8102597" lon="11.9767478"><ele>144.0</ele><time>2026-04-03T13:25:24.032Z</time></trkpt><trkpt lat="45.810442" lon="11.9769281"><ele>146.5</ele><time>2026-04-03T13:25:25.025Z</time></trkpt><trkpt lat="45.8106456" lon="11.9771271"><ele>149.0</ele><time>2026-04-03T13:25:26.096Z</time></trkpt><trkpt lat="45.8108353" lon="11.9773183"><ele>149.5</ele><time>2026-04-03T13:25:27.105Z</time></trkpt><trkpt lat="45.811033" lon="11.9775079"><ele>150.0</ele><time>2026-04-03T13:25:28.137Z</time></trkpt><trkpt lat="45.8113784" lon="11.9778261"><ele>150.0</ele><time>2026-04-03T13:25:30.053Z</time></trkpt><trkpt lat="45.8115296" lon="11.977966"><ele>150.0</ele><time>2026-04-03T13:25:31.004Z</time></trkpt><trkpt lat="45.8117054" lon="11.9781113"><ele>150.0</ele><time>2026-04-03T13:25:32.094Z</time></trkpt><trkpt lat="45.8118615" lon="11.9782297"><ele>150.0</ele><time>2026-04-03T13:25:33.055Z</time></trkpt><trkpt lat="45.8120128" lon="11.9783349"><ele>150.0</ele><time>2026-04-03T13:25:34.018Z</time></trkpt><trkpt lat="45.812186" lon="11.978443"><ele>150.0</ele><time>2026-04-03T13:25:35.115Z</time></trkpt><trkpt lat="45.8124763" lon="11.9786568"><ele>150.0</ele><time>2026-04-03T13:25:37.02Z</time></trkpt><trkpt lat="45.8126352" lon="11.9787783"><ele>150.0</ele><time>2026-04-03T13:25:38.052Z</time></trkpt><trkpt lat="45.8127773" lon="11.9788915"><ele>150.0</ele><time>2026-04-03T13:25:39.016Z</time></trkpt><trkpt lat="45.8129233" lon="11.9790113"><ele>150.0</ele><time>2026-04-03T13:25:39.98Z</time></trkpt><trkpt lat="45.8130781" lon="11.9791388"><ele>150.0</ele><time>2026-04-03T13:25:40.996Z</time></trkpt><trkpt lat="45.813237" lon="11.9792727"><ele>150.0</ele><time>2026-04-03T13:25:42.045Z</time></trkpt><trkpt lat="45.813384" lon="11.979427"><ele>152.66666666666666</ele><time>2026-04-03T13:25:43.035Z</time></trkpt><trkpt lat="45.8135064" lon="11.9795897"><ele>155.33333333333331</ele><time>2026-04-03T13:25:43.99Z</time></trkpt><trkpt lat="45.8136376" lon="11.9797824"><ele>158.0</ele><time>2026-04-03T13:25:45.006Z</time></trkpt><trkpt lat="45.8137618" lon="11.9799816"><ele>155.66666666666666</ele><time>2026-04-03T13:25:46.032Z</time></trkpt><trkpt lat="45.8138755" lon="11.9801845"><ele>153.33333333333334</ele><time>2026-04-03T13:25:47.049Z</time></trkpt><trkpt lat="45.8139904" lon="11.9803848"><ele>151.0</ele><time>2026-04-03T13:25:48Z</time></trkpt><trkpt lat="45.8141084" lon="11.9806001"><ele>151.0</ele><time>2026-04-03T13:25:49.003Z</time></trkpt><trkpt lat="45.8142315" lon="11.9808263"><ele>151.0</ele><time>2026-04-03T13:25:50.019Z</time></trkpt><trkpt lat="45.8143612" lon="11.9810671"><ele>151.0</ele><time>2026-04-03T13:25:51.042Z</time></trkpt><trkpt lat="45.8144805" lon="11.9812869"><ele>151.0</ele><time>2026-04-03T13:25:51.994Z</time></trkpt><trkpt lat="45.8146101" lon="11.981517"><ele>151.0</ele><time>2026-04-03T13:25:53.02Z</time></trkpt><trkpt lat="45.8147324" lon="11.981741"><ele>151.0</ele><time>2026-04-03T13:25:54.014Z</time></trkpt><trkpt lat="45.8148542" lon="11.9819607"><ele>151.0</ele><time>2026-04-03T13:25:55.006Z</time></trkpt><trkpt lat="45.8149766" lon="11.982184"><ele>151.0</ele><time>2026-04-03T13:25:56.021Z</time></trkpt><trkpt lat="45.8151005" lon="11.9824098"><ele>151.0</ele><time>2026-04-03T13:25:57.019Z</time></trkpt><trkpt lat="45.8152296" lon="11.9826433"><ele>151.0</ele><time>2026-04-03T13:25:58.031Z</time></trkpt><trkpt lat="45.8153431" lon="11.9828789"><ele>151.0</ele><time>2026-04-03T13:25:59.027Z</time></trkpt><trkpt lat="45.8154625" lon="11.9831211"><ele>151.0</ele><time>2026-04-03T13:26:00.033Z</time></trkpt><trkpt lat="45.8155813" lon="11.9833632"><ele>151.0</ele><time>2026-04-03T13:26:01.012Z</time></trkpt><trkpt lat="45.8157103" lon="11.983615"><ele>151.0</ele><time>2026-04-03T13:26:02.046Z</time></trkpt><trkpt lat="45.8158258" lon="11.9838464"><ele>151.0</ele><time>2026-04-03T13:26:03.001Z</time></trkpt><trkpt lat="45.815943" lon="11.9840791"><ele>151.66666666666669</ele><time>2026-04-03T13:26:03.992Z</time></trkpt><trkpt lat="45.8160731" lon="11.98431"><ele>152.33333333333334</ele><time>2026-04-03T13:26:05.017Z</time></trkpt><trkpt lat="45.8161959" lon="11.9845168"><ele>153.0</ele><time>2026-04-03T13:26:05.978Z</time></trkpt><trkpt lat="45.8163254" lon="11.9847332"><ele>153.0</ele><time>2026-04-03T13:26:06.985Z</time></trkpt><trkpt lat="45.8164514" lon="11.9849459"><ele>153.0</ele><time>2026-04-03T13:26:07.993Z</time></trkpt><trkpt lat="45.8165888" lon="11.9851685"><ele>153.0</ele><time>2026-04-03T13:26:09.006Z</time></trkpt><trkpt lat="45.8167396" lon="11.9854101"><ele>153.5</ele><time>2026-04-03T13:26:10.014Z</time></trkpt><trkpt lat="45.8168922" lon="11.9856726"><ele>154.0</ele><time>2026-04-03T13:26:10.999Z</time></trkpt><trkpt lat="45.8170652" lon="11.9859851"><ele>154.0</ele><time>2026-04-03T13:26:12.109Z</time></trkpt><trkpt lat="45.8172153" lon="11.9862352"><ele>154.0</ele><time>2026-04-03T13:26:13.039Z</time></trkpt><trkpt lat="45.8173537" lon="11.9864725"><ele>154.0</ele><time>2026-04-03T13:26:13.978Z</time></trkpt><trkpt lat="45.8175096" lon="11.9867132"><ele>153.33333333333334</ele><time>2026-04-03T13:26:14.999Z</time></trkpt><trkpt lat="45.8176522" lon="11.9869407"><ele>152.66666666666666</ele><time>2026-04-03T13:26:15.994Z</time></trkpt><trkpt lat="45.8177791" lon="11.9871605"><ele>152.0</ele><time>2026-04-03T13:26:16.975Z</time></trkpt><trkpt lat="45.817894" lon="11.9873734"><ele>151.33333333333331</ele><time>2026-04-03T13:26:17.984Z</time></trkpt><trkpt lat="45.8180083" lon="11.9875715"><ele>150.66666666666666</ele><time>2026-04-03T13:26:18.993Z</time></trkpt><trkpt lat="45.8181391" lon="11.9877911"><ele>150.0</ele><time>2026-04-03T13:26:20.009Z</time></trkpt><trkpt lat="45.818307" lon="11.9880646"><ele>149.5</ele><time>2026-04-03T13:26:21.224Z</time></trkpt><trkpt lat="45.818568" lon="11.988449"><ele>149.0</ele><time>2026-04-03T13:26:23.025Z</time></trkpt><trkpt lat="45.8187013" lon="11.9886485"><ele>149.0</ele><time>2026-04-03T13:26:23.997Z</time></trkpt><trkpt lat="45.8188449" lon="11.9888695"><ele>149.0</ele><time>2026-04-03T13:26:25.021Z</time></trkpt><trkpt lat="45.8189834" lon="11.9890944"><ele>149.0</ele><time>2026-04-03T13:26:25.982Z</time></trkpt><trkpt lat="45.8191299" lon="11.9893296"><ele>148.5</ele><time>2026-04-03T13:26:26.972Z</time></trkpt><trkpt lat="45.8192933" lon="11.9895753"><ele>148.0</ele><time>2026-04-03T13:26:28.006Z</time></trkpt><trkpt lat="45.8194459" lon="11.9898119"><ele>149.0</ele><time>2026-04-03T13:26:28.979Z</time></trkpt><trkpt lat="45.8196039" lon="11.9900602"><ele>150.0</ele><time>2026-04-03T13:26:29.99Z</time></trkpt><trkpt lat="45.81976" lon="11.9902991"><ele>150.0</ele><time>2026-04-03T13:26:30.99Z</time></trkpt><trkpt lat="45.8199209" lon="11.9905513"><ele>150.0</ele><time>2026-04-03T13:26:32.021Z</time></trkpt><trkpt lat="45.8200795" lon="11.9907984"><ele>150.0</ele><time>2026-04-03T13:26:33.039Z</time></trkpt><trkpt lat="45.8202321" lon="11.9910311"><ele>150.0</ele><time>2026-04-03T13:26:34.02Z</time></trkpt><trkpt lat="45.8204034" lon="11.9912646"><ele>150.0</ele><time>2026-04-03T13:26:35.099Z</time></trkpt><trkpt lat="45.8205376" lon="11.9914648"><ele>150.0</ele><time>2026-04-03T13:26:36.017Z</time></trkpt><trkpt lat="45.8206741" lon="11.9916859"><ele>150.0</ele><time>2026-04-03T13:26:36.99Z</time></trkpt><trkpt lat="45.8208133" lon="11.9919105"><ele>149.66666666666666</ele><time>2026-04-03T13:26:37.973Z</time></trkpt><trkpt lat="45.8209675" lon="11.992156"><ele>149.33333333333331</ele><time>2026-04-03T13:26:39.026Z</time></trkpt><trkpt lat="45.8211126" lon="11.9923657"><ele>149.0</ele><time>2026-04-03T13:26:39.984Z</time></trkpt><trkpt lat="45.8212786" lon="11.9925749"><ele>150.33333333333331</ele><time>2026-04-03T13:26:41.001Z</time></trkpt><trkpt lat="45.821466" lon="11.9927612"><ele>151.66666666666666</ele><time>2026-04-03T13:26:42.054Z</time></trkpt><trkpt lat="45.8216423" lon="11.9929166"><ele>153.0</ele><time>2026-04-03T13:26:43.024Z</time></trkpt><trkpt lat="45.8218162" lon="11.9930549"><ele>152.66666666666666</ele><time>2026-04-03T13:26:43.974Z</time></trkpt><trkpt lat="45.8220033" lon="11.9932034"><ele>152.33333333333331</ele><time>2026-04-03T13:26:44.994Z</time></trkpt><trkpt lat="45.8221861" lon="11.9933505"><ele>152.0</ele><time>2026-04-03T13:26:45.989Z</time></trkpt><trkpt lat="45.8223767" lon="11.9934961"><ele>152.0</ele><time>2026-04-03T13:26:47.01Z</time></trkpt><trkpt lat="45.822563" lon="11.9936297"><ele>152.0</ele><time>2026-04-03T13:26:48.044Z</time></trkpt><trkpt lat="45.822708" lon="11.9937412"><ele>152.0</ele><time>2026-04-03T13:26:48.974Z</time></trkpt><trkpt lat="45.822847" lon="11.9938623"><ele>152.6</ele><time>2026-04-03T13:26:50.003Z</time></trkpt><trkpt lat="45.8229411" lon="11.9939607"><ele>153.2</ele><time>2026-04-03T13:26:51.018Z</time></trkpt><trkpt lat="45.8230063" lon="11.9940423"><ele>153.8</ele><time>2026-04-03T13:26:52.018Z</time></trkpt><trkpt lat="45.823049" lon="11.9941243"><ele>154.4</ele><time>2026-04-03T13:26:52.982Z</time></trkpt><trkpt lat="45.8231052" lon="11.9942224"><ele>155.0</ele><time>2026-04-03T13:26:54.011Z</time></trkpt><trkpt lat="45.8231769" lon="11.9943218"><ele>155.0</ele><time>2026-04-03T13:26:55.01Z</time></trkpt><trkpt lat="45.8232652" lon="11.9944658"><ele>155.0</ele><time>2026-04-03T13:26:55.988Z</time></trkpt><trkpt lat="45.8233717" lon="11.9946621"><ele>155.0</ele><time>2026-04-03T13:26:57.004Z</time></trkpt><trkpt lat="45.8234687" lon="11.9948555"><ele>156.5</ele><time>2026-04-03T13:26:58.001Z</time></trkpt><trkpt lat="45.8235978" lon="11.9951024"><ele>158.0</ele><time>2026-04-03T13:26:59.217Z</time></trkpt><trkpt lat="45.8237967" lon="11.9954773"><ele>158.0</ele><time>2026-04-03T13:27:00.984Z</time></trkpt><trkpt lat="45.8239249" lon="11.9956831"><ele>158.0</ele><time>2026-04-03T13:27:02.018Z</time></trkpt><trkpt lat="45.8240667" lon="11.9958569"><ele>158.0</ele><time>2026-04-03T13:27:03.001Z</time></trkpt><trkpt lat="45.8242145" lon="11.9960265"><ele>159.0</ele><time>2026-04-03T13:27:04.027Z</time></trkpt><trkpt lat="45.8243597" lon="11.9961805"><ele>160.0</ele><time>2026-04-03T13:27:05.005Z</time></trkpt><trkpt lat="45.8245143" lon="11.996348"><ele>161.0</ele><time>2026-04-03T13:27:06.039Z</time></trkpt><trkpt lat="45.8246501" lon="11.9965058"><ele>161.0</ele><time>2026-04-03T13:27:07.001Z</time></trkpt><trkpt lat="45.8247972" lon="11.9966664"><ele>161.0</ele><time>2026-04-03T13:27:08.021Z</time></trkpt><trkpt lat="45.8249343" lon="11.9968123"><ele>161.0</ele><time>2026-04-03T13:27:08.977Z</time></trkpt><trkpt lat="45.8250781" lon="11.9969632"><ele>163.66666666666666</ele><time>2026-04-03T13:27:10.003Z</time></trkpt><trkpt lat="45.8252155" lon="11.9971127"><ele>166.33333333333334</ele><time>2026-04-03T13:27:11.062Z</time></trkpt><trkpt lat="45.8253248" lon="11.9972512"><ele>169.0</ele><time>2026-04-03T13:27:12.011Z</time></trkpt><trkpt lat="45.8254298" lon="11.9973997"><ele>168.0</ele><time>2026-04-03T13:27:13.043Z</time></trkpt><trkpt lat="45.8255159" lon="11.9975509"><ele>167.0</ele><time>2026-04-03T13:27:14.035Z</time></trkpt><trkpt lat="45.82558" lon="11.9976886"><ele>166.0</ele><time>2026-04-03T13:27:14.996Z</time></trkpt><trkpt lat="45.8256325" lon="11.9978402"><ele>165.0</ele><time>2026-04-03T13:27:15.985Z</time></trkpt><trkpt lat="45.8256823" lon="11.998007"><ele>165.0</ele><time>2026-04-03T13:27:17.08Z</time></trkpt><trkpt lat="45.8257264" lon="11.9981409"><ele>165.0</ele><time>2026-04-03T13:27:18.005Z</time></trkpt><trkpt lat="45.8257836" lon="11.9982819"><ele>165.0</ele><time>2026-04-03T13:27:19.043Z</time></trkpt><trkpt lat="45.8258416" lon="11.9984038"><ele>165.0</ele><time>2026-04-03T13:27:20.003Z</time></trkpt><trkpt lat="45.8259058" lon="11.9985374"><ele>165.0</ele><time>2026-04-03T13:27:21.007Z</time></trkpt><trkpt lat="45.8259595" lon="11.9986703"><ele>165.75</ele><time>2026-04-03T13:27:22.006Z</time></trkpt><trkpt lat="45.8260108" lon="11.9987877"><ele>166.5</ele><time>2026-04-03T13:27:22.985Z</time></trkpt><trkpt lat="45.8260699" lon="11.9989181"><ele>167.25</ele><time>2026-04-03T13:27:24.172Z</time></trkpt><trkpt lat="45.8261612" lon="11.9990892"><ele>168.0</ele><time>2026-04-03T13:27:25.987Z</time></trkpt><trkpt lat="45.8262168" lon="11.999202"><ele>166.8</ele><time>2026-04-03T13:27:27.023Z</time></trkpt><trkpt lat="45.8262761" lon="11.9993067"><ele>165.60000000000002</ele><time>2026-04-03T13:27:28.006Z</time></trkpt><trkpt lat="45.826348" lon="11.999406"><ele>164.39999999999998</ele><time>2026-04-03T13:27:29.001Z</time></trkpt><trkpt lat="45.8264232" lon="11.9995064"><ele>163.2</ele><time>2026-04-03T13:27:29.988Z</time></trkpt><trkpt lat="45.8265024" lon="11.9996077"><ele>162.0</ele><time>2026-04-03T13:27:31.016Z</time></trkpt><trkpt lat="45.8265785" lon="11.999694"><ele>162.0</ele><time>2026-04-03T13:27:31.988Z</time></trkpt><trkpt lat="45.8266748" lon="11.9997801"><ele>162.0</ele><time>2026-04-03T13:27:33Z</time></trkpt><trkpt lat="45.8267841" lon="11.9998844"><ele>162.0</ele><time>2026-04-03T13:27:34.035Z</time></trkpt><trkpt lat="45.8268687" lon="11.9999818"><ele>162.0</ele><time>2026-04-03T13:27:34.971Z</time></trkpt><trkpt lat="45.8269513" lon="12.0000878"><ele>164.75</ele><time>2026-04-03T13:27:36.024Z</time></trkpt><trkpt lat="45.8270167" lon="12.0001957"><ele>167.5</ele><time>2026-04-03T13:27:37.011Z</time></trkpt><trkpt lat="45.827076" lon="12.0003655"><ele>170.25</ele><time>2026-04-03T13:27:38.092Z</time></trkpt><trkpt lat="45.8271039" lon="12.0005601"><ele>173.0</ele><time>2026-04-03T13:27:39.02Z</time></trkpt><trkpt lat="45.8271514" lon="12.0007876"><ele>170.66666666666666</ele><time>2026-04-03T13:27:40.031Z</time></trkpt><trkpt lat="45.8272184" lon="12.0010154"><ele>168.33333333333334</ele><time>2026-04-03T13:27:41.023Z</time></trkpt><trkpt lat="45.8273068" lon="12.0012501"><ele>166.0</ele><time>2026-04-03T13:27:42.031Z</time></trkpt><trkpt lat="45.8274026" lon="12.0014712"><ele>164.66666666666669</ele><time>2026-04-03T13:27:43.004Z</time></trkpt><trkpt lat="45.8274903" lon="12.0016921"><ele>163.33333333333334</ele><time>2026-04-03T13:27:44.058Z</time></trkpt><trkpt lat="45.8275669" lon="12.0018709"><ele>162.0</ele><time>2026-04-03T13:27:44.971Z</time></trkpt><trkpt lat="45.8276535" lon="12.0020679"><ele>163.0</ele><time>2026-04-03T13:27:46.001Z</time></trkpt><trkpt lat="45.8277367" lon="12.0022545"><ele>164.0</ele><time>2026-04-03T13:27:47.011Z</time></trkpt><trkpt lat="45.8278231" lon="12.0024348"><ele>165.0</ele><time>2026-04-03T13:27:48.033Z</time></trkpt><trkpt lat="45.8279155" lon="12.0026051"><ele>165.0</ele><time>2026-04-03T13:27:49.033Z</time></trkpt><trkpt lat="45.8280186" lon="12.002766"><ele>165.0</ele><time>2026-04-03T13:27:50.035Z</time></trkpt><trkpt lat="45.8281363" lon="12.0029203"><ele>165.0</ele><time>2026-04-03T13:27:51.039Z</time></trkpt><trkpt lat="45.8282665" lon="12.0030591"><ele>165.0</ele><time>2026-04-03T13:27:52.05Z</time></trkpt><trkpt lat="45.8283975" lon="12.0031911"><ele>165.0</ele><time>2026-04-03T13:27:53.046Z</time></trkpt><trkpt lat="45.8285237" lon="12.0033076"><ele>165.0</ele><time>2026-04-03T13:27:53.981Z</time></trkpt><trkpt lat="45.8286614" lon="12.003442"><ele>167.0</ele><time>2026-04-03T13:27:55.006Z</time></trkpt><trkpt lat="45.8287957" lon="12.0035742"><ele>169.0</ele><time>2026-04-03T13:27:56.045Z</time></trkpt><trkpt lat="45.8289247" lon="12.0036961"><ele>171.0</ele><time>2026-04-03T13:27:57.01Z</time></trkpt><trkpt lat="45.8290761" lon="12.003836"><ele>171.0</ele><time>2026-04-03T13:27:58.121Z</time></trkpt><trkpt lat="45.8291979" lon="12.0039532"><ele>171.0</ele><time>2026-04-03T13:27:59.05Z</time></trkpt><trkpt lat="45.8293285" lon="12.0040736"><ele>171.0</ele><time>2026-04-03T13:28:00.03Z</time></trkpt><trkpt lat="45.8294504" lon="12.0041778"><ele>171.0</ele><time>2026-04-03T13:28:00.993Z</time></trkpt><trkpt lat="45.8295773" lon="12.004283"><ele>170.75</ele><time>2026-04-03T13:28:02.036Z</time></trkpt><trkpt lat="45.8296826" lon="12.0043756"><ele>170.5</ele><time>2026-04-03T13:28:02.98Z</time></trkpt><trkpt lat="45.8297842" lon="12.0044773"><ele>170.25</ele><time>2026-04-03T13:28:04.015Z</time></trkpt><trkpt lat="45.8298859" lon="12.0045724"><ele>170.0</ele><time>2026-04-03T13:28:05.065Z</time></trkpt><trkpt lat="45.8299685" lon="12.0046494"><ele>170.0</ele><time>2026-04-03T13:28:06.009Z</time></trkpt><trkpt lat="45.8300392" lon="12.0047164"><ele>170.0</ele><time>2026-04-03T13:28:07.125Z</time></trkpt><trkpt lat="45.8301101" lon="12.004793"><ele>170.0</ele><time>2026-04-03T13:28:08.981Z</time></trkpt><trkpt lat="45.8301989" lon="12.0048587"><ele>170.0</ele><time>2026-04-03T13:28:19.017Z</time></trkpt><trkpt lat="45.8302798" lon="12.0049215"><ele>170.0</ele><time>2026-04-03T13:28:21.026Z</time></trkpt><trkpt lat="45.8303657" lon="12.0049991"><ele>169.2</ele><time>2026-04-03T13:28:23.062Z</time></trkpt><trkpt lat="45.8304509" lon="12.0050863"><ele>168.4</ele><time>2026-04-03T13:28:25.048Z</time></trkpt><trkpt lat="45.8305238" lon="12.0051901"><ele>167.60000000000002</ele><time>2026-04-03T13:28:27.023Z</time></trkpt><trkpt lat="45.8305994" lon="12.0053113"><ele>166.8</ele><time>2026-04-03T13:28:29.068Z</time></trkpt><trkpt lat="45.8306471" lon="12.0053746"><ele>166.0</ele><time>2026-04-03T13:28:30.061Z</time></trkpt><trkpt lat="45.8306981" lon="12.0054327"><ele>166.0</ele><time>2026-04-03T13:28:31.033Z</time></trkpt><trkpt lat="45.8307413" lon="12.0055053"><ele>166.0</ele><time>2026-04-03T13:28:32.047Z</time></trkpt><trkpt lat="45.8307869" lon="12.0055929"><ele>166.0</ele><time>2026-04-03T13:28:33.035Z</time></trkpt><trkpt lat="45.8308341" lon="12.0056879"><ele>166.0</ele><time>2026-04-03T13:28:34.049Z</time></trkpt><trkpt lat="45.8308799" lon="12.0057772"><ele>166.0</ele><time>2026-04-03T13:28:35.019Z</time></trkpt><trkpt lat="45.8309274" lon="12.005873"><ele>166.0</ele><time>2026-04-03T13:28:36.041Z</time></trkpt><trkpt lat="45.8309779" lon="12.0059693"><ele>165.83333333333334</ele><time>2026-04-03T13:28:37.057Z</time></trkpt><trkpt lat="45.831025" lon="12.0060647"><ele>165.66666666666669</ele><time>2026-04-03T13:28:38.038Z</time></trkpt><trkpt lat="45.8310742" lon="12.0061658"><ele>165.5</ele><time>2026-04-03T13:28:39.059Z</time></trkpt><trkpt lat="45.8311205" lon="12.0062609"><ele>165.33333333333334</ele><time>2026-04-03T13:28:40.049Z</time></trkpt><trkpt lat="45.8311665" lon="12.0063557"><ele>165.16666666666666</ele><time>2026-04-03T13:28:41.041Z</time></trkpt><trkpt lat="45.8312096" lon="12.0064533"><ele>165.0</ele><time>2026-04-03T13:28:42.066Z</time></trkpt><trkpt lat="45.8312434" lon="12.006544"><ele>165.00000000000003</ele><time>2026-04-03T13:28:43.046Z</time></trkpt><trkpt lat="45.8312696" lon="12.0066381"><ele>165.0</ele><time>2026-04-03T13:28:44.074Z</time></trkpt><trkpt lat="45.8312993" lon="12.006732"><ele>165.0</ele><time>2026-04-03T13:28:45.089Z</time></trkpt><trkpt lat="45.831337" lon="12.0068231"><ele>165.0</ele><time>2026-04-03T13:28:46.059Z</time></trkpt><trkpt lat="45.8313699" lon="12.0069098"><ele>165.0</ele><time>2026-04-03T13:28:47.051Z</time></trkpt><trkpt lat="45.8314057" lon="12.0070002"><ele>165.00000000000003</ele><time>2026-04-03T13:28:48.057Z</time></trkpt><trkpt lat="45.8314439" lon="12.0070958"><ele>165.0</ele><time>2026-04-03T13:28:49.078Z</time></trkpt><trkpt lat="45.8314792" lon="12.00719"><ele>164.83333333333334</ele><time>2026-04-03T13:28:50.076Z</time></trkpt><trkpt lat="45.8315165" lon="12.0072853"><ele>164.66666666666666</ele><time>2026-04-03T13:28:51.075Z</time></trkpt><trkpt lat="45.8315503" lon="12.0073758"><ele>164.5</ele><time>2026-04-03T13:28:52.086Z</time></trkpt><trkpt lat="45.8315797" lon="12.0074607"><ele>164.33333333333331</ele><time>2026-04-03T13:28:53.069Z</time></trkpt><trkpt lat="45.8316332" lon="12.0076518"><ele>164.16666666666666</ele><time>2026-04-03T13:28:55.128Z</time></trkpt><trkpt lat="45.8316635" lon="12.0077602"><ele>164.0</ele><time>2026-04-03T13:28:56.083Z</time></trkpt><trkpt lat="45.831704" lon="12.0079099"><ele>164.0</ele><time>2026-04-03T13:28:57.241Z</time></trkpt><trkpt lat="45.8317773" lon="12.008161"><ele>164.0</ele><time>2026-04-03T13:28:59.119Z</time></trkpt><trkpt lat="45.8318177" lon="12.0082935"><ele>164.0</ele><time>2026-04-03T13:29:00.087Z</time></trkpt><trkpt lat="45.8318605" lon="12.0084348"><ele>164.0</ele><time>2026-04-03T13:29:01.125Z</time></trkpt><trkpt lat="45.8318992" lon="12.0085806"><ele>163.79999999999998</ele><time>2026-04-03T13:29:02.092Z</time></trkpt><trkpt lat="45.831936" lon="12.0087224"><ele>163.6</ele><time>2026-04-03T13:29:03.066Z</time></trkpt><trkpt lat="45.8319682" lon="12.0088849"><ele>163.4</ele><time>2026-04-03T13:29:04.135Z</time></trkpt><trkpt lat="45.8319915" lon="12.0090471"><ele>163.2</ele><time>2026-04-03T13:29:05.181Z</time></trkpt><trkpt lat="45.8320099" lon="12.0091881"><ele>163.0</ele><time>2026-04-03T13:29:06.094Z</time></trkpt><trkpt lat="45.8320306" lon="12.009345"><ele>162.8</ele><time>2026-04-03T13:29:07.074Z</time></trkpt><trkpt lat="45.8320468" lon="12.0095076"><ele>162.60000000000002</ele><time>2026-04-03T13:29:08.083Z</time></trkpt><trkpt lat="45.8320658" lon="12.0096663"><ele>162.39999999999998</ele><time>2026-04-03T13:29:09.086Z</time></trkpt><trkpt lat="45.8320855" lon="12.009821"><ele>162.2</ele><time>2026-04-03T13:29:10.076Z</time></trkpt><trkpt lat="45.8321088" lon="12.0099796"><ele>162.0</ele><time>2026-04-03T13:29:11.071Z</time></trkpt><trkpt lat="45.8321317" lon="12.0101368"><ele>162.0</ele><time>2026-04-03T13:29:12.076Z</time></trkpt><trkpt lat="45.8321509" lon="12.0102874"><ele>162.0</ele><time>2026-04-03T13:29:13.053Z</time></trkpt><trkpt lat="45.8321691" lon="12.0104488"><ele>162.0</ele><time>2026-04-03T13:29:14.064Z</time></trkpt><trkpt lat="45.8321882" lon="12.0106079"><ele>162.0</ele><time>2026-04-03T13:29:15.071Z</time></trkpt><trkpt lat="45.8322074" lon="12.0107641"><ele>162.0</ele><time>2026-04-03T13:29:16.048Z</time></trkpt><trkpt lat="45.8322291" lon="12.0109423"><ele>161.75</ele><time>2026-04-03T13:29:17.128Z</time></trkpt><trkpt lat="45.8322505" lon="12.0111087"><ele>161.5</ele><time>2026-04-03T13:29:18.098Z</time></trkpt><trkpt lat="45.8322698" lon="12.0112769"><ele>161.25</ele><time>2026-04-03T13:29:19.089Z</time></trkpt><trkpt lat="45.8322896" lon="12.0114568"><ele>161.0</ele><time>2026-04-03T13:29:20.118Z</time></trkpt><trkpt lat="45.8323112" lon="12.0116229"><ele>160.5</ele><time>2026-04-03T13:29:21.084Z</time></trkpt><trkpt lat="45.8323263" lon="12.0117937"><ele>160.0</ele><time>2026-04-03T13:29:22.081Z</time></trkpt><trkpt lat="45.832349" lon="12.0119624"><ele>159.5</ele><time>2026-04-03T13:29:23.074Z</time></trkpt><trkpt lat="45.8323729" lon="12.012144"><ele>159.0</ele><time>2026-04-03T13:29:24.137Z</time></trkpt><trkpt lat="45.8323923" lon="12.0123027"><ele>159.0</ele><time>2026-04-03T13:29:25.131Z</time></trkpt><trkpt lat="45.8324074" lon="12.0124434"><ele>159.0</ele><time>2026-04-03T13:29:26.072Z</time></trkpt><trkpt lat="45.8324228" lon="12.0125851"><ele>159.0</ele><time>2026-04-03T13:29:27.108Z</time></trkpt><trkpt lat="45.8324357" lon="12.0126995"><ele>159.0</ele><time>2026-04-03T13:29:28.072Z</time></trkpt><trkpt lat="45.8324577" lon="12.0128015"><ele>159.0</ele><time>2026-04-03T13:29:29.082Z</time></trkpt><trkpt lat="45.8325035" lon="12.0128893"><ele>159.0</ele><time>2026-04-03T13:29:30.183Z</time></trkpt><trkpt lat="45.8325568" lon="12.0129385"><ele>159.0</ele><time>2026-04-03T13:29:31.11Z</time></trkpt><trkpt lat="45.8326193" lon="12.0129562"><ele>159.0</ele><time>2026-04-03T13:29:32.092Z</time></trkpt><trkpt lat="45.8326978" lon="12.0129392"><ele>159.0</ele><time>2026-04-03T13:29:33.108Z</time></trkpt><trkpt lat="45.8328045" lon="12.012906"><ele>159.0</ele><time>2026-04-03T13:29:34.101Z</time></trkpt><trkpt lat="45.832917" lon="12.0128601"><ele>159.0</ele><time>2026-04-03T13:29:35.112Z</time></trkpt><trkpt lat="45.8330342" lon="12.0128341"><ele>159.25</ele><time>2026-04-03T13:29:36.107Z</time></trkpt><trkpt lat="45.8331461" lon="12.0128019"><ele>159.5</ele><time>2026-04-03T13:29:37.085Z</time></trkpt><trkpt lat="45.8332684" lon="12.0127607"><ele>159.75</ele><time>2026-04-03T13:29:38.145Z</time></trkpt><trkpt lat="45.8333883" lon="12.0127166"><ele>160.0</ele><time>2026-04-03T13:29:39.133Z</time></trkpt><trkpt lat="45.833505" lon="12.0126686"><ele>160.0</ele><time>2026-04-03T13:29:40.136Z</time></trkpt><trkpt lat="45.8336233" lon="12.0126241"><ele>160.0</ele><time>2026-04-03T13:29:41.08Z</time></trkpt><trkpt lat="45.8337438" lon="12.0125576"><ele>160.0</ele><time>2026-04-03T13:29:42.117Z</time></trkpt><trkpt lat="45.8338681" lon="12.0124489"><ele>160.0</ele><time>2026-04-03T13:29:43.259Z</time></trkpt><trkpt lat="45.8340929" lon="12.0122973"><ele>160.75</ele><time>2026-04-03T13:29:45.141Z</time></trkpt><trkpt lat="45.8342085" lon="12.0122483"><ele>161.5</ele><time>2026-04-03T13:29:46.108Z</time></trkpt><trkpt lat="45.8343457" lon="12.0121913"><ele>162.25</ele><time>2026-04-03T13:29:47.136Z</time></trkpt><trkpt lat="45.8344879" lon="12.0121359"><ele>163.0</ele><time>2026-04-03T13:29:48.136Z</time></trkpt><trkpt lat="45.8346219" lon="12.0120801"><ele>163.0</ele><time>2026-04-03T13:29:49.086Z</time></trkpt><trkpt lat="45.8347662" lon="12.0120167"><ele>163.0</ele><time>2026-04-03T13:29:50.14Z</time></trkpt><trkpt lat="45.8348979" lon="12.0119558"><ele>163.0</ele><time>2026-04-03T13:29:51.098Z</time></trkpt><trkpt lat="45.8350442" lon="12.011898"><ele>163.0</ele><time>2026-04-03T13:29:52.094Z</time></trkpt><trkpt lat="45.8351887" lon="12.011846"><ele>162.25</ele><time>2026-04-03T13:29:53.097Z</time></trkpt><trkpt lat="45.8353358" lon="12.0117929"><ele>161.5</ele><time>2026-04-03T13:29:54.113Z</time></trkpt><trkpt lat="45.8354623" lon="12.0117419"><ele>160.75</ele><time>2026-04-03T13:29:55.082Z</time></trkpt><trkpt lat="45.8355811" lon="12.0116909"><ele>160.0</ele><time>2026-04-03T13:29:56.073Z</time></trkpt><trkpt lat="45.8356997" lon="12.0116429"><ele>160.0</ele><time>2026-04-03T13:29:57.121Z</time></trkpt><trkpt lat="45.8358173" lon="12.0115937"><ele>160.0</ele><time>2026-04-03T13:29:58.127Z</time></trkpt><trkpt lat="45.8359409" lon="12.0115424"><ele>160.0</ele><time>2026-04-03T13:29:59.146Z</time></trkpt><trkpt lat="45.8360626" lon="12.0114918"><ele>160.0</ele><time>2026-04-03T13:30:00.112Z</time></trkpt><trkpt lat="45.8361897" lon="12.0114409"><ele>160.25</ele><time>2026-04-03T13:30:01.115Z</time></trkpt><trkpt lat="45.836313" lon="12.0114115"><ele>160.5</ele><time>2026-04-03T13:30:02.155Z</time></trkpt><trkpt lat="45.8364239" lon="12.0114175"><ele>160.75</ele><time>2026-04-03T13:30:03.165Z</time></trkpt><trkpt lat="45.83652" lon="12.0114637"><ele>161.0</ele><time>2026-04-03T13:30:04.148Z</time></trkpt><trkpt lat="45.836631" lon="12.0115607"><ele>161.0</ele><time>2026-04-03T13:30:05.35Z</time></trkpt><trkpt lat="45.836794" lon="12.0117439"><ele>161.0</ele><time>2026-04-03T13:30:07.124Z</time></trkpt><trkpt lat="45.8368806" lon="12.0118499"><ele>161.0</ele><time>2026-04-03T13:30:08.112Z</time></trkpt><trkpt lat="45.8369749" lon="12.0119563"><ele>161.0</ele><time>2026-04-03T13:30:09.145Z</time></trkpt><trkpt lat="45.8370693" lon="12.0120653"><ele>161.0</ele><time>2026-04-03T13:30:10.165Z</time></trkpt><trkpt lat="45.8371629" lon="12.0121676"><ele>161.0</ele><time>2026-04-03T13:30:11.12Z</time></trkpt><trkpt lat="45.8372674" lon="12.0122783"><ele>161.0</ele><time>2026-04-03T13:30:12.135Z</time></trkpt><trkpt lat="45.8373762" lon="12.0123843"><ele>161.0</ele><time>2026-04-03T13:30:13.173Z</time></trkpt><trkpt lat="45.8374724" lon="12.0124838"><ele>161.0</ele><time>2026-04-03T13:30:14.13Z</time></trkpt><trkpt lat="45.8375801" lon="12.0125789"><ele>161.0</ele><time>2026-04-03T13:30:15.141Z</time></trkpt><trkpt lat="45.8376847" lon="12.0126686"><ele>161.0</ele><time>2026-04-03T13:30:16.127Z</time></trkpt><trkpt lat="45.8377977" lon="12.0127577"><ele>161.0</ele><time>2026-04-03T13:30:17.114Z</time></trkpt><trkpt lat="45.8379196" lon="12.0128489"><ele>160.0</ele><time>2026-04-03T13:30:18.098Z</time></trkpt><trkpt lat="45.8380592" lon="12.0129435"><ele>159.0</ele><time>2026-04-03T13:30:19.104Z</time></trkpt><trkpt lat="45.8382035" lon="12.0130438"><ele>158.0</ele><time>2026-04-03T13:30:20.103Z</time></trkpt><trkpt lat="45.8383529" lon="12.0131561"><ele>159.33333333333331</ele><time>2026-04-03T13:30:21.103Z</time></trkpt><trkpt lat="45.8384999" lon="12.0132638"><ele>160.66666666666666</ele><time>2026-04-03T13:30:22.121Z</time></trkpt><trkpt lat="45.8386371" lon="12.0133659"><ele>162.0</ele><time>2026-04-03T13:30:23.13Z</time></trkpt><trkpt lat="45.8387678" lon="12.0134647"><ele>162.0</ele><time>2026-04-03T13:30:24.135Z</time></trkpt><trkpt lat="45.8388869" lon="12.0135617"><ele>162.0</ele><time>2026-04-03T13:30:25.12Z</time></trkpt><trkpt lat="45.8389826" lon="12.013671"><ele>162.0</ele><time>2026-04-03T13:30:26.115Z</time></trkpt><trkpt lat="45.8390522" lon="12.0137864"><ele>162.0</ele><time>2026-04-03T13:30:27.105Z</time></trkpt><trkpt lat="45.8391079" lon="12.0139113"><ele>162.0</ele><time>2026-04-03T13:30:28.127Z</time></trkpt><trkpt lat="45.8391628" lon="12.0140029"><ele>162.0</ele><time>2026-04-03T13:30:29.11Z</time></trkpt><trkpt lat="45.8392316" lon="12.0140539"><ele>162.0</ele><time>2026-04-03T13:30:30.124Z</time></trkpt><trkpt lat="45.83931" lon="12.0140584"><ele>162.0</ele><time>2026-04-03T13:30:31.129Z</time></trkpt><trkpt lat="45.839404" lon="12.0140514"><ele>162.0</ele><time>2026-04-03T13:30:32.11Z</time></trkpt><trkpt lat="45.8395346" lon="12.0140764"><ele>161.66666666666666</ele><time>2026-04-03T13:30:33.122Z</time></trkpt><trkpt lat="45.8397227" lon="12.0141688"><ele>161.33333333333331</ele><time>2026-04-03T13:30:34.275Z</time></trkpt><trkpt lat="45.8398959" lon="12.0142862"><ele>161.0</ele><time>2026-04-03T13:30:35.255Z</time></trkpt><trkpt lat="45.8402277" lon="12.0145209"><ele>161.0</ele><time>2026-04-03T13:30:37.143Z</time></trkpt><trkpt lat="45.8403849" lon="12.0146413"><ele>161.0</ele><time>2026-04-03T13:30:38.168Z</time></trkpt><trkpt lat="45.8405379" lon="12.014749"><ele>161.0</ele><time>2026-04-03T13:30:39.099Z</time></trkpt><trkpt lat="45.8406921" lon="12.014866"><ele>161.0</ele><time>2026-04-03T13:30:40.144Z</time></trkpt><trkpt lat="45.8408179" lon="12.0149568"><ele>161.0</ele><time>2026-04-03T13:30:41.105Z</time></trkpt><trkpt lat="45.8409718" lon="12.0150649"><ele>161.0</ele><time>2026-04-03T13:30:42.078Z</time></trkpt><trkpt lat="45.8411114" lon="12.0151717"><ele>160.0</ele><time>2026-04-03T13:30:43.076Z</time></trkpt><trkpt lat="45.8412697" lon="12.0152873"><ele>159.0</ele><time>2026-04-03T13:30:44.117Z</time></trkpt><trkpt lat="45.841436" lon="12.015406"><ele>158.0</ele><time>2026-04-03T13:30:45.123Z</time></trkpt><trkpt lat="45.8415793" lon="12.0155143"><ele>158.0</ele><time>2026-04-03T13:30:46.091Z</time></trkpt><trkpt lat="45.8417198" lon="12.0156254"><ele>158.0</ele><time>2026-04-03T13:30:47.193Z</time></trkpt><trkpt lat="45.8418347" lon="12.0157115"><ele>158.0</ele><time>2026-04-03T13:30:48.126Z</time></trkpt><trkpt lat="45.8419495" lon="12.0157937"><ele>158.0</ele><time>2026-04-03T13:30:49.123Z</time></trkpt><trkpt lat="45.842051" lon="12.0158643"><ele>157.6</ele><time>2026-04-03T13:30:50.173Z</time></trkpt><trkpt lat="45.8421355" lon="12.0159354"><ele>157.20000000000002</ele><time>2026-04-03T13:30:51.162Z</time></trkpt><trkpt lat="45.8422193" lon="12.0160226"><ele>156.8</ele><time>2026-04-03T13:30:52.186Z</time></trkpt><trkpt lat="45.8422829" lon="12.016111"><ele>156.4</ele><time>2026-04-03T13:30:53.088Z</time></trkpt><trkpt lat="45.8423489" lon="12.0162243"><ele>156.0</ele><time>2026-04-03T13:30:54.093Z</time></trkpt><trkpt lat="45.8424275" lon="12.0163418"><ele>156.0</ele><time>2026-04-03T13:30:55.108Z</time></trkpt><trkpt lat="45.8425147" lon="12.0164302"><ele>156.0</ele><time>2026-04-03T13:30:56.117Z</time></trkpt><trkpt lat="45.8426106" lon="12.0164865"><ele>156.0</ele><time>2026-04-03T13:30:57.101Z</time></trkpt><trkpt lat="45.8427279" lon="12.0165185"><ele>156.0</ele><time>2026-04-03T13:30:58.107Z</time></trkpt><trkpt lat="45.8428655" lon="12.0165507"><ele>156.33333333333334</ele><time>2026-04-03T13:30:59.068Z</time></trkpt><trkpt lat="45.8430672" lon="12.0166395"><ele>156.66666666666669</ele><time>2026-04-03T13:31:00.209Z</time></trkpt><trkpt lat="45.8432497" lon="12.01675"><ele>157.0</ele><time>2026-04-03T13:31:01.156Z</time></trkpt><trkpt lat="45.8434257" lon="12.0168747"><ele>156.5</ele><time>2026-04-03T13:31:02.117Z</time></trkpt><trkpt lat="45.8436548" lon="12.0170443"><ele>156.0</ele><time>2026-04-03T13:31:03.204Z</time></trkpt><trkpt lat="45.8438304" lon="12.0171723"><ele>156.0</ele><time>2026-04-03T13:31:04.109Z</time></trkpt><trkpt lat="45.8440202" lon="12.0173146"><ele>156.0</ele><time>2026-04-03T13:31:05.134Z</time></trkpt><trkpt lat="45.8442153" lon="12.0174647"><ele>156.0</ele><time>2026-04-03T13:31:06.179Z</time></trkpt><trkpt lat="45.8443886" lon="12.0175924"><ele>155.66666666666666</ele><time>2026-04-03T13:31:07.131Z</time></trkpt><trkpt lat="45.844578" lon="12.0177266"><ele>155.33333333333331</ele><time>2026-04-03T13:31:08.162Z</time></trkpt><trkpt lat="45.8447915" lon="12.0178716"><ele>155.0</ele><time>2026-04-03T13:31:09.16Z</time></trkpt><trkpt lat="45.8450049" lon="12.0180271"><ele>154.33333333333331</ele><time>2026-04-03T13:31:10.143Z</time></trkpt><trkpt lat="45.8451969" lon="12.018169"><ele>153.66666666666666</ele><time>2026-04-03T13:31:11.149Z</time></trkpt><trkpt lat="45.8453778" lon="12.0183045"><ele>153.0</ele><time>2026-04-03T13:31:12.123Z</time></trkpt><trkpt lat="45.8455493" lon="12.0184425"><ele>153.0</ele><time>2026-04-03T13:31:13.151Z</time></trkpt><trkpt lat="45.8457135" lon="12.0185649"><ele>153.0</ele><time>2026-04-03T13:31:14.161Z</time></trkpt><trkpt lat="45.8458589" lon="12.0186755"><ele>153.0</ele><time>2026-04-03T13:31:15.099Z</time></trkpt><trkpt lat="45.846018" lon="12.0188029"><ele>152.66666666666666</ele><time>2026-04-03T13:31:16.114Z</time></trkpt><trkpt lat="45.8462043" lon="12.0189431"><ele>152.33333333333331</ele><time>2026-04-03T13:31:17.139Z</time></trkpt><trkpt lat="45.8463931" lon="12.0190803"><ele>152.0</ele><time>2026-04-03T13:31:18.099Z</time></trkpt><trkpt lat="45.8465656" lon="12.0192057"><ele>152.0</ele><time>2026-04-03T13:31:19.081Z</time></trkpt><trkpt lat="45.8467361" lon="12.0193341"><ele>152.0</ele><time>2026-04-03T13:31:20.105Z</time></trkpt><trkpt lat="45.8469037" lon="12.0194576"><ele>152.0</ele><time>2026-04-03T13:31:21.155Z</time></trkpt><trkpt lat="45.8470535" lon="12.0195664"><ele>152.66666666666666</ele><time>2026-04-03T13:31:22.15Z</time></trkpt><trkpt lat="45.8471997" lon="12.0196801"><ele>153.33333333333334</ele><time>2026-04-03T13:31:23.141Z</time></trkpt><trkpt lat="45.8473504" lon="12.0197941"><ele>154.0</ele><time>2026-04-03T13:31:24.162Z</time></trkpt><trkpt lat="45.8475039" lon="12.019906"><ele>154.66666666666669</ele><time>2026-04-03T13:31:25.202Z</time></trkpt><trkpt lat="45.8476482" lon="12.0200077"><ele>155.33333333333334</ele><time>2026-04-03T13:31:26.143Z</time></trkpt><trkpt lat="45.8478287" lon="12.02014"><ele>156.0</ele><time>2026-04-03T13:31:27.336Z</time></trkpt><trkpt lat="45.8480897" lon="12.0203435"><ele>156.0</ele><time>2026-04-03T13:31:29.14Z</time></trkpt><trkpt lat="45.8482345" lon="12.0204505"><ele>156.0</ele><time>2026-04-03T13:31:30.16Z</time></trkpt><trkpt lat="45.8483709" lon="12.0205456"><ele>156.0</ele><time>2026-04-03T13:31:31.134Z</time></trkpt><trkpt lat="45.8485109" lon="12.0206481"><ele>155.66666666666666</ele><time>2026-04-03T13:31:32.135Z</time></trkpt><trkpt lat="45.8486528" lon="12.0207503"><ele>155.33333333333331</ele><time>2026-04-03T13:31:33.155Z</time></trkpt><trkpt lat="45.8487902" lon="12.0208517"><ele>155.0</ele><time>2026-04-03T13:31:34.132Z</time></trkpt><trkpt lat="45.8489506" lon="12.0209714"><ele>155.0</ele><time>2026-04-03T13:31:35.249Z</time></trkpt><trkpt lat="45.8492266" lon="12.0211785"><ele>155.0</ele><time>2026-04-03T13:31:37.134Z</time></trkpt><trkpt lat="45.8493879" lon="12.0213006"><ele>154.66666666666666</ele><time>2026-04-03T13:31:38.2Z</time></trkpt><trkpt lat="45.8495346" lon="12.021406"><ele>154.33333333333334</ele><time>2026-04-03T13:31:39.11Z</time></trkpt><trkpt lat="45.8497064" lon="12.0215359"><ele>154.0</ele><time>2026-04-03T13:31:40.148Z</time></trkpt><trkpt lat="45.8498735" lon="12.0216641"><ele>154.66666666666669</ele><time>2026-04-03T13:31:41.158Z</time></trkpt><trkpt lat="45.8500337" lon="12.0217839"><ele>155.33333333333334</ele><time>2026-04-03T13:31:42.146Z</time></trkpt><trkpt lat="45.8501969" lon="12.0219044"><ele>156.0</ele><time>2026-04-03T13:31:43.143Z</time></trkpt><trkpt lat="45.8503571" lon="12.0220265"><ele>156.0</ele><time>2026-04-03T13:31:44.126Z</time></trkpt><trkpt lat="45.8505102" lon="12.0221424"><ele>156.0</ele><time>2026-04-03T13:31:45.086Z</time></trkpt><trkpt lat="45.8506717" lon="12.0222608"><ele>156.0</ele><time>2026-04-03T13:31:46.093Z</time></trkpt><trkpt lat="45.850828" lon="12.0223726"><ele>155.33333333333334</ele><time>2026-04-03T13:31:47.097Z</time></trkpt><trkpt lat="45.8509855" lon="12.022482"><ele>154.66666666666669</ele><time>2026-04-03T13:31:48.128Z</time></trkpt><trkpt lat="45.8511437" lon="12.0225886"><ele>154.0</ele><time>2026-04-03T13:31:49.091Z</time></trkpt><trkpt lat="45.8513287" lon="12.0227135"><ele>154.0</ele><time>2026-04-03T13:31:50.135Z</time></trkpt><trkpt lat="45.8514863" lon="12.0228389"><ele>154.0</ele><time>2026-04-03T13:31:51.104Z</time></trkpt><trkpt lat="45.8516356" lon="12.0229617"><ele>154.0</ele><time>2026-04-03T13:31:52.098Z</time></trkpt><trkpt lat="45.8517861" lon="12.023079"><ele>154.25</ele><time>2026-04-03T13:31:53.166Z</time></trkpt><trkpt lat="45.8519164" lon="12.02318"><ele>154.5</ele><time>2026-04-03T13:31:54.126Z</time></trkpt><trkpt lat="45.8520445" lon="12.0232783"><ele>154.75</ele><time>2026-04-03T13:31:55.095Z</time></trkpt><trkpt lat="45.8521825" lon="12.0233713"><ele>155.0</ele><time>2026-04-03T13:31:56.118Z</time></trkpt><trkpt lat="45.8523269" lon="12.0234713"><ele>155.0</ele><time>2026-04-03T13:31:57.151Z</time></trkpt><trkpt lat="45.8524596" lon="12.0235626"><ele>155.0</ele><time>2026-04-03T13:31:58.121Z</time></trkpt><trkpt lat="45.8525864" lon="12.023644"><ele>155.0</ele><time>2026-04-03T13:31:59.075Z</time></trkpt><trkpt lat="45.8527151" lon="12.0237393"><ele>155.0</ele><time>2026-04-03T13:32:00.107Z</time></trkpt><trkpt lat="45.8528401" lon="12.0238328"><ele>154.75</ele><time>2026-04-03T13:32:01.078Z</time></trkpt><trkpt lat="45.852966" lon="12.0239324"><ele>154.5</ele><time>2026-04-03T13:32:02.095Z</time></trkpt><trkpt lat="45.8530981" lon="12.0240345"><ele>154.25</ele><time>2026-04-03T13:32:03.095Z</time></trkpt><trkpt lat="45.8532233" lon="12.0241311"><ele>154.0</ele><time>2026-04-03T13:32:04.097Z</time></trkpt><trkpt lat="45.8533441" lon="12.0242262"><ele>154.5</ele><time>2026-04-03T13:32:05.111Z</time></trkpt><trkpt lat="45.8534663" lon="12.0243062"><ele>155.0</ele><time>2026-04-03T13:32:06.162Z</time></trkpt><trkpt lat="45.853567" lon="12.0243796"><ele>155.5</ele><time>2026-04-03T13:32:07.121Z</time></trkpt><trkpt lat="45.8536577" lon="12.0244601"><ele>156.0</ele><time>2026-04-03T13:32:08.09Z</time></trkpt><trkpt lat="45.8537291" lon="12.0245554"><ele>156.0</ele><time>2026-04-03T13:32:09.096Z</time></trkpt><trkpt lat="45.8537794" lon="12.0246681"><ele>156.0</ele><time>2026-04-03T13:32:10.094Z</time></trkpt><trkpt lat="45.8538076" lon="12.0247976"><ele>156.0</ele><time>2026-04-03T13:32:11.078Z</time></trkpt><trkpt lat="45.8538317" lon="12.0249278"><ele>156.0</ele><time>2026-04-03T13:32:12.108Z</time></trkpt><trkpt lat="45.8538693" lon="12.0250206"><ele>156.0</ele><time>2026-04-03T13:32:13.092Z</time></trkpt><trkpt lat="45.8539276" lon="12.0250818"><ele>156.0</ele><time>2026-04-03T13:32:14.081Z</time></trkpt><trkpt lat="45.8539938" lon="12.0251163"><ele>155.85714285714286</ele><time>2026-04-03T13:32:15.072Z</time></trkpt><trkpt lat="45.8540661" lon="12.0251145"><ele>155.7142857142857</ele><time>2026-04-03T13:32:16.123Z</time></trkpt><trkpt lat="45.8541267" lon="12.0250899"><ele>155.57142857142856</ele><time>2026-04-03T13:32:17.097Z</time></trkpt><trkpt lat="45.8541934" lon="12.0250746"><ele>155.42857142857144</ele><time>2026-04-03T13:32:18.062Z</time></trkpt><trkpt lat="45.8542653" lon="12.0250627"><ele>155.28571428571428</ele><time>2026-04-03T13:32:19.063Z</time></trkpt><trkpt lat="45.8543377" lon="12.0250452"><ele>155.14285714285714</ele><time>2026-04-03T13:32:20.071Z</time></trkpt><trkpt lat="45.8544082" lon="12.0250272"><ele>155.0</ele><time>2026-04-03T13:32:21.069Z</time></trkpt><trkpt lat="45.8545304" lon="12.024996"><ele>154.8</ele><time>2026-04-03T13:32:23.134Z</time></trkpt><trkpt lat="45.8546269" lon="12.0249695"><ele>154.6</ele><time>2026-04-03T13:32:25.077Z</time></trkpt><trkpt lat="45.8547081" lon="12.0249449"><ele>154.4</ele><time>2026-04-03T13:32:27.133Z</time></trkpt><trkpt lat="45.8548196" lon="12.0249177"><ele>154.2</ele><time>2026-04-03T13:32:29.277Z</time></trkpt><trkpt lat="45.8549034" lon="12.0249027"><ele>154.0</ele><time>2026-04-03T13:32:31.071Z</time></trkpt><trkpt lat="45.855002" lon="12.0248866"><ele>154.0</ele><time>2026-04-03T13:32:33.129Z</time></trkpt><trkpt lat="45.8550827" lon="12.0248654"><ele>154.0</ele><time>2026-04-03T13:32:35.059Z</time></trkpt><trkpt lat="45.8551696" lon="12.0248442"><ele>154.0</ele><time>2026-04-03T13:32:37.088Z</time></trkpt><trkpt lat="45.855254" lon="12.0248226"><ele>154.0</ele><time>2026-04-03T13:32:39.148Z</time></trkpt><trkpt lat="45.8553344" lon="12.0248057"><ele>154.0</ele><time>2026-04-03T13:32:41.086Z</time></trkpt><trkpt lat="45.8554417" lon="12.0248017"><ele>154.0</ele><time>2026-04-03T13:32:43.083Z</time></trkpt><trkpt lat="45.8555049" lon="12.0248045"><ele>154.16666666666669</ele><time>2026-04-03T13:32:44.08Z</time></trkpt><trkpt lat="45.8555712" lon="12.0247846"><ele>154.33333333333334</ele><time>2026-04-03T13:32:45.1Z</time></trkpt><trkpt lat="45.8556382" lon="12.024751"><ele>154.5</ele><time>2026-04-03T13:32:46.066Z</time></trkpt><trkpt lat="45.8557111" lon="12.0247145"><ele>154.66666666666666</ele><time>2026-04-03T13:32:47.087Z</time></trkpt><trkpt lat="45.8557881" lon="12.0246795"><ele>154.83333333333331</ele><time>2026-04-03T13:32:48.081Z</time></trkpt><trkpt lat="45.8558717" lon="12.0246544"><ele>155.0</ele><time>2026-04-03T13:32:49.12Z</time></trkpt><trkpt lat="45.8559566" lon="12.0246392"><ele>154.6</ele><time>2026-04-03T13:32:50.179Z</time></trkpt><trkpt lat="45.8560381" lon="12.0246281"><ele>154.2</ele><time>2026-04-03T13:32:51.186Z</time></trkpt><trkpt lat="45.8561252" lon="12.0246142"><ele>153.8</ele><time>2026-04-03T13:32:52.121Z</time></trkpt><trkpt lat="45.8562233" lon="12.0246033"><ele>153.4</ele><time>2026-04-03T13:32:53.087Z</time></trkpt><trkpt lat="45.8563437" lon="12.0245968"><ele>153.0</ele><time>2026-04-03T13:32:54.156Z</time></trkpt><trkpt lat="45.8564635" lon="12.024594"><ele>153.0</ele><time>2026-04-03T13:32:55.122Z</time></trkpt><trkpt lat="45.8565927" lon="12.0245985"><ele>153.0</ele><time>2026-04-03T13:32:56.116Z</time></trkpt><trkpt lat="45.8567275" lon="12.0246032"><ele>153.0</ele><time>2026-04-03T13:32:57.235Z</time></trkpt><trkpt lat="45.8568485" lon="12.0246109"><ele>153.0</ele><time>2026-04-03T13:32:58.148Z</time></trkpt><trkpt lat="45.8569783" lon="12.0246205"><ele>149.75</ele><time>2026-04-03T13:32:59.091Z</time></trkpt><trkpt lat="45.8571199" lon="12.0246291"><ele>146.5</ele><time>2026-04-03T13:33:00.156Z</time></trkpt><trkpt lat="45.8572533" lon="12.0246315"><ele>143.25</ele><time>2026-04-03T13:33:01.115Z</time></trkpt><trkpt lat="45.8573833" lon="12.0246368"><ele>140.0</ele><time>2026-04-03T13:33:02.085Z</time></trkpt><trkpt lat="45.8575326" lon="12.0246462"><ele>139.75</ele><time>2026-04-03T13:33:03.182Z</time></trkpt><trkpt lat="45.8576631" lon="12.0246523"><ele>139.5</ele><time>2026-04-03T13:33:04.126Z</time></trkpt><trkpt lat="45.8577949" lon="12.0246593"><ele>139.25</ele><time>2026-04-03T13:33:05.145Z</time></trkpt><trkpt lat="45.8579222" lon="12.0246667"><ele>139.0</ele><time>2026-04-03T13:33:06.124Z</time></trkpt><trkpt lat="45.8580476" lon="12.0246727"><ele>139.0</ele><time>2026-04-03T13:33:07.137Z</time></trkpt><trkpt lat="45.858156" lon="12.0246777"><ele>139.0</ele><time>2026-04-03T13:33:08.12Z</time></trkpt><trkpt lat="45.8582491" lon="12.0246822"><ele>139.0</ele><time>2026-04-03T13:33:09.086Z</time></trkpt><trkpt lat="45.8583384" lon="12.0246913"><ele>139.0</ele><time>2026-04-03T13:33:10.16Z</time></trkpt><trkpt lat="45.8584077" lon="12.0247053"><ele>139.0</ele><time>2026-04-03T13:33:11.15Z</time></trkpt><trkpt lat="45.858475" lon="12.0247109"><ele>139.0</ele><time>2026-04-03T13:33:12.181Z</time></trkpt><trkpt lat="45.8585789" lon="12.0247212"><ele>138.75</ele><time>2026-04-03T13:33:14.112Z</time></trkpt><trkpt lat="45.858689" lon="12.0247335"><ele>138.5</ele><time>2026-04-03T13:33:16.168Z</time></trkpt><trkpt lat="45.8588043" lon="12.0247411"><ele>138.25</ele><time>2026-04-03T13:33:18.168Z</time></trkpt><trkpt lat="45.8589994" lon="12.0247573"><ele>138.0</ele><time>2026-04-03T13:33:21.045Z</time></trkpt><trkpt lat="45.859082" lon="12.0247607"><ele>138.0</ele><time>2026-04-03T13:33:22.073Z</time></trkpt><trkpt lat="45.8591608" lon="12.0247659"><ele>138.0</ele><time>2026-04-03T13:33:23.082Z</time></trkpt><trkpt lat="45.8592365" lon="12.0247697"><ele>138.0</ele><time>2026-04-03T13:33:24.044Z</time></trkpt><trkpt lat="45.8593138" lon="12.0247717"><ele>138.0</ele><time>2026-04-03T13:33:25.034Z</time></trkpt><trkpt lat="45.8593924" lon="12.0247723"><ele>138.0</ele><time>2026-04-03T13:33:26.05Z</time></trkpt><trkpt lat="45.8594611" lon="12.0247755"><ele>138.0</ele><time>2026-04-03T13:33:27.021Z</time></trkpt><trkpt lat="45.8595862" lon="12.0247933"><ele>138.57142857142858</ele><time>2026-04-03T13:33:29.019Z</time></trkpt><trkpt lat="45.8596601" lon="12.0248017"><ele>139.14285714285717</ele><time>2026-04-03T13:33:31.029Z</time></trkpt><trkpt lat="45.8597296" lon="12.0248065"><ele>139.71428571428572</ele><time>2026-04-03T13:33:33.084Z</time></trkpt><trkpt lat="45.8597959" lon="12.0248076"><ele>140.28571428571428</ele><time>2026-04-03T13:33:36.022Z</time></trkpt><trkpt lat="45.8598696" lon="12.0248104"><ele>140.85714285714283</ele><time>2026-04-03T13:33:39.009Z</time></trkpt><trkpt lat="45.8599339" lon="12.0248162"><ele>141.42857142857142</ele><time>2026-04-03T13:33:41.05Z</time></trkpt><trkpt lat="45.8600016" lon="12.0248236"><ele>142.0</ele><time>2026-04-03T13:33:43.028Z</time></trkpt><trkpt lat="45.8600712" lon="12.0248247"><ele>143.83333333333334</ele><time>2026-04-03T13:33:45.036Z</time></trkpt><trkpt lat="45.8601379" lon="12.0248409"><ele>145.66666666666669</ele><time>2026-04-03T13:33:47.058Z</time></trkpt><trkpt lat="45.8602057" lon="12.0248441"><ele>147.5</ele><time>2026-04-03T13:33:48.996Z</time></trkpt><trkpt lat="45.8602801" lon="12.0248432"><ele>149.33333333333334</ele><time>2026-04-03T13:33:50.995Z</time></trkpt><trkpt lat="45.8603573" lon="12.0248548"><ele>151.16666666666666</ele><time>2026-04-03T13:33:53.051Z</time></trkpt><trkpt lat="45.8604318" lon="12.0248869"><ele>153.0</ele><time>2026-04-03T13:33:55.029Z</time></trkpt><trkpt lat="45.860505" lon="12.0249781"><ele>152.83333333333334</ele><time>2026-04-03T13:33:57.028Z</time></trkpt><trkpt lat="45.860538" lon="12.0250565"><ele>152.66666666666666</ele><time>2026-04-03T13:33:58.183Z</time></trkpt><trkpt lat="45.8605449" lon="12.0252035"><ele>152.5</ele><time>2026-04-03T13:34:00.056Z</time></trkpt><trkpt lat="45.8605376" lon="12.0252981"><ele>152.33333333333331</ele><time>2026-04-03T13:34:01.074Z</time></trkpt><trkpt lat="45.8605303" lon="12.0253926"><ele>152.16666666666666</ele><time>2026-04-03T13:34:02.017Z</time></trkpt><trkpt lat="45.8605209" lon="12.0255027"><ele>152.0</ele><time>2026-04-03T13:34:03.04Z</time></trkpt><trkpt lat="45.8605115" lon="12.0256229"><ele>152.0</ele><time>2026-04-03T13:34:04.037Z</time></trkpt><trkpt lat="45.8604983" lon="12.0257493"><ele>152.0</ele><time>2026-04-03T13:34:05.018Z</time></trkpt><trkpt lat="45.8604884" lon="12.0258916"><ele>152.0</ele><time>2026-04-03T13:34:06.048Z</time></trkpt><trkpt lat="45.8604872" lon="12.0260378"><ele>152.0</ele><time>2026-04-03T13:34:07.063Z</time></trkpt><trkpt lat="45.8604951" lon="12.0261887"><ele>152.0</ele><time>2026-04-03T13:34:08.039Z</time></trkpt><trkpt lat="45.8605087" lon="12.0263658"><ele>152.25</ele><time>2026-04-03T13:34:09.047Z</time></trkpt><trkpt lat="45.8605368" lon="12.0265406"><ele>152.5</ele><time>2026-04-03T13:34:10.052Z</time></trkpt><trkpt lat="45.8605754" lon="12.026712"><ele>152.75</ele><time>2026-04-03T13:34:11.069Z</time></trkpt><trkpt lat="45.860614" lon="12.0268632"><ele>153.0</ele><time>2026-04-03T13:34:11.994Z</time></trkpt><trkpt lat="45.8606714" lon="12.0270334"><ele>152.0</ele><time>2026-04-03T13:34:13.137Z</time></trkpt><trkpt lat="45.8607257" lon="12.0271822"><ele>151.0</ele><time>2026-04-03T13:34:14.059Z</time></trkpt><trkpt lat="45.8607862" lon="12.0273477"><ele>150.0</ele><time>2026-04-03T13:34:15.035Z</time></trkpt><trkpt lat="45.8608586" lon="12.0275266"><ele>149.0</ele><time>2026-04-03T13:34:16.024Z</time></trkpt><trkpt lat="45.8609393" lon="12.0277197"><ele>150.0</ele><time>2026-04-03T13:34:17.054Z</time></trkpt><trkpt lat="45.8610123" lon="12.0279014"><ele>151.0</ele><time>2026-04-03T13:34:18.021Z</time></trkpt><trkpt lat="45.8610961" lon="12.0280975"><ele>152.0</ele><time>2026-04-03T13:34:19.039Z</time></trkpt><trkpt lat="45.8611809" lon="12.0282936"><ele>152.5</ele><time>2026-04-03T13:34:20.095Z</time></trkpt><trkpt lat="45.8612597" lon="12.0284709"><ele>153.0</ele><time>2026-04-03T13:34:21.082Z</time></trkpt><trkpt lat="45.8613293" lon="12.0286428"><ele>153.5</ele><time>2026-04-03T13:34:22.003Z</time></trkpt><trkpt lat="45.8614102" lon="12.0288192"><ele>154.0</ele><time>2026-04-03T13:34:23.021Z</time></trkpt><trkpt lat="45.8614918" lon="12.0289854"><ele>152.75</ele><time>2026-04-03T13:34:24.043Z</time></trkpt><trkpt lat="45.861568" lon="12.0291524"><ele>151.5</ele><time>2026-04-03T13:34:25.039Z</time></trkpt><trkpt lat="45.8616508" lon="12.0293233"><ele>150.25</ele><time>2026-04-03T13:34:26.04Z</time></trkpt><trkpt lat="45.8617384" lon="12.0294928"><ele>149.0</ele><time>2026-04-03T13:34:27.04Z</time></trkpt><trkpt lat="45.8618286" lon="12.0296625"><ele>151.33333333333331</ele><time>2026-04-03T13:34:28.033Z</time></trkpt><trkpt lat="45.8619223" lon="12.0298367"><ele>153.66666666666666</ele><time>2026-04-03T13:34:29.034Z</time></trkpt><trkpt lat="45.8620065" lon="12.0300086"><ele>156.0</ele><time>2026-04-03T13:34:29.99Z</time></trkpt><trkpt lat="45.8621018" lon="12.0302009"><ele>156.0</ele><time>2026-04-03T13:34:31.045Z</time></trkpt><trkpt lat="45.8621987" lon="12.0303847"><ele>156.0</ele><time>2026-04-03T13:34:32.052Z</time></trkpt><trkpt lat="45.8622901" lon="12.030569"><ele>156.0</ele><time>2026-04-03T13:34:33.047Z</time></trkpt><trkpt lat="45.8623767" lon="12.0307486"><ele>155.0</ele><time>2026-04-03T13:34:34.036Z</time></trkpt><trkpt lat="45.8624584" lon="12.0309164"><ele>154.0</ele><time>2026-04-03T13:34:35.026Z</time></trkpt><trkpt lat="45.8625411" lon="12.031074"><ele>153.0</ele><time>2026-04-03T13:34:36.046Z</time></trkpt><trkpt lat="45.8626162" lon="12.03122"><ele>152.0</ele><time>2026-04-03T13:34:37.045Z</time></trkpt><trkpt lat="45.8626849" lon="12.0313559"><ele>153.75</ele><time>2026-04-03T13:34:38.038Z</time></trkpt><trkpt lat="45.862744" lon="12.0314869"><ele>155.5</ele><time>2026-04-03T13:34:39.012Z</time></trkpt><trkpt lat="45.8628127" lon="12.0316411"><ele>157.25</ele><time>2026-04-03T13:34:40.066Z</time></trkpt><trkpt lat="45.8628783" lon="12.031813"><ele>159.0</ele><time>2026-04-03T13:34:41.123Z</time></trkpt><trkpt lat="45.8629683" lon="12.0321537"><ele>159.0</ele><time>2026-04-03T13:34:43.025Z</time></trkpt><trkpt lat="45.8630148" lon="12.0323356"><ele>159.0</ele><time>2026-04-03T13:34:44.057Z</time></trkpt><trkpt lat="45.8630467" lon="12.0325228"><ele>159.0</ele><time>2026-04-03T13:34:45.041Z</time></trkpt><trkpt lat="45.8630627" lon="12.0327106"><ele>159.0</ele><time>2026-04-03T13:34:46.006Z</time></trkpt><trkpt lat="45.86307" lon="12.032908"><ele>158.75</ele><time>2026-04-03T13:34:47.017Z</time></trkpt><trkpt lat="45.8630603" lon="12.0331091"><ele>158.5</ele><time>2026-04-03T13:34:48.055Z</time></trkpt><trkpt lat="45.8630364" lon="12.0332969"><ele>158.25</ele><time>2026-04-03T13:34:49.057Z</time></trkpt><trkpt lat="45.8629953" lon="12.0334788"><ele>158.0</ele><time>2026-04-03T13:34:50.026Z</time></trkpt><trkpt lat="45.8629466" lon="12.0336696"><ele>158.0</ele><time>2026-04-03T13:34:51.036Z</time></trkpt><trkpt lat="45.8628908" lon="12.0338536"><ele>158.0</ele><time>2026-04-03T13:34:52.015Z</time></trkpt><trkpt lat="45.8628139" lon="12.0340473"><ele>158.0</ele><time>2026-04-03T13:34:53.059Z</time></trkpt><trkpt lat="45.8627271" lon="12.0342267"><ele>158.0</ele><time>2026-04-03T13:34:54.078Z</time></trkpt><trkpt lat="45.8626399" lon="12.034393"><ele>155.5</ele><time>2026-04-03T13:34:55.05Z</time></trkpt><trkpt lat="45.8625535" lon="12.0345663"><ele>153.0</ele><time>2026-04-03T13:34:56.038Z</time></trkpt><trkpt lat="45.8624637" lon="12.034752"><ele>150.5</ele><time>2026-04-03T13:34:57.092Z</time></trkpt><trkpt lat="45.8623806" lon="12.034917"><ele>148.0</ele><time>2026-04-03T13:34:58.072Z</time></trkpt><trkpt lat="45.8622949" lon="12.0350862"><ele>148.0</ele><time>2026-04-03T13:34:59.097Z</time></trkpt><trkpt lat="45.8622093" lon="12.0352363"><ele>148.0</ele><time>2026-04-03T13:35:00.07Z</time></trkpt><trkpt lat="45.8621016" lon="12.0353931"><ele>148.0</ele><time>2026-04-03T13:35:01.153Z</time></trkpt><trkpt lat="45.8618935" lon="12.0356442"><ele>146.0</ele><time>2026-04-03T13:35:03.052Z</time></trkpt><trkpt lat="45.8617656" lon="12.0357975"><ele>144.0</ele><time>2026-04-03T13:35:04.2Z</time></trkpt><trkpt lat="45.8615705" lon="12.0360516"><ele>142.0</ele><time>2026-04-03T13:35:06.005Z</time></trkpt><trkpt lat="45.8614731" lon="12.0362064"><ele>145.5</ele><time>2026-04-03T13:35:07.088Z</time></trkpt><trkpt lat="45.8614013" lon="12.0363441"><ele>149.0</ele><time>2026-04-03T13:35:08.028Z</time></trkpt><trkpt lat="45.8613472" lon="12.0364851"><ele>152.5</ele><time>2026-04-03T13:35:08.973Z</time></trkpt><trkpt lat="45.8613097" lon="12.0366561"><ele>156.0</ele><time>2026-04-03T13:35:10.036Z</time></trkpt><trkpt lat="45.8612919" lon="12.0368379"><ele>158.75</ele><time>2026-04-03T13:35:11.081Z</time></trkpt><trkpt lat="45.8612918" lon="12.0370011"><ele>161.5</ele><time>2026-04-03T13:35:12.005Z</time></trkpt><trkpt lat="45.8613106" lon="12.0371727"><ele>164.25</ele><time>2026-04-03T13:35:13.052Z</time></trkpt><trkpt lat="45.8613211" lon="12.0373201"><ele>167.0</ele><time>2026-04-03T13:35:14.013Z</time></trkpt><trkpt lat="45.8613359" lon="12.0374791"><ele>167.5</ele><time>2026-04-03T13:35:15.038Z</time></trkpt><trkpt lat="45.8613575" lon="12.0376285"><ele>168.0</ele><time>2026-04-03T13:35:16.036Z</time></trkpt><trkpt lat="45.8613862" lon="12.0377644"><ele>168.5</ele><time>2026-04-03T13:35:16.999Z</time></trkpt><trkpt lat="45.8614113" lon="12.0378922"><ele>169.0</ele><time>2026-04-03T13:35:18.03Z</time></trkpt><trkpt lat="45.8614289" lon="12.0379817"><ele>169.5</ele><time>2026-04-03T13:35:19.021Z</time></trkpt><trkpt lat="45.8614561" lon="12.0380982"><ele>170.0</ele><time>2026-04-03T13:35:21.159Z</time></trkpt><trkpt lat="45.8614864" lon="12.0381998"><ele>168.0</ele><time>2026-04-03T13:35:22.98Z</time></trkpt><trkpt lat="45.8615092" lon="12.0383304"><ele>166.0</ele><time>2026-04-03T13:35:25.068Z</time></trkpt><trkpt lat="45.8615223" lon="12.0384554"><ele>164.0</ele><time>2026-04-03T13:35:27.023Z</time></trkpt><trkpt lat="45.8615214" lon="12.0385795"><ele>162.0</ele><time>2026-04-03T13:35:29.022Z</time></trkpt><trkpt lat="45.8615573" lon="12.0387101"><ele>160.0</ele><time>2026-04-03T13:35:32.033Z</time></trkpt><trkpt lat="45.8616148" lon="12.0387552"><ele>158.0</ele><time>2026-04-03T13:35:32.991Z</time></trkpt><trkpt lat="45.8617137" lon="12.0388221"><ele>158.75</ele><time>2026-04-03T13:35:34.088Z</time></trkpt><trkpt lat="45.8618251" lon="12.0388874"><ele>159.5</ele><time>2026-04-03T13:35:35.011Z</time></trkpt><trkpt lat="45.8619541" lon="12.0389265"><ele>160.25</ele><time>2026-04-03T13:35:36.019Z</time></trkpt><trkpt lat="45.8621016" lon="12.0389357"><ele>161.0</ele><time>2026-04-03T13:35:37.027Z</time></trkpt><trkpt lat="45.8622721" lon="12.0389282"><ele>161.0</ele><time>2026-04-03T13:35:37.992Z</time></trkpt><trkpt lat="45.8624605" lon="12.038913"><ele>161.0</ele><time>2026-04-03T13:35:39.004Z</time></trkpt><trkpt lat="45.8626396" lon="12.0388953"><ele>161.0</ele><time>2026-04-03T13:35:40.022Z</time></trkpt><trkpt lat="45.8628012" lon="12.0388787"><ele>159.75</ele><time>2026-04-03T13:35:41.072Z</time></trkpt><trkpt lat="45.8629397" lon="12.0388624"><ele>158.5</ele><time>2026-04-03T13:35:42.027Z</time></trkpt><trkpt lat="45.8630944" lon="12.038838"><ele>157.25</ele><time>2026-04-03T13:35:43.164Z</time></trkpt><trkpt lat="45.8632114" lon="12.0388227"><ele>156.0</ele><time>2026-04-03T13:35:44.086Z</time></trkpt><trkpt lat="45.8633244" lon="12.0388101"><ele>154.75</ele><time>2026-04-03T13:35:45.064Z</time></trkpt><trkpt lat="45.8634569" lon="12.0388036"><ele>153.5</ele><time>2026-04-03T13:35:46.227Z</time></trkpt><trkpt lat="45.8635614" lon="12.0388187"><ele>152.25</ele><time>2026-04-03T13:35:47.073Z</time></trkpt><trkpt lat="45.8636823" lon="12.0388748"><ele>151.0</ele><time>2026-04-03T13:35:48.066Z</time></trkpt><trkpt lat="45.8638148" lon="12.0389814"><ele>151.0</ele><time>2026-04-03T13:35:49.09Z</time></trkpt><trkpt lat="45.8639601" lon="12.0391189"><ele>151.0</ele><time>2026-04-03T13:35:50.131Z</time></trkpt><trkpt lat="45.8640766" lon="12.0392481"><ele>151.0</ele><time>2026-04-03T13:35:51.088Z</time></trkpt><trkpt lat="45.8641751" lon="12.0393794"><ele>150.33333333333334</ele><time>2026-04-03T13:35:52.091Z</time></trkpt><trkpt lat="45.8642829" lon="12.0394966"><ele>149.66666666666666</ele><time>2026-04-03T13:35:53.052Z</time></trkpt><trkpt lat="45.8644043" lon="12.0396364"><ele>149.0</ele><time>2026-04-03T13:35:54.111Z</time></trkpt><trkpt lat="45.8645481" lon="12.0398057"><ele>149.0</ele><time>2026-04-03T13:35:55.177Z</time></trkpt><trkpt lat="45.8646939" lon="12.0399545"><ele>149.0</ele><time>2026-04-03T13:35:56.113Z</time></trkpt><trkpt lat="45.864867" lon="12.0401446"><ele>149.0</ele><time>2026-04-03T13:35:57.108Z</time></trkpt><trkpt lat="45.8650467" lon="12.0403597"><ele>148.5</ele><time>2026-04-03T13:35:58.086Z</time></trkpt><trkpt lat="45.86524" lon="12.0406037"><ele>148.0</ele><time>2026-04-03T13:35:59.122Z</time></trkpt><trkpt lat="45.8654222" lon="12.0408262"><ele>147.66666666666669</ele><time>2026-04-03T13:36:00.15Z</time></trkpt><trkpt lat="45.8655648" lon="12.0410142"><ele>147.33333333333334</ele><time>2026-04-03T13:36:01.112Z</time></trkpt><trkpt lat="45.8656888" lon="12.0411756"><ele>147.0</ele><time>2026-04-03T13:36:02.123Z</time></trkpt><trkpt lat="45.8657993" lon="12.0413174"><ele>147.0</ele><time>2026-04-03T13:36:03.223Z</time></trkpt><trkpt lat="45.8658763" lon="12.0414157"><ele>147.0</ele><time>2026-04-03T13:36:04.145Z</time></trkpt><trkpt lat="45.8659533" lon="12.0415117"><ele>147.0</ele><time>2026-04-03T13:36:05.106Z</time></trkpt><trkpt lat="45.8660368" lon="12.0416071"><ele>147.0</ele><time>2026-04-03T13:36:06.112Z</time></trkpt><trkpt lat="45.8661155" lon="12.0416979"><ele>147.0</ele><time>2026-04-03T13:36:07.13Z</time></trkpt><trkpt lat="45.8661882" lon="12.0417801"><ele>146.83333333333334</ele><time>2026-04-03T13:36:08.1Z</time></trkpt><trkpt lat="45.866253" lon="12.0418515"><ele>146.66666666666666</ele><time>2026-04-03T13:36:09.111Z</time></trkpt><trkpt lat="45.8663136" lon="12.0419235"><ele>146.5</ele><time>2026-04-03T13:36:11.097Z</time></trkpt><trkpt lat="45.8663672" lon="12.041979"><ele>146.33333333333331</ele><time>2026-04-03T13:36:15.219Z</time></trkpt><trkpt lat="45.8664431" lon="12.042048"><ele>146.16666666666666</ele><time>2026-04-03T13:36:22.154Z</time></trkpt><trkpt lat="45.8665004" lon="12.0421114"><ele>146.0</ele><time>2026-04-03T13:36:23.113Z</time></trkpt><trkpt lat="45.8665644" lon="12.0421873"><ele>146.0</ele><time>2026-04-03T13:36:24.101Z</time></trkpt><trkpt lat="45.8666235" lon="12.0422678"><ele>146.0</ele><time>2026-04-03T13:36:25.131Z</time></trkpt><trkpt lat="45.8666834" lon="12.0423424"><ele>146.0</ele><time>2026-04-03T13:36:26.121Z</time></trkpt><trkpt lat="45.8667492" lon="12.0424177"><ele>146.0</ele><time>2026-04-03T13:36:27.079Z</time></trkpt><trkpt lat="45.8668251" lon="12.0425041"><ele>146.0</ele><time>2026-04-03T13:36:28.159Z</time></trkpt><trkpt lat="45.8668886" lon="12.0425733"><ele>146.0</ele><time>2026-04-03T13:36:29.103Z</time></trkpt><trkpt lat="45.8669552" lon="12.0426537"><ele>146.0</ele><time>2026-04-03T13:36:30.091Z</time></trkpt><trkpt lat="45.8670239" lon="12.042734"><ele>146.0</ele><time>2026-04-03T13:36:31.088Z</time></trkpt><trkpt lat="45.8671023" lon="12.0428227"><ele>146.0</ele><time>2026-04-03T13:36:32.111Z</time></trkpt><trkpt lat="45.8671803" lon="12.0429166"><ele>146.0</ele><time>2026-04-03T13:36:33.083Z</time></trkpt><trkpt lat="45.8672711" lon="12.0430222"><ele>146.0</ele><time>2026-04-03T13:36:34.117Z</time></trkpt><trkpt lat="45.8673604" lon="12.0431278"><ele>146.0</ele><time>2026-04-03T13:36:35.117Z</time></trkpt><trkpt lat="45.8674477" lon="12.0432286"><ele>146.0</ele><time>2026-04-03T13:36:36.097Z</time></trkpt><trkpt lat="45.8675441" lon="12.0433385"><ele>146.0</ele><time>2026-04-03T13:36:37.085Z</time></trkpt><trkpt lat="45.8676375" lon="12.043449"><ele>146.0</ele><time>2026-04-03T13:36:38.113Z</time></trkpt><trkpt lat="45.8677327" lon="12.0435558"><ele>145.5</ele><time>2026-04-03T13:36:39.095Z</time></trkpt><trkpt lat="45.8678358" lon="12.0436766"><ele>145.0</ele><time>2026-04-03T13:36:40.148Z</time></trkpt><trkpt lat="45.8679343" lon="12.0437926"><ele>144.5</ele><time>2026-04-03T13:36:41.129Z</time></trkpt><trkpt lat="45.8680361" lon="12.043913"><ele>144.0</ele><time>2026-04-03T13:36:42.147Z</time></trkpt><trkpt lat="45.8681414" lon="12.0440225"><ele>144.25</ele><time>2026-04-03T13:36:43.137Z</time></trkpt><trkpt lat="45.8682493" lon="12.044144"><ele>144.5</ele><time>2026-04-03T13:36:44.143Z</time></trkpt><trkpt lat="45.8683529" lon="12.04427"><ele>144.75</ele><time>2026-04-03T13:36:45.128Z</time></trkpt><trkpt lat="45.8684678" lon="12.044405"><ele>145.0</ele><time>2026-04-03T13:36:46.206Z</time></trkpt><trkpt lat="45.868569" lon="12.0445207"><ele>145.0</ele><time>2026-04-03T13:36:47.161Z</time></trkpt><trkpt lat="45.8686791" lon="12.0446407"><ele>145.0</ele><time>2026-04-03T13:36:48.172Z</time></trkpt><trkpt lat="45.8687779" lon="12.0447508"><ele>145.0</ele><time>2026-04-03T13:36:49.131Z</time></trkpt><trkpt lat="45.8688811" lon="12.0448619"><ele>145.0</ele><time>2026-04-03T13:36:50.169Z</time></trkpt><trkpt lat="45.8689722" lon="12.0449597"><ele>144.33333333333334</ele><time>2026-04-03T13:36:51.122Z</time></trkpt><trkpt lat="45.8690764" lon="12.0450683"><ele>143.66666666666666</ele><time>2026-04-03T13:36:52.259Z</time></trkpt><trkpt lat="45.8692482" lon="12.0452365"><ele>143.0</ele><time>2026-04-03T13:36:54.137Z</time></trkpt><trkpt lat="45.8693729" lon="12.0453465"><ele>143.0</ele><time>2026-04-03T13:36:55.193Z</time></trkpt><trkpt lat="45.8694868" lon="12.0454629"><ele>143.0</ele><time>2026-04-03T13:36:56.132Z</time></trkpt><trkpt lat="45.8696046" lon="12.0455857"><ele>143.0</ele><time>2026-04-03T13:36:57.13Z</time></trkpt><trkpt lat="45.8697378" lon="12.0457203"><ele>143.0</ele><time>2026-04-03T13:36:58.211Z</time></trkpt><trkpt lat="45.8698502" lon="12.0458344"><ele>143.0</ele><time>2026-04-03T13:36:59.128Z</time></trkpt><trkpt lat="45.8699793" lon="12.0459602"><ele>143.0</ele><time>2026-04-03T13:37:00.096Z</time></trkpt><trkpt lat="45.8701268" lon="12.0461032"><ele>143.0</ele><time>2026-04-03T13:37:01.115Z</time></trkpt><trkpt lat="45.8702801" lon="12.0462512"><ele>142.66666666666666</ele><time>2026-04-03T13:37:02.124Z</time></trkpt><trkpt lat="45.8704377" lon="12.046404"><ele>142.33333333333334</ele><time>2026-04-03T13:37:03.105Z</time></trkpt><trkpt lat="45.8706065" lon="12.0465646"><ele>142.0</ele><time>2026-04-03T13:37:04.135Z</time></trkpt><trkpt lat="45.8707852" lon="12.0467391"><ele>142.0</ele><time>2026-04-03T13:37:05.24Z</time></trkpt><trkpt lat="45.8710735" lon="12.0470321"><ele>142.0</ele><time>2026-04-03T13:37:07.091Z</time></trkpt><trkpt lat="45.8712366" lon="12.0471996"><ele>142.0</ele><time>2026-04-03T13:37:08.238Z</time></trkpt><trkpt lat="45.8713573" lon="12.0473219"><ele>142.0</ele><time>2026-04-03T13:37:09.142Z</time></trkpt><trkpt lat="45.8714874" lon="12.0474496"><ele>142.0</ele><time>2026-04-03T13:37:10.111Z</time></trkpt><trkpt lat="45.8716217" lon="12.047559"><ele>142.0</ele><time>2026-04-03T13:37:11.129Z</time></trkpt><trkpt lat="45.8717462" lon="12.0476332"><ele>142.0</ele><time>2026-04-03T13:37:12.113Z</time></trkpt><trkpt lat="45.8718842" lon="12.0476882"><ele>142.0</ele><time>2026-04-03T13:37:13.137Z</time></trkpt><trkpt lat="45.8720246" lon="12.0477136"><ele>142.0</ele><time>2026-04-03T13:37:14.16Z</time></trkpt><trkpt lat="45.8721735" lon="12.0476921"><ele>142.0</ele><time>2026-04-03T13:37:15.174Z</time></trkpt><trkpt lat="45.8723434" lon="12.0476393"><ele>142.0</ele><time>2026-04-03T13:37:16.159Z</time></trkpt><trkpt lat="45.8725184" lon="12.0475595"><ele>142.0</ele><time>2026-04-03T13:37:17.11Z</time></trkpt><trkpt lat="45.872741" lon="12.0474502"><ele>141.5</ele><time>2026-04-03T13:37:18.15Z</time></trkpt><trkpt lat="45.872962" lon="12.0473535"><ele>141.0</ele><time>2026-04-03T13:37:19.111Z</time></trkpt><trkpt lat="45.8731753" lon="12.0472563"><ele>141.0</ele><time>2026-04-03T13:37:20.155Z</time></trkpt><trkpt lat="45.873356" lon="12.0471783"><ele>141.0</ele><time>2026-04-03T13:37:21.108Z</time></trkpt><trkpt lat="45.8735362" lon="12.0470972"><ele>141.0</ele><time>2026-04-03T13:37:22.101Z</time></trkpt><trkpt lat="45.8737016" lon="12.0470225"><ele>141.66666666666666</ele><time>2026-04-03T13:37:23.134Z</time></trkpt><trkpt lat="45.8738529" lon="12.0469561"><ele>142.33333333333331</ele><time>2026-04-03T13:37:24.127Z</time></trkpt><trkpt lat="45.874" lon="12.0468853"><ele>143.0</ele><time>2026-04-03T13:37:25.139Z</time></trkpt><trkpt lat="45.8741396" lon="12.0468204"><ele>143.33333333333331</ele><time>2026-04-03T13:37:26.118Z</time></trkpt><trkpt lat="45.8742907" lon="12.0467503"><ele>143.66666666666666</ele><time>2026-04-03T13:37:27.108Z</time></trkpt><trkpt lat="45.8744542" lon="12.0466702"><ele>144.0</ele><time>2026-04-03T13:37:28.132Z</time></trkpt><trkpt lat="45.8745997" lon="12.0465995"><ele>144.25</ele><time>2026-04-03T13:37:29.165Z</time></trkpt><trkpt lat="45.8747451" lon="12.0465362"><ele>144.5</ele><time>2026-04-03T13:37:30.181Z</time></trkpt><trkpt lat="45.8748728" lon="12.0464846"><ele>144.75</ele><time>2026-04-03T13:37:31.09Z</time></trkpt><trkpt lat="45.875014" lon="12.0464237"><ele>145.0</ele><time>2026-04-03T13:37:32.117Z</time></trkpt><trkpt lat="45.8751582" lon="12.046362"><ele>145.0</ele><time>2026-04-03T13:37:33.149Z</time></trkpt><trkpt lat="45.8753022" lon="12.0462978"><ele>145.0</ele><time>2026-04-03T13:37:34.151Z</time></trkpt><trkpt lat="45.875455" lon="12.0462258"><ele>145.0</ele><time>2026-04-03T13:37:35.152Z</time></trkpt><trkpt lat="45.8755993" lon="12.0461549"><ele>145.0</ele><time>2026-04-03T13:37:36.159Z</time></trkpt><trkpt lat="45.8757415" lon="12.0460901"><ele>145.0</ele><time>2026-04-03T13:37:37.112Z</time></trkpt><trkpt lat="45.8758915" lon="12.0460218"><ele>145.0</ele><time>2026-04-03T13:37:38.1Z</time></trkpt><trkpt lat="45.8760408" lon="12.0459571"><ele>145.5</ele><time>2026-04-03T13:37:39.114Z</time></trkpt><trkpt lat="45.8761791" lon="12.0458979"><ele>146.0</ele><time>2026-04-03T13:37:40.157Z</time></trkpt><trkpt lat="45.8763005" lon="12.0458409"><ele>146.5</ele><time>2026-04-03T13:37:41.12Z</time></trkpt><trkpt lat="45.8764218" lon="12.0457881"><ele>147.0</ele><time>2026-04-03T13:37:42.109Z</time></trkpt><trkpt lat="45.8765376" lon="12.0457445"><ele>147.6</ele><time>2026-04-03T13:37:43.123Z</time></trkpt><trkpt lat="45.8766406" lon="12.0457082"><ele>148.2</ele><time>2026-04-03T13:37:44.087Z</time></trkpt><trkpt lat="45.8767409" lon="12.0456699"><ele>148.8</ele><time>2026-04-03T13:37:45.09Z</time></trkpt><trkpt lat="45.8768316" lon="12.0456307"><ele>149.4</ele><time>2026-04-03T13:37:46.12Z</time></trkpt><trkpt lat="45.8769272" lon="12.0455956"><ele>150.0</ele><time>2026-04-03T13:37:47.24Z</time></trkpt><trkpt lat="45.8770671" lon="12.045597"><ele>150.0</ele><time>2026-04-03T13:37:49.084Z</time></trkpt><trkpt lat="45.8771496" lon="12.0456175"><ele>150.0</ele><time>2026-04-03T13:37:50.163Z</time></trkpt><trkpt lat="45.8772363" lon="12.0456492"><ele>150.0</ele><time>2026-04-03T13:37:51.087Z</time></trkpt><trkpt lat="45.8773536" lon="12.0457123"><ele>150.0</ele><time>2026-04-03T13:37:52.1Z</time></trkpt><trkpt lat="45.8774663" lon="12.0457898"><ele>150.0</ele><time>2026-04-03T13:37:53.097Z</time></trkpt><trkpt lat="45.8775822" lon="12.0458604"><ele>150.33333333333334</ele><time>2026-04-03T13:37:54.122Z</time></trkpt><trkpt lat="45.8776676" lon="12.0459156"><ele>150.66666666666666</ele><time>2026-04-03T13:37:55.078Z</time></trkpt><trkpt lat="45.8777475" lon="12.0459726"><ele>151.0</ele><time>2026-04-03T13:37:56.084Z</time></trkpt><trkpt lat="45.8778106" lon="12.0460314"><ele>151.33333333333331</ele><time>2026-04-03T13:37:57.102Z</time></trkpt><trkpt lat="45.8778815" lon="12.0461137"><ele>151.66666666666666</ele><time>2026-04-03T13:37:58.129Z</time></trkpt><trkpt lat="45.8779445" lon="12.0462165"><ele>152.0</ele><time>2026-04-03T13:37:59.172Z</time></trkpt><trkpt lat="45.8779891" lon="12.0463331"><ele>152.0</ele><time>2026-04-03T13:38:00.117Z</time></trkpt><trkpt lat="45.8780459" lon="12.0465108"><ele>152.0</ele><time>2026-04-03T13:38:01.156Z</time></trkpt><trkpt lat="45.8781092" lon="12.046698"><ele>152.0</ele><time>2026-04-03T13:38:02.094Z</time></trkpt><trkpt lat="45.8781851" lon="12.0469281"><ele>151.33333333333331</ele><time>2026-04-03T13:38:03.129Z</time></trkpt><trkpt lat="45.8782708" lon="12.0471571"><ele>150.66666666666666</ele><time>2026-04-03T13:38:04.162Z</time></trkpt><trkpt lat="45.8783497" lon="12.0473636"><ele>150.0</ele><time>2026-04-03T13:38:05.16Z</time></trkpt><trkpt lat="45.8784304" lon="12.0475584"><ele>150.33333333333334</ele><time>2026-04-03T13:38:06.121Z</time></trkpt><trkpt lat="45.8785358" lon="12.0477572"><ele>150.66666666666669</ele><time>2026-04-03T13:38:07.087Z</time></trkpt><trkpt lat="45.8786337" lon="12.0479541"><ele>151.0</ele><time>2026-04-03T13:38:08.169Z</time></trkpt><trkpt lat="45.8787285" lon="12.0481132"><ele>151.0</ele><time>2026-04-03T13:38:09.107Z</time></trkpt><trkpt lat="45.878842" lon="12.0482601"><ele>151.0</ele><time>2026-04-03T13:38:10.1Z</time></trkpt><trkpt lat="45.8789844" lon="12.0484002"><ele>151.0</ele><time>2026-04-03T13:38:11.116Z</time></trkpt><trkpt lat="45.8791461" lon="12.0485267"><ele>151.33333333333334</ele><time>2026-04-03T13:38:12.169Z</time></trkpt><trkpt lat="45.879306" lon="12.0486418"><ele>151.66666666666666</ele><time>2026-04-03T13:38:13.134Z</time></trkpt><trkpt lat="45.8794661" lon="12.0487567"><ele>152.0</ele><time>2026-04-03T13:38:14.149Z</time></trkpt><trkpt lat="45.8796293" lon="12.0488685"><ele>152.0</ele><time>2026-04-03T13:38:15.145Z</time></trkpt><trkpt lat="45.8797947" lon="12.0489757"><ele>152.0</ele><time>2026-04-03T13:38:16.113Z</time></trkpt><trkpt lat="45.8799729" lon="12.0490974"><ele>152.0</ele><time>2026-04-03T13:38:17.11Z</time></trkpt><trkpt lat="45.8801572" lon="12.0492231"><ele>153.0</ele><time>2026-04-03T13:38:18.13Z</time></trkpt><trkpt lat="45.880337" lon="12.0493428"><ele>154.0</ele><time>2026-04-03T13:38:19.156Z</time></trkpt><trkpt lat="45.8804961" lon="12.0494548"><ele>155.0</ele><time>2026-04-03T13:38:20.121Z</time></trkpt><trkpt lat="45.8806618" lon="12.0495687"><ele>155.0</ele><time>2026-04-03T13:38:21.104Z</time></trkpt><trkpt lat="45.8808365" lon="12.0496897"><ele>155.0</ele><time>2026-04-03T13:38:22.159Z</time></trkpt><trkpt lat="45.880984" lon="12.049791"><ele>155.0</ele><time>2026-04-03T13:38:23.103Z</time></trkpt><trkpt lat="45.8811432" lon="12.0498988"><ele>153.0</ele><time>2026-04-03T13:38:24.162Z</time></trkpt><trkpt lat="45.8812915" lon="12.049998"><ele>151.0</ele><time>2026-04-03T13:38:25.198Z</time></trkpt><trkpt lat="45.8814331" lon="12.0500944"><ele>149.0</ele><time>2026-04-03T13:38:26.231Z</time></trkpt><trkpt lat="45.8815685" lon="12.0501915"><ele>151.0</ele><time>2026-04-03T13:38:27.244Z</time></trkpt><trkpt lat="45.8817815" lon="12.0503661"><ele>153.0</ele><time>2026-04-03T13:38:29.106Z</time></trkpt><trkpt lat="45.8818793" lon="12.0504614"><ele>155.0</ele><time>2026-04-03T13:38:30.123Z</time></trkpt><trkpt lat="45.8819655" lon="12.0505691"><ele>155.0</ele><time>2026-04-03T13:38:31.132Z</time></trkpt><trkpt lat="45.8820603" lon="12.0506933"><ele>155.0</ele><time>2026-04-03T13:38:32.209Z</time></trkpt><trkpt lat="45.8821425" lon="12.0507977"><ele>155.0</ele><time>2026-04-03T13:38:33.112Z</time></trkpt><trkpt lat="45.8822284" lon="12.050916"><ele>155.0</ele><time>2026-04-03T13:38:34.126Z</time></trkpt><trkpt lat="45.8823128" lon="12.0510437"><ele>153.6</ele><time>2026-04-03T13:38:35.136Z</time></trkpt><trkpt lat="45.8823987" lon="12.0511652"><ele>152.2</ele><time>2026-04-03T13:38:36.139Z</time></trkpt><trkpt lat="45.8824786" lon="12.0512802"><ele>150.8</ele><time>2026-04-03T13:38:37.142Z</time></trkpt><trkpt lat="45.8825464" lon="12.0513864"><ele>149.4</ele><time>2026-04-03T13:38:38.105Z</time></trkpt><trkpt lat="45.8826028" lon="12.051473"><ele>148.0</ele><time>2026-04-03T13:38:39.105Z</time></trkpt><trkpt lat="45.8826614" lon="12.0515603"><ele>150.25</ele><time>2026-04-03T13:38:40.111Z</time></trkpt><trkpt lat="45.8827267" lon="12.0516509"><ele>152.5</ele><time>2026-04-03T13:38:41.091Z</time></trkpt><trkpt lat="45.8827961" lon="12.051743"><ele>154.75</ele><time>2026-04-03T13:38:42.107Z</time></trkpt><trkpt lat="45.8828667" lon="12.051842"><ele>157.0</ele><time>2026-04-03T13:38:43.192Z</time></trkpt><trkpt lat="45.8829854" lon="12.0520322"><ele>157.0</ele><time>2026-04-03T13:38:45.079Z</time></trkpt><trkpt lat="45.8830542" lon="12.0521456"><ele>157.0</ele><time>2026-04-03T13:38:46.116Z</time></trkpt><trkpt lat="45.8831232" lon="12.0522666"><ele>157.0</ele><time>2026-04-03T13:38:47.174Z</time></trkpt><trkpt lat="45.8831842" lon="12.052388"><ele>157.0</ele><time>2026-04-03T13:38:48.167Z</time></trkpt><trkpt lat="45.883245" lon="12.0525182"><ele>157.0</ele><time>2026-04-03T13:38:49.155Z</time></trkpt><trkpt lat="45.8833023" lon="12.052653"><ele>154.0</ele><time>2026-04-03T13:38:50.158Z</time></trkpt><trkpt lat="45.8833572" lon="12.0527873"><ele>151.0</ele><time>2026-04-03T13:38:51.143Z</time></trkpt><trkpt lat="45.8834102" lon="12.0529257"><ele>148.0</ele><time>2026-04-03T13:38:52.144Z</time></trkpt><trkpt lat="45.8834659" lon="12.0530734"><ele>145.0</ele><time>2026-04-03T13:38:53.178Z</time></trkpt><trkpt lat="45.8835264" lon="12.053233"><ele>149.0</ele><time>2026-04-03T13:38:54.136Z</time></trkpt><trkpt lat="45.8835992" lon="12.0534272"><ele>153.0</ele><time>2026-04-03T13:38:55.112Z</time></trkpt><trkpt lat="45.883674" lon="12.0536366"><ele>157.0</ele><time>2026-04-03T13:38:56.161Z</time></trkpt><trkpt lat="45.8837409" lon="12.0538185"><ele>157.0</ele><time>2026-04-03T13:38:57.144Z</time></trkpt><trkpt lat="45.8838086" lon="12.0539905"><ele>157.0</ele><time>2026-04-03T13:38:58.149Z</time></trkpt><trkpt lat="45.8838663" lon="12.0541352"><ele>157.0</ele><time>2026-04-03T13:38:59.146Z</time></trkpt><trkpt lat="45.8839183" lon="12.0542817"><ele>157.0</ele><time>2026-04-03T13:39:00.236Z</time></trkpt><trkpt lat="45.8840118" lon="12.0545143"><ele>156.0</ele><time>2026-04-03T13:39:02.076Z</time></trkpt><trkpt lat="45.8840749" lon="12.054642"><ele>155.0</ele><time>2026-04-03T13:39:03.109Z</time></trkpt><trkpt lat="45.8841425" lon="12.0547554"><ele>154.0</ele><time>2026-04-03T13:39:04.125Z</time></trkpt><trkpt lat="45.8842002" lon="12.0548385"><ele>153.0</ele><time>2026-04-03T13:39:05.107Z</time></trkpt><trkpt lat="45.884253" lon="12.054911"><ele>152.0</ele><time>2026-04-03T13:39:06.153Z</time></trkpt><trkpt lat="45.8843362" lon="12.0550142"><ele>152.0</ele><time>2026-04-03T13:39:08.131Z</time></trkpt><trkpt lat="45.8844008" lon="12.0550924"><ele>152.0</ele><time>2026-04-03T13:39:10.126Z</time></trkpt><trkpt lat="45.8844434" lon="12.055164"><ele>152.0</ele><time>2026-04-03T13:39:17.161Z</time></trkpt><trkpt lat="45.8844091" lon="12.0550329"><ele>152.0</ele><time>2026-04-03T13:39:55.098Z</time></trkpt><trkpt lat="45.8843492" lon="12.0549715"><ele>152.0</ele><time>2026-04-03T13:39:56.023Z</time></trkpt><trkpt lat="45.8842816" lon="12.0548989"><ele>152.0</ele><time>2026-04-03T13:39:57.026Z</time></trkpt><trkpt lat="45.8842157" lon="12.0548085"><ele>152.0</ele><time>2026-04-03T13:39:58.049Z</time></trkpt><trkpt lat="45.8841463" lon="12.0547022"><ele>152.0</ele><time>2026-04-03T13:39:59.053Z</time></trkpt><trkpt lat="45.8840874" lon="12.0545912"><ele>152.0</ele><time>2026-04-03T13:40:00.002Z</time></trkpt><trkpt lat="45.8840275" lon="12.0544775"><ele>152.0</ele><time>2026-04-03T13:40:01.021Z</time></trkpt><trkpt lat="45.883974" lon="12.0543671"><ele>152.0</ele><time>2026-04-03T13:40:01.984Z</time></trkpt><trkpt lat="45.8839195" lon="12.0542437"><ele>153.0</ele><time>2026-04-03T13:40:03.022Z</time></trkpt><trkpt lat="45.883869" lon="12.054113"><ele>154.0</ele><time>2026-04-03T13:40:03.997Z</time></trkpt><trkpt lat="45.8838146" lon="12.0539678"><ele>155.0</ele><time>2026-04-03T13:40:05.004Z</time></trkpt><trkpt lat="45.8837631" lon="12.0538188"><ele>156.0</ele><time>2026-04-03T13:40:06.019Z</time></trkpt><trkpt lat="45.8837144" lon="12.0536779"><ele>157.0</ele><time>2026-04-03T13:40:07.016Z</time></trkpt><trkpt lat="45.8836636" lon="12.05354"><ele>157.0</ele><time>2026-04-03T13:40:08.019Z</time></trkpt><trkpt lat="45.8836119" lon="12.0534093"><ele>157.0</ele><time>2026-04-03T13:40:09.006Z</time></trkpt><trkpt lat="45.8835608" lon="12.0532729"><ele>157.0</ele><time>2026-04-03T13:40:10.015Z</time></trkpt><trkpt lat="45.8835092" lon="12.0531182"><ele>157.0</ele><time>2026-04-03T13:40:11.152Z</time></trkpt><trkpt lat="45.8834192" lon="12.0528694"><ele>157.0</ele><time>2026-04-03T13:40:12.999Z</time></trkpt><trkpt lat="45.8833648" lon="12.0527265"><ele>157.0</ele><time>2026-04-03T13:40:14.09Z</time></trkpt><trkpt lat="45.8833143" lon="12.052602"><ele>157.0</ele><time>2026-04-03T13:40:15.071Z</time></trkpt><trkpt lat="45.8832657" lon="12.0524834"><ele>157.0</ele><time>2026-04-03T13:40:15.997Z</time></trkpt><trkpt lat="45.883206" lon="12.0523527"><ele>157.0</ele><time>2026-04-03T13:40:17.043Z</time></trkpt><trkpt lat="45.8831434" lon="12.0522305"><ele>157.0</ele><time>2026-04-03T13:40:18.051Z</time></trkpt><trkpt lat="45.8830767" lon="12.0521115"><ele>157.0</ele><time>2026-04-03T13:40:19.062Z</time></trkpt><trkpt lat="45.8830066" lon="12.0519951"><ele>157.0</ele><time>2026-04-03T13:40:20.051Z</time></trkpt><trkpt lat="45.8829348" lon="12.0518804"><ele>157.0</ele><time>2026-04-03T13:40:21.037Z</time></trkpt><trkpt lat="45.8828658" lon="12.0517747"><ele>157.0</ele><time>2026-04-03T13:40:21.998Z</time></trkpt><trkpt lat="45.8827973" lon="12.0516737"><ele>155.5</ele><time>2026-04-03T13:40:23.011Z</time></trkpt><trkpt lat="45.882733" lon="12.0515797"><ele>154.0</ele><time>2026-04-03T13:40:24.046Z</time></trkpt><trkpt lat="45.8826748" lon="12.051495"><ele>152.5</ele><time>2026-04-03T13:40:25.06Z</time></trkpt><trkpt lat="45.8826205" lon="12.0514124"><ele>151.0</ele><time>2026-04-03T13:40:26.05Z</time></trkpt><trkpt lat="45.882566" lon="12.0513296"><ele>149.5</ele><time>2026-04-03T13:40:27.028Z</time></trkpt><trkpt lat="45.8825059" lon="12.0512442"><ele>148.0</ele><time>2026-04-03T13:40:28.1Z</time></trkpt><trkpt lat="45.8824522" lon="12.0511694"><ele>148.0</ele><time>2026-04-03T13:40:29.072Z</time></trkpt><trkpt lat="45.882401" lon="12.051096"><ele>148.0</ele><time>2026-04-03T13:40:30.035Z</time></trkpt><trkpt lat="45.8823419" lon="12.0510085"><ele>148.0</ele><time>2026-04-03T13:40:31.062Z</time></trkpt><trkpt lat="45.8822725" lon="12.0509104"><ele>148.0</ele><time>2026-04-03T13:40:32.046Z</time></trkpt><trkpt lat="45.8821964" lon="12.0508021"><ele>148.0</ele><time>2026-04-03T13:40:33.016Z</time></trkpt><trkpt lat="45.8821079" lon="12.0506806"><ele>148.25</ele><time>2026-04-03T13:40:34.041Z</time></trkpt><trkpt lat="45.8820212" lon="12.0505666"><ele>148.5</ele><time>2026-04-03T13:40:35.029Z</time></trkpt><trkpt lat="45.8819298" lon="12.0504549"><ele>148.75</ele><time>2026-04-03T13:40:36.038Z</time></trkpt><trkpt lat="45.8818224" lon="12.0503376"><ele>149.0</ele><time>2026-04-03T13:40:37.025Z</time></trkpt><trkpt lat="45.8816984" lon="12.0502246"><ele>149.0</ele><time>2026-04-03T13:40:38.042Z</time></trkpt><trkpt lat="45.8815478" lon="12.0501096"><ele>149.0</ele><time>2026-04-03T13:40:39.092Z</time></trkpt><trkpt lat="45.8814007" lon="12.0500059"><ele>149.0</ele><time>2026-04-03T13:40:40.007Z</time></trkpt><trkpt lat="45.8812175" lon="12.0498833"><ele>152.0</ele><time>2026-04-03T13:40:41.014Z</time></trkpt><trkpt lat="45.8810125" lon="12.0497443"><ele>155.0</ele><time>2026-04-03T13:40:42.038Z</time></trkpt><trkpt lat="45.8807929" lon="12.0495912"><ele>155.0</ele><time>2026-04-03T13:40:43.098Z</time></trkpt><trkpt lat="45.8806035" lon="12.049461"><ele>155.0</ele><time>2026-04-03T13:40:44.064Z</time></trkpt><trkpt lat="45.8804154" lon="12.0493348"><ele>155.0</ele><time>2026-04-03T13:40:45.092Z</time></trkpt><trkpt lat="45.8802525" lon="12.0492273"><ele>155.0</ele><time>2026-04-03T13:40:46.036Z</time></trkpt><trkpt lat="45.8801067" lon="12.0491316"><ele>155.0</ele><time>2026-04-03T13:40:46.993Z</time></trkpt><trkpt lat="45.8799434" lon="12.0490209"><ele>155.0</ele><time>2026-04-03T13:40:48.024Z</time></trkpt><trkpt lat="45.8797801" lon="12.0489102"><ele>154.0</ele><time>2026-04-03T13:40:49.033Z</time></trkpt><trkpt lat="45.8796199" lon="12.0488"><ele>153.0</ele><time>2026-04-03T13:40:50.055Z</time></trkpt><trkpt lat="45.8794659" lon="12.0486916"><ele>152.0</ele><time>2026-04-03T13:40:51.079Z</time></trkpt><trkpt lat="45.8793342" lon="12.0486023"><ele>151.75</ele><time>2026-04-03T13:40:52.038Z</time></trkpt><trkpt lat="45.8792027" lon="12.0485089"><ele>151.5</ele><time>2026-04-03T13:40:53.064Z</time></trkpt><trkpt lat="45.8790868" lon="12.0484162"><ele>151.25</ele><time>2026-04-03T13:40:54.056Z</time></trkpt><trkpt lat="45.8789832" lon="12.0483192"><ele>151.0</ele><time>2026-04-03T13:40:55.033Z</time></trkpt><trkpt lat="45.8788768" lon="12.0482025"><ele>151.0</ele><time>2026-04-03T13:40:56.058Z</time></trkpt><trkpt lat="45.8787757" lon="12.0480561"><ele>151.0</ele><time>2026-04-03T13:40:57.108Z</time></trkpt><trkpt lat="45.8786909" lon="12.0478984"><ele>151.0</ele><time>2026-04-03T13:40:58.077Z</time></trkpt><trkpt lat="45.8786065" lon="12.047714"><ele>151.0</ele><time>2026-04-03T13:40:59.073Z</time></trkpt><trkpt lat="45.8785194" lon="12.0475073"><ele>150.66666666666669</ele><time>2026-04-03T13:41:00.046Z</time></trkpt><trkpt lat="45.8784321" lon="12.0472867"><ele>150.33333333333334</ele><time>2026-04-03T13:41:01.05Z</time></trkpt><trkpt lat="45.8783425" lon="12.0470386"><ele>150.0</ele><time>2026-04-03T13:41:02.249Z</time></trkpt><trkpt lat="45.8782159" lon="12.0467199"><ele>150.4</ele><time>2026-04-03T13:41:04.029Z</time></trkpt><trkpt lat="45.8781547" lon="12.04656"><ele>150.8</ele><time>2026-04-03T13:41:05.03Z</time></trkpt><trkpt lat="45.8780949" lon="12.0464135"><ele>151.2</ele><time>2026-04-03T13:41:06.066Z</time></trkpt><trkpt lat="45.8780517" lon="12.0463038"><ele>151.6</ele><time>2026-04-03T13:41:07.037Z</time></trkpt><trkpt lat="45.8780144" lon="12.0461712"><ele>152.0</ele><time>2026-04-03T13:41:09.038Z</time></trkpt><trkpt lat="45.8781066" lon="12.046115"><ele>152.0</ele><time>2026-04-03T13:41:12.02Z</time></trkpt><trkpt lat="45.8782469" lon="12.0461715"><ele>152.0</ele><time>2026-04-03T13:41:14.096Z</time></trkpt><trkpt lat="45.8784577" lon="12.0462715"><ele>152.0</ele><time>2026-04-03T13:41:16.131Z</time></trkpt><trkpt lat="45.8785571" lon="12.0463287"><ele>153.4</ele><time>2026-04-03T13:41:17.052Z</time></trkpt><trkpt lat="45.8786488" lon="12.0463865"><ele>154.79999999999998</ele><time>2026-04-03T13:41:18.02Z</time></trkpt><trkpt lat="45.878732" lon="12.0464469"><ele>156.2</ele><time>2026-04-03T13:41:19.025Z</time></trkpt><trkpt lat="45.8788019" lon="12.0465074"><ele>157.6</ele><time>2026-04-03T13:41:20.015Z</time></trkpt><trkpt lat="45.8788725" lon="12.0465675"><ele>159.0</ele><time>2026-04-03T13:41:21.058Z</time></trkpt><trkpt lat="45.8789619" lon="12.0466334"><ele>159.0</ele><time>2026-04-03T13:41:22.019Z</time></trkpt><trkpt lat="45.8790462" lon="12.0467059"><ele>159.0</ele><time>2026-04-03T13:41:22.994Z</time></trkpt><trkpt lat="45.8791194" lon="12.0467647"><ele>159.0</ele><time>2026-04-03T13:41:24.001Z</time></trkpt><trkpt lat="45.8792002" lon="12.0468297"><ele>159.0</ele><time>2026-04-03T13:41:25.008Z</time></trkpt><trkpt lat="45.8793052" lon="12.046905"><ele>159.0</ele><time>2026-04-03T13:41:25.978Z</time></trkpt><trkpt lat="45.879445" lon="12.0470097"><ele>160.6</ele><time>2026-04-03T13:41:27.169Z</time></trkpt><trkpt lat="45.879621" lon="12.0470977"><ele>162.2</ele><time>2026-04-03T13:41:29.041Z</time></trkpt><trkpt lat="45.8796898" lon="12.0471011"><ele>163.79999999999998</ele><time>2026-04-03T13:41:30.022Z</time></trkpt><trkpt lat="45.8797771" lon="12.0470944"><ele>165.4</ele><time>2026-04-03T13:41:32.003Z</time></trkpt><trkpt lat="45.8798819" lon="12.0470688"><ele>167.0</ele><time>2026-04-03T13:41:34.026Z</time></trkpt><trkpt lat="45.8799471" lon="12.0470685"><ele>167.0</ele><time>2026-04-03T13:41:35.024Z</time></trkpt><trkpt lat="45.8800543" lon="12.0471053"><ele>167.0</ele><time>2026-04-03T13:41:37.044Z</time></trkpt><trkpt lat="45.8801312" lon="12.0471687"><ele>167.0</ele><time>2026-04-03T13:41:38.982Z</time></trkpt><trkpt lat="45.880201" lon="12.0472675"><ele>167.0</ele><time>2026-04-03T13:41:51.032Z</time></trkpt><trkpt lat="45.8802701" lon="12.047444"><ele>167.0</ele><time>2026-04-03T13:41:54.042Z</time></trkpt><trkpt lat="45.8803005" lon="12.0475673"><ele>169.39999999999998</ele><time>2026-04-03T13:41:56.013Z</time></trkpt><trkpt lat="45.8803454" lon="12.0476919"><ele>171.79999999999998</ele><time>2026-04-03T13:41:58.021Z</time></trkpt><trkpt lat="45.8803837" lon="12.047836"><ele>174.2</ele><time>2026-04-03T13:42:00.055Z</time></trkpt><trkpt lat="45.8804215" lon="12.0479684"><ele>176.6</ele><time>2026-04-03T13:42:02.037Z</time></trkpt><trkpt lat="45.8804598" lon="12.0480929"><ele>179.0</ele><time>2026-04-03T13:42:04.009Z</time></trkpt><trkpt lat="45.8804781" lon="12.04822"><ele>178.2</ele><time>2026-04-03T13:42:05.993Z</time></trkpt><trkpt lat="45.8805009" lon="12.0483698"><ele>177.39999999999998</ele><time>2026-04-03T13:42:08.093Z</time></trkpt><trkpt lat="45.8805418" lon="12.0485068"><ele>176.6</ele><time>2026-04-03T13:42:09.997Z</time></trkpt><trkpt lat="45.8806242" lon="12.0486233"><ele>175.8</ele><time>2026-04-03T13:42:12.013Z</time></trkpt><trkpt lat="45.8806761" lon="12.0486829"><ele>175.0</ele><time>2026-04-03T13:42:13.013Z</time></trkpt><trkpt lat="45.8807264" lon="12.0487452"><ele>175.0</ele><time>2026-04-03T13:42:13.997Z</time></trkpt><trkpt lat="45.8808043" lon="12.0488493"><ele>175.0</ele><time>2026-04-03T13:42:15.974Z</time></trkpt><trkpt lat="45.8808649" lon="12.0489467"><ele>175.0</ele><time>2026-04-03T13:42:18.011Z</time></trkpt><trkpt lat="45.8809106" lon="12.0490613"><ele>175.0</ele><time>2026-04-03T13:42:20.047Z</time></trkpt><trkpt lat="45.8809223" lon="12.0491895"><ele>175.0</ele><time>2026-04-03T13:42:22.023Z</time></trkpt><trkpt lat="45.8809414" lon="12.0493071"><ele>173.5</ele><time>2026-04-03T13:42:23.998Z</time></trkpt><trkpt lat="45.8809933" lon="12.049404"><ele>172.0</ele><time>2026-04-03T13:42:26.001Z</time></trkpt><trkpt lat="45.8810349" lon="12.0494786"><ele>170.5</ele><time>2026-04-03T13:42:29.005Z</time></trkpt><trkpt lat="45.8811232" lon="12.0495372"><ele>169.0</ele><time>2026-04-03T13:42:32.002Z</time></trkpt><trkpt lat="45.8812491" lon="12.0495577"><ele>167.5</ele><time>2026-04-03T13:42:35.03Z</time></trkpt><trkpt lat="45.88132" lon="12.0495532"><ele>166.0</ele><time>2026-04-03T13:42:36.014Z</time></trkpt><trkpt lat="45.8813925" lon="12.0495464"><ele>166.0</ele><time>2026-04-03T13:42:37.027Z</time></trkpt><trkpt lat="45.8814607" lon="12.0495338"><ele>166.0</ele><time>2026-04-03T13:42:38.115Z</time></trkpt><trkpt lat="45.8815333" lon="12.0495234"><ele>166.0</ele><time>2026-04-03T13:42:39.996Z</time></trkpt><trkpt lat="45.8815957" lon="12.0495025"><ele>166.0</ele><time>2026-04-03T13:42:43.031Z</time></trkpt><trkpt lat="45.8816949" lon="12.0494797"><ele>166.0</ele><time>2026-04-03T13:42:46.015Z</time></trkpt><trkpt lat="45.8817753" lon="12.0494704"><ele>166.0</ele><time>2026-04-03T13:42:48.024Z</time></trkpt><trkpt lat="45.8818523" lon="12.0494901"><ele>165.60000000000002</ele><time>2026-04-03T13:42:50.009Z</time></trkpt><trkpt lat="45.8819317" lon="12.0495151"><ele>165.2</ele><time>2026-04-03T13:42:52.028Z</time></trkpt><trkpt lat="45.8820735" lon="12.0495657"><ele>164.8</ele><time>2026-04-03T13:42:55.039Z</time></trkpt><trkpt lat="45.8821633" lon="12.0495747"><ele>164.39999999999998</ele><time>2026-04-03T13:42:57.004Z</time></trkpt><trkpt lat="45.8822554" lon="12.0495436"><ele>164.0</ele><time>2026-04-03T13:42:59.015Z</time></trkpt><trkpt lat="45.8823313" lon="12.0494779"><ele>164.0</ele><time>2026-04-03T13:43:00.984Z</time></trkpt><trkpt lat="45.8824115" lon="12.0494502"><ele>164.0</ele><time>2026-04-03T13:43:03.009Z</time></trkpt><trkpt lat="45.8824939" lon="12.0495131"><ele>164.0</ele><time>2026-04-03T13:43:06.002Z</time></trkpt><trkpt lat="45.8825435" lon="12.0496397"><ele>164.0</ele><time>2026-04-03T13:43:08.015Z</time></trkpt><trkpt lat="45.882604" lon="12.0497999"><ele>164.0</ele><time>2026-04-03T13:43:10.019Z</time></trkpt><trkpt lat="45.8826411" lon="12.0498868"><ele>169.0</ele><time>2026-04-03T13:43:11.046Z</time></trkpt><trkpt lat="45.8826738" lon="12.0499752"><ele>174.0</ele><time>2026-04-03T13:43:12.029Z</time></trkpt><trkpt lat="45.8827134" lon="12.0501235"><ele>179.0</ele><time>2026-04-03T13:43:14.034Z</time></trkpt><trkpt lat="45.8827421" lon="12.050291"><ele>184.0</ele><time>2026-04-03T13:43:16.135Z</time></trkpt><trkpt lat="45.882766" lon="12.0504104"><ele>189.0</ele><time>2026-04-03T13:43:17.995Z</time></trkpt><trkpt lat="45.8827886" lon="12.0505039"><ele>189.0</ele><time>2026-04-03T13:43:20.994Z</time></trkpt><trkpt lat="45.8828675" lon="12.0506349"><ele>189.0</ele><time>2026-04-03T13:43:33.986Z</time></trkpt><trkpt lat="45.8829198" lon="12.0507628"><ele>189.0</ele><time>2026-04-03T13:43:34.999Z</time></trkpt><trkpt lat="45.8829675" lon="12.0508879"><ele>189.0</ele><time>2026-04-03T13:43:35.991Z</time></trkpt><trkpt lat="45.8830006" lon="12.0509786"><ele>189.0</ele><time>2026-04-03T13:43:37.062Z</time></trkpt><trkpt lat="45.8830671" lon="12.0511006"><ele>188.0</ele><time>2026-04-03T13:43:39.081Z</time></trkpt><trkpt lat="45.883127" lon="12.0511919"><ele>187.0</ele><time>2026-04-03T13:43:41.074Z</time></trkpt><trkpt lat="45.8831891" lon="12.0512536"><ele>186.0</ele><time>2026-04-03T13:43:43.057Z</time></trkpt><trkpt lat="45.8832992" lon="12.051295"><ele>185.0</ele><time>2026-04-03T13:43:46.079Z</time></trkpt><trkpt lat="45.8833735" lon="12.0513097"><ele>184.0</ele><time>2026-04-03T13:43:48.037Z</time></trkpt><trkpt lat="45.88345" lon="12.0513079"><ele>183.0</ele><time>2026-04-03T13:43:50.026Z</time></trkpt><trkpt lat="45.8835335" lon="12.0512999"><ele>186.8</ele><time>2026-04-03T13:43:52.065Z</time></trkpt><trkpt lat="45.8836304" lon="12.0512904"><ele>190.60000000000002</ele><time>2026-04-03T13:43:54.017Z</time></trkpt><trkpt lat="45.8837425" lon="12.0512838"><ele>194.39999999999998</ele><time>2026-04-03T13:43:56.058Z</time></trkpt><trkpt lat="45.8838534" lon="12.0512851"><ele>198.2</ele><time>2026-04-03T13:43:58.239Z</time></trkpt><trkpt lat="45.883944" lon="12.0512863"><ele>202.0</ele><time>2026-04-03T13:44:00.025Z</time></trkpt><trkpt lat="45.884044" lon="12.051306"><ele>202.0</ele><time>2026-04-03T13:44:02.055Z</time></trkpt><trkpt lat="45.8841497" lon="12.0513479"><ele>202.0</ele><time>2026-04-03T13:44:04.07Z</time></trkpt><trkpt lat="45.8842386" lon="12.0513769"><ele>202.0</ele><time>2026-04-03T13:44:06.027Z</time></trkpt><trkpt lat="45.8843002" lon="12.0514102"><ele>202.0</ele><time>2026-04-03T13:44:07.067Z</time></trkpt><trkpt lat="45.8843461" lon="12.0515365"><ele>202.0</ele><time>2026-04-03T13:44:08.998Z</time></trkpt><trkpt lat="45.8843691" lon="12.051715"><ele>202.0</ele><time>2026-04-03T13:44:11.028Z</time></trkpt><trkpt lat="45.884394" lon="12.0518077"><ele>202.0</ele><time>2026-04-03T13:44:13.05Z</time></trkpt><trkpt lat="45.8844348" lon="12.0519072"><ele>202.0</ele><time>2026-04-03T13:44:15.026Z</time></trkpt><trkpt lat="45.8845057" lon="12.052016"><ele>202.0</ele><time>2026-04-03T13:44:17.062Z</time></trkpt><trkpt lat="45.8846022" lon="12.0521433"><ele>202.0</ele><time>2026-04-03T13:44:19.027Z</time></trkpt><trkpt lat="45.8846725" lon="12.0521696"><ele>202.0</ele><time>2026-04-03T13:44:20.083Z</time></trkpt><trkpt lat="45.8847363" lon="12.0521866"><ele>202.0</ele><time>2026-04-03T13:44:21.118Z</time></trkpt><trkpt lat="45.8848637" lon="12.0521753"><ele>202.0</ele><time>2026-04-03T13:44:22.981Z</time></trkpt><trkpt lat="45.8849491" lon="12.0521642"><ele>202.0</ele><time>2026-04-03T13:44:24.064Z</time></trkpt><trkpt lat="45.8850184" lon="12.0521573"><ele>202.0</ele><time>2026-04-03T13:44:25.016Z</time></trkpt><trkpt lat="45.8851372" lon="12.0521432"><ele>204.39999999999998</ele><time>2026-04-03T13:44:27.052Z</time></trkpt><trkpt lat="45.8851878" lon="12.0522172"><ele>206.79999999999998</ele><time>2026-04-03T13:44:31.141Z</time></trkpt><trkpt lat="45.8852495" lon="12.0522405"><ele>209.2</ele><time>2026-04-03T13:44:32.13Z</time></trkpt><trkpt lat="45.8854171" lon="12.0523294"><ele>211.6</ele><time>2026-04-03T13:44:34.021Z</time></trkpt><trkpt lat="45.8855128" lon="12.0523819"><ele>214.0</ele><time>2026-04-03T13:44:35.058Z</time></trkpt><trkpt lat="45.8855943" lon="12.0524243"><ele>216.0</ele><time>2026-04-03T13:44:36.058Z</time></trkpt><trkpt lat="45.8856859" lon="12.0524789"><ele>217.99999999999997</ele><time>2026-04-03T13:44:37.139Z</time></trkpt><trkpt lat="45.8858267" lon="12.0525871"><ele>219.99999999999997</ele><time>2026-04-03T13:44:39.047Z</time></trkpt><trkpt lat="45.8858855" lon="12.052639"><ele>222.0</ele><time>2026-04-03T13:44:40.036Z</time></trkpt><trkpt lat="45.8859431" lon="12.0526814"><ele>224.0</ele><time>2026-04-03T13:44:41.065Z</time></trkpt><trkpt lat="45.8860074" lon="12.0527145"><ele>225.2</ele><time>2026-04-03T13:44:42.127Z</time></trkpt><trkpt lat="45.8861213" lon="12.0527483"><ele>226.39999999999998</ele><time>2026-04-03T13:44:44.027Z</time></trkpt><trkpt lat="45.8861952" lon="12.0527788"><ele>227.6</ele><time>2026-04-03T13:44:46.095Z</time></trkpt><trkpt lat="45.8862755" lon="12.0528204"><ele>228.8</ele><time>2026-04-03T13:44:56.05Z</time></trkpt><trkpt lat="45.8863679" lon="12.0528266"><ele>230.0</ele><time>2026-04-03T13:44:58.119Z</time></trkpt><trkpt lat="45.8864605" lon="12.0528667"><ele>230.00000000000003</ele><time>2026-04-03T13:45:00.087Z</time></trkpt><trkpt lat="45.8865165" lon="12.0529253"><ele>230.0</ele><time>2026-04-03T13:45:01.065Z</time></trkpt><trkpt lat="45.8865755" lon="12.053016"><ele>230.0</ele><time>2026-04-03T13:45:02.012Z</time></trkpt><trkpt lat="45.88662" lon="12.0531145"><ele>230.0</ele><time>2026-04-03T13:45:03.021Z</time></trkpt><trkpt lat="45.8866481" lon="12.0532102"><ele>230.00000000000003</ele><time>2026-04-03T13:45:04.053Z</time></trkpt><trkpt lat="45.8866672" lon="12.0533065"><ele>230.0</ele><time>2026-04-03T13:45:05.023Z</time></trkpt><trkpt lat="45.886657" lon="12.0534821"><ele>230.16666666666669</ele><time>2026-04-03T13:45:07.075Z</time></trkpt><trkpt lat="45.8866368" lon="12.0536539"><ele>230.33333333333334</ele><time>2026-04-03T13:45:09.024Z</time></trkpt><trkpt lat="45.8866494" lon="12.0537434"><ele>230.5</ele><time>2026-04-03T13:45:10.107Z</time></trkpt><trkpt lat="45.886698" lon="12.0539038"><ele>230.66666666666669</ele><time>2026-04-03T13:45:12.037Z</time></trkpt><trkpt lat="45.8867474" lon="12.0539688"><ele>230.83333333333334</ele><time>2026-04-03T13:45:13.089Z</time></trkpt><trkpt lat="45.8867984" lon="12.0540241"><ele>231.0</ele><time>2026-04-03T13:45:14.021Z</time></trkpt><trkpt lat="45.8868976" lon="12.0540725"><ele>232.66666666666666</ele><time>2026-04-03T13:45:15.036Z</time></trkpt><trkpt lat="45.8869808" lon="12.0541318"><ele>234.33333333333331</ele><time>2026-04-03T13:45:16.079Z</time></trkpt><trkpt lat="45.887039" lon="12.0541921"><ele>236.0</ele><time>2026-04-03T13:45:17.061Z</time></trkpt><trkpt lat="45.8871381" lon="12.054306"><ele>237.66666666666666</ele><time>2026-04-03T13:45:19.083Z</time></trkpt><trkpt lat="45.887185" lon="12.0543667"><ele>239.33333333333331</ele><time>2026-04-03T13:45:20.085Z</time></trkpt><trkpt lat="45.8872397" lon="12.0544425"><ele>241.0</ele><time>2026-04-03T13:45:21.075Z</time></trkpt><trkpt lat="45.887287" lon="12.0545061"><ele>240.99999999999997</ele><time>2026-04-03T13:45:22.056Z</time></trkpt><trkpt lat="45.8873367" lon="12.0545643"><ele>241.0</ele><time>2026-04-03T13:45:23.001Z</time></trkpt><trkpt lat="45.8874059" lon="12.0546264"><ele>241.0</ele><time>2026-04-03T13:45:24.053Z</time></trkpt><trkpt lat="45.8874805" lon="12.0546943"><ele>241.0</ele><time>2026-04-03T13:45:25.011Z</time></trkpt><trkpt lat="45.8875736" lon="12.0547769"><ele>240.99999999999997</ele><time>2026-04-03T13:45:26.012Z</time></trkpt><trkpt lat="45.8876594" lon="12.0548648"><ele>241.0</ele><time>2026-04-03T13:45:27.067Z</time></trkpt><trkpt lat="45.8877395" lon="12.0549479"><ele>242.33333333333331</ele><time>2026-04-03T13:45:28.048Z</time></trkpt><trkpt lat="45.8878186" lon="12.0550257"><ele>243.66666666666666</ele><time>2026-04-03T13:45:29.058Z</time></trkpt><trkpt lat="45.8878805" lon="12.0551032"><ele>245.0</ele><time>2026-04-03T13:45:30Z</time></trkpt><trkpt lat="45.887948" lon="12.0552039"><ele>246.33333333333331</ele><time>2026-04-03T13:45:31.074Z</time></trkpt><trkpt lat="45.8879885" lon="12.0553006"><ele>247.66666666666666</ele><time>2026-04-03T13:45:32.056Z</time></trkpt><trkpt lat="45.8880424" lon="12.0553799"><ele>249.0</ele><time>2026-04-03T13:45:33Z</time></trkpt><trkpt lat="45.8881291" lon="12.0554413"><ele>249.0</ele><time>2026-04-03T13:45:34.11Z</time></trkpt><trkpt lat="45.888217" lon="12.0554934"><ele>248.99999999999997</ele><time>2026-04-03T13:45:35.057Z</time></trkpt><trkpt lat="45.8883163" lon="12.0555411"><ele>248.99999999999997</ele><time>2026-04-03T13:45:36.046Z</time></trkpt><trkpt lat="45.88841" lon="12.0556324"><ele>249.0</ele><time>2026-04-03T13:45:37.11Z</time></trkpt><trkpt lat="45.8884695" lon="12.0557293"><ele>249.0</ele><time>2026-04-03T13:45:38.05Z</time></trkpt><trkpt lat="45.8885241" lon="12.0558223"><ele>252.6</ele><time>2026-04-03T13:45:38.978Z</time></trkpt><trkpt lat="45.8886008" lon="12.0559102"><ele>256.2</ele><time>2026-04-03T13:45:40.074Z</time></trkpt><trkpt lat="45.8887142" lon="12.0558963"><ele>259.79999999999995</ele><time>2026-04-03T13:45:41.998Z</time></trkpt><trkpt lat="45.8888113" lon="12.0559021"><ele>263.4</ele><time>2026-04-03T13:45:43.048Z</time></trkpt><trkpt lat="45.888924" lon="12.0559231"><ele>267.0</ele><time>2026-04-03T13:45:43.981Z</time></trkpt><trkpt lat="45.8890727" lon="12.055951"><ele>267.0</ele><time>2026-04-03T13:45:44.986Z</time></trkpt><trkpt lat="45.8892071" lon="12.0559568"><ele>267.0</ele><time>2026-04-03T13:45:45.998Z</time></trkpt><trkpt lat="45.8893067" lon="12.0559601"><ele>267.0</ele><time>2026-04-03T13:45:46.988Z</time></trkpt><trkpt lat="45.8893895" lon="12.0559469"><ele>267.0</ele><time>2026-04-03T13:45:47.987Z</time></trkpt><trkpt lat="45.8894466" lon="12.0558928"><ele>267.0</ele><time>2026-04-03T13:45:50.051Z</time></trkpt><trkpt lat="45.8894979" lon="12.0559758"><ele>266.2</ele><time>2026-04-03T13:45:53.954Z</time></trkpt><trkpt lat="45.8895574" lon="12.0561043"><ele>265.4</ele><time>2026-04-03T13:45:56.056Z</time></trkpt><trkpt lat="45.8896249" lon="12.0561418"><ele>264.6</ele><time>2026-04-03T13:45:57.947Z</time></trkpt><trkpt lat="45.8897212" lon="12.0560846"><ele>263.8</ele><time>2026-04-03T13:46:00.013Z</time></trkpt><trkpt lat="45.8898351" lon="12.0561028"><ele>263.0</ele><time>2026-04-03T13:46:33.951Z</time></trkpt><trkpt lat="45.8899286" lon="12.0561803"><ele>263.0</ele><time>2026-04-03T13:47:36.958Z</time></trkpt><trkpt lat="45.8900177" lon="12.0561077"><ele>263.0</ele><time>2026-04-03T13:48:08.079Z</time></trkpt><trkpt lat="45.8901001" lon="12.0560206"><ele>263.0</ele><time>2026-04-03T13:48:09.992Z</time></trkpt><trkpt lat="45.8901521" lon="12.055954"><ele>263.0</ele><time>2026-04-03T13:48:10.995Z</time></trkpt><trkpt lat="45.8901932" lon="12.0558748"><ele>263.0</ele><time>2026-04-03T13:48:11.98Z</time></trkpt><trkpt lat="45.8902451" lon="12.0557293"><ele>259.4</ele><time>2026-04-03T13:48:13.99Z</time></trkpt><trkpt lat="45.8902823" lon="12.0556206"><ele>255.8</ele><time>2026-04-03T13:48:15.976Z</time></trkpt><trkpt lat="45.8903894" lon="12.0554985"><ele>252.2</ele><time>2026-04-03T13:48:18.954Z</time></trkpt><trkpt lat="45.8904798" lon="12.0554146"><ele>248.6</ele><time>2026-04-03T13:48:20.975Z</time></trkpt><trkpt lat="45.8905629" lon="12.0553201"><ele>245.0</ele><time>2026-04-03T13:48:22.939Z</time></trkpt><trkpt lat="45.8906804" lon="12.0552672"><ele>245.00000000000003</ele><time>2026-04-03T13:48:25.003Z</time></trkpt><trkpt lat="45.8907474" lon="12.05525"><ele>245.0</ele><time>2026-04-03T13:48:25.944Z</time></trkpt><trkpt lat="45.8908167" lon="12.0552262"><ele>245.0</ele><time>2026-04-03T13:48:26.97Z</time></trkpt><trkpt lat="45.8908783" lon="12.0552019"><ele>245.0</ele><time>2026-04-03T13:48:28.036Z</time></trkpt><trkpt lat="45.8910358" lon="12.0551071"><ele>245.00000000000003</ele><time>2026-04-03T13:48:30.937Z</time></trkpt><trkpt lat="45.8911006" lon="12.0550694"><ele>245.0</ele><time>2026-04-03T13:48:31.975Z</time></trkpt><trkpt lat="45.8911605" lon="12.0550409"><ele>246.66666666666669</ele><time>2026-04-03T13:48:32.974Z</time></trkpt><trkpt lat="45.8912216" lon="12.0550169"><ele>248.33333333333334</ele><time>2026-04-03T13:48:33.965Z</time></trkpt><trkpt lat="45.8912846" lon="12.0549843"><ele>250.0</ele><time>2026-04-03T13:48:34.972Z</time></trkpt><trkpt lat="45.8913475" lon="12.0549457"><ele>251.66666666666669</ele><time>2026-04-03T13:48:35.984Z</time></trkpt><trkpt lat="45.8914017" lon="12.0548928"><ele>253.33333333333334</ele><time>2026-04-03T13:48:37.088Z</time></trkpt><trkpt lat="45.8914629" lon="12.054735"><ele>255.0</ele><time>2026-04-03T13:48:39.039Z</time></trkpt><trkpt lat="45.8914776" lon="12.0546392"><ele>255.83333333333334</ele><time>2026-04-03T13:48:40.029Z</time></trkpt><trkpt lat="45.8914966" lon="12.0545295"><ele>256.6666666666667</ele><time>2026-04-03T13:48:41.109Z</time></trkpt><trkpt lat="45.8915713" lon="12.0544572"><ele>257.5</ele><time>2026-04-03T13:48:43.001Z</time></trkpt><trkpt lat="45.8916893" lon="12.0545065"><ele>258.33333333333337</ele><time>2026-04-03T13:48:45.087Z</time></trkpt><trkpt lat="45.8917465" lon="12.0545452"><ele>259.1666666666667</ele><time>2026-04-03T13:48:46.039Z</time></trkpt><trkpt lat="45.8918047" lon="12.0545918"><ele>260.0</ele><time>2026-04-03T13:48:47.039Z</time></trkpt><trkpt lat="45.8918574" lon="12.0546545"><ele>262.2</ele><time>2026-04-03T13:48:48.033Z</time></trkpt><trkpt lat="45.8919293" lon="12.0547005"><ele>264.4</ele><time>2026-04-03T13:48:49.063Z</time></trkpt><trkpt lat="45.8920056" lon="12.0546885"><ele>266.6</ele><time>2026-04-03T13:48:50.021Z</time></trkpt><trkpt lat="45.8920965" lon="12.0546597"><ele>268.8</ele><time>2026-04-03T13:48:51.043Z</time></trkpt><trkpt lat="45.8921686" lon="12.0546462"><ele>271.0</ele><time>2026-04-03T13:48:52.061Z</time></trkpt><trkpt lat="45.8920739" lon="12.0543046"><ele>271.0</ele><time>2026-04-03T13:48:53.039Z</time></trkpt><trkpt lat="45.8921314" lon="12.0542653"><ele>271.0</ele><time>2026-04-03T13:48:54.044Z</time></trkpt><trkpt lat="45.892206" lon="12.0541434"><ele>271.0</ele><time>2026-04-03T13:48:56.114Z</time></trkpt><trkpt lat="45.8922571" lon="12.0540386"><ele>271.0</ele><time>2026-04-03T13:48:58.017Z</time></trkpt><trkpt lat="45.8922368" lon="12.0539447"><ele>271.0</ele><time>2026-04-03T13:49:01.012Z</time></trkpt><trkpt lat="45.8922389" lon="12.0538255"><ele>271.0</ele><time>2026-04-03T13:49:04.012Z</time></trkpt><trkpt lat="45.8922594" lon="12.0536967"><ele>274.66666666666663</ele><time>2026-04-03T13:49:06.015Z</time></trkpt><trkpt lat="45.8923262" lon="12.0535982"><ele>278.3333333333333</ele><time>2026-04-03T13:49:08.026Z</time></trkpt><trkpt lat="45.892409" lon="12.0536614"><ele>282.0</ele><time>2026-04-03T13:49:10.076Z</time></trkpt><trkpt lat="45.8924826" lon="12.0536719"><ele>285.6666666666667</ele><time>2026-04-03T13:49:26.104Z</time></trkpt><trkpt lat="45.8925021" lon="12.0535528"><ele>289.33333333333337</ele><time>2026-04-03T13:49:28.008Z</time></trkpt><trkpt lat="45.892518" lon="12.0534531"><ele>293.0</ele><time>2026-04-03T13:49:30.031Z</time></trkpt><trkpt lat="45.8924887" lon="12.0535752"><ele>292.99999999999994</ele><time>2026-04-03T13:49:58.041Z</time></trkpt><trkpt lat="45.8924696" lon="12.0536725"><ele>293.0</ele><time>2026-04-03T13:50:00.061Z</time></trkpt><trkpt lat="45.892429" lon="12.0537524"><ele>293.0</ele><time>2026-04-03T13:50:02.062Z</time></trkpt><trkpt lat="45.8923839" lon="12.0538163"><ele>293.0</ele><time>2026-04-03T13:50:04.059Z</time></trkpt><trkpt lat="45.8923337" lon="12.0538899"><ele>293.0</ele><time>2026-04-03T13:50:06.025Z</time></trkpt><trkpt lat="45.8922699" lon="12.0540034"><ele>292.99999999999994</ele><time>2026-04-03T13:50:08.035Z</time></trkpt><trkpt lat="45.8922299" lon="12.0540747"><ele>293.0</ele><time>2026-04-03T13:50:09.141Z</time></trkpt><trkpt lat="45.8921794" lon="12.0541782"><ele>288.6</ele><time>2026-04-03T13:50:11.022Z</time></trkpt><trkpt lat="45.8921108" lon="12.0542553"><ele>284.20000000000005</ele><time>2026-04-03T13:50:13.047Z</time></trkpt><trkpt lat="45.8920205" lon="12.054316"><ele>279.8</ele><time>2026-04-03T13:50:15.071Z</time></trkpt><trkpt lat="45.8919145" lon="12.0543884"><ele>275.40000000000003</ele><time>2026-04-03T13:50:17.008Z</time></trkpt><trkpt lat="45.8918309" lon="12.0544519"><ele>271.0</ele><time>2026-04-03T13:50:19.025Z</time></trkpt><trkpt lat="45.8917628" lon="12.0544879"><ele>269.16666666666663</ele><time>2026-04-03T13:50:21.024Z</time></trkpt><trkpt lat="45.8916825" lon="12.0544798"><ele>267.3333333333333</ele><time>2026-04-03T13:50:23.025Z</time></trkpt><trkpt lat="45.891613" lon="12.054461"><ele>265.5</ele><time>2026-04-03T13:50:25.035Z</time></trkpt><trkpt lat="45.8915285" lon="12.0544415"><ele>263.6666666666667</ele><time>2026-04-03T13:50:28.032Z</time></trkpt><trkpt lat="45.8914767" lon="12.0544983"><ele>261.83333333333337</ele><time>2026-04-03T13:50:31.01Z</time></trkpt><trkpt lat="45.8914666" lon="12.0545919"><ele>260.0</ele><time>2026-04-03T13:50:33.015Z</time></trkpt><trkpt lat="45.8914377" lon="12.0547179"><ele>260.0</ele><time>2026-04-03T13:50:35.03Z</time></trkpt><trkpt lat="45.8913496" lon="12.0548504"><ele>260.0</ele><time>2026-04-03T13:50:37.01Z</time></trkpt><trkpt lat="45.8912762" lon="12.0549015"><ele>260.0</ele><time>2026-04-03T13:50:37.985Z</time></trkpt><trkpt lat="45.8911967" lon="12.0549312"><ele>260.0</ele><time>2026-04-03T13:50:39.054Z</time></trkpt><trkpt lat="45.8911108" lon="12.0549677"><ele>260.0</ele><time>2026-04-03T13:50:41.04Z</time></trkpt><trkpt lat="45.8910382" lon="12.0550133"><ele>260.00000000000006</ele><time>2026-04-03T13:50:43.021Z</time></trkpt><trkpt lat="45.8910038" lon="12.0550936"><ele>260.0</ele><time>2026-04-03T13:50:45.991Z</time></trkpt><trkpt lat="45.8910102" lon="12.0549914"><ele>260.0</ele><time>2026-04-03T13:50:51.026Z</time></trkpt><trkpt lat="45.8910806" lon="12.0549204"><ele>260.0</ele><time>2026-04-03T13:50:53.962Z</time></trkpt><trkpt lat="45.8911122" lon="12.0548406"><ele>260.0</ele><time>2026-04-03T13:50:56.007Z</time></trkpt><trkpt lat="45.8911386" lon="12.0547457"><ele>260.00000000000006</ele><time>2026-04-03T13:50:58.043Z</time></trkpt><trkpt lat="45.8911502" lon="12.0546251"><ele>260.0</ele><time>2026-04-03T13:51:00.065Z</time></trkpt><trkpt lat="45.8911719" lon="12.0545076"><ele>260.0</ele><time>2026-04-03T13:51:02.083Z</time></trkpt><trkpt lat="45.8911871" lon="12.0543863"><ele>260.0</ele><time>2026-04-03T13:51:04.008Z</time></trkpt><trkpt lat="45.8911985" lon="12.054255"><ele>260.0</ele><time>2026-04-03T13:51:06.045Z</time></trkpt><trkpt lat="45.8912051" lon="12.054135"><ele>260.0</ele><time>2026-04-03T13:51:08.1Z</time></trkpt><trkpt lat="45.8912121" lon="12.0540112"><ele>260.0</ele><time>2026-04-03T13:51:10.222Z</time></trkpt><trkpt lat="45.8912256" lon="12.0539176"><ele>260.0</ele><time>2026-04-03T13:51:11.98Z</time></trkpt><trkpt lat="45.8912129" lon="12.0540028"><ele>260.0</ele><time>2026-04-03T13:51:48.946Z</time></trkpt><trkpt lat="45.891192" lon="12.0541785"><ele>260.0</ele><time>2026-04-03T13:51:50.976Z</time></trkpt><trkpt lat="45.8911714" lon="12.0543356"><ele>260.0</ele><time>2026-04-03T13:51:51.945Z</time></trkpt><trkpt lat="45.8911233" lon="12.054548"><ele>260.0</ele><time>2026-04-03T13:51:53.127Z</time></trkpt><trkpt lat="45.8910821" lon="12.0546829"><ele>260.0</ele><time>2026-04-03T13:51:54.05Z</time></trkpt><trkpt lat="45.891062" lon="12.0547819"><ele>260.0</ele><time>2026-04-03T13:51:54.979Z</time></trkpt><trkpt lat="45.8910658" lon="12.0548764"><ele>260.0</ele><time>2026-04-03T13:51:57.02Z</time></trkpt><trkpt lat="45.8910242" lon="12.0549899"><ele>260.0</ele><time>2026-04-03T13:51:59.003Z</time></trkpt><trkpt lat="45.8909736" lon="12.0550571"><ele>260.0</ele><time>2026-04-03T13:52:01.03Z</time></trkpt><trkpt lat="45.8909056" lon="12.0551421"><ele>260.0</ele><time>2026-04-03T13:52:18.001Z</time></trkpt><trkpt lat="45.8908429" lon="12.0551759"><ele>257.5</ele><time>2026-04-03T13:52:20.017Z</time></trkpt><trkpt lat="45.8907487" lon="12.0552076"><ele>255.0</ele><time>2026-04-03T13:52:22.955Z</time></trkpt><trkpt lat="45.8906831" lon="12.0552257"><ele>252.5</ele><time>2026-04-03T13:52:24.957Z</time></trkpt><trkpt lat="45.8906153" lon="12.0552382"><ele>250.0</ele><time>2026-04-03T13:52:26.95Z</time></trkpt><trkpt lat="45.8905276" lon="12.0552853"><ele>247.50000000000003</ele><time>2026-04-03T13:52:29.951Z</time></trkpt><trkpt lat="45.8904695" lon="12.0553495"><ele>245.0</ele><time>2026-04-03T13:52:31.988Z</time></trkpt><trkpt lat="45.8904169" lon="12.0554031"><ele>245.00000000000003</ele><time>2026-04-03T13:52:33.948Z</time></trkpt><trkpt lat="45.8903458" lon="12.0554517"><ele>245.0</ele><time>2026-04-03T13:52:35.978Z</time></trkpt><trkpt lat="45.8902692" lon="12.0555245"><ele>245.0</ele><time>2026-04-03T13:52:37.983Z</time></trkpt><trkpt lat="45.8902259" lon="12.0556163"><ele>245.0</ele><time>2026-04-03T13:52:39.953Z</time></trkpt><trkpt lat="45.89019" lon="12.0557397"><ele>245.00000000000003</ele><time>2026-04-03T13:52:42.976Z</time></trkpt><trkpt lat="45.8901307" lon="12.0558578"><ele>245.0</ele><time>2026-04-03T13:52:45.025Z</time></trkpt><trkpt lat="45.89004" lon="12.0559661"><ele>245.00000000000003</ele><time>2026-04-03T13:52:47.003Z</time></trkpt><trkpt lat="45.8899583" lon="12.0560316"><ele>245.0</ele><time>2026-04-03T13:52:49.103Z</time></trkpt><trkpt lat="45.8900376" lon="12.055979"><ele>245.0</ele><time>2026-04-03T13:53:08Z</time></trkpt><trkpt lat="45.8901033" lon="12.0559105"><ele>245.0</ele><time>2026-04-03T13:53:09.999Z</time></trkpt><trkpt lat="45.8901555" lon="12.055813"><ele>245.00000000000003</ele><time>2026-04-03T13:53:12.046Z</time></trkpt><trkpt lat="45.8902043" lon="12.0556902"><ele>245.0</ele><time>2026-04-03T13:53:14.027Z</time></trkpt><trkpt lat="45.8902414" lon="12.0555823"><ele>245.00000000000003</ele><time>2026-04-03T13:53:16.007Z</time></trkpt><trkpt lat="45.890314" lon="12.0554813"><ele>245.0</ele><time>2026-04-03T13:53:19.024Z</time></trkpt><trkpt lat="45.8903796" lon="12.0554317"><ele>245.0</ele><time>2026-04-03T13:53:21.021Z</time></trkpt><trkpt lat="45.8904508" lon="12.0553729"><ele>245.0</ele><time>2026-04-03T13:53:22.992Z</time></trkpt><trkpt lat="45.8905299" lon="12.0552596"><ele>245.00000000000003</ele><time>2026-04-03T13:53:25.013Z</time></trkpt><trkpt lat="45.8905952" lon="12.0552262"><ele>245.0</ele><time>2026-04-03T13:53:26.948Z</time></trkpt><trkpt lat="45.8906729" lon="12.0552035"><ele>245.00000000000003</ele><time>2026-04-03T13:53:28.984Z</time></trkpt><trkpt lat="45.8907439" lon="12.0551842"><ele>245.0</ele><time>2026-04-03T13:53:30.951Z</time></trkpt><trkpt lat="45.8908063" lon="12.0551655"><ele>245.0</ele><time>2026-04-03T13:53:32.991Z</time></trkpt><trkpt lat="45.8908959" lon="12.0551403"><ele>245.0</ele><time>2026-04-03T13:53:35.958Z</time></trkpt><trkpt lat="45.8909723" lon="12.0550882"><ele>245.00000000000003</ele><time>2026-04-03T13:53:37.973Z</time></trkpt><trkpt lat="45.8910494" lon="12.0550286"><ele>245.0</ele><time>2026-04-03T13:53:40.013Z</time></trkpt><trkpt lat="45.8911168" lon="12.0550014"><ele>246.42857142857144</ele><time>2026-04-03T13:53:41.973Z</time></trkpt><trkpt lat="45.8912028" lon="12.0549685"><ele>247.85714285714286</ele><time>2026-04-03T13:53:49.953Z</time></trkpt><trkpt lat="45.8912701" lon="12.054946"><ele>249.28571428571428</ele><time>2026-04-03T13:53:51.981Z</time></trkpt><trkpt lat="45.8913341" lon="12.0549117"><ele>250.71428571428572</ele><time>2026-04-03T13:53:53.968Z</time></trkpt><trkpt lat="45.8914005" lon="12.0549102"><ele>252.14285714285717</ele><time>2026-04-03T13:54:38.064Z</time></trkpt><trkpt lat="45.8914677" lon="12.0549617"><ele>253.57142857142858</ele><time>2026-04-03T13:54:41.053Z</time></trkpt><trkpt lat="45.8915368" lon="12.0550056"><ele>255.0</ele><time>2026-04-03T13:54:44.012Z</time></trkpt><trkpt lat="45.8916139" lon="12.0550027"><ele>255.0</ele><time>2026-04-03T13:54:47.074Z</time></trkpt><trkpt lat="45.8917126" lon="12.0549916"><ele>255.0</ele><time>2026-04-03T13:54:50.113Z</time></trkpt><trkpt lat="45.8918078" lon="12.0549824"><ele>255.0</ele><time>2026-04-03T13:54:53.018Z</time></trkpt><trkpt lat="45.8919034" lon="12.0549637"><ele>255.0</ele><time>2026-04-03T13:54:56.027Z</time></trkpt><trkpt lat="45.8919758" lon="12.054994"><ele>255.0</ele><time>2026-04-03T13:54:58.133Z</time></trkpt><trkpt lat="45.8920391" lon="12.0550194"><ele>255.0</ele><time>2026-04-03T13:55:00.107Z</time></trkpt><trkpt lat="45.8921055" lon="12.0550336"><ele>252.66666666666666</ele><time>2026-04-03T13:55:03.055Z</time></trkpt><trkpt lat="45.8920407" lon="12.0550967"><ele>250.33333333333331</ele><time>2026-04-03T13:55:16.014Z</time></trkpt><trkpt lat="45.8919721" lon="12.0551492"><ele>248.0</ele><time>2026-04-03T13:55:20.993Z</time></trkpt><trkpt lat="45.8919313" lon="12.0552216"><ele>245.66666666666666</ele><time>2026-04-03T13:55:25.047Z</time></trkpt><trkpt lat="45.8920212" lon="12.0552647"><ele>243.33333333333331</ele><time>2026-04-03T13:55:34.014Z</time></trkpt><trkpt lat="45.892109" lon="12.0552827"><ele>241.0</ele><time>2026-04-03T13:55:37.02Z</time></trkpt><trkpt lat="45.8921845" lon="12.0553182"><ele>240.99999999999997</ele><time>2026-04-03T13:55:39.992Z</time></trkpt><trkpt lat="45.8922606" lon="12.055364"><ele>241.0</ele><time>2026-04-03T13:55:43.019Z</time></trkpt><trkpt lat="45.8923348" lon="12.0554333"><ele>241.0</ele><time>2026-04-03T13:55:46.001Z</time></trkpt><trkpt lat="45.8924158" lon="12.0554947"><ele>241.0</ele><time>2026-04-03T13:55:48.966Z</time></trkpt><trkpt lat="45.8924818" lon="12.0555202"><ele>240.99999999999997</ele><time>2026-04-03T13:55:50.974Z</time></trkpt><trkpt lat="45.892545" lon="12.0555355"><ele>241.0</ele><time>2026-04-03T13:55:53.089Z</time></trkpt><trkpt lat="45.8926157" lon="12.0556009"><ele>241.0</ele><time>2026-04-03T13:55:57.017Z</time></trkpt><trkpt lat="45.8925556" lon="12.0556483"><ele>241.00000000000003</ele><time>2026-04-03T13:56:00Z</time></trkpt><trkpt lat="45.8924796" lon="12.0556372"><ele>241.0</ele><time>2026-04-03T13:56:02.005Z</time></trkpt><trkpt lat="45.8924064" lon="12.0556646"><ele>241.0</ele><time>2026-04-03T13:56:03.996Z</time></trkpt><trkpt lat="45.8923401" lon="12.0556993"><ele>241.00000000000003</ele><time>2026-04-03T13:56:06.022Z</time></trkpt><trkpt lat="45.8922666" lon="12.0557399"><ele>241.0</ele><time>2026-04-03T13:56:09.064Z</time></trkpt><trkpt lat="45.8922945" lon="12.055833"><ele>241.0</ele><time>2026-04-03T13:56:11.991Z</time></trkpt><trkpt lat="45.892344" lon="12.055959"><ele>237.60000000000002</ele><time>2026-04-03T13:56:13.982Z</time></trkpt><trkpt lat="45.8923968" lon="12.0560615"><ele>234.20000000000002</ele><time>2026-04-03T13:56:15.974Z</time></trkpt><trkpt lat="45.892478" lon="12.0561731"><ele>230.79999999999998</ele><time>2026-04-03T13:56:17.976Z</time></trkpt><trkpt lat="45.8925645" lon="12.0563037"><ele>227.39999999999998</ele><time>2026-04-03T13:56:19.971Z</time></trkpt><trkpt lat="45.8926094" lon="12.0563703"><ele>224.0</ele><time>2026-04-03T13:56:20.948Z</time></trkpt><trkpt lat="45.8926602" lon="12.0564389"><ele>224.00000000000003</ele><time>2026-04-03T13:56:21.973Z</time></trkpt><trkpt lat="45.8927073" lon="12.0565068"><ele>224.0</ele><time>2026-04-03T13:56:22.954Z</time></trkpt><trkpt lat="45.892745" lon="12.0565827"><ele>224.0</ele><time>2026-04-03T13:56:23.972Z</time></trkpt><trkpt lat="45.8927805" lon="12.0567247"><ele>224.0</ele><time>2026-04-03T13:56:25.967Z</time></trkpt><trkpt lat="45.8927612" lon="12.0568396"><ele>224.00000000000003</ele><time>2026-04-03T13:56:27.975Z</time></trkpt><trkpt lat="45.8926966" lon="12.0569397"><ele>224.0</ele><time>2026-04-03T13:56:29.986Z</time></trkpt><trkpt lat="45.8926418" lon="12.0570437"><ele>222.39999999999998</ele><time>2026-04-03T13:56:31.974Z</time></trkpt><trkpt lat="45.8925861" lon="12.0571289"><ele>220.79999999999998</ele><time>2026-04-03T13:56:39.004Z</time></trkpt><trkpt lat="45.8925674" lon="12.0572691"><ele>219.20000000000002</ele><time>2026-04-03T13:56:41.067Z</time></trkpt><trkpt lat="45.892564" lon="12.0573994"><ele>217.60000000000002</ele><time>2026-04-03T13:56:42.939Z</time></trkpt><trkpt lat="45.8925717" lon="12.0575633"><ele>216.0</ele><time>2026-04-03T13:56:44.98Z</time></trkpt><trkpt lat="45.892583" lon="12.0577506"><ele>215.57142857142856</ele><time>2026-04-03T13:56:47.007Z</time></trkpt><trkpt lat="45.8925932" lon="12.0578535"><ele>215.14285714285714</ele><time>2026-04-03T13:56:48.007Z</time></trkpt><trkpt lat="45.8926038" lon="12.0579537"><ele>214.71428571428572</ele><time>2026-04-03T13:56:49.011Z</time></trkpt><trkpt lat="45.8926202" lon="12.0580459"><ele>214.28571428571428</ele><time>2026-04-03T13:56:49.994Z</time></trkpt><trkpt lat="45.8926359" lon="12.0581345"><ele>213.85714285714286</ele><time>2026-04-03T13:56:50.985Z</time></trkpt><trkpt lat="45.8926511" lon="12.0582288"><ele>213.42857142857142</ele><time>2026-04-03T13:56:51.973Z</time></trkpt><trkpt lat="45.8926623" lon="12.0583447"><ele>213.0</ele><time>2026-04-03T13:56:53.021Z</time></trkpt><trkpt lat="45.8926611" lon="12.0584543"><ele>213.0</ele><time>2026-04-03T13:56:54.013Z</time></trkpt><trkpt lat="45.8926451" lon="12.0585615"><ele>213.0</ele><time>2026-04-03T13:56:54.963Z</time></trkpt><trkpt lat="45.8926246" lon="12.0586664"><ele>213.0</ele><time>2026-04-03T13:56:56.019Z</time></trkpt><trkpt lat="45.892601" lon="12.0587687"><ele>213.0</ele><time>2026-04-03T13:56:57.023Z</time></trkpt><trkpt lat="45.8925738" lon="12.0588725"><ele>213.0</ele><time>2026-04-03T13:56:58.004Z</time></trkpt><trkpt lat="45.8925328" lon="12.0589693"><ele>213.0</ele><time>2026-04-03T13:56:58.958Z</time></trkpt><trkpt lat="45.8924735" lon="12.0590939"><ele>210.16666666666666</ele><time>2026-04-03T13:56:59.96Z</time></trkpt><trkpt lat="45.8924108" lon="12.0592029"><ele>207.33333333333331</ele><time>2026-04-03T13:57:01.018Z</time></trkpt><trkpt lat="45.8923652" lon="12.0592923"><ele>204.5</ele><time>2026-04-03T13:57:01.99Z</time></trkpt><trkpt lat="45.8923307" lon="12.0593844"><ele>201.66666666666666</ele><time>2026-04-03T13:57:03.015Z</time></trkpt><trkpt lat="45.89231" lon="12.0594798"><ele>198.83333333333331</ele><time>2026-04-03T13:57:04.006Z</time></trkpt><trkpt lat="45.8923044" lon="12.0595972"><ele>196.0</ele><time>2026-04-03T13:57:05.01Z</time></trkpt><trkpt lat="45.8923179" lon="12.0597701"><ele>196.0</ele><time>2026-04-03T13:57:06.006Z</time></trkpt><trkpt lat="45.8923429" lon="12.0599421"><ele>196.0</ele><time>2026-04-03T13:57:07.002Z</time></trkpt><trkpt lat="45.8923638" lon="12.0600786"><ele>196.0</ele><time>2026-04-03T13:57:08.032Z</time></trkpt><trkpt lat="45.8923818" lon="12.0602232"><ele>196.0</ele><time>2026-04-03T13:57:09.056Z</time></trkpt><trkpt lat="45.8923941" lon="12.0603716"><ele>196.0</ele><time>2026-04-03T13:57:10.062Z</time></trkpt><trkpt lat="45.8923955" lon="12.0604988"><ele>196.0</ele><time>2026-04-03T13:57:11.03Z</time></trkpt><trkpt lat="45.8923815" lon="12.0606215"><ele>196.0</ele><time>2026-04-03T13:57:12.071Z</time></trkpt><trkpt lat="45.892356" lon="12.0607491"><ele>196.0</ele><time>2026-04-03T13:57:13.084Z</time></trkpt><trkpt lat="45.8923276" lon="12.0608894"><ele>196.0</ele><time>2026-04-03T13:57:14.084Z</time></trkpt><trkpt lat="45.8923083" lon="12.0610433"><ele>196.0</ele><time>2026-04-03T13:57:15.049Z</time></trkpt><trkpt lat="45.8922979" lon="12.0612098"><ele>195.49999999999997</ele><time>2026-04-03T13:57:16.058Z</time></trkpt><trkpt lat="45.8922747" lon="12.0613297"><ele>195.0</ele><time>2026-04-03T13:57:17.048Z</time></trkpt><trkpt lat="45.8922401" lon="12.0614493"><ele>194.5</ele><time>2026-04-03T13:57:18.027Z</time></trkpt><trkpt lat="45.8922186" lon="12.0615763"><ele>194.0</ele><time>2026-04-03T13:57:19.057Z</time></trkpt><trkpt lat="45.8922316" lon="12.0617048"><ele>193.49999999999997</ele><time>2026-04-03T13:57:20.07Z</time></trkpt><trkpt lat="45.8922596" lon="12.0618181"><ele>193.0</ele><time>2026-04-03T13:57:21.054Z</time></trkpt><trkpt lat="45.8922852" lon="12.061929"><ele>192.33333333333331</ele><time>2026-04-03T13:57:22.039Z</time></trkpt><trkpt lat="45.8922955" lon="12.0620446"><ele>191.66666666666666</ele><time>2026-04-03T13:57:23.057Z</time></trkpt><trkpt lat="45.8922942" lon="12.0621565"><ele>191.0</ele><time>2026-04-03T13:57:24.025Z</time></trkpt><trkpt lat="45.8922887" lon="12.0622638"><ele>190.33333333333331</ele><time>2026-04-03T13:57:24.973Z</time></trkpt><trkpt lat="45.8922804" lon="12.062385"><ele>189.66666666666666</ele><time>2026-04-03T13:57:26.023Z</time></trkpt><trkpt lat="45.8922693" lon="12.0625036"><ele>189.0</ele><time>2026-04-03T13:57:27.042Z</time></trkpt><trkpt lat="45.8922538" lon="12.0626194"><ele>187.33333333333334</ele><time>2026-04-03T13:57:28.046Z</time></trkpt><trkpt lat="45.8922397" lon="12.0627348"><ele>185.66666666666666</ele><time>2026-04-03T13:57:29.017Z</time></trkpt><trkpt lat="45.8922289" lon="12.0628659"><ele>184.0</ele><time>2026-04-03T13:57:30.057Z</time></trkpt><trkpt lat="45.8922205" lon="12.0629792"><ele>182.33333333333331</ele><time>2026-04-03T13:57:31.024Z</time></trkpt><trkpt lat="45.8921991" lon="12.0630909"><ele>180.66666666666666</ele><time>2026-04-03T13:57:32.014Z</time></trkpt><trkpt lat="45.8921747" lon="12.0632016"><ele>179.0</ele><time>2026-04-03T13:57:33.051Z</time></trkpt><trkpt lat="45.8921485" lon="12.0633177"><ele>179.0</ele><time>2026-04-03T13:57:34.072Z</time></trkpt><trkpt lat="45.8921153" lon="12.0634755"><ele>179.0</ele><time>2026-04-03T13:57:35.294Z</time></trkpt><trkpt lat="45.892085" lon="12.0635728"><ele>179.0</ele><time>2026-04-03T13:57:36.201Z</time></trkpt><trkpt lat="45.8920404" lon="12.0636687"><ele>179.0</ele><time>2026-04-03T13:57:37.205Z</time></trkpt><trkpt lat="45.8920033" lon="12.0637618"><ele>179.0</ele><time>2026-04-03T13:57:38.119Z</time></trkpt><trkpt lat="45.8919733" lon="12.0638606"><ele>179.0</ele><time>2026-04-03T13:57:39.033Z</time></trkpt><trkpt lat="45.8919526" lon="12.0639873"><ele>180.83333333333331</ele><time>2026-04-03T13:57:40.106Z</time></trkpt><trkpt lat="45.8919476" lon="12.0641159"><ele>182.66666666666666</ele><time>2026-04-03T13:57:41.14Z</time></trkpt><trkpt lat="45.8919462" lon="12.0642207"><ele>184.5</ele><time>2026-04-03T13:57:42.075Z</time></trkpt><trkpt lat="45.8919393" lon="12.0643255"><ele>186.33333333333334</ele><time>2026-04-03T13:57:43.069Z</time></trkpt><trkpt lat="45.8919202" lon="12.064444"><ele>188.16666666666669</ele><time>2026-04-03T13:57:44.073Z</time></trkpt><trkpt lat="45.8918875" lon="12.0645549"><ele>190.0</ele><time>2026-04-03T13:57:45.109Z</time></trkpt><trkpt lat="45.8918372" lon="12.064637"><ele>190.0</ele><time>2026-04-03T13:57:46.083Z</time></trkpt><trkpt lat="45.8917817" lon="12.064701"><ele>190.0</ele><time>2026-04-03T13:57:47.031Z</time></trkpt><trkpt lat="45.891707" lon="12.0647612"><ele>190.0</ele><time>2026-04-03T13:57:48.042Z</time></trkpt><trkpt lat="45.8915823" lon="12.064854"><ele>190.0</ele><time>2026-04-03T13:57:49.089Z</time></trkpt><trkpt lat="45.8914775" lon="12.0649232"><ele>190.0</ele><time>2026-04-03T13:57:50.072Z</time></trkpt><trkpt lat="45.89139" lon="12.0649974"><ele>183.33333333333334</ele><time>2026-04-03T13:57:51.082Z</time></trkpt><trkpt lat="45.8913142" lon="12.0650785"><ele>176.66666666666666</ele><time>2026-04-03T13:57:52.175Z</time></trkpt><trkpt lat="45.8912322" lon="12.0653089"><ele>170.0</ele><time>2026-04-03T13:57:54.171Z</time></trkpt><trkpt lat="45.8911726" lon="12.0656292"><ele>170.0</ele><time>2026-04-03T13:57:56.027Z</time></trkpt><trkpt lat="45.8911176" lon="12.0657651"><ele>170.0</ele><time>2026-04-03T13:57:57.07Z</time></trkpt><trkpt lat="45.8910509" lon="12.0658681"><ele>170.0</ele><time>2026-04-03T13:57:58.038Z</time></trkpt><trkpt lat="45.8909759" lon="12.0659578"><ele>170.0</ele><time>2026-04-03T13:57:59.011Z</time></trkpt><trkpt lat="45.890896" lon="12.0660495"><ele>170.0</ele><time>2026-04-03T13:58:00.073Z</time></trkpt><trkpt lat="45.8908368" lon="12.0660917"><ele>168.66666666666666</ele><time>2026-04-03T13:58:01.059Z</time></trkpt><trkpt lat="45.8907319" lon="12.0661708"><ele>167.33333333333331</ele><time>2026-04-03T13:58:03.012Z</time></trkpt><trkpt lat="45.8906697" lon="12.0662288"><ele>166.0</ele><time>2026-04-03T13:58:05.033Z</time></trkpt><trkpt lat="45.8906094" lon="12.066281"><ele>164.66666666666666</ele><time>2026-04-03T13:58:07.034Z</time></trkpt><trkpt lat="45.8905371" lon="12.0663497"><ele>163.33333333333334</ele><time>2026-04-03T13:58:09.025Z</time></trkpt><trkpt lat="45.8904819" lon="12.0664117"><ele>162.0</ele><time>2026-04-03T13:58:12.077Z</time></trkpt><trkpt lat="45.8906019" lon="12.0663352"><ele>162.0</ele><time>2026-04-03T13:58:20.07Z</time></trkpt><trkpt lat="45.890678" lon="12.0662538"><ele>162.0</ele><time>2026-04-03T13:58:21.067Z</time></trkpt><trkpt lat="45.8907423" lon="12.0661955"><ele>162.0</ele><time>2026-04-03T13:58:22.054Z</time></trkpt><trkpt lat="45.8908263" lon="12.0660971"><ele>162.0</ele><time>2026-04-03T13:58:24.038Z</time></trkpt><trkpt lat="45.8909236" lon="12.0659644"><ele>162.0</ele><time>2026-04-03T13:58:26.024Z</time></trkpt><trkpt lat="45.8909958" lon="12.065884"><ele>163.33333333333334</ele><time>2026-04-03T13:58:27.053Z</time></trkpt><trkpt lat="45.8910478" lon="12.0658231"><ele>164.66666666666666</ele><time>2026-04-03T13:58:27.99Z</time></trkpt><trkpt lat="45.8910952" lon="12.0657515"><ele>166.0</ele><time>2026-04-03T13:58:28.999Z</time></trkpt><trkpt lat="45.8911501" lon="12.0656881"><ele>167.33333333333331</ele><time>2026-04-03T13:58:31.052Z</time></trkpt><trkpt lat="45.8911703" lon="12.0658165"><ele>168.66666666666666</ele><time>2026-04-03T13:59:02.013Z</time></trkpt><trkpt lat="45.8911498" lon="12.0659388"><ele>170.0</ele><time>2026-04-03T13:59:04.029Z</time></trkpt><trkpt lat="45.8911356" lon="12.0661004"><ele>170.0</ele><time>2026-04-03T13:59:06.044Z</time></trkpt><trkpt lat="45.8911269" lon="12.0662774"><ele>170.0</ele><time>2026-04-03T13:59:08.053Z</time></trkpt><trkpt lat="45.8911343" lon="12.0664394"><ele>170.0</ele><time>2026-04-03T13:59:09.998Z</time></trkpt><trkpt lat="45.8911572" lon="12.0665327"><ele>170.0</ele><time>2026-04-03T13:59:11.067Z</time></trkpt><trkpt lat="45.8911825" lon="12.0666162"><ele>170.0</ele><time>2026-04-03T13:59:12.022Z</time></trkpt><trkpt lat="45.8912085" lon="12.0667017"><ele>170.0</ele><time>2026-04-03T13:59:13.02Z</time></trkpt><trkpt lat="45.891237" lon="12.0667864"><ele>169.75</ele><time>2026-04-03T13:59:14.045Z</time></trkpt><trkpt lat="45.8913124" lon="12.0669285"><ele>169.5</ele><time>2026-04-03T13:59:16.042Z</time></trkpt><trkpt lat="45.8914595" lon="12.0670309"><ele>169.25</ele><time>2026-04-03T13:59:19.017Z</time></trkpt><trkpt lat="45.8915493" lon="12.0670839"><ele>169.0</ele><time>2026-04-03T13:59:21.073Z</time></trkpt><trkpt lat="45.8916094" lon="12.0671548"><ele>169.0</ele><time>2026-04-03T13:59:23.044Z</time></trkpt><trkpt lat="45.891648" lon="12.067266"><ele>169.0</ele><time>2026-04-03T13:59:27.051Z</time></trkpt><trkpt lat="45.8917524" lon="12.0672506"><ele>169.0</ele><time>2026-04-03T13:59:30.095Z</time></trkpt><trkpt lat="45.891872" lon="12.0672278"><ele>169.0</ele><time>2026-04-03T13:59:32.071Z</time></trkpt><trkpt lat="45.891943" lon="12.0672171"><ele>169.0</ele><time>2026-04-03T13:59:33.024Z</time></trkpt><trkpt lat="45.8920093" lon="12.0672087"><ele>172.6</ele><time>2026-04-03T13:59:34.017Z</time></trkpt><trkpt lat="45.8920835" lon="12.0671997"><ele>176.2</ele><time>2026-04-03T13:59:35.066Z</time></trkpt><trkpt lat="45.8921625" lon="12.0671898"><ele>179.79999999999998</ele><time>2026-04-03T13:59:36.052Z</time></trkpt><trkpt lat="45.8922416" lon="12.0671716"><ele>183.39999999999998</ele><time>2026-04-03T13:59:37.047Z</time></trkpt><trkpt lat="45.8923164" lon="12.0671385"><ele>187.0</ele><time>2026-04-03T13:59:38.19Z</time></trkpt><trkpt lat="45.8924554" lon="12.0671043"><ele>187.0</ele><time>2026-04-03T13:59:40.028Z</time></trkpt><trkpt lat="45.8925675" lon="12.0670848"><ele>187.0</ele><time>2026-04-03T13:59:41.059Z</time></trkpt><trkpt lat="45.8927016" lon="12.0670813"><ele>187.0</ele><time>2026-04-03T13:59:42.042Z</time></trkpt><trkpt lat="45.8928356" lon="12.067089"><ele>187.0</ele><time>2026-04-03T13:59:43.058Z</time></trkpt><trkpt lat="45.8929519" lon="12.067103"><ele>187.5</ele><time>2026-04-03T13:59:44.054Z</time></trkpt><trkpt lat="45.8930452" lon="12.0671169"><ele>188.0</ele><time>2026-04-03T13:59:45.028Z</time></trkpt><trkpt lat="45.8931336" lon="12.0671365"><ele>188.5</ele><time>2026-04-03T13:59:46.06Z</time></trkpt><trkpt lat="45.8932256" lon="12.0671541"><ele>189.0</ele><time>2026-04-03T13:59:47.07Z</time></trkpt><trkpt lat="45.893303" lon="12.0671683"><ele>189.5</ele><time>2026-04-03T13:59:48.015Z</time></trkpt><trkpt lat="45.8933775" lon="12.0671752"><ele>190.0</ele><time>2026-04-03T13:59:49.003Z</time></trkpt><trkpt lat="45.893446" lon="12.0671693"><ele>190.0</ele><time>2026-04-03T13:59:50.019Z</time></trkpt><trkpt lat="45.8935424" lon="12.0671521"><ele>190.0</ele><time>2026-04-03T13:59:51.048Z</time></trkpt><trkpt lat="45.8936517" lon="12.067131"><ele>190.0</ele><time>2026-04-03T13:59:52.066Z</time></trkpt><trkpt lat="45.8937343" lon="12.0671151"><ele>190.0</ele><time>2026-04-03T13:59:52.996Z</time></trkpt><trkpt lat="45.8938155" lon="12.0671022"><ele>190.0</ele><time>2026-04-03T13:59:53.968Z</time></trkpt><trkpt lat="45.8939054" lon="12.0670905"><ele>190.0</ele><time>2026-04-03T13:59:55.045Z</time></trkpt><trkpt lat="45.8939871" lon="12.0670769"><ele>190.0</ele><time>2026-04-03T13:59:56.028Z</time></trkpt><trkpt lat="45.8940647" lon="12.0670623"><ele>190.0</ele><time>2026-04-03T13:59:56.988Z</time></trkpt><trkpt lat="45.8941407" lon="12.0670468"><ele>190.0</ele><time>2026-04-03T13:59:57.991Z</time></trkpt><trkpt lat="45.8942119" lon="12.067028"><ele>190.0</ele><time>2026-04-03T13:59:59.009Z</time></trkpt><trkpt lat="45.8942794" lon="12.0670075"><ele>190.0</ele><time>2026-04-03T13:59:59.959Z</time></trkpt><trkpt lat="45.8943596" lon="12.0669774"><ele>189.66666666666669</ele><time>2026-04-03T14:00:01.02Z</time></trkpt><trkpt lat="45.8944397" lon="12.0669456"><ele>189.33333333333334</ele><time>2026-04-03T14:00:02.085Z</time></trkpt><trkpt lat="45.8945067" lon="12.0669197"><ele>189.0</ele><time>2026-04-03T14:00:03.056Z</time></trkpt><trkpt lat="45.8945695" lon="12.0668988"><ele>188.66666666666666</ele><time>2026-04-03T14:00:04.022Z</time></trkpt><trkpt lat="45.8946316" lon="12.0668819"><ele>188.33333333333331</ele><time>2026-04-03T14:00:04.974Z</time></trkpt><trkpt lat="45.8946944" lon="12.0668665"><ele>188.0</ele><time>2026-04-03T14:00:05.968Z</time></trkpt><trkpt lat="45.8948127" lon="12.0668336"><ele>188.0</ele><time>2026-04-03T14:00:07.953Z</time></trkpt><trkpt lat="45.8949188" lon="12.0667889"><ele>188.0</ele><time>2026-04-03T14:00:09.994Z</time></trkpt><trkpt lat="45.8949937" lon="12.0667623"><ele>188.0</ele><time>2026-04-03T14:00:12.001Z</time></trkpt><trkpt lat="45.8950834" lon="12.0667451"><ele>188.0</ele><time>2026-04-03T14:00:17.965Z</time></trkpt><trkpt lat="45.8952114" lon="12.0667102"><ele>188.0</ele><time>2026-04-03T14:00:19.969Z</time></trkpt><trkpt lat="45.8953046" lon="12.0666576"><ele>188.33333333333331</ele><time>2026-04-03T14:00:21.963Z</time></trkpt><trkpt lat="45.8953676" lon="12.0666299"><ele>188.66666666666666</ele><time>2026-04-03T14:00:24.052Z</time></trkpt><trkpt lat="45.8954469" lon="12.0666056"><ele>189.0</ele><time>2026-04-03T14:00:27.011Z</time></trkpt><trkpt lat="45.8955281" lon="12.0665265"><ele>189.33333333333334</ele><time>2026-04-03T14:00:28.985Z</time></trkpt><trkpt lat="45.8956057" lon="12.0664724"><ele>189.66666666666669</ele><time>2026-04-03T14:00:31.032Z</time></trkpt><trkpt lat="45.8956666" lon="12.0665191"><ele>190.0</ele><time>2026-04-03T14:00:50.032Z</time></trkpt><trkpt lat="45.8956895" lon="12.0666192"><ele>190.0</ele><time>2026-04-03T14:00:51.997Z</time></trkpt><trkpt lat="45.8957069" lon="12.0667644"><ele>190.0</ele><time>2026-04-03T14:00:54.059Z</time></trkpt><trkpt lat="45.8957092" lon="12.0668626"><ele>190.0</ele><time>2026-04-03T14:00:55.062Z</time></trkpt><trkpt lat="45.8957095" lon="12.0669757"><ele>190.0</ele><time>2026-04-03T14:00:55.978Z</time></trkpt><trkpt lat="45.89571" lon="12.0671246"><ele>190.0</ele><time>2026-04-03T14:00:56.993Z</time></trkpt><trkpt lat="45.8957092" lon="12.0672799"><ele>190.0</ele><time>2026-04-03T14:00:58.024Z</time></trkpt><trkpt lat="45.8957123" lon="12.0674232"><ele>190.0</ele><time>2026-04-03T14:00:58.997Z</time></trkpt><trkpt lat="45.8957216" lon="12.067567"><ele>190.0</ele><time>2026-04-03T14:01:00.006Z</time></trkpt><trkpt lat="45.8957372" lon="12.0677"><ele>190.0</ele><time>2026-04-03T14:01:00.987Z</time></trkpt><trkpt lat="45.895746" lon="12.0678276"><ele>190.0</ele><time>2026-04-03T14:01:02.008Z</time></trkpt><trkpt lat="45.8957481" lon="12.0679533"><ele>192.33333333333334</ele><time>2026-04-03T14:01:03.051Z</time></trkpt><trkpt lat="45.8957396" lon="12.0680687"><ele>194.66666666666669</ele><time>2026-04-03T14:01:03.987Z</time></trkpt><trkpt lat="45.8957202" lon="12.0681727"><ele>197.0</ele><time>2026-04-03T14:01:04.981Z</time></trkpt><trkpt lat="45.8956964" lon="12.0682655"><ele>199.33333333333334</ele><time>2026-04-03T14:01:06.038Z</time></trkpt><trkpt lat="45.8956922" lon="12.0683972"><ele>201.66666666666666</ele><time>2026-04-03T14:01:07.982Z</time></trkpt><trkpt lat="45.8956935" lon="12.0685022"><ele>204.0</ele><time>2026-04-03T14:01:10.086Z</time></trkpt><trkpt lat="45.8957205" lon="12.0686522"><ele>206.66666666666666</ele><time>2026-04-03T14:01:13.07Z</time></trkpt><trkpt lat="45.8957811" lon="12.0687634"><ele>209.33333333333331</ele><time>2026-04-03T14:01:15.071Z</time></trkpt><trkpt lat="45.8958403" lon="12.068849"><ele>212.0</ele><time>2026-04-03T14:01:17.009Z</time></trkpt><trkpt lat="45.8958912" lon="12.0689187"><ele>214.66666666666666</ele><time>2026-04-03T14:01:45.07Z</time></trkpt><trkpt lat="45.895823" lon="12.0688832"><ele>217.33333333333331</ele><time>2026-04-03T14:02:27.168Z</time></trkpt><trkpt lat="45.8957476" lon="12.0687647"><ele>220.0</ele><time>2026-04-03T14:02:29.039Z</time></trkpt><trkpt lat="45.8957144" lon="12.0686192"><ele>219.99999999999997</ele><time>2026-04-03T14:02:31.035Z</time></trkpt><trkpt lat="45.8956986" lon="12.0685281"><ele>220.0</ele><time>2026-04-03T14:02:32.088Z</time></trkpt><trkpt lat="45.8956997" lon="12.0684074"><ele>220.0</ele><time>2026-04-03T14:02:34.113Z</time></trkpt><trkpt lat="45.8957247" lon="12.0682932"><ele>220.0</ele><time>2026-04-03T14:02:36.073Z</time></trkpt><trkpt lat="45.8957582" lon="12.0681123"><ele>219.99999999999997</ele><time>2026-04-03T14:02:38.042Z</time></trkpt><trkpt lat="45.8957592" lon="12.0679897"><ele>220.0</ele><time>2026-04-03T14:02:39.045Z</time></trkpt><trkpt lat="45.8957537" lon="12.0678592"><ele>216.8</ele><time>2026-04-03T14:02:40.021Z</time></trkpt><trkpt lat="45.8957417" lon="12.0677428"><ele>213.6</ele><time>2026-04-03T14:02:41.043Z</time></trkpt><trkpt lat="45.8957256" lon="12.0676026"><ele>210.39999999999998</ele><time>2026-04-03T14:02:42.05Z</time></trkpt><trkpt lat="45.8957131" lon="12.0674553"><ele>207.2</ele><time>2026-04-03T14:02:43.05Z</time></trkpt><trkpt lat="45.8957082" lon="12.0673259"><ele>204.0</ele><time>2026-04-03T14:02:44.039Z</time></trkpt><trkpt lat="45.8957065" lon="12.067196"><ele>201.66666666666666</ele><time>2026-04-03T14:02:45.014Z</time></trkpt><trkpt lat="45.8956994" lon="12.0670485"><ele>199.33333333333334</ele><time>2026-04-03T14:02:46.083Z</time></trkpt><trkpt lat="45.8957003" lon="12.0669361"><ele>197.0</ele><time>2026-04-03T14:02:47.027Z</time></trkpt><trkpt lat="45.8956973" lon="12.0668196"><ele>194.66666666666669</ele><time>2026-04-03T14:02:48.05Z</time></trkpt><trkpt lat="45.8956925" lon="12.0667179"><ele>192.33333333333334</ele><time>2026-04-03T14:02:49.043Z</time></trkpt><trkpt lat="45.8956866" lon="12.0666259"><ele>190.0</ele><time>2026-04-03T14:02:50.038Z</time></trkpt><trkpt lat="45.8956645" lon="12.0664843"><ele>190.0</ele><time>2026-04-03T14:02:52.06Z</time></trkpt><trkpt lat="45.8956137" lon="12.0664187"><ele>190.0</ele><time>2026-04-03T14:02:54.028Z</time></trkpt><trkpt lat="45.8955365" lon="12.0664837"><ele>190.0</ele><time>2026-04-03T14:02:57.061Z</time></trkpt><trkpt lat="45.8954782" lon="12.0665367"><ele>190.0</ele><time>2026-04-03T14:02:58.045Z</time></trkpt><trkpt lat="45.8953956" lon="12.0665733"><ele>190.0</ele><time>2026-04-03T14:03:01.024Z</time></trkpt><trkpt lat="45.8953124" lon="12.0666202"><ele>190.0</ele><time>2026-04-03T14:03:03.202Z</time></trkpt><trkpt lat="45.8952415" lon="12.06665"><ele>190.0</ele><time>2026-04-03T14:03:05.061Z</time></trkpt><trkpt lat="45.8951759" lon="12.0666661"><ele>190.0</ele><time>2026-04-03T14:03:06.074Z</time></trkpt><trkpt lat="45.8950673" lon="12.0666932"><ele>190.0</ele><time>2026-04-03T14:03:08.051Z</time></trkpt><trkpt lat="45.8949499" lon="12.0667326"><ele>190.0</ele><time>2026-04-03T14:03:10.011Z</time></trkpt><trkpt lat="45.8948357" lon="12.0667745"><ele>190.0</ele><time>2026-04-03T14:03:11.007Z</time></trkpt><trkpt lat="45.8947077" lon="12.0668331"><ele>190.0</ele><time>2026-04-03T14:03:12.027Z</time></trkpt><trkpt lat="45.8945611" lon="12.0668785"><ele>190.0</ele><time>2026-04-03T14:03:13.025Z</time></trkpt><trkpt lat="45.8944166" lon="12.0669488"><ele>190.0</ele><time>2026-04-03T14:03:13.996Z</time></trkpt><trkpt lat="45.8942927" lon="12.066996"><ele>190.0</ele><time>2026-04-03T14:03:15.019Z</time></trkpt><trkpt lat="45.8941709" lon="12.0670369"><ele>190.0</ele><time>2026-04-03T14:03:16.146Z</time></trkpt><trkpt lat="45.8940039" lon="12.0670735"><ele>190.0</ele><time>2026-04-03T14:03:18.061Z</time></trkpt><trkpt lat="45.8939252" lon="12.0670852"><ele>190.0</ele><time>2026-04-03T14:03:18.968Z</time></trkpt><trkpt lat="45.8938389" lon="12.0670989"><ele>190.0</ele><time>2026-04-03T14:03:20Z</time></trkpt><trkpt lat="45.8937566" lon="12.0671127"><ele>190.0</ele><time>2026-04-03T14:03:21.054Z</time></trkpt><trkpt lat="45.8936837" lon="12.0671227"><ele>190.0</ele><time>2026-04-03T14:03:22Z</time></trkpt><trkpt lat="45.8936138" lon="12.0671327"><ele>190.0</ele><time>2026-04-03T14:03:22.961Z</time></trkpt><trkpt lat="45.8935337" lon="12.0671426"><ele>190.0</ele><time>2026-04-03T14:03:24.003Z</time></trkpt><trkpt lat="45.8934616" lon="12.067152"><ele>190.0</ele><time>2026-04-03T14:03:24.981Z</time></trkpt><trkpt lat="45.8933822" lon="12.0671636"><ele>190.0</ele><time>2026-04-03T14:03:25.98Z</time></trkpt><trkpt lat="45.8933065" lon="12.067163"><ele>190.0</ele><time>2026-04-03T14:03:26.972Z</time></trkpt><trkpt lat="45.893227" lon="12.0671551"><ele>190.0</ele><time>2026-04-03T14:03:28.006Z</time></trkpt><trkpt lat="45.8931511" lon="12.067144"><ele>190.0</ele><time>2026-04-03T14:03:28.993Z</time></trkpt><trkpt lat="45.893075" lon="12.0671348"><ele>190.0</ele><time>2026-04-03T14:03:29.985Z</time></trkpt><trkpt lat="45.8929972" lon="12.0671267"><ele>190.0</ele><time>2026-04-03T14:03:31.008Z</time></trkpt><trkpt lat="45.8929204" lon="12.0671208"><ele>190.0</ele><time>2026-04-03T14:03:32.008Z</time></trkpt><trkpt lat="45.8928487" lon="12.0671168"><ele>190.0</ele><time>2026-04-03T14:03:32.959Z</time></trkpt><trkpt lat="45.8927712" lon="12.0671139"><ele>190.0</ele><time>2026-04-03T14:03:34.011Z</time></trkpt><trkpt lat="45.8926959" lon="12.0671161"><ele>190.0</ele><time>2026-04-03T14:03:35.014Z</time></trkpt><trkpt lat="45.8926232" lon="12.067117"><ele>190.0</ele><time>2026-04-03T14:03:36.002Z</time></trkpt><trkpt lat="45.8925521" lon="12.0671195"><ele>190.0</ele><time>2026-04-03T14:03:36.988Z</time></trkpt><trkpt lat="45.8924742" lon="12.0671233"><ele>190.0</ele><time>2026-04-03T14:03:38.026Z</time></trkpt><trkpt lat="45.8924038" lon="12.0671353"><ele>190.0</ele><time>2026-04-03T14:03:39.01Z</time></trkpt><trkpt lat="45.8923358" lon="12.067154"><ele>190.0</ele><time>2026-04-03T14:03:40.005Z</time></trkpt><trkpt lat="45.8922696" lon="12.0671769"><ele>189.5</ele><time>2026-04-03T14:03:40.999Z</time></trkpt><trkpt lat="45.8921483" lon="12.0672106"><ele>189.0</ele><time>2026-04-03T14:03:42.969Z</time></trkpt><trkpt lat="45.8920827" lon="12.0672197"><ele>188.5</ele><time>2026-04-03T14:03:43.998Z</time></trkpt><trkpt lat="45.8920173" lon="12.0672326"><ele>188.0</ele><time>2026-04-03T14:03:45.015Z</time></trkpt><trkpt lat="45.8919522" lon="12.0672462"><ele>187.5</ele><time>2026-04-03T14:03:46.017Z</time></trkpt><trkpt lat="45.8918822" lon="12.0672591"><ele>187.0</ele><time>2026-04-03T14:03:47.059Z</time></trkpt><trkpt lat="45.8917688" lon="12.0672644"><ele>184.0</ele><time>2026-04-03T14:03:48.991Z</time></trkpt><trkpt lat="45.8916742" lon="12.0672799"><ele>181.0</ele><time>2026-04-03T14:03:50.984Z</time></trkpt><trkpt lat="45.8916093" lon="12.0673903"><ele>178.0</ele><time>2026-04-03T14:03:52.981Z</time></trkpt><trkpt lat="45.8915964" lon="12.0674844"><ele>175.0</ele><time>2026-04-03T14:03:53.979Z</time></trkpt><trkpt lat="45.8915955" lon="12.0675767"><ele>172.0</ele><time>2026-04-03T14:03:54.955Z</time></trkpt><trkpt lat="45.8916069" lon="12.067691"><ele>169.0</ele><time>2026-04-03T14:03:55.991Z</time></trkpt><trkpt lat="45.8916067" lon="12.0678187"><ele>167.6</ele><time>2026-04-03T14:03:57.015Z</time></trkpt><trkpt lat="45.8915992" lon="12.0679467"><ele>166.2</ele><time>2026-04-03T14:03:58.042Z</time></trkpt><trkpt lat="45.8915904" lon="12.0680615"><ele>164.79999999999998</ele><time>2026-04-03T14:03:59.069Z</time></trkpt><trkpt lat="45.8915728" lon="12.0681692"><ele>163.39999999999998</ele><time>2026-04-03T14:04:00.069Z</time></trkpt><trkpt lat="45.8914993" lon="12.0683148"><ele>162.0</ele><time>2026-04-03T14:04:02.003Z</time></trkpt><trkpt lat="45.8914301" lon="12.0683914"><ele>162.0</ele><time>2026-04-03T14:04:02.975Z</time></trkpt><trkpt lat="45.8913537" lon="12.0684724"><ele>162.0</ele><time>2026-04-03T14:04:04.027Z</time></trkpt><trkpt lat="45.8912834" lon="12.0685521"><ele>162.0</ele><time>2026-04-03T14:04:05.026Z</time></trkpt><trkpt lat="45.8912188" lon="12.0686414"><ele>162.0</ele><time>2026-04-03T14:04:06.088Z</time></trkpt><trkpt lat="45.8911641" lon="12.0687425"><ele>162.0</ele><time>2026-04-03T14:04:07.077Z</time></trkpt><trkpt lat="45.891108" lon="12.068885"><ele>162.0</ele><time>2026-04-03T14:04:08.195Z</time></trkpt><trkpt lat="45.8910704" lon="12.0690322"><ele>162.0</ele><time>2026-04-03T14:04:09.157Z</time></trkpt><trkpt lat="45.8910437" lon="12.0691464"><ele>162.0</ele><time>2026-04-03T14:04:10.076Z</time></trkpt><trkpt lat="45.8909792" lon="12.0692765"><ele>162.0</ele><time>2026-04-03T14:04:12.072Z</time></trkpt><trkpt lat="45.8908867" lon="12.0693534"><ele>162.0</ele><time>2026-04-03T14:04:14.086Z</time></trkpt><trkpt lat="45.8908272" lon="12.0693916"><ele>161.4</ele><time>2026-04-03T14:04:15.09Z</time></trkpt><trkpt lat="45.8907622" lon="12.06946"><ele>160.79999999999998</ele><time>2026-04-03T14:04:16.098Z</time></trkpt><trkpt lat="45.8906952" lon="12.0695613"><ele>160.2</ele><time>2026-04-03T14:04:17.127Z</time></trkpt><trkpt lat="45.8906388" lon="12.0696782"><ele>159.6</ele><time>2026-04-03T14:04:18.146Z</time></trkpt><trkpt lat="45.8906022" lon="12.0697674"><ele>159.0</ele><time>2026-04-03T14:04:19.096Z</time></trkpt><trkpt lat="45.8905506" lon="12.0699104"><ele>159.6</ele><time>2026-04-03T14:04:21.227Z</time></trkpt><trkpt lat="45.8905159" lon="12.0700552"><ele>160.2</ele><time>2026-04-03T14:04:27.219Z</time></trkpt><trkpt lat="45.8905566" lon="12.0702174"><ele>160.79999999999998</ele><time>2026-04-03T14:04:29.061Z</time></trkpt><trkpt lat="45.8906063" lon="12.0703369"><ele>161.4</ele><time>2026-04-03T14:04:30.087Z</time></trkpt><trkpt lat="45.8906585" lon="12.070475"><ele>162.0</ele><time>2026-04-03T14:04:31.081Z</time></trkpt><trkpt lat="45.890706" lon="12.0706179"><ele>161.0</ele><time>2026-04-03T14:04:32.055Z</time></trkpt><trkpt lat="45.8907499" lon="12.0707839"><ele>160.0</ele><time>2026-04-03T14:04:33.13Z</time></trkpt><trkpt lat="45.8907901" lon="12.0709485"><ele>159.0</ele><time>2026-04-03T14:04:34.061Z</time></trkpt><trkpt lat="45.8908392" lon="12.0711627"><ele>158.0</ele><time>2026-04-03T14:04:35.157Z</time></trkpt><trkpt lat="45.8908794" lon="12.0713517"><ele>158.0</ele><time>2026-04-03T14:04:36.115Z</time></trkpt><trkpt lat="45.8909226" lon="12.0715631"><ele>158.0</ele><time>2026-04-03T14:04:37.095Z</time></trkpt><trkpt lat="45.8909739" lon="12.0718024"><ele>158.0</ele><time>2026-04-03T14:04:38.118Z</time></trkpt><trkpt lat="45.8910247" lon="12.0720368"><ele>162.33333333333331</ele><time>2026-04-03T14:04:39.078Z</time></trkpt><trkpt lat="45.8910742" lon="12.0722928"><ele>166.66666666666666</ele><time>2026-04-03T14:04:40.081Z</time></trkpt><trkpt lat="45.8911318" lon="12.0725642"><ele>171.0</ele><time>2026-04-03T14:04:41.123Z</time></trkpt><trkpt lat="45.8911786" lon="12.0727984"><ele>171.0</ele><time>2026-04-03T14:04:42.096Z</time></trkpt><trkpt lat="45.8912242" lon="12.0730258"><ele>171.0</ele><time>2026-04-03T14:04:43.082Z</time></trkpt><trkpt lat="45.891268" lon="12.0732479"><ele>171.0</ele><time>2026-04-03T14:04:44.127Z</time></trkpt><trkpt lat="45.8913063" lon="12.0734567"><ele>168.66666666666666</ele><time>2026-04-03T14:04:45.092Z</time></trkpt><trkpt lat="45.8913492" lon="12.0736758"><ele>166.33333333333331</ele><time>2026-04-03T14:04:46.09Z</time></trkpt><trkpt lat="45.8913976" lon="12.0739078"><ele>164.0</ele><time>2026-04-03T14:04:47.104Z</time></trkpt><trkpt lat="45.8914414" lon="12.0741359"><ele>162.0</ele><time>2026-04-03T14:04:48.069Z</time></trkpt><trkpt lat="45.8914833" lon="12.0743682"><ele>160.0</ele><time>2026-04-03T14:04:49.033Z</time></trkpt><trkpt lat="45.8915153" lon="12.0746144"><ele>158.0</ele><time>2026-04-03T14:04:50.094Z</time></trkpt><trkpt lat="45.8915312" lon="12.0748408"><ele>157.5</ele><time>2026-04-03T14:04:51.113Z</time></trkpt><trkpt lat="45.8915421" lon="12.0750466"><ele>157.0</ele><time>2026-04-03T14:04:52.065Z</time></trkpt><trkpt lat="45.8915474" lon="12.0752559"><ele>156.5</ele><time>2026-04-03T14:04:53.059Z</time></trkpt><trkpt lat="45.89155" lon="12.0754694"><ele>156.0</ele><time>2026-04-03T14:04:54.101Z</time></trkpt><trkpt lat="45.8915528" lon="12.0756664"><ele>155.5</ele><time>2026-04-03T14:04:55.066Z</time></trkpt><trkpt lat="45.8915538" lon="12.0758628"><ele>155.0</ele><time>2026-04-03T14:04:56.073Z</time></trkpt><trkpt lat="45.8915536" lon="12.0760581"><ele>154.5</ele><time>2026-04-03T14:04:57.08Z</time></trkpt><trkpt lat="45.8915532" lon="12.0762593"><ele>154.0</ele><time>2026-04-03T14:04:58.126Z</time></trkpt><trkpt lat="45.8915566" lon="12.0764521"><ele>154.0</ele><time>2026-04-03T14:04:59.138Z</time></trkpt><trkpt lat="45.8915569" lon="12.0766293"><ele>154.0</ele><time>2026-04-03T14:05:00.093Z</time></trkpt><trkpt lat="45.8915593" lon="12.0767942"><ele>154.0</ele><time>2026-04-03T14:05:01.082Z</time></trkpt><trkpt lat="45.8915691" lon="12.0769565"><ele>154.0</ele><time>2026-04-03T14:05:02.103Z</time></trkpt><trkpt lat="45.8915854" lon="12.0771019"><ele>154.0</ele><time>2026-04-03T14:05:03.108Z</time></trkpt><trkpt lat="45.8916075" lon="12.0772378"><ele>154.0</ele><time>2026-04-03T14:05:04.098Z</time></trkpt><trkpt lat="45.891632" lon="12.0773785"><ele>154.0</ele><time>2026-04-03T14:05:05.167Z</time></trkpt><trkpt lat="45.8916557" lon="12.0774992"><ele>154.0</ele><time>2026-04-03T14:05:06.083Z</time></trkpt><trkpt lat="45.8916892" lon="12.0776482"><ele>154.0</ele><time>2026-04-03T14:05:07.074Z</time></trkpt><trkpt lat="45.8917497" lon="12.0778526"><ele>156.5</ele><time>2026-04-03T14:05:08.198Z</time></trkpt><trkpt lat="45.8919433" lon="12.0782832"><ele>159.0</ele><time>2026-04-03T14:05:10.17Z</time></trkpt><trkpt lat="45.8920591" lon="12.0785025"><ele>159.0</ele><time>2026-04-03T14:05:11.117Z</time></trkpt><trkpt lat="45.8921739" lon="12.0787056"><ele>159.0</ele><time>2026-04-03T14:05:12.104Z</time></trkpt><trkpt lat="45.8922744" lon="12.0789013"><ele>159.0</ele><time>2026-04-03T14:05:13.096Z</time></trkpt><trkpt lat="45.8923607" lon="12.0790921"><ele>158.5</ele><time>2026-04-03T14:05:14.098Z</time></trkpt><trkpt lat="45.8924265" lon="12.079283"><ele>158.0</ele><time>2026-04-03T14:05:15.09Z</time></trkpt><trkpt lat="45.8924763" lon="12.0794763"><ele>157.5</ele><time>2026-04-03T14:05:16.086Z</time></trkpt><trkpt lat="45.8925045" lon="12.079671"><ele>157.0</ele><time>2026-04-03T14:05:17.069Z</time></trkpt><trkpt lat="45.8925216" lon="12.0798591"><ele>156.75</ele><time>2026-04-03T14:05:18.061Z</time></trkpt><trkpt lat="45.8925325" lon="12.0800607"><ele>156.5</ele><time>2026-04-03T14:05:19.056Z</time></trkpt><trkpt lat="45.8925437" lon="12.0802655"><ele>156.25</ele><time>2026-04-03T14:05:20.034Z</time></trkpt><trkpt lat="45.8925528" lon="12.0804678"><ele>156.0</ele><time>2026-04-03T14:05:21.043Z</time></trkpt><trkpt lat="45.8925594" lon="12.0806562"><ele>156.2</ele><time>2026-04-03T14:05:22.062Z</time></trkpt><trkpt lat="45.8925652" lon="12.0808356"><ele>156.39999999999998</ele><time>2026-04-03T14:05:23.096Z</time></trkpt><trkpt lat="45.8925729" lon="12.0809921"><ele>156.6</ele><time>2026-04-03T14:05:24.061Z</time></trkpt><trkpt lat="45.8925843" lon="12.0811444"><ele>156.79999999999998</ele><time>2026-04-03T14:05:25.059Z</time></trkpt><trkpt lat="45.8926053" lon="12.0812879"><ele>157.0</ele><time>2026-04-03T14:05:26.053Z</time></trkpt><trkpt lat="45.8926316" lon="12.0814338"><ele>157.2</ele><time>2026-04-03T14:05:27.06Z</time></trkpt><trkpt lat="45.8926599" lon="12.0815744"><ele>157.39999999999998</ele><time>2026-04-03T14:05:28.11Z</time></trkpt><trkpt lat="45.8926947" lon="12.081715"><ele>157.60000000000002</ele><time>2026-04-03T14:05:29.112Z</time></trkpt><trkpt lat="45.8927365" lon="12.0818494"><ele>157.8</ele><time>2026-04-03T14:05:30.068Z</time></trkpt><trkpt lat="45.8927871" lon="12.0819945"><ele>158.0</ele><time>2026-04-03T14:05:31.106Z</time></trkpt><trkpt lat="45.8928425" lon="12.0821449"><ele>158.0</ele><time>2026-04-03T14:05:32.097Z</time></trkpt><trkpt lat="45.892901" lon="12.0823156"><ele>158.0</ele><time>2026-04-03T14:05:33.11Z</time></trkpt><trkpt lat="45.8929614" lon="12.082504"><ele>158.0</ele><time>2026-04-03T14:05:34.086Z</time></trkpt><trkpt lat="45.8930355" lon="12.0827109"><ele>158.0</ele><time>2026-04-03T14:05:35.093Z</time></trkpt><trkpt lat="45.8931086" lon="12.0829154"><ele>157.66666666666666</ele><time>2026-04-03T14:05:36.046Z</time></trkpt><trkpt lat="45.8931893" lon="12.0831312"><ele>157.33333333333334</ele><time>2026-04-03T14:05:37.065Z</time></trkpt><trkpt lat="45.8932664" lon="12.0833328"><ele>157.0</ele><time>2026-04-03T14:05:38.061Z</time></trkpt><trkpt lat="45.893347" lon="12.0835194"><ele>157.5</ele><time>2026-04-03T14:05:39.061Z</time></trkpt><trkpt lat="45.8934307" lon="12.083687"><ele>158.0</ele><time>2026-04-03T14:05:40.053Z</time></trkpt><trkpt lat="45.8935126" lon="12.0838536"><ele>158.5</ele><time>2026-04-03T14:05:41.089Z</time></trkpt><trkpt lat="45.8935889" lon="12.0840164"><ele>159.0</ele><time>2026-04-03T14:05:42.099Z</time></trkpt><trkpt lat="45.8936694" lon="12.0841924"><ele>159.0</ele><time>2026-04-03T14:05:43.176Z</time></trkpt><trkpt lat="45.8937388" lon="12.0843502"><ele>159.0</ele><time>2026-04-03T14:05:44.124Z</time></trkpt><trkpt lat="45.8938104" lon="12.0845075"><ele>159.0</ele><time>2026-04-03T14:05:45.073Z</time></trkpt><trkpt lat="45.893889" lon="12.0846824"><ele>159.0</ele><time>2026-04-03T14:05:46.152Z</time></trkpt><trkpt lat="45.8939587" lon="12.0848384"><ele>159.0</ele><time>2026-04-03T14:05:47.106Z</time></trkpt><trkpt lat="45.8940272" lon="12.0849895"><ele>159.0</ele><time>2026-04-03T14:05:48.108Z</time></trkpt><trkpt lat="45.8940937" lon="12.0851371"><ele>159.0</ele><time>2026-04-03T14:05:49.143Z</time></trkpt><trkpt lat="45.8941459" lon="12.0852696"><ele>159.0</ele><time>2026-04-03T14:05:50.074Z</time></trkpt><trkpt lat="45.8941981" lon="12.085407"><ele>159.0</ele><time>2026-04-03T14:05:51.139Z</time></trkpt><trkpt lat="45.8942331" lon="12.0855175"><ele>159.0</ele><time>2026-04-03T14:05:52.077Z</time></trkpt><trkpt lat="45.8942609" lon="12.085601"><ele>159.0</ele><time>2026-04-03T14:05:53.132Z</time></trkpt><trkpt lat="45.8943251" lon="12.085688"><ele>159.0</ele><time>2026-04-03T14:05:55.102Z</time></trkpt><trkpt lat="45.8944651" lon="12.0856345"><ele>159.0</ele><time>2026-04-03T14:05:57.139Z</time></trkpt><trkpt lat="45.8945718" lon="12.0855664"><ele>159.33333333333334</ele><time>2026-04-03T14:05:58.056Z</time></trkpt><trkpt lat="45.8947333" lon="12.0854698"><ele>159.66666666666669</ele><time>2026-04-03T14:05:59.128Z</time></trkpt><trkpt lat="45.8948857" lon="12.0853822"><ele>160.0</ele><time>2026-04-03T14:06:00.075Z</time></trkpt><trkpt lat="45.8950456" lon="12.0853002"><ele>161.0</ele><time>2026-04-03T14:06:01.071Z</time></trkpt><trkpt lat="45.8951906" lon="12.0852434"><ele>162.0</ele><time>2026-04-03T14:06:02.093Z</time></trkpt><trkpt lat="45.8953417" lon="12.0852141"><ele>163.0</ele><time>2026-04-03T14:06:03.088Z</time></trkpt><trkpt lat="45.8955143" lon="12.0851992"><ele>163.0</ele><time>2026-04-03T14:06:04.162Z</time></trkpt><trkpt lat="45.895664" lon="12.0851892"><ele>163.0</ele><time>2026-04-03T14:06:05.085Z</time></trkpt><trkpt lat="45.8958386" lon="12.0851747"><ele>163.0</ele><time>2026-04-03T14:06:06.103Z</time></trkpt><trkpt lat="45.895997" lon="12.0851717"><ele>163.5</ele><time>2026-04-03T14:06:07.051Z</time></trkpt><trkpt lat="45.8961887" lon="12.0851594"><ele>164.0</ele><time>2026-04-03T14:06:08.186Z</time></trkpt><trkpt lat="45.8965145" lon="12.0851387"><ele>164.0</ele><time>2026-04-03T14:06:10.138Z</time></trkpt><trkpt lat="45.8966698" lon="12.0851266"><ele>164.0</ele><time>2026-04-03T14:06:11.09Z</time></trkpt><trkpt lat="45.8968449" lon="12.085111"><ele>164.0</ele><time>2026-04-03T14:06:12.095Z</time></trkpt><trkpt lat="45.897041" lon="12.085093"><ele>164.66666666666666</ele><time>2026-04-03T14:06:13.092Z</time></trkpt><trkpt lat="45.8972588" lon="12.0850777"><ele>165.33333333333334</ele><time>2026-04-03T14:06:14.166Z</time></trkpt><trkpt lat="45.8974253" lon="12.0850691"><ele>166.0</ele><time>2026-04-03T14:06:15.116Z</time></trkpt><trkpt lat="45.8975853" lon="12.0850653"><ele>166.5</ele><time>2026-04-03T14:06:16.101Z</time></trkpt><trkpt lat="45.8977272" lon="12.0850533"><ele>167.0</ele><time>2026-04-03T14:06:17.095Z</time></trkpt><trkpt lat="45.8978521" lon="12.0850262"><ele>167.5</ele><time>2026-04-03T14:06:18.056Z</time></trkpt><trkpt lat="45.8979763" lon="12.0849694"><ele>168.0</ele><time>2026-04-03T14:06:19.058Z</time></trkpt><trkpt lat="45.898107" lon="12.08487"><ele>168.0</ele><time>2026-04-03T14:06:20.232Z</time></trkpt><trkpt lat="45.8982791" lon="12.0846808"><ele>168.0</ele><time>2026-04-03T14:06:22.048Z</time></trkpt><trkpt lat="45.898377" lon="12.0845769"><ele>168.0</ele><time>2026-04-03T14:06:23.081Z</time></trkpt><trkpt lat="45.8984776" lon="12.0844671"><ele>168.75</ele><time>2026-04-03T14:06:24.125Z</time></trkpt><trkpt lat="45.898568" lon="12.0843666"><ele>169.5</ele><time>2026-04-03T14:06:25.123Z</time></trkpt><trkpt lat="45.8986537" lon="12.0842723"><ele>170.25</ele><time>2026-04-03T14:06:26.07Z</time></trkpt><trkpt lat="45.8987427" lon="12.0841635"><ele>171.0</ele><time>2026-04-03T14:06:27.121Z</time></trkpt><trkpt lat="45.8988278" lon="12.0840593"><ele>171.0</ele><time>2026-04-03T14:06:28.082Z</time></trkpt><trkpt lat="45.89892" lon="12.0839561"><ele>171.0</ele><time>2026-04-03T14:06:29.033Z</time></trkpt><trkpt lat="45.8990211" lon="12.0838445"><ele>171.0</ele><time>2026-04-03T14:06:30.084Z</time></trkpt><trkpt lat="45.8991062" lon="12.0837393"><ele>171.0</ele><time>2026-04-03T14:06:31.162Z</time></trkpt><trkpt lat="45.8991855" lon="12.0836531"><ele>172.25</ele><time>2026-04-03T14:06:32.067Z</time></trkpt><trkpt lat="45.8992751" lon="12.0835406"><ele>173.5</ele><time>2026-04-03T14:06:33.054Z</time></trkpt><trkpt lat="45.8993808" lon="12.0834161"><ele>174.75</ele><time>2026-04-03T14:06:34.11Z</time></trkpt><trkpt lat="45.8994813" lon="12.0832916"><ele>176.0</ele><time>2026-04-03T14:06:35.108Z</time></trkpt><trkpt lat="45.8995773" lon="12.0831692"><ele>176.0</ele><time>2026-04-03T14:06:36.077Z</time></trkpt><trkpt lat="45.8997003" lon="12.0830297"><ele>176.0</ele><time>2026-04-03T14:06:37.087Z</time></trkpt><trkpt lat="45.8998133" lon="12.0828964"><ele>176.0</ele><time>2026-04-03T14:06:38.159Z</time></trkpt><trkpt lat="45.8998979" lon="12.0827861"><ele>176.0</ele><time>2026-04-03T14:06:39.065Z</time></trkpt><trkpt lat="45.8999844" lon="12.0826759"><ele>176.0</ele><time>2026-04-03T14:06:40.056Z</time></trkpt><trkpt lat="45.900075" lon="12.0825576"><ele>176.0</ele><time>2026-04-03T14:06:41.155Z</time></trkpt><trkpt lat="45.9001521" lon="12.082467"><ele>176.0</ele><time>2026-04-03T14:06:42.114Z</time></trkpt><trkpt lat="45.900226" lon="12.0823908"><ele>176.0</ele><time>2026-04-03T14:06:43.071Z</time></trkpt><trkpt lat="45.9003023" lon="12.0823099"><ele>176.0</ele><time>2026-04-03T14:06:44.104Z</time></trkpt><trkpt lat="45.9003736" lon="12.0822341"><ele>175.66666666666666</ele><time>2026-04-03T14:06:45.146Z</time></trkpt><trkpt lat="45.9005574" lon="12.0820517"><ele>175.33333333333334</ele><time>2026-04-03T14:06:47.013Z</time></trkpt><trkpt lat="45.9006786" lon="12.0819198"><ele>175.0</ele><time>2026-04-03T14:06:48.101Z</time></trkpt><trkpt lat="45.9008046" lon="12.081784"><ele>175.0</ele><time>2026-04-03T14:06:49.063Z</time></trkpt><trkpt lat="45.9009384" lon="12.0816254"><ele>175.0</ele><time>2026-04-03T14:06:50.041Z</time></trkpt><trkpt lat="45.9011041" lon="12.0814365"><ele>175.0</ele><time>2026-04-03T14:06:51.095Z</time></trkpt><trkpt lat="45.9012568" lon="12.0812753"><ele>175.0</ele><time>2026-04-03T14:06:52.081Z</time></trkpt><trkpt lat="45.9014128" lon="12.0811336"><ele>175.0</ele><time>2026-04-03T14:06:53.059Z</time></trkpt><trkpt lat="45.9015704" lon="12.0810083"><ele>175.0</ele><time>2026-04-03T14:06:54.038Z</time></trkpt><trkpt lat="45.9017257" lon="12.0808884"><ele>175.0</ele><time>2026-04-03T14:06:55.054Z</time></trkpt><trkpt lat="45.9018887" lon="12.0807568"><ele>175.0</ele><time>2026-04-03T14:06:56.101Z</time></trkpt><trkpt lat="45.9020497" lon="12.080632"><ele>175.0</ele><time>2026-04-03T14:06:57.119Z</time></trkpt><trkpt lat="45.902198" lon="12.0805246"><ele>175.0</ele><time>2026-04-03T14:06:58.035Z</time></trkpt><trkpt lat="45.90236" lon="12.080405"><ele>175.0</ele><time>2026-04-03T14:06:59.057Z</time></trkpt><trkpt lat="45.9025137" lon="12.0802951"><ele>175.0</ele><time>2026-04-03T14:07:00.035Z</time></trkpt><trkpt lat="45.9026626" lon="12.0801871"><ele>176.0</ele><time>2026-04-03T14:07:01.019Z</time></trkpt><trkpt lat="45.9028206" lon="12.080074"><ele>177.0</ele><time>2026-04-03T14:07:02.089Z</time></trkpt><trkpt lat="45.9029646" lon="12.0799734"><ele>178.0</ele><time>2026-04-03T14:07:03.081Z</time></trkpt><trkpt lat="45.9031067" lon="12.0798625"><ele>178.0</ele><time>2026-04-03T14:07:04.066Z</time></trkpt><trkpt lat="45.9032641" lon="12.0797451"><ele>178.0</ele><time>2026-04-03T14:07:05.045Z</time></trkpt><trkpt lat="45.9034487" lon="12.0796042"><ele>178.0</ele><time>2026-04-03T14:07:06.07Z</time></trkpt><trkpt lat="45.9036448" lon="12.0794579"><ele>178.33333333333334</ele><time>2026-04-03T14:07:07.085Z</time></trkpt><trkpt lat="45.9038204" lon="12.0793168"><ele>178.66666666666666</ele><time>2026-04-03T14:07:08.055Z</time></trkpt><trkpt lat="45.903986" lon="12.0791934"><ele>179.0</ele><time>2026-04-03T14:07:09.045Z</time></trkpt><trkpt lat="45.9041427" lon="12.0790764"><ele>181.0</ele><time>2026-04-03T14:07:10.06Z</time></trkpt><trkpt lat="45.9042878" lon="12.078969"><ele>183.0</ele><time>2026-04-03T14:07:11.065Z</time></trkpt><trkpt lat="45.9044232" lon="12.0788695"><ele>185.0</ele><time>2026-04-03T14:07:12.076Z</time></trkpt><trkpt lat="45.9045459" lon="12.078778"><ele>185.0</ele><time>2026-04-03T14:07:13.046Z</time></trkpt><trkpt lat="45.9046843" lon="12.0786695"><ele>185.0</ele><time>2026-04-03T14:07:14.09Z</time></trkpt><trkpt lat="45.9048204" lon="12.0785415"><ele>185.0</ele><time>2026-04-03T14:07:15.016Z</time></trkpt><trkpt lat="45.9049694" lon="12.0783782"><ele>185.33333333333331</ele><time>2026-04-03T14:07:15.983Z</time></trkpt><trkpt lat="45.9051236" lon="12.0782036"><ele>185.66666666666666</ele><time>2026-04-03T14:07:17.033Z</time></trkpt><trkpt lat="45.905262" lon="12.0780457"><ele>186.0</ele><time>2026-04-03T14:07:18.038Z</time></trkpt><trkpt lat="45.9054055" lon="12.0778831"><ele>186.0</ele><time>2026-04-03T14:07:18.975Z</time></trkpt><trkpt lat="45.9055736" lon="12.0776816"><ele>186.0</ele><time>2026-04-03T14:07:20.006Z</time></trkpt><trkpt lat="45.9057624" lon="12.0774461"><ele>186.0</ele><time>2026-04-03T14:07:21.138Z</time></trkpt><trkpt lat="45.9059081" lon="12.077258"><ele>186.0</ele><time>2026-04-03T14:07:22.049Z</time></trkpt><trkpt lat="45.9060563" lon="12.077072"><ele>186.0</ele><time>2026-04-03T14:07:22.984Z</time></trkpt><trkpt lat="45.90621" lon="12.0768848"><ele>186.66666666666666</ele><time>2026-04-03T14:07:24.006Z</time></trkpt><trkpt lat="45.9063695" lon="12.0767119"><ele>187.33333333333331</ele><time>2026-04-03T14:07:25.087Z</time></trkpt><trkpt lat="45.9064998" lon="12.0766038"><ele>188.0</ele><time>2026-04-03T14:07:26.014Z</time></trkpt><trkpt lat="45.9066438" lon="12.0765172"><ele>188.66666666666666</ele><time>2026-04-03T14:07:27.021Z</time></trkpt><trkpt lat="45.9068113" lon="12.0764614"><ele>189.33333333333334</ele><time>2026-04-03T14:07:28.035Z</time></trkpt><trkpt lat="45.9069851" lon="12.0764274"><ele>190.0</ele><time>2026-04-03T14:07:28.991Z</time></trkpt><trkpt lat="45.9071445" lon="12.0763911"><ele>190.0</ele><time>2026-04-03T14:07:30.007Z</time></trkpt><trkpt lat="45.9072666" lon="12.0763507"><ele>190.0</ele><time>2026-04-03T14:07:31.029Z</time></trkpt><trkpt lat="45.9073636" lon="12.0763218"><ele>190.0</ele><time>2026-04-03T14:07:32Z</time></trkpt><trkpt lat="45.9074617" lon="12.0762966"><ele>190.0</ele><time>2026-04-03T14:07:33.001Z</time></trkpt><trkpt lat="45.9075494" lon="12.0762728"><ele>190.0</ele><time>2026-04-03T14:07:34.034Z</time></trkpt><trkpt lat="45.907658" lon="12.0762434"><ele>190.25</ele><time>2026-04-03T14:07:35.114Z</time></trkpt><trkpt lat="45.9077573" lon="12.0762139"><ele>190.5</ele><time>2026-04-03T14:07:36.028Z</time></trkpt><trkpt lat="45.9078723" lon="12.0761703"><ele>190.75</ele><time>2026-04-03T14:07:37.001Z</time></trkpt><trkpt lat="45.9080114" lon="12.0761264"><ele>191.0</ele><time>2026-04-03T14:07:38.029Z</time></trkpt><trkpt lat="45.9081798" lon="12.0761039"><ele>193.5</ele><time>2026-04-03T14:07:39.121Z</time></trkpt><trkpt lat="45.9085267" lon="12.0761484"><ele>196.0</ele><time>2026-04-03T14:07:41.032Z</time></trkpt><trkpt lat="45.908734" lon="12.0761951"><ele>196.0</ele><time>2026-04-03T14:07:42.056Z</time></trkpt><trkpt lat="45.9089795" lon="12.0762505"><ele>196.0</ele><time>2026-04-03T14:07:43.152Z</time></trkpt><trkpt lat="45.9094124" lon="12.0763357"><ele>195.33333333333331</ele><time>2026-04-03T14:07:44.987Z</time></trkpt><trkpt lat="45.9096363" lon="12.0763921"><ele>194.66666666666669</ele><time>2026-04-03T14:07:46.025Z</time></trkpt><trkpt lat="45.9098311" lon="12.0764432"><ele>194.0</ele><time>2026-04-03T14:07:47.053Z</time></trkpt><trkpt lat="45.9099864" lon="12.0764813"><ele>195.66666666666669</ele><time>2026-04-03T14:07:48.036Z</time></trkpt><trkpt lat="45.9101239" lon="12.0765314"><ele>197.33333333333331</ele><time>2026-04-03T14:07:48.985Z</time></trkpt><trkpt lat="45.9102718" lon="12.076625"><ele>199.0</ele><time>2026-04-03T14:07:50.014Z</time></trkpt><trkpt lat="45.9104221" lon="12.0767657"><ele>199.0</ele><time>2026-04-03T14:07:51Z</time></trkpt><trkpt lat="45.910574" lon="12.0769473"><ele>199.0</ele><time>2026-04-03T14:07:52.013Z</time></trkpt><trkpt lat="45.9107218" lon="12.0771211"><ele>199.0</ele><time>2026-04-03T14:07:53.035Z</time></trkpt><trkpt lat="45.9108413" lon="12.0772632"><ele>199.39999999999998</ele><time>2026-04-03T14:07:54.027Z</time></trkpt><trkpt lat="45.9109324" lon="12.0773666"><ele>199.8</ele><time>2026-04-03T14:07:54.998Z</time></trkpt><trkpt lat="45.9110119" lon="12.0774468"><ele>200.2</ele><time>2026-04-03T14:07:56.022Z</time></trkpt><trkpt lat="45.9110864" lon="12.0774779"><ele>200.60000000000002</ele><time>2026-04-03T14:07:57.05Z</time></trkpt><trkpt lat="45.911188" lon="12.0774111"><ele>201.0</ele><time>2026-04-03T14:07:58.993Z</time></trkpt><trkpt lat="45.9112412" lon="12.0773621"><ele>201.0</ele><time>2026-04-03T14:08:00.037Z</time></trkpt><trkpt lat="45.9113369" lon="12.0773572"><ele>201.0</ele><time>2026-04-03T14:08:02.012Z</time></trkpt><trkpt lat="45.9113788" lon="12.0774277"><ele>201.0</ele><time>2026-04-03T14:08:02.985Z</time></trkpt><trkpt lat="45.911447" lon="12.0775791"><ele>201.0</ele><time>2026-04-03T14:08:04.089Z</time></trkpt><trkpt lat="45.9115295" lon="12.0777307"><ele>201.0</ele><time>2026-04-03T14:08:05.04Z</time></trkpt><trkpt lat="45.9116172" lon="12.0778816"><ele>201.0</ele><time>2026-04-03T14:08:06.032Z</time></trkpt><trkpt lat="45.9117123" lon="12.0780007"><ele>201.0</ele><time>2026-04-03T14:08:07.04Z</time></trkpt><trkpt lat="45.9118102" lon="12.0780669"><ele>201.0</ele><time>2026-04-03T14:08:08.025Z</time></trkpt><trkpt lat="45.9119066" lon="12.0780698"><ele>201.0</ele><time>2026-04-03T14:08:09.075Z</time></trkpt><trkpt lat="45.9119944" lon="12.0780263"><ele>201.0</ele><time>2026-04-03T14:08:10.039Z</time></trkpt><trkpt lat="45.9121016" lon="12.077928"><ele>202.33333333333331</ele><time>2026-04-03T14:08:11.027Z</time></trkpt><trkpt lat="45.9122222" lon="12.077775"><ele>203.66666666666666</ele><time>2026-04-03T14:08:12.05Z</time></trkpt><trkpt lat="45.9123639" lon="12.0775942"><ele>205.0</ele><time>2026-04-03T14:08:13.066Z</time></trkpt><trkpt lat="45.9125203" lon="12.077415"><ele>208.66666666666666</ele><time>2026-04-03T14:08:14.05Z</time></trkpt><trkpt lat="45.9126582" lon="12.0772493"><ele>212.33333333333331</ele><time>2026-04-03T14:08:15.023Z</time></trkpt><trkpt lat="45.9127965" lon="12.0770807"><ele>216.0</ele><time>2026-04-03T14:08:16.105Z</time></trkpt><trkpt lat="45.9129283" lon="12.0769579"><ele>216.0</ele><time>2026-04-03T14:08:17.065Z</time></trkpt><trkpt lat="45.913093" lon="12.0768429"><ele>216.0</ele><time>2026-04-03T14:08:18.017Z</time></trkpt><trkpt lat="45.9132742" lon="12.0767405"><ele>216.0</ele><time>2026-04-03T14:08:19.087Z</time></trkpt><trkpt lat="45.9134216" lon="12.0766663"><ele>215.8</ele><time>2026-04-03T14:08:20.06Z</time></trkpt><trkpt lat="45.9135438" lon="12.0766172"><ele>215.60000000000002</ele><time>2026-04-03T14:08:21.063Z</time></trkpt><trkpt lat="45.9136368" lon="12.076603"><ele>215.4</ele><time>2026-04-03T14:08:22.018Z</time></trkpt><trkpt lat="45.9137275" lon="12.0766372"><ele>215.2</ele><time>2026-04-03T14:08:23.102Z</time></trkpt><trkpt lat="45.9137978" lon="12.0767155"><ele>215.0</ele><time>2026-04-03T14:08:24.08Z</time></trkpt><trkpt lat="45.9138644" lon="12.076847"><ele>215.0</ele><time>2026-04-03T14:08:25.102Z</time></trkpt><trkpt lat="45.9139367" lon="12.0770166"><ele>215.0</ele><time>2026-04-03T14:08:26.055Z</time></trkpt><trkpt lat="45.914049" lon="12.0772242"><ele>215.0</ele><time>2026-04-03T14:08:27.087Z</time></trkpt><trkpt lat="45.9141727" lon="12.0774087"><ele>216.0</ele><time>2026-04-03T14:08:28.122Z</time></trkpt><trkpt lat="45.9142761" lon="12.0775551"><ele>217.0</ele><time>2026-04-03T14:08:29.059Z</time></trkpt><trkpt lat="45.9143513" lon="12.0776943"><ele>218.0</ele><time>2026-04-03T14:08:30.025Z</time></trkpt><trkpt lat="45.9143727" lon="12.077823"><ele>219.0</ele><time>2026-04-03T14:08:31.076Z</time></trkpt><trkpt lat="45.9144087" lon="12.0779707"><ele>219.0</ele><time>2026-04-03T14:08:32.069Z</time></trkpt><trkpt lat="45.9144796" lon="12.0781285"><ele>219.0</ele><time>2026-04-03T14:08:33.206Z</time></trkpt><trkpt lat="45.9147243" lon="12.0783598"><ele>219.0</ele><time>2026-04-03T14:08:35.05Z</time></trkpt><trkpt lat="45.9148922" lon="12.0784916"><ele>220.66666666666669</ele><time>2026-04-03T14:08:36.066Z</time></trkpt><trkpt lat="45.9150715" lon="12.0786191"><ele>222.33333333333334</ele><time>2026-04-03T14:08:37.07Z</time></trkpt><trkpt lat="45.9152749" lon="12.078752"><ele>224.0</ele><time>2026-04-03T14:08:38.084Z</time></trkpt><trkpt lat="45.9154987" lon="12.0788928"><ele>224.0</ele><time>2026-04-03T14:08:39.095Z</time></trkpt><trkpt lat="45.9157308" lon="12.079017"><ele>224.0</ele><time>2026-04-03T14:08:40.097Z</time></trkpt><trkpt lat="45.9159383" lon="12.0791396"><ele>221.66666666666669</ele><time>2026-04-03T14:08:41.072Z</time></trkpt><trkpt lat="45.9161537" lon="12.079268"><ele>219.33333333333331</ele><time>2026-04-03T14:08:42.116Z</time></trkpt><trkpt lat="45.9163521" lon="12.0793658"><ele>217.0</ele><time>2026-04-03T14:08:43.074Z</time></trkpt><trkpt lat="45.9165612" lon="12.0794563"><ele>219.0</ele><time>2026-04-03T14:08:44.068Z</time></trkpt><trkpt lat="45.9167719" lon="12.0795418"><ele>221.0</ele><time>2026-04-03T14:08:45.166Z</time></trkpt><trkpt lat="45.9169104" lon="12.079624"><ele>223.0</ele><time>2026-04-03T14:08:46.076Z</time></trkpt><trkpt lat="45.9170236" lon="12.0797258"><ele>223.0</ele><time>2026-04-03T14:08:47.027Z</time></trkpt><trkpt lat="45.9171246" lon="12.0798889"><ele>223.0</ele><time>2026-04-03T14:08:48.095Z</time></trkpt><trkpt lat="45.9172145" lon="12.0800837"><ele>223.0</ele><time>2026-04-03T14:08:49.062Z</time></trkpt><trkpt lat="45.917339" lon="12.0803179"><ele>223.0</ele><time>2026-04-03T14:08:50.086Z</time></trkpt><trkpt lat="45.9174774" lon="12.0805272"><ele>223.0</ele><time>2026-04-03T14:08:51.063Z</time></trkpt><trkpt lat="45.9176243" lon="12.0807316"><ele>223.0</ele><time>2026-04-03T14:08:52.048Z</time></trkpt><trkpt lat="45.9177752" lon="12.0809507"><ele>223.0</ele><time>2026-04-03T14:08:53.125Z</time></trkpt><trkpt lat="45.9178964" lon="12.0811132"><ele>223.0</ele><time>2026-04-03T14:08:54.029Z</time></trkpt><trkpt lat="45.9180158" lon="12.0812743"><ele>223.0</ele><time>2026-04-03T14:08:55.036Z</time></trkpt><trkpt lat="45.9181131" lon="12.0814271"><ele>223.0</ele><time>2026-04-03T14:08:56.06Z</time></trkpt><trkpt lat="45.9181651" lon="12.0815663"><ele>223.0</ele><time>2026-04-03T14:08:57.053Z</time></trkpt><trkpt lat="45.918197" lon="12.081729"><ele>223.0</ele><time>2026-04-03T14:08:58.077Z</time></trkpt><trkpt lat="45.9182318" lon="12.0819344"><ele>223.0</ele><time>2026-04-03T14:08:59.065Z</time></trkpt><trkpt lat="45.9182777" lon="12.0822584"><ele>223.75</ele><time>2026-04-03T14:09:00.059Z</time></trkpt><trkpt lat="45.9183022" lon="12.0824995"><ele>224.5</ele><time>2026-04-03T14:09:01.096Z</time></trkpt><trkpt lat="45.9183123" lon="12.0826964"><ele>225.25</ele><time>2026-04-03T14:09:02.05Z</time></trkpt><trkpt lat="45.9182942" lon="12.0828747"><ele>226.0</ele><time>2026-04-03T14:09:03.043Z</time></trkpt><trkpt lat="45.918239" lon="12.0830464"><ele>226.0</ele><time>2026-04-03T14:09:04.081Z</time></trkpt><trkpt lat="45.9181561" lon="12.0831698"><ele>226.0</ele><time>2026-04-03T14:09:05.05Z</time></trkpt><trkpt lat="45.918027" lon="12.0832684"><ele>226.0</ele><time>2026-04-03T14:09:06.023Z</time></trkpt><trkpt lat="45.9178886" lon="12.0833429"><ele>226.0</ele><time>2026-04-03T14:09:07.064Z</time></trkpt><trkpt lat="45.917784" lon="12.0834321"><ele>226.20000000000002</ele><time>2026-04-03T14:09:08.067Z</time></trkpt><trkpt lat="45.9177243" lon="12.0835603"><ele>226.40000000000003</ele><time>2026-04-03T14:09:09.057Z</time></trkpt><trkpt lat="45.9177002" lon="12.0837113"><ele>226.6</ele><time>2026-04-03T14:09:10.051Z</time></trkpt><trkpt lat="45.9177051" lon="12.0838527"><ele>226.8</ele><time>2026-04-03T14:09:11.045Z</time></trkpt><trkpt lat="45.9177259" lon="12.0839731"><ele>227.0</ele><time>2026-04-03T14:09:12.032Z</time></trkpt><trkpt lat="45.9177715" lon="12.0840644"><ele>227.0</ele><time>2026-04-03T14:09:13.035Z</time></trkpt><trkpt lat="45.9178429" lon="12.0841087"><ele>227.0</ele><time>2026-04-03T14:09:14.064Z</time></trkpt><trkpt lat="45.9179218" lon="12.0841004"><ele>227.0</ele><time>2026-04-03T14:09:15.035Z</time></trkpt><trkpt lat="45.9180161" lon="12.0840466"><ele>227.0</ele><time>2026-04-03T14:09:16.028Z</time></trkpt><trkpt lat="45.9181182" lon="12.083963"><ele>227.0</ele><time>2026-04-03T14:09:17.048Z</time></trkpt><trkpt lat="45.9182117" lon="12.0839095"><ele>227.0</ele><time>2026-04-03T14:09:18.05Z</time></trkpt><trkpt lat="45.9183401" lon="12.0839209"><ele>227.0</ele><time>2026-04-03T14:09:19.024Z</time></trkpt><trkpt lat="45.9185096" lon="12.0839817"><ele>227.0</ele><time>2026-04-03T14:09:20.029Z</time></trkpt><trkpt lat="45.9186912" lon="12.0840771"><ele>233.0</ele><time>2026-04-03T14:09:21.056Z</time></trkpt><trkpt lat="45.9188324" lon="12.0841875"><ele>239.0</ele><time>2026-04-03T14:09:22.036Z</time></trkpt><trkpt lat="45.9189578" lon="12.0843186"><ele>245.0</ele><time>2026-04-03T14:09:23.055Z</time></trkpt><trkpt lat="45.9190527" lon="12.0844671"><ele>245.0</ele><time>2026-04-03T14:09:24.033Z</time></trkpt><trkpt lat="45.9191352" lon="12.0846412"><ele>245.0</ele><time>2026-04-03T14:09:25.075Z</time></trkpt><trkpt lat="45.919209" lon="12.0848472"><ele>245.0</ele><time>2026-04-03T14:09:26.072Z</time></trkpt><trkpt lat="45.9192761" lon="12.0850846"><ele>244.33333333333334</ele><time>2026-04-03T14:09:27.091Z</time></trkpt><trkpt lat="45.9193556" lon="12.0853563"><ele>243.66666666666669</ele><time>2026-04-03T14:09:28.037Z</time></trkpt><trkpt lat="45.919457" lon="12.0856734"><ele>243.0</ele><time>2026-04-03T14:09:29.067Z</time></trkpt><trkpt lat="45.919569" lon="12.0859606"><ele>243.0</ele><time>2026-04-03T14:09:30.079Z</time></trkpt><trkpt lat="45.9196804" lon="12.0862214"><ele>243.0</ele><time>2026-04-03T14:09:31.051Z</time></trkpt><trkpt lat="45.9197773" lon="12.086474"><ele>243.0</ele><time>2026-04-03T14:09:32.041Z</time></trkpt><trkpt lat="45.9198833" lon="12.0867436"><ele>243.0</ele><time>2026-04-03T14:09:33.041Z</time></trkpt><trkpt lat="45.9199968" lon="12.087039"><ele>243.0</ele><time>2026-04-03T14:09:34.102Z</time></trkpt><trkpt lat="45.9200851" lon="12.0872922"><ele>243.0</ele><time>2026-04-03T14:09:35.047Z</time></trkpt><trkpt lat="45.9201686" lon="12.0875613"><ele>242.0</ele><time>2026-04-03T14:09:36.04Z</time></trkpt><trkpt lat="45.9202355" lon="12.0878223"><ele>241.0</ele><time>2026-04-03T14:09:37.046Z</time></trkpt><trkpt lat="45.9202884" lon="12.0880727"><ele>240.0</ele><time>2026-04-03T14:09:38.06Z</time></trkpt><trkpt lat="45.9203373" lon="12.0882966"><ele>239.0</ele><time>2026-04-03T14:09:39.026Z</time></trkpt><trkpt lat="45.9204037" lon="12.0885194"><ele>238.0</ele><time>2026-04-03T14:09:40.102Z</time></trkpt><trkpt lat="45.9204838" lon="12.0886836"><ele>237.0</ele><time>2026-04-03T14:09:41.046Z</time></trkpt><trkpt lat="45.9206016" lon="12.0888602"><ele>237.0</ele><time>2026-04-03T14:09:42.051Z</time></trkpt><trkpt lat="45.9207495" lon="12.0890592"><ele>237.0</ele><time>2026-04-03T14:09:43.037Z</time></trkpt><trkpt lat="45.9209095" lon="12.0893021"><ele>237.0</ele><time>2026-04-03T14:09:44.034Z</time></trkpt><trkpt lat="45.9210729" lon="12.0895757"><ele>236.33333333333331</ele><time>2026-04-03T14:09:45.078Z</time></trkpt><trkpt lat="45.9212079" lon="12.0898154"><ele>235.66666666666666</ele><time>2026-04-03T14:09:46.064Z</time></trkpt><trkpt lat="45.9213316" lon="12.0900355"><ele>235.0</ele><time>2026-04-03T14:09:47.02Z</time></trkpt><trkpt lat="45.9214559" lon="12.0902585"><ele>233.5</ele><time>2026-04-03T14:09:48.053Z</time></trkpt><trkpt lat="45.9215807" lon="12.0904921"><ele>232.0</ele><time>2026-04-03T14:09:49.169Z</time></trkpt><trkpt lat="45.9217538" lon="12.0908932"><ele>230.66666666666666</ele><time>2026-04-03T14:09:51.02Z</time></trkpt><trkpt lat="45.9218408" lon="12.0911247"><ele>229.33333333333331</ele><time>2026-04-03T14:09:52.062Z</time></trkpt><trkpt lat="45.9219161" lon="12.0913761"><ele>228.0</ele><time>2026-04-03T14:09:53.039Z</time></trkpt><trkpt lat="45.9219837" lon="12.0916519"><ele>227.66666666666669</ele><time>2026-04-03T14:09:54.058Z</time></trkpt><trkpt lat="45.9220354" lon="12.0919096"><ele>227.33333333333334</ele><time>2026-04-03T14:09:55.042Z</time></trkpt><trkpt lat="45.9220883" lon="12.0921776"><ele>227.0</ele><time>2026-04-03T14:09:56.048Z</time></trkpt><trkpt lat="45.9221689" lon="12.0924644"><ele>226.5</ele><time>2026-04-03T14:09:57.058Z</time></trkpt><trkpt lat="45.9222731" lon="12.0927697"><ele>226.0</ele><time>2026-04-03T14:09:58.076Z</time></trkpt><trkpt lat="45.9223804" lon="12.0930589"><ele>226.0</ele><time>2026-04-03T14:09:59.061Z</time></trkpt><trkpt lat="45.9224636" lon="12.0933337"><ele>226.0</ele><time>2026-04-03T14:10:00.044Z</time></trkpt><trkpt lat="45.9225509" lon="12.0935892"><ele>226.0</ele><time>2026-04-03T14:10:01.035Z</time></trkpt><trkpt lat="45.9226572" lon="12.0938479"><ele>223.33333333333331</ele><time>2026-04-03T14:10:02.09Z</time></trkpt><trkpt lat="45.922769" lon="12.0940658"><ele>220.66666666666669</ele><time>2026-04-03T14:10:03.02Z</time></trkpt><trkpt lat="45.9229122" lon="12.0942984"><ele>218.0</ele><time>2026-04-03T14:10:04.082Z</time></trkpt><trkpt lat="45.9230489" lon="12.0944945"><ele>217.66666666666669</ele><time>2026-04-03T14:10:05.048Z</time></trkpt><trkpt lat="45.9231926" lon="12.094701"><ele>217.33333333333331</ele><time>2026-04-03T14:10:06.049Z</time></trkpt><trkpt lat="45.9233355" lon="12.0949218"><ele>217.0</ele><time>2026-04-03T14:10:07.053Z</time></trkpt><trkpt lat="45.9234707" lon="12.0951534"><ele>217.66666666666666</ele><time>2026-04-03T14:10:08.026Z</time></trkpt><trkpt lat="45.9236058" lon="12.0953927"><ele>218.33333333333331</ele><time>2026-04-03T14:10:09.015Z</time></trkpt><trkpt lat="45.9237432" lon="12.0956434"><ele>219.0</ele><time>2026-04-03T14:10:10.029Z</time></trkpt><trkpt lat="45.9238787" lon="12.0958926"><ele>218.66666666666669</ele><time>2026-04-03T14:10:11.026Z</time></trkpt><trkpt lat="45.9240177" lon="12.0961345"><ele>218.33333333333334</ele><time>2026-04-03T14:10:12.057Z</time></trkpt><trkpt lat="45.9241469" lon="12.0963698"><ele>218.0</ele><time>2026-04-03T14:10:13.03Z</time></trkpt><trkpt lat="45.9242845" lon="12.096625"><ele>218.0</ele><time>2026-04-03T14:10:14.042Z</time></trkpt><trkpt lat="45.9244112" lon="12.0968503"><ele>218.0</ele><time>2026-04-03T14:10:15.038Z</time></trkpt><trkpt lat="45.9245622" lon="12.0970806"><ele>218.0</ele><time>2026-04-03T14:10:16.058Z</time></trkpt><trkpt lat="45.9247385" lon="12.0973"><ele>216.0</ele><time>2026-04-03T14:10:17.059Z</time></trkpt><trkpt lat="45.9249091" lon="12.0974942"><ele>214.0</ele><time>2026-04-03T14:10:18.052Z</time></trkpt><trkpt lat="45.9250665" lon="12.0976733"><ele>212.0</ele><time>2026-04-03T14:10:19.037Z</time></trkpt><trkpt lat="45.9252244" lon="12.097877"><ele>212.0</ele><time>2026-04-03T14:10:20.049Z</time></trkpt><trkpt lat="45.9253564" lon="12.0980856"><ele>212.0</ele><time>2026-04-03T14:10:21.019Z</time></trkpt><trkpt lat="45.9254796" lon="12.0983158"><ele>212.0</ele><time>2026-04-03T14:10:22.02Z</time></trkpt><trkpt lat="45.9255971" lon="12.0985679"><ele>210.0</ele><time>2026-04-03T14:10:23.027Z</time></trkpt><trkpt lat="45.9256996" lon="12.0988387"><ele>208.0</ele><time>2026-04-03T14:10:24.016Z</time></trkpt><trkpt lat="45.9257926" lon="12.0991117"><ele>206.0</ele><time>2026-04-03T14:10:25.025Z</time></trkpt><trkpt lat="45.9258724" lon="12.0993497"><ele>206.33333333333334</ele><time>2026-04-03T14:10:26.035Z</time></trkpt><trkpt lat="45.9259306" lon="12.0995903"><ele>206.66666666666669</ele><time>2026-04-03T14:10:27.027Z</time></trkpt><trkpt lat="45.925968" lon="12.0998764"><ele>207.0</ele><time>2026-04-03T14:10:28.018Z</time></trkpt><trkpt lat="45.9259802" lon="12.1001811"><ele>207.0</ele><time>2026-04-03T14:10:29.048Z</time></trkpt><trkpt lat="45.9259702" lon="12.1004475"><ele>207.0</ele><time>2026-04-03T14:10:30.051Z</time></trkpt><trkpt lat="45.9259616" lon="12.1006967"><ele>207.0</ele><time>2026-04-03T14:10:31.05Z</time></trkpt><trkpt lat="45.9259695" lon="12.1009322"><ele>206.33333333333331</ele><time>2026-04-03T14:10:32.057Z</time></trkpt><trkpt lat="45.9260098" lon="12.1011629"><ele>205.66666666666666</ele><time>2026-04-03T14:10:33.05Z</time></trkpt><trkpt lat="45.926074" lon="12.101412"><ele>205.0</ele><time>2026-04-03T14:10:34.017Z</time></trkpt><trkpt lat="45.9261775" lon="12.1016777"><ele>203.66666666666666</ele><time>2026-04-03T14:10:35.026Z</time></trkpt><trkpt lat="45.9262905" lon="12.1019055"><ele>202.33333333333331</ele><time>2026-04-03T14:10:36.043Z</time></trkpt><trkpt lat="45.9264014" lon="12.1021426"><ele>201.0</ele><time>2026-04-03T14:10:37.017Z</time></trkpt><trkpt lat="45.9264944" lon="12.1023928"><ele>200.33333333333331</ele><time>2026-04-03T14:10:38.027Z</time></trkpt><trkpt lat="45.9265508" lon="12.1026393"><ele>199.66666666666666</ele><time>2026-04-03T14:10:39.047Z</time></trkpt><trkpt lat="45.9265959" lon="12.1028698"><ele>199.0</ele><time>2026-04-03T14:10:40.031Z</time></trkpt><trkpt lat="45.9266722" lon="12.1030956"><ele>202.0</ele><time>2026-04-03T14:10:41.023Z</time></trkpt><trkpt lat="45.9267939" lon="12.103352"><ele>205.0</ele><time>2026-04-03T14:10:42.123Z</time></trkpt><trkpt lat="45.9270966" lon="12.103778"><ele>205.0</ele><time>2026-04-03T14:10:44.042Z</time></trkpt><trkpt lat="45.9272732" lon="12.1039752"><ele>205.0</ele><time>2026-04-03T14:10:45.061Z</time></trkpt><trkpt lat="45.9274503" lon="12.1041767"><ele>205.0</ele><time>2026-04-03T14:10:46.084Z</time></trkpt><trkpt lat="45.927651" lon="12.1043948"><ele>205.33333333333331</ele><time>2026-04-03T14:10:47.158Z</time></trkpt><trkpt lat="45.9278154" lon="12.104558"><ele>205.66666666666669</ele><time>2026-04-03T14:10:48.078Z</time></trkpt><trkpt lat="45.927981" lon="12.1047062"><ele>206.0</ele><time>2026-04-03T14:10:49.045Z</time></trkpt><trkpt lat="45.928158" lon="12.1048469"><ele>206.0</ele><time>2026-04-03T14:10:50.062Z</time></trkpt><trkpt lat="45.9283737" lon="12.1050141"><ele>206.0</ele><time>2026-04-03T14:10:51.169Z</time></trkpt><trkpt lat="45.9285649" lon="12.105176"><ele>206.0</ele><time>2026-04-03T14:10:52.155Z</time></trkpt><trkpt lat="45.9289202" lon="12.1055234"><ele>206.0</ele><time>2026-04-03T14:10:54.06Z</time></trkpt><trkpt lat="45.9290741" lon="12.1057071"><ele>206.25</ele><time>2026-04-03T14:10:55.074Z</time></trkpt><trkpt lat="45.9292085" lon="12.1058584"><ele>206.5</ele><time>2026-04-03T14:10:56.055Z</time></trkpt><trkpt lat="45.9293232" lon="12.1059861"><ele>206.75</ele><time>2026-04-03T14:10:57.039Z</time></trkpt><trkpt lat="45.9294222" lon="12.1061112"><ele>207.0</ele><time>2026-04-03T14:10:58.03Z</time></trkpt><trkpt lat="45.9295084" lon="12.1062277"><ele>207.25</ele><time>2026-04-03T14:10:59.035Z</time></trkpt><trkpt lat="45.9295878" lon="12.1063518"><ele>207.5</ele><time>2026-04-03T14:11:00.056Z</time></trkpt><trkpt lat="45.929659" lon="12.1064684"><ele>207.75</ele><time>2026-04-03T14:11:01.032Z</time></trkpt><trkpt lat="45.929728" lon="12.1065913"><ele>208.0</ele><time>2026-04-03T14:11:02.037Z</time></trkpt><trkpt lat="45.9298147" lon="12.1067193"><ele>208.0</ele><time>2026-04-03T14:11:03.067Z</time></trkpt><trkpt lat="45.9299025" lon="12.1068258"><ele>208.0</ele><time>2026-04-03T14:11:04.069Z</time></trkpt><trkpt lat="45.9299826" lon="12.106906"><ele>208.0</ele><time>2026-04-03T14:11:05.097Z</time></trkpt><trkpt lat="45.9300377" lon="12.1069761"><ele>208.0</ele><time>2026-04-03T14:11:06.058Z</time></trkpt><trkpt lat="45.9301051" lon="12.1070429"><ele>208.0</ele><time>2026-04-03T14:11:07.036Z</time></trkpt><trkpt lat="45.9301728" lon="12.1071101"><ele>206.99999999999997</ele><time>2026-04-03T14:11:08.077Z</time></trkpt><trkpt lat="45.9302426" lon="12.1072001"><ele>206.0</ele><time>2026-04-03T14:11:10.026Z</time></trkpt><trkpt lat="45.9302581" lon="12.1073193"><ele>205.0</ele><time>2026-04-03T14:11:13.082Z</time></trkpt><trkpt lat="45.930228" lon="12.107402"><ele>204.0</ele><time>2026-04-03T14:11:14.073Z</time></trkpt><trkpt lat="45.9302003" lon="12.1074886"><ele>202.99999999999997</ele><time>2026-04-03T14:11:15.047Z</time></trkpt><trkpt lat="45.9301768" lon="12.1075757"><ele>202.0</ele><time>2026-04-03T14:11:16.045Z</time></trkpt><trkpt lat="45.9301522" lon="12.1076799"><ele>201.8</ele><time>2026-04-03T14:11:17.07Z</time></trkpt><trkpt lat="45.9301293" lon="12.1077835"><ele>201.6</ele><time>2026-04-03T14:11:18.003Z</time></trkpt><trkpt lat="45.9300963" lon="12.10792"><ele>201.4</ele><time>2026-04-03T14:11:19.042Z</time></trkpt><trkpt lat="45.9300614" lon="12.1080931"><ele>201.20000000000002</ele><time>2026-04-03T14:11:20.129Z</time></trkpt><trkpt lat="45.9300262" lon="12.1082675"><ele>201.0</ele><time>2026-04-03T14:11:21.062Z</time></trkpt><trkpt lat="45.9299937" lon="12.1084497"><ele>201.25</ele><time>2026-04-03T14:11:22.04Z</time></trkpt><trkpt lat="45.9299674" lon="12.108686"><ele>201.5</ele><time>2026-04-03T14:11:23.141Z</time></trkpt><trkpt lat="45.9299437" lon="12.1088684"><ele>201.75</ele><time>2026-04-03T14:11:24.067Z</time></trkpt><trkpt lat="45.9299111" lon="12.1090592"><ele>202.0</ele><time>2026-04-03T14:11:25.062Z</time></trkpt><trkpt lat="45.9298865" lon="12.1092629"><ele>202.0</ele><time>2026-04-03T14:11:26.072Z</time></trkpt><trkpt lat="45.9298774" lon="12.1094936"><ele>202.0</ele><time>2026-04-03T14:11:27.139Z</time></trkpt><trkpt lat="45.9298817" lon="12.1096811"><ele>202.0</ele><time>2026-04-03T14:11:28.058Z</time></trkpt><trkpt lat="45.9298806" lon="12.1098599"><ele>202.0</ele><time>2026-04-03T14:11:29.032Z</time></trkpt><trkpt lat="45.9298675" lon="12.1100833"><ele>200.66666666666666</ele><time>2026-04-03T14:11:30.104Z</time></trkpt><trkpt lat="45.9298425" lon="12.1102811"><ele>199.33333333333331</ele><time>2026-04-03T14:11:31.091Z</time></trkpt><trkpt lat="45.9297954" lon="12.1104855"><ele>198.0</ele><time>2026-04-03T14:11:32.155Z</time></trkpt><trkpt lat="45.9296597" lon="12.1108075"><ele>196.25</ele><time>2026-04-03T14:11:34.048Z</time></trkpt><trkpt lat="45.9295703" lon="12.1109823"><ele>194.5</ele><time>2026-04-03T14:11:35.147Z</time></trkpt><trkpt lat="45.9294961" lon="12.1111279"><ele>192.75</ele><time>2026-04-03T14:11:36.06Z</time></trkpt><trkpt lat="45.9294184" lon="12.1112842"><ele>191.0</ele><time>2026-04-03T14:11:37.038Z</time></trkpt><trkpt lat="45.929339" lon="12.111447"><ele>191.0</ele><time>2026-04-03T14:11:38.081Z</time></trkpt><trkpt lat="45.9292741" lon="12.1116092"><ele>191.0</ele><time>2026-04-03T14:11:39.094Z</time></trkpt><trkpt lat="45.9292197" lon="12.1117768"><ele>191.0</ele><time>2026-04-03T14:11:40.071Z</time></trkpt><trkpt lat="45.9291761" lon="12.1119486"><ele>191.0</ele><time>2026-04-03T14:11:41.033Z</time></trkpt><trkpt lat="45.92913" lon="12.1121624"><ele>190.33333333333331</ele><time>2026-04-03T14:11:42.167Z</time></trkpt><trkpt lat="45.9290686" lon="12.1125208"><ele>189.66666666666666</ele><time>2026-04-03T14:11:44.025Z</time></trkpt><trkpt lat="45.9290377" lon="12.1127297"><ele>189.0</ele><time>2026-04-03T14:11:45.073Z</time></trkpt><trkpt lat="45.9290084" lon="12.1129495"><ele>189.33333333333334</ele><time>2026-04-03T14:11:46.168Z</time></trkpt><trkpt lat="45.9289554" lon="12.1133449"><ele>189.66666666666669</ele><time>2026-04-03T14:11:48.031Z</time></trkpt><trkpt lat="45.9289226" lon="12.1135666"><ele>190.0</ele><time>2026-04-03T14:11:49.063Z</time></trkpt><trkpt lat="45.9288877" lon="12.113775"><ele>190.0</ele><time>2026-04-03T14:11:50.045Z</time></trkpt><trkpt lat="45.9288515" lon="12.1139799"><ele>190.0</ele><time>2026-04-03T14:11:51.018Z</time></trkpt><trkpt lat="45.9288181" lon="12.1141977"><ele>190.0</ele><time>2026-04-03T14:11:52.017Z</time></trkpt><trkpt lat="45.9287865" lon="12.1144167"><ele>191.33333333333334</ele><time>2026-04-03T14:11:53.052Z</time></trkpt><trkpt lat="45.9287546" lon="12.1146375"><ele>192.66666666666669</ele><time>2026-04-03T14:11:54.008Z</time></trkpt><trkpt lat="45.9287262" lon="12.1149085"><ele>194.0</ele><time>2026-04-03T14:11:55.068Z</time></trkpt><trkpt lat="45.928711" lon="12.1152078"><ele>194.0</ele><time>2026-04-03T14:11:56.072Z</time></trkpt><trkpt lat="45.9287097" lon="12.1155165"><ele>194.0</ele><time>2026-04-03T14:11:57.035Z</time></trkpt><trkpt lat="45.9287169" lon="12.1158448"><ele>194.0</ele><time>2026-04-03T14:11:58.048Z</time></trkpt><trkpt lat="45.9287323" lon="12.1161441"><ele>194.0</ele><time>2026-04-03T14:11:59.059Z</time></trkpt><trkpt lat="45.9287564" lon="12.1164208"><ele>194.0</ele><time>2026-04-03T14:12:00.056Z</time></trkpt><trkpt lat="45.9288009" lon="12.1166962"><ele>194.0</ele><time>2026-04-03T14:12:01.024Z</time></trkpt><trkpt lat="45.9288709" lon="12.1170056"><ele>192.5</ele><time>2026-04-03T14:12:02.037Z</time></trkpt><trkpt lat="45.9289572" lon="12.1173047"><ele>191.0</ele><time>2026-04-03T14:12:03.011Z</time></trkpt><trkpt lat="45.9290523" lon="12.1176229"><ele>188.5</ele><time>2026-04-03T14:12:04.079Z</time></trkpt><trkpt lat="45.9291469" lon="12.1179285"><ele>186.0</ele><time>2026-04-03T14:12:05.023Z</time></trkpt><trkpt lat="45.9292544" lon="12.1182714"><ele>195.5</ele><time>2026-04-03T14:12:06.05Z</time></trkpt><trkpt lat="45.9293466" lon="12.1185794"><ele>205.0</ele><time>2026-04-03T14:12:07.016Z</time></trkpt><trkpt lat="45.9294325" lon="12.1188834"><ele>203.33333333333331</ele><time>2026-04-03T14:12:08.035Z</time></trkpt><trkpt lat="45.9295171" lon="12.119177"><ele>201.66666666666669</ele><time>2026-04-03T14:12:09.09Z</time></trkpt><trkpt lat="45.9295953" lon="12.119435"><ele>200.0</ele><time>2026-04-03T14:12:10.07Z</time></trkpt><trkpt lat="45.9296775" lon="12.1197081"><ele>197.33333333333334</ele><time>2026-04-03T14:12:11.023Z</time></trkpt><trkpt lat="45.9297679" lon="12.1200022"><ele>194.66666666666669</ele><time>2026-04-03T14:12:12.061Z</time></trkpt><trkpt lat="45.9298543" lon="12.1202846"><ele>192.0</ele><time>2026-04-03T14:12:13.054Z</time></trkpt><trkpt lat="45.9299382" lon="12.1205695"><ele>193.33333333333331</ele><time>2026-04-03T14:12:14.012Z</time></trkpt><trkpt lat="45.9300213" lon="12.1208578"><ele>194.66666666666666</ele><time>2026-04-03T14:12:15.011Z</time></trkpt><trkpt lat="45.9301025" lon="12.1211395"><ele>196.0</ele><time>2026-04-03T14:12:16.061Z</time></trkpt><trkpt lat="45.9301769" lon="12.121406"><ele>192.66666666666666</ele><time>2026-04-03T14:12:17.086Z</time></trkpt><trkpt lat="45.9302467" lon="12.1216459"><ele>189.33333333333331</ele><time>2026-04-03T14:12:18.018Z</time></trkpt><trkpt lat="45.9303223" lon="12.1218981"><ele>186.0</ele><time>2026-04-03T14:12:19.034Z</time></trkpt><trkpt lat="45.9303883" lon="12.1221352"><ele>186.0</ele><time>2026-04-03T14:12:20.027Z</time></trkpt><trkpt lat="45.930443" lon="12.1223715"><ele>186.0</ele><time>2026-04-03T14:12:21.031Z</time></trkpt><trkpt lat="45.930488" lon="12.1226023"><ele>186.0</ele><time>2026-04-03T14:12:22.029Z</time></trkpt><trkpt lat="45.9305331" lon="12.1228375"><ele>184.0</ele><time>2026-04-03T14:12:23.063Z</time></trkpt><trkpt lat="45.9305732" lon="12.1230574"><ele>182.0</ele><time>2026-04-03T14:12:24.049Z</time></trkpt><trkpt lat="45.9306128" lon="12.1232674"><ele>180.0</ele><time>2026-04-03T14:12:25.027Z</time></trkpt><trkpt lat="45.9306539" lon="12.1234884"><ele>178.75</ele><time>2026-04-03T14:12:26.093Z</time></trkpt><trkpt lat="45.9306864" lon="12.1236893"><ele>177.5</ele><time>2026-04-03T14:12:27.078Z</time></trkpt><trkpt lat="45.9307025" lon="12.1238749"><ele>176.25</ele><time>2026-04-03T14:12:28.035Z</time></trkpt><trkpt lat="45.9307107" lon="12.1240728"><ele>175.0</ele><time>2026-04-03T14:12:29.067Z</time></trkpt><trkpt lat="45.9306992" lon="12.1242743"><ele>174.66666666666669</ele><time>2026-04-03T14:12:30.048Z</time></trkpt><trkpt lat="45.9306704" lon="12.1244804"><ele>174.33333333333334</ele><time>2026-04-03T14:12:31.128Z</time></trkpt><trkpt lat="45.9306351" lon="12.1246546"><ele>174.0</ele><time>2026-04-03T14:12:32.035Z</time></trkpt><trkpt lat="45.930582" lon="12.1249046"><ele>174.0</ele><time>2026-04-03T14:12:33.087Z</time></trkpt><trkpt lat="45.9305366" lon="12.1251533"><ele>174.0</ele><time>2026-04-03T14:12:34.019Z</time></trkpt><trkpt lat="45.9304955" lon="12.1254287"><ele>174.0</ele><time>2026-04-03T14:12:35.032Z</time></trkpt><trkpt lat="45.9304607" lon="12.1257665"><ele>175.0</ele><time>2026-04-03T14:12:36.105Z</time></trkpt><trkpt lat="45.9304353" lon="12.1261072"><ele>176.0</ele><time>2026-04-03T14:12:37.07Z</time></trkpt><trkpt lat="45.9304128" lon="12.1264659"><ele>176.0</ele><time>2026-04-03T14:12:38.04Z</time></trkpt><trkpt lat="45.9303878" lon="12.1268353"><ele>176.0</ele><time>2026-04-03T14:12:39.076Z</time></trkpt><trkpt lat="45.9303641" lon="12.1271944"><ele>173.0</ele><time>2026-04-03T14:12:40.052Z</time></trkpt><trkpt lat="45.9303411" lon="12.1275528"><ele>170.0</ele><time>2026-04-03T14:12:41.08Z</time></trkpt><trkpt lat="45.93032" lon="12.1278928"><ele>170.0</ele><time>2026-04-03T14:12:42.099Z</time></trkpt><trkpt lat="45.930298" lon="12.1282241"><ele>170.0</ele><time>2026-04-03T14:12:43.059Z</time></trkpt><trkpt lat="45.9302779" lon="12.1285648"><ele>169.5</ele><time>2026-04-03T14:12:44.075Z</time></trkpt><trkpt lat="45.9302523" lon="12.1288983"><ele>169.0</ele><time>2026-04-03T14:12:45.04Z</time></trkpt><trkpt lat="45.9302406" lon="12.1292178"><ele>169.0</ele><time>2026-04-03T14:12:46.02Z</time></trkpt><trkpt lat="45.9302193" lon="12.1295614"><ele>169.0</ele><time>2026-04-03T14:12:47.057Z</time></trkpt><trkpt lat="45.9302017" lon="12.1298949"><ele>168.0</ele><time>2026-04-03T14:12:48.055Z</time></trkpt><trkpt lat="45.9301855" lon="12.130251"><ele>167.0</ele><time>2026-04-03T14:12:49.137Z</time></trkpt><trkpt lat="45.9301772" lon="12.1305568"><ele>166.33333333333331</ele><time>2026-04-03T14:12:50.117Z</time></trkpt><trkpt lat="45.9301622" lon="12.1308212"><ele>165.66666666666666</ele><time>2026-04-03T14:12:51.076Z</time></trkpt><trkpt lat="45.9301469" lon="12.1310603"><ele>165.0</ele><time>2026-04-03T14:12:52.065Z</time></trkpt><trkpt lat="45.9301309" lon="12.1312734"><ele>165.0</ele><time>2026-04-03T14:12:53.074Z</time></trkpt><trkpt lat="45.9301129" lon="12.1314607"><ele>165.0</ele><time>2026-04-03T14:12:54.111Z</time></trkpt><trkpt lat="45.9300947" lon="12.1315837"><ele>165.0</ele><time>2026-04-03T14:12:55.026Z</time></trkpt><trkpt lat="45.930056" lon="12.1316985"><ele>165.0</ele><time>2026-04-03T14:12:57.121Z</time></trkpt><trkpt lat="45.930124" lon="12.1316873"><ele>165.0</ele><time>2026-04-03T14:13:05.105Z</time></trkpt><trkpt lat="45.9301346" lon="12.1315141"><ele>165.0</ele><time>2026-04-03T14:13:07.07Z</time></trkpt><trkpt lat="45.9301451" lon="12.1313868"><ele>165.0</ele><time>2026-04-03T14:13:08.085Z</time></trkpt><trkpt lat="45.9301622" lon="12.1312559"><ele>165.0</ele><time>2026-04-03T14:13:09.035Z</time></trkpt><trkpt lat="45.930178" lon="12.1310746"><ele>165.0</ele><time>2026-04-03T14:13:10.056Z</time></trkpt><trkpt lat="45.9301852" lon="12.1308744"><ele>165.0</ele><time>2026-04-03T14:13:11.062Z</time></trkpt><trkpt lat="45.9301948" lon="12.1306151"><ele>165.66666666666666</ele><time>2026-04-03T14:13:12.16Z</time></trkpt><trkpt lat="45.9302067" lon="12.1303697"><ele>166.33333333333331</ele><time>2026-04-03T14:13:13.13Z</time></trkpt><trkpt lat="45.9302215" lon="12.130117"><ele>167.0</ele><time>2026-04-03T14:13:14.051Z</time></trkpt><trkpt lat="45.9302375" lon="12.1298504"><ele>167.0</ele><time>2026-04-03T14:13:15.015Z</time></trkpt><trkpt lat="45.9302489" lon="12.1295913"><ele>167.0</ele><time>2026-04-03T14:13:16.016Z</time></trkpt><trkpt lat="45.93026" lon="12.1293338"><ele>167.0</ele><time>2026-04-03T14:13:17.032Z</time></trkpt><trkpt lat="45.9302733" lon="12.1290313"><ele>167.0</ele><time>2026-04-03T14:13:18.065Z</time></trkpt><trkpt lat="45.9302876" lon="12.128736"><ele>167.0</ele><time>2026-04-03T14:13:19.018Z</time></trkpt><trkpt lat="45.9303014" lon="12.1284467"><ele>167.0</ele><time>2026-04-03T14:13:20.037Z</time></trkpt><trkpt lat="45.9303127" lon="12.1282186"><ele>167.5</ele><time>2026-04-03T14:13:21.035Z</time></trkpt><trkpt lat="45.9303204" lon="12.1280764"><ele>168.0</ele><time>2026-04-03T14:13:22.033Z</time></trkpt><trkpt lat="45.9303477" lon="12.1279919"><ele>168.5</ele><time>2026-04-03T14:13:24.031Z</time></trkpt><trkpt lat="45.930417" lon="12.12799"><ele>169.0</ele><time>2026-04-03T14:13:26.095Z</time></trkpt><trkpt lat="45.9304989" lon="12.1280004"><ele>169.5</ele><time>2026-04-03T14:13:27.071Z</time></trkpt><trkpt lat="45.9306141" lon="12.128006"><ele>170.0</ele><time>2026-04-03T14:13:28.062Z</time></trkpt><trkpt lat="45.9307278" lon="12.1280045"><ele>170.0</ele><time>2026-04-03T14:13:29.049Z</time></trkpt><trkpt lat="45.9308263" lon="12.1279955"><ele>170.0</ele><time>2026-04-03T14:13:30.083Z</time></trkpt><trkpt lat="45.9309134" lon="12.1279755"><ele>170.0</ele><time>2026-04-03T14:13:31.039Z</time></trkpt><trkpt lat="45.9309904" lon="12.1279424"><ele>170.0</ele><time>2026-04-03T14:13:32.028Z</time></trkpt><trkpt lat="45.9310654" lon="12.1279036"><ele>170.0</ele><time>2026-04-03T14:13:33.055Z</time></trkpt><trkpt lat="45.9311741" lon="12.1278776"><ele>174.0</ele><time>2026-04-03T14:13:35.008Z</time></trkpt><trkpt lat="45.931291" lon="12.1278606"><ele>178.0</ele><time>2026-04-03T14:13:37.014Z</time></trkpt><trkpt lat="45.9313953" lon="12.1278809"><ele>182.0</ele><time>2026-04-03T14:13:39.076Z</time></trkpt><trkpt lat="45.9314873" lon="12.1279267"><ele>186.0</ele><time>2026-04-03T14:13:40.972Z</time></trkpt><trkpt lat="45.9315667" lon="12.1279911"><ele>190.0</ele><time>2026-04-03T14:13:43.063Z</time></trkpt><trkpt lat="45.9316278" lon="12.1280273"><ele>191.0</ele><time>2026-04-03T14:13:44.13Z</time></trkpt><trkpt lat="45.9317641" lon="12.128047"><ele>192.0</ele><time>2026-04-03T14:13:46.075Z</time></trkpt><trkpt lat="45.9318386" lon="12.1280254"><ele>193.0</ele><time>2026-04-03T14:13:47.07Z</time></trkpt><trkpt lat="45.9319317" lon="12.1280281"><ele>194.0</ele><time>2026-04-03T14:13:49.107Z</time></trkpt><trkpt lat="45.9320602" lon="12.1280206"><ele>195.0</ele><time>2026-04-03T14:13:52.044Z</time></trkpt><trkpt lat="45.9321362" lon="12.1279996"><ele>195.0</ele><time>2026-04-03T14:13:55.037Z</time></trkpt><trkpt lat="45.9322079" lon="12.1279861"><ele>195.0</ele><time>2026-04-03T14:13:56.022Z</time></trkpt><trkpt lat="45.9323047" lon="12.1279793"><ele>195.0</ele><time>2026-04-03T14:13:57.061Z</time></trkpt><trkpt lat="45.9324174" lon="12.1279416"><ele>195.0</ele><time>2026-04-03T14:13:58.044Z</time></trkpt><trkpt lat="45.9325497" lon="12.1278648"><ele>195.0</ele><time>2026-04-03T14:13:59.002Z</time></trkpt><trkpt lat="45.932688" lon="12.1277366"><ele>194.33333333333331</ele><time>2026-04-03T14:14:00.05Z</time></trkpt><trkpt lat="45.932832" lon="12.1275809"><ele>193.66666666666666</ele><time>2026-04-03T14:14:01.074Z</time></trkpt><trkpt lat="45.9329868" lon="12.1274182"><ele>193.0</ele><time>2026-04-03T14:14:02.088Z</time></trkpt><trkpt lat="45.9331231" lon="12.1272837"><ele>193.0</ele><time>2026-04-03T14:14:03.028Z</time></trkpt><trkpt lat="45.9332576" lon="12.1271439"><ele>193.0</ele><time>2026-04-03T14:14:04.044Z</time></trkpt><trkpt lat="45.9333783" lon="12.127016"><ele>193.0</ele><time>2026-04-03T14:14:05.036Z</time></trkpt><trkpt lat="45.9334955" lon="12.1269006"><ele>190.66666666666666</ele><time>2026-04-03T14:14:06.031Z</time></trkpt><trkpt lat="45.9336204" lon="12.1267846"><ele>188.33333333333331</ele><time>2026-04-03T14:14:07.07Z</time></trkpt><trkpt lat="45.9337412" lon="12.1266694"><ele>186.0</ele><time>2026-04-03T14:14:08.032Z</time></trkpt><trkpt lat="45.9338799" lon="12.1265603"><ele>187.75</ele><time>2026-04-03T14:14:09.009Z</time></trkpt><trkpt lat="45.9340283" lon="12.1264685"><ele>189.5</ele><time>2026-04-03T14:14:10.037Z</time></trkpt><trkpt lat="45.9341609" lon="12.1264043"><ele>191.25</ele><time>2026-04-03T14:14:11.049Z</time></trkpt><trkpt lat="45.9342938" lon="12.1263599"><ele>193.0</ele><time>2026-04-03T14:14:12.077Z</time></trkpt><trkpt lat="45.934423" lon="12.1263339"><ele>192.99999999999997</ele><time>2026-04-03T14:14:13.092Z</time></trkpt><trkpt lat="45.9345344" lon="12.1263197"><ele>193.0</ele><time>2026-04-03T14:14:14.033Z</time></trkpt><trkpt lat="45.9346312" lon="12.1263217"><ele>193.0</ele><time>2026-04-03T14:14:15.067Z</time></trkpt><trkpt lat="45.9347031" lon="12.1263325"><ele>193.0</ele><time>2026-04-03T14:14:16.045Z</time></trkpt><trkpt lat="45.9347676" lon="12.126343"><ele>192.99999999999997</ele><time>2026-04-03T14:14:17.014Z</time></trkpt><trkpt lat="45.9348503" lon="12.1263626"><ele>193.0</ele><time>2026-04-03T14:14:19.054Z</time></trkpt><trkpt lat="45.9348926" lon="12.1264299"><ele>191.33333333333331</ele><time>2026-04-03T14:14:22.073Z</time></trkpt><trkpt lat="45.9349046" lon="12.1265617"><ele>189.66666666666666</ele><time>2026-04-03T14:14:25.043Z</time></trkpt><trkpt lat="45.93493" lon="12.1267369"><ele>188.0</ele><time>2026-04-03T14:14:27.078Z</time></trkpt><trkpt lat="45.9349471" lon="12.1268334"><ele>186.33333333333331</ele><time>2026-04-03T14:14:28.03Z</time></trkpt><trkpt lat="45.9349657" lon="12.1269418"><ele>184.66666666666666</ele><time>2026-04-03T14:14:29.039Z</time></trkpt><trkpt lat="45.9349818" lon="12.1270622"><ele>183.0</ele><time>2026-04-03T14:14:30.076Z</time></trkpt><trkpt lat="45.9349938" lon="12.1271668"><ele>183.0</ele><time>2026-04-03T14:14:31.045Z</time></trkpt><trkpt lat="45.9349942" lon="12.1273235"><ele>183.0</ele><time>2026-04-03T14:14:33.02Z</time></trkpt><trkpt lat="45.9349935" lon="12.127495"><ele>183.0</ele><time>2026-04-03T14:14:35.018Z</time></trkpt><trkpt lat="45.9350197" lon="12.1275907"><ele>183.0</ele><time>2026-04-03T14:14:36.047Z</time></trkpt><trkpt lat="45.9350613" lon="12.1276806"><ele>183.0</ele><time>2026-04-03T14:14:37.052Z</time></trkpt><trkpt lat="45.9351142" lon="12.1277674"><ele>181.0</ele><time>2026-04-03T14:14:38.066Z</time></trkpt><trkpt lat="45.935159" lon="12.1278529"><ele>179.0</ele><time>2026-04-03T14:14:39.069Z</time></trkpt><trkpt lat="45.9352155" lon="12.127952"><ele>177.0</ele><time>2026-04-03T14:14:40.099Z</time></trkpt><trkpt lat="45.9352858" lon="12.1280686"><ele>175.0</ele><time>2026-04-03T14:14:41.075Z</time></trkpt><trkpt lat="45.9353535" lon="12.1281845"><ele>173.0</ele><time>2026-04-03T14:14:42.08Z</time></trkpt><trkpt lat="45.9354123" lon="12.1282853"><ele>172.5</ele><time>2026-04-03T14:14:43.06Z</time></trkpt><trkpt lat="45.9354671" lon="12.1283924"><ele>172.0</ele><time>2026-04-03T14:14:44.077Z</time></trkpt><trkpt lat="45.9355166" lon="12.1284975"><ele>171.5</ele><time>2026-04-03T14:14:45.062Z</time></trkpt><trkpt lat="45.9355744" lon="12.1286335"><ele>171.0</ele><time>2026-04-03T14:14:46.24Z</time></trkpt><trkpt lat="45.9356721" lon="12.1289101"><ele>171.0</ele><time>2026-04-03T14:14:48.117Z</time></trkpt><trkpt lat="45.9357052" lon="12.1290169"><ele>171.0</ele><time>2026-04-03T14:14:49.055Z</time></trkpt><trkpt lat="45.9357413" lon="12.1291286"><ele>171.0</ele><time>2026-04-03T14:14:50.015Z</time></trkpt><trkpt lat="45.9357815" lon="12.1292643"><ele>171.0</ele><time>2026-04-03T14:14:51.038Z</time></trkpt><trkpt lat="45.9358239" lon="12.1294003"><ele>171.0</ele><time>2026-04-03T14:14:52.121Z</time></trkpt><trkpt lat="45.9358528" lon="12.1295116"><ele>170.60000000000002</ele><time>2026-04-03T14:14:53.053Z</time></trkpt><trkpt lat="45.9358803" lon="12.129629"><ele>170.2</ele><time>2026-04-03T14:14:54.015Z</time></trkpt><trkpt lat="45.9359101" lon="12.1297274"><ele>169.8</ele><time>2026-04-03T14:14:55.097Z</time></trkpt><trkpt lat="45.9359503" lon="12.1298728"><ele>169.39999999999998</ele><time>2026-04-03T14:14:57.066Z</time></trkpt><trkpt lat="45.9359773" lon="12.1300129"><ele>169.0</ele><time>2026-04-03T14:14:59.088Z</time></trkpt><trkpt lat="45.9360773" lon="12.1301208"><ele>168.66666666666669</ele><time>2026-04-03T14:15:01.058Z</time></trkpt><trkpt lat="45.9361546" lon="12.1301774"><ele>168.33333333333334</ele><time>2026-04-03T14:15:02.053Z</time></trkpt><trkpt lat="45.9362034" lon="12.1302347"><ele>168.0</ele><time>2026-04-03T14:15:03.037Z</time></trkpt><trkpt lat="45.9362532" lon="12.1303235"><ele>167.66666666666666</ele><time>2026-04-03T14:15:04.073Z</time></trkpt><trkpt lat="45.9362906" lon="12.1304302"><ele>167.33333333333331</ele><time>2026-04-03T14:15:05.062Z</time></trkpt><trkpt lat="45.9363235" lon="12.1305474"><ele>167.0</ele><time>2026-04-03T14:15:06.178Z</time></trkpt><trkpt lat="45.9363475" lon="12.1306495"><ele>167.0</ele><time>2026-04-03T14:15:07.113Z</time></trkpt><trkpt lat="45.9363748" lon="12.1307692"><ele>167.0</ele><time>2026-04-03T14:15:08.044Z</time></trkpt><trkpt lat="45.9364149" lon="12.1309493"><ele>167.0</ele><time>2026-04-03T14:15:09.099Z</time></trkpt><trkpt lat="45.9364545" lon="12.1311274"><ele>167.0</ele><time>2026-04-03T14:15:10.071Z</time></trkpt><trkpt lat="45.936488" lon="12.1312742"><ele>167.0</ele><time>2026-04-03T14:15:11.035Z</time></trkpt><trkpt lat="45.9365208" lon="12.1314193"><ele>167.0</ele><time>2026-04-03T14:15:12.065Z</time></trkpt><trkpt lat="45.9365501" lon="12.131544"><ele>167.0</ele><time>2026-04-03T14:15:13.072Z</time></trkpt><trkpt lat="45.9365759" lon="12.1316561"><ele>167.0</ele><time>2026-04-03T14:15:14.044Z</time></trkpt><trkpt lat="45.9366027" lon="12.1317565"><ele>167.0</ele><time>2026-04-03T14:15:15.035Z</time></trkpt><trkpt lat="45.9366294" lon="12.1318466"><ele>167.0</ele><time>2026-04-03T14:15:16.088Z</time></trkpt><trkpt lat="45.936657" lon="12.1319384"><ele>167.0</ele><time>2026-04-03T14:15:17.073Z</time></trkpt><trkpt lat="45.936713" lon="12.1320824"><ele>167.0</ele><time>2026-04-03T14:15:19.051Z</time></trkpt><trkpt lat="45.936764" lon="12.1322138"><ele>167.0</ele><time>2026-04-03T14:15:21.007Z</time></trkpt><trkpt lat="45.936828" lon="12.1323222"><ele>167.0</ele><time>2026-04-03T14:15:23.064Z</time></trkpt><trkpt lat="45.9369068" lon="12.1323173"><ele>167.0</ele><time>2026-04-03T14:15:25.04Z</time></trkpt><trkpt lat="45.9370142" lon="12.1321763"><ele>167.2</ele><time>2026-04-03T14:15:27.079Z</time></trkpt><trkpt lat="45.9370769" lon="12.1320562"><ele>167.39999999999998</ele><time>2026-04-03T14:15:28.013Z</time></trkpt><trkpt lat="45.9371307" lon="12.1319513"><ele>167.60000000000002</ele><time>2026-04-03T14:15:29.003Z</time></trkpt><trkpt lat="45.937192" lon="12.1318345"><ele>167.8</ele><time>2026-04-03T14:15:30.025Z</time></trkpt><trkpt lat="45.9372609" lon="12.1317002"><ele>168.0</ele><time>2026-04-03T14:15:31.042Z</time></trkpt><trkpt lat="45.9373218" lon="12.1315987"><ele>168.33333333333334</ele><time>2026-04-03T14:15:32.045Z</time></trkpt><trkpt lat="45.9373798" lon="12.131497"><ele>168.66666666666666</ele><time>2026-04-03T14:15:33.033Z</time></trkpt><trkpt lat="45.9374333" lon="12.1314033"><ele>169.0</ele><time>2026-04-03T14:15:34.026Z</time></trkpt><trkpt lat="45.9374853" lon="12.1313162"><ele>169.33333333333331</ele><time>2026-04-03T14:15:35.054Z</time></trkpt><trkpt lat="45.9375402" lon="12.1312259"><ele>169.66666666666666</ele><time>2026-04-03T14:15:36.006Z</time></trkpt><trkpt lat="45.9375945" lon="12.1311203"><ele>170.0</ele><time>2026-04-03T14:15:37.048Z</time></trkpt><trkpt lat="45.9376542" lon="12.1310356"><ele>170.25</ele><time>2026-04-03T14:15:38.021Z</time></trkpt><trkpt lat="45.9377438" lon="12.1309355"><ele>170.5</ele><time>2026-04-03T14:15:39.031Z</time></trkpt><trkpt lat="45.9378432" lon="12.1308464"><ele>170.75</ele><time>2026-04-03T14:15:40.069Z</time></trkpt><trkpt lat="45.9379538" lon="12.1307591"><ele>171.0</ele><time>2026-04-03T14:15:41.076Z</time></trkpt><trkpt lat="45.9380593" lon="12.1307006"><ele>171.0</ele><time>2026-04-03T14:15:42.089Z</time></trkpt><trkpt lat="45.9381803" lon="12.1306548"><ele>171.0</ele><time>2026-04-03T14:15:43.08Z</time></trkpt><trkpt lat="45.9382973" lon="12.1306244"><ele>171.0</ele><time>2026-04-03T14:15:44.078Z</time></trkpt><trkpt lat="45.9384147" lon="12.1305916"><ele>171.0</ele><time>2026-04-03T14:15:45.111Z</time></trkpt><trkpt lat="45.9385145" lon="12.1305614"><ele>171.0</ele><time>2026-04-03T14:15:46.09Z</time></trkpt><trkpt lat="45.9386092" lon="12.1305301"><ele>171.0</ele><time>2026-04-03T14:15:47.115Z</time></trkpt><trkpt lat="45.9386872" lon="12.1305017"><ele>171.0</ele><time>2026-04-03T14:15:48.048Z</time></trkpt><trkpt lat="45.9387731" lon="12.1304722"><ele>171.0</ele><time>2026-04-03T14:15:49.04Z</time></trkpt><trkpt lat="45.9388587" lon="12.1304387"><ele>171.0</ele><time>2026-04-03T14:15:50.075Z</time></trkpt><trkpt lat="45.9389563" lon="12.1303941"><ele>171.0</ele><time>2026-04-03T14:15:52.049Z</time></trkpt><trkpt lat="45.9390397" lon="12.1303422"><ele>171.0</ele><time>2026-04-03T14:15:54.071Z</time></trkpt><trkpt lat="45.9390812" lon="12.1302325"><ele>171.0</ele><time>2026-04-03T14:15:56.053Z</time></trkpt><trkpt lat="45.9390928" lon="12.1301394"><ele>171.0</ele><time>2026-04-03T14:15:57.039Z</time></trkpt><trkpt lat="45.9390997" lon="12.1300248"><ele>171.0</ele><time>2026-04-03T14:15:58.055Z</time></trkpt><trkpt lat="45.9391164" lon="12.1299311"><ele>171.0</ele><time>2026-04-03T14:16:01.036Z</time></trkpt><trkpt lat="45.939099" lon="12.129813"><ele>171.25</ele><time>2026-04-03T14:16:05.038Z</time></trkpt><trkpt lat="45.939053" lon="12.1297043"><ele>171.5</ele><time>2026-04-03T14:16:06.04Z</time></trkpt><trkpt lat="45.9389936" lon="12.1295854"><ele>171.75</ele><time>2026-04-03T14:16:07.026Z</time></trkpt><trkpt lat="45.9389153" lon="12.1294119"><ele>172.0</ele><time>2026-04-03T14:16:08.088Z</time></trkpt><trkpt lat="45.9388405" lon="12.1292329"><ele>172.0</ele><time>2026-04-03T14:16:09.053Z</time></trkpt><trkpt lat="45.9387809" lon="12.1290875"><ele>172.0</ele><time>2026-04-03T14:16:10.06Z</time></trkpt><trkpt lat="45.9387329" lon="12.1289733"><ele>172.0</ele><time>2026-04-03T14:16:11.082Z</time></trkpt><trkpt lat="45.9387011" lon="12.1288729"><ele>172.0</ele><time>2026-04-03T14:16:12.039Z</time></trkpt><trkpt lat="45.938675" lon="12.1287761"><ele>172.0</ele><time>2026-04-03T14:16:13.071Z</time></trkpt><trkpt lat="45.9386977" lon="12.128969"><ele>172.0</ele><time>2026-04-03T14:16:20.102Z</time></trkpt><trkpt lat="45.9387438" lon="12.1290738"><ele>172.0</ele><time>2026-04-03T14:16:21.009Z</time></trkpt><trkpt lat="45.9388051" lon="12.1292216"><ele>172.0</ele><time>2026-04-03T14:16:22.274Z</time></trkpt><trkpt lat="45.9388893" lon="12.1294285"><ele>172.0</ele><time>2026-04-03T14:16:24.06Z</time></trkpt><trkpt lat="45.9389289" lon="12.1295342"><ele>172.0</ele><time>2026-04-03T14:16:25.077Z</time></trkpt><trkpt lat="45.9389715" lon="12.1296314"><ele>172.0</ele><time>2026-04-03T14:16:26.137Z</time></trkpt><trkpt lat="45.9390116" lon="12.1297066"><ele>172.0</ele><time>2026-04-03T14:16:27.1Z</time></trkpt><trkpt lat="45.939081" lon="12.1298324"><ele>172.0</ele><time>2026-04-03T14:16:29.074Z</time></trkpt><trkpt lat="45.9391739" lon="12.1298577"><ele>172.0</ele><time>2026-04-03T14:16:31.116Z</time></trkpt><trkpt lat="45.9392681" lon="12.1297432"><ele>172.00000000000003</ele><time>2026-04-03T14:16:33.067Z</time></trkpt><trkpt lat="45.9393108" lon="12.1296583"><ele>172.0</ele><time>2026-04-03T14:16:34.047Z</time></trkpt><trkpt lat="45.9393564" lon="12.129568"><ele>172.0</ele><time>2026-04-03T14:16:35.053Z</time></trkpt><trkpt lat="45.939403" lon="12.1294838"><ele>172.0</ele><time>2026-04-03T14:16:36.055Z</time></trkpt><trkpt lat="45.9394477" lon="12.1294097"><ele>172.0</ele><time>2026-04-03T14:16:37.01Z</time></trkpt><trkpt lat="45.9394902" lon="12.1293319"><ele>172.00000000000003</ele><time>2026-04-03T14:16:38.011Z</time></trkpt><trkpt lat="45.9395386" lon="12.1292501"><ele>172.0</ele><time>2026-04-03T14:16:39.174Z</time></trkpt><trkpt lat="45.9396051" lon="12.1291213"><ele>172.39999999999998</ele><time>2026-04-03T14:16:41.041Z</time></trkpt><trkpt lat="45.9396653" lon="12.1290021"><ele>172.79999999999998</ele><time>2026-04-03T14:16:43.072Z</time></trkpt><trkpt lat="45.9397254" lon="12.1289039"><ele>173.2</ele><time>2026-04-03T14:16:45.072Z</time></trkpt><trkpt lat="45.9397897" lon="12.1288048"><ele>173.6</ele><time>2026-04-03T14:16:47.064Z</time></trkpt><trkpt lat="45.9398352" lon="12.1287204"><ele>174.0</ele><time>2026-04-03T14:16:48.12Z</time></trkpt><trkpt lat="45.9398975" lon="12.1286286"><ele>174.0</ele><time>2026-04-03T14:16:49.044Z</time></trkpt><trkpt lat="45.93998" lon="12.1285173"><ele>174.0</ele><time>2026-04-03T14:16:50.081Z</time></trkpt><trkpt lat="45.9400676" lon="12.1284134"><ele>174.0</ele><time>2026-04-03T14:16:51.057Z</time></trkpt><trkpt lat="45.9401598" lon="12.1283239"><ele>174.0</ele><time>2026-04-03T14:16:52.043Z</time></trkpt><trkpt lat="45.9402465" lon="12.1282549"><ele>174.0</ele><time>2026-04-03T14:16:53.022Z</time></trkpt><trkpt lat="45.9403266" lon="12.1282017"><ele>174.16666666666666</ele><time>2026-04-03T14:16:54.073Z</time></trkpt><trkpt lat="45.9403958" lon="12.1281627"><ele>174.33333333333334</ele><time>2026-04-03T14:16:55.086Z</time></trkpt><trkpt lat="45.9404653" lon="12.1281309"><ele>174.5</ele><time>2026-04-03T14:16:56.085Z</time></trkpt><trkpt lat="45.9405293" lon="12.1281"><ele>174.66666666666669</ele><time>2026-04-03T14:16:57.066Z</time></trkpt><trkpt lat="45.9405929" lon="12.1280631"><ele>174.83333333333334</ele><time>2026-04-03T14:16:58.097Z</time></trkpt><trkpt lat="45.9407086" lon="12.1279738"><ele>175.0</ele><time>2026-04-03T14:17:00.093Z</time></trkpt><trkpt lat="45.9407839" lon="12.1278619"><ele>175.0</ele><time>2026-04-03T14:17:02.088Z</time></trkpt><trkpt lat="45.9408179" lon="12.127711"><ele>175.0</ele><time>2026-04-03T14:17:13.08Z</time></trkpt><trkpt lat="45.9408351" lon="12.1276026"><ele>175.0</ele><time>2026-04-03T14:17:14.109Z</time></trkpt><trkpt lat="45.9408529" lon="12.1274997"><ele>175.0</ele><time>2026-04-03T14:17:15.016Z</time></trkpt><trkpt lat="45.9408711" lon="12.1273575"><ele>175.0</ele><time>2026-04-03T14:17:16.167Z</time></trkpt><trkpt lat="45.9409116" lon="12.1271011"><ele>175.4</ele><time>2026-04-03T14:17:18.04Z</time></trkpt><trkpt lat="45.9409311" lon="12.1269313"><ele>175.8</ele><time>2026-04-03T14:17:19.18Z</time></trkpt><trkpt lat="45.9409335" lon="12.12679"><ele>176.2</ele><time>2026-04-03T14:17:20.087Z</time></trkpt><trkpt lat="45.940946" lon="12.1266425"><ele>176.6</ele><time>2026-04-03T14:17:21.176Z</time></trkpt><trkpt lat="45.9409607" lon="12.1265192"><ele>177.0</ele><time>2026-04-03T14:17:22.08Z</time></trkpt><trkpt lat="45.9409786" lon="12.1263464"><ele>177.66666666666666</ele><time>2026-04-03T14:17:23.09Z</time></trkpt><trkpt lat="45.9410143" lon="12.1261299"><ele>178.33333333333331</ele><time>2026-04-03T14:17:24.072Z</time></trkpt><trkpt lat="45.9410513" lon="12.1258551"><ele>179.0</ele><time>2026-04-03T14:17:25.062Z</time></trkpt><trkpt lat="45.9411017" lon="12.1255592"><ele>179.0</ele><time>2026-04-03T14:17:26.053Z</time></trkpt><trkpt lat="45.9411576" lon="12.1252324"><ele>179.0</ele><time>2026-04-03T14:17:27.068Z</time></trkpt><trkpt lat="45.9411725" lon="12.1254224"><ele>179.0</ele><time>2026-04-03T14:17:28.063Z</time></trkpt><trkpt lat="45.9411455" lon="12.1258528"><ele>179.0</ele><time>2026-04-03T14:17:29.041Z</time></trkpt><trkpt lat="45.9412043" lon="12.125764"><ele>179.0</ele><time>2026-04-03T14:17:32.07Z</time></trkpt><trkpt lat="45.9413431" lon="12.1257004"><ele>179.0</ele><time>2026-04-03T14:17:34.09Z</time></trkpt><trkpt lat="45.9414424" lon="12.1256544"><ele>179.0</ele><time>2026-04-03T14:17:35.092Z</time></trkpt><trkpt lat="45.9415628" lon="12.1255772"><ele>180.0</ele><time>2026-04-03T14:17:36.1Z</time></trkpt><trkpt lat="45.9416536" lon="12.125515"><ele>181.0</ele><time>2026-04-03T14:17:37.045Z</time></trkpt><trkpt lat="45.9417302" lon="12.1254924"><ele>182.0</ele><time>2026-04-03T14:17:38.1Z</time></trkpt><trkpt lat="45.9417958" lon="12.1255035"><ele>183.0</ele><time>2026-04-03T14:17:41.101Z</time></trkpt><trkpt lat="45.9418624" lon="12.1254447"><ele>184.0</ele><time>2026-04-03T14:17:44.094Z</time></trkpt><trkpt lat="45.9418632" lon="12.1253106"><ele>185.0</ele><time>2026-04-03T14:17:46.047Z</time></trkpt><trkpt lat="45.9418562" lon="12.1252109"><ele>185.0</ele><time>2026-04-03T14:17:47.082Z</time></trkpt><trkpt lat="45.9418803" lon="12.125101"><ele>185.0</ele><time>2026-04-03T14:17:49.016Z</time></trkpt><trkpt lat="45.9419464" lon="12.1250524"><ele>185.0</ele><time>2026-04-03T14:17:53.05Z</time></trkpt><trkpt lat="45.9420237" lon="12.1250357"><ele>185.0</ele><time>2026-04-03T14:17:55.039Z</time></trkpt><trkpt lat="45.9419415" lon="12.1250562"><ele>185.0</ele><time>2026-04-03T14:18:28.052Z</time></trkpt><trkpt lat="45.9418865" lon="12.1251354"><ele>185.0</ele><time>2026-04-03T14:18:31.056Z</time></trkpt><trkpt lat="45.9418931" lon="12.1252598"><ele>185.0</ele><time>2026-04-03T14:18:38.04Z</time></trkpt><trkpt lat="45.9419155" lon="12.1253569"><ele>185.0</ele><time>2026-04-03T14:18:40.064Z</time></trkpt><trkpt lat="45.9419422" lon="12.1254524"><ele>185.0</ele><time>2026-04-03T14:18:42.081Z</time></trkpt><trkpt lat="45.9419531" lon="12.1255618"><ele>185.0</ele><time>2026-04-03T14:18:45.067Z</time></trkpt><trkpt lat="45.9420394" lon="12.1255666"><ele>185.0</ele><time>2026-04-03T14:19:19.159Z</time></trkpt><trkpt lat="45.9421336" lon="12.1255101"><ele>185.0</ele><time>2026-04-03T14:19:21.04Z</time></trkpt><trkpt lat="45.9421902" lon="12.1254677"><ele>184.99999999999997</ele><time>2026-04-03T14:19:22.04Z</time></trkpt><trkpt lat="45.9422482" lon="12.1254225"><ele>185.0</ele><time>2026-04-03T14:19:23.079Z</time></trkpt><trkpt lat="45.9423098" lon="12.1253832"><ele>185.0</ele><time>2026-04-03T14:19:24.087Z</time></trkpt><trkpt lat="45.9423722" lon="12.1253443"><ele>185.0</ele><time>2026-04-03T14:19:25.09Z</time></trkpt><trkpt lat="45.9424349" lon="12.1253093"><ele>185.0</ele><time>2026-04-03T14:19:26.106Z</time></trkpt><trkpt lat="45.9425013" lon="12.1252737"><ele>184.99999999999997</ele><time>2026-04-03T14:19:27.096Z</time></trkpt><trkpt lat="45.9425835" lon="12.1252234"><ele>185.0</ele><time>2026-04-03T14:19:28.084Z</time></trkpt><trkpt lat="45.9427035" lon="12.1251559"><ele>183.0</ele><time>2026-04-03T14:19:29.137Z</time></trkpt><trkpt lat="45.9428204" lon="12.1250907"><ele>181.0</ele><time>2026-04-03T14:19:30.096Z</time></trkpt><trkpt lat="45.9429324" lon="12.1250322"><ele>179.0</ele><time>2026-04-03T14:19:31.073Z</time></trkpt><trkpt lat="45.9430386" lon="12.1249711"><ele>177.0</ele><time>2026-04-03T14:19:32.059Z</time></trkpt><trkpt lat="45.9431562" lon="12.1248992"><ele>177.75</ele><time>2026-04-03T14:19:33.144Z</time></trkpt><trkpt lat="45.9432621" lon="12.1248383"><ele>178.5</ele><time>2026-04-03T14:19:34.104Z</time></trkpt><trkpt lat="45.9433737" lon="12.1247748"><ele>179.25</ele><time>2026-04-03T14:19:35.072Z</time></trkpt><trkpt lat="45.9434958" lon="12.1247051"><ele>180.0</ele><time>2026-04-03T14:19:36.186Z</time></trkpt><trkpt lat="45.9435938" lon="12.1246508"><ele>180.0</ele><time>2026-04-03T14:19:37.108Z</time></trkpt><trkpt lat="45.9436909" lon="12.1245992"><ele>180.0</ele><time>2026-04-03T14:19:38.054Z</time></trkpt><trkpt lat="45.9437957" lon="12.1245437"><ele>180.0</ele><time>2026-04-03T14:19:39.088Z</time></trkpt><trkpt lat="45.9439062" lon="12.1244824"><ele>180.0</ele><time>2026-04-03T14:19:40.091Z</time></trkpt><trkpt lat="45.9440284" lon="12.1244125"><ele>180.0</ele><time>2026-04-03T14:19:41.064Z</time></trkpt><trkpt lat="45.944148" lon="12.1243493"><ele>180.0</ele><time>2026-04-03T14:19:42.034Z</time></trkpt><trkpt lat="45.944268" lon="12.1242842"><ele>180.0</ele><time>2026-04-03T14:19:43.105Z</time></trkpt><trkpt lat="45.9443746" lon="12.1242225"><ele>180.0</ele><time>2026-04-03T14:19:44.112Z</time></trkpt><trkpt lat="45.9444651" lon="12.1241696"><ele>179.66666666666666</ele><time>2026-04-03T14:19:45.028Z</time></trkpt><trkpt lat="45.9445595" lon="12.1241176"><ele>179.33333333333334</ele><time>2026-04-03T14:19:46.055Z</time></trkpt><trkpt lat="45.9446438" lon="12.1240705"><ele>179.0</ele><time>2026-04-03T14:19:47.046Z</time></trkpt><trkpt lat="45.944723" lon="12.1240258"><ele>178.66666666666669</ele><time>2026-04-03T14:19:48.025Z</time></trkpt><trkpt lat="45.944803" lon="12.1239826"><ele>178.33333333333334</ele><time>2026-04-03T14:19:49.026Z</time></trkpt><trkpt lat="45.9448826" lon="12.1239436"><ele>178.0</ele><time>2026-04-03T14:19:50.032Z</time></trkpt><trkpt lat="45.9449666" lon="12.123903"><ele>180.8</ele><time>2026-04-03T14:19:51.04Z</time></trkpt><trkpt lat="45.9450509" lon="12.1238625"><ele>183.60000000000002</ele><time>2026-04-03T14:19:52.049Z</time></trkpt><trkpt lat="45.9451464" lon="12.1238269"><ele>186.39999999999998</ele><time>2026-04-03T14:19:53.075Z</time></trkpt><trkpt lat="45.9452576" lon="12.1237942"><ele>189.2</ele><time>2026-04-03T14:19:54.06Z</time></trkpt><trkpt lat="45.9453896" lon="12.1237587"><ele>192.0</ele><time>2026-04-03T14:19:55.039Z</time></trkpt><trkpt lat="45.9455392" lon="12.1237133"><ele>192.0</ele><time>2026-04-03T14:19:56.064Z</time></trkpt><trkpt lat="45.94569" lon="12.1236726"><ele>192.0</ele><time>2026-04-03T14:19:57.084Z</time></trkpt><trkpt lat="45.9458124" lon="12.1236527"><ele>192.0</ele><time>2026-04-03T14:19:58.049Z</time></trkpt><trkpt lat="45.9459257" lon="12.1236571"><ele>192.0</ele><time>2026-04-03T14:19:59.18Z</time></trkpt><trkpt lat="45.9459754" lon="12.1237246"><ele>189.8</ele><time>2026-04-03T14:20:03.072Z</time></trkpt><trkpt lat="45.9460678" lon="12.1237594"><ele>187.6</ele><time>2026-04-03T14:20:06.055Z</time></trkpt><trkpt lat="45.9461336" lon="12.1237846"><ele>185.4</ele><time>2026-04-03T14:20:07.038Z</time></trkpt><trkpt lat="45.9462236" lon="12.1238399"><ele>183.20000000000002</ele><time>2026-04-03T14:20:09.035Z</time></trkpt><trkpt lat="45.9462881" lon="12.1239217"><ele>181.0</ele><time>2026-04-03T14:20:22.015Z</time></trkpt><trkpt lat="45.9463968" lon="12.1238815"><ele>181.0</ele><time>2026-04-03T14:20:24.067Z</time></trkpt><trkpt lat="45.9464708" lon="12.1238226"><ele>181.0</ele><time>2026-04-03T14:20:25.033Z</time></trkpt><trkpt lat="45.9465636" lon="12.1237495"><ele>181.0</ele><time>2026-04-03T14:20:26.016Z</time></trkpt><trkpt lat="45.9466593" lon="12.12367"><ele>181.0</ele><time>2026-04-03T14:20:27.037Z</time></trkpt><trkpt lat="45.9467597" lon="12.1235928"><ele>181.0</ele><time>2026-04-03T14:20:28.079Z</time></trkpt><trkpt lat="45.9468691" lon="12.1235025"><ele>181.25</ele><time>2026-04-03T14:20:29.048Z</time></trkpt><trkpt lat="45.9469905" lon="12.1234081"><ele>181.5</ele><time>2026-04-03T14:20:30.027Z</time></trkpt><trkpt lat="45.9471101" lon="12.1233251"><ele>181.75</ele><time>2026-04-03T14:20:31.029Z</time></trkpt><trkpt lat="45.947219" lon="12.1232408"><ele>182.0</ele><time>2026-04-03T14:20:32.036Z</time></trkpt><trkpt lat="45.9473184" lon="12.1231644"><ele>182.0</ele><time>2026-04-03T14:20:33.015Z</time></trkpt><trkpt lat="45.947414" lon="12.1230927"><ele>182.0</ele><time>2026-04-03T14:20:34.07Z</time></trkpt><trkpt lat="45.9475" lon="12.1230327"><ele>182.0</ele><time>2026-04-03T14:20:35.059Z</time></trkpt><trkpt lat="45.9475902" lon="12.1229868"><ele>182.0</ele><time>2026-04-03T14:20:36.072Z</time></trkpt><trkpt lat="45.9476832" lon="12.1229526"><ele>182.0</ele><time>2026-04-03T14:20:37.052Z</time></trkpt><trkpt lat="45.9477785" lon="12.1229288"><ele>182.0</ele><time>2026-04-03T14:20:38.084Z</time></trkpt><trkpt lat="45.9478694" lon="12.1229215"><ele>182.0</ele><time>2026-04-03T14:20:39.086Z</time></trkpt><trkpt lat="45.9479539" lon="12.1229345"><ele>182.0</ele><time>2026-04-03T14:20:40.028Z</time></trkpt><trkpt lat="45.9480392" lon="12.1229625"><ele>182.0</ele><time>2026-04-03T14:20:41.033Z</time></trkpt><trkpt lat="45.9481183" lon="12.1229735"><ele>182.0</ele><time>2026-04-03T14:20:42.032Z</time></trkpt><trkpt lat="45.9481962" lon="12.1229627"><ele>182.0</ele><time>2026-04-03T14:20:43.065Z</time></trkpt><trkpt lat="45.9482772" lon="12.1229361"><ele>182.5</ele><time>2026-04-03T14:20:44.042Z</time></trkpt><trkpt lat="45.9483832" lon="12.1228961"><ele>183.0</ele><time>2026-04-03T14:20:45.032Z</time></trkpt><trkpt lat="45.9485238" lon="12.1228573"><ele>183.5</ele><time>2026-04-03T14:20:46.069Z</time></trkpt><trkpt lat="45.9486882" lon="12.1228457"><ele>184.0</ele><time>2026-04-03T14:20:47.111Z</time></trkpt><trkpt lat="45.9488646" lon="12.1228452"><ele>184.0</ele><time>2026-04-03T14:20:48.033Z</time></trkpt><trkpt lat="45.9491098" lon="12.1228851"><ele>184.0</ele><time>2026-04-03T14:20:49.176Z</time></trkpt><trkpt lat="45.9495394" lon="12.1229483"><ele>185.0</ele><time>2026-04-03T14:20:51.06Z</time></trkpt><trkpt lat="45.9497851" lon="12.122974"><ele>186.0</ele><time>2026-04-03T14:20:52.165Z</time></trkpt><trkpt lat="45.9499655" lon="12.1229857"><ele>187.0</ele><time>2026-04-03T14:20:53.096Z</time></trkpt><trkpt lat="45.9501872" lon="12.1230141"><ele>187.33333333333334</ele><time>2026-04-03T14:20:54.157Z</time></trkpt><trkpt lat="45.9503793" lon="12.1230391"><ele>187.66666666666666</ele><time>2026-04-03T14:20:55.071Z</time></trkpt><trkpt lat="45.9505809" lon="12.1230696"><ele>188.0</ele><time>2026-04-03T14:20:56.06Z</time></trkpt><trkpt lat="45.9508232" lon="12.1231005"><ele>188.66666666666666</ele><time>2026-04-03T14:20:57.109Z</time></trkpt><trkpt lat="45.9510536" lon="12.1231364"><ele>189.33333333333334</ele><time>2026-04-03T14:20:58.092Z</time></trkpt><trkpt lat="45.9512582" lon="12.1231697"><ele>190.0</ele><time>2026-04-03T14:20:59.036Z</time></trkpt><trkpt lat="45.9515056" lon="12.123205"><ele>190.66666666666669</ele><time>2026-04-03T14:21:00.116Z</time></trkpt><trkpt lat="45.9517175" lon="12.1232284"><ele>191.33333333333334</ele><time>2026-04-03T14:21:01.055Z</time></trkpt><trkpt lat="45.9519374" lon="12.1232573"><ele>192.0</ele><time>2026-04-03T14:21:02.064Z</time></trkpt><trkpt lat="45.9521695" lon="12.1232959"><ele>192.0</ele><time>2026-04-03T14:21:03.105Z</time></trkpt><trkpt lat="45.952372" lon="12.123329"><ele>192.0</ele><time>2026-04-03T14:21:04.031Z</time></trkpt><trkpt lat="45.9526006" lon="12.1233627"><ele>192.0</ele><time>2026-04-03T14:21:05.06Z</time></trkpt><trkpt lat="45.9528268" lon="12.1233921"><ele>193.5</ele><time>2026-04-03T14:21:06.065Z</time></trkpt><trkpt lat="45.9530597" lon="12.123412"><ele>195.0</ele><time>2026-04-03T14:21:07.1Z</time></trkpt><trkpt lat="45.9532833" lon="12.1234181"><ele>194.5</ele><time>2026-04-03T14:21:08.098Z</time></trkpt><trkpt lat="45.9535018" lon="12.1234111"><ele>194.0</ele><time>2026-04-03T14:21:09.081Z</time></trkpt><trkpt lat="45.9537335" lon="12.1233978"><ele>194.0</ele><time>2026-04-03T14:21:10.155Z</time></trkpt><trkpt lat="45.9539299" lon="12.1233819"><ele>194.0</ele><time>2026-04-03T14:21:11.084Z</time></trkpt><trkpt lat="45.9541278" lon="12.1233648"><ele>194.0</ele><time>2026-04-03T14:21:12.044Z</time></trkpt><trkpt lat="45.9543544" lon="12.1233478"><ele>195.0</ele><time>2026-04-03T14:21:13.162Z</time></trkpt><trkpt lat="45.9545414" lon="12.1233327"><ele>196.0</ele><time>2026-04-03T14:21:14.105Z</time></trkpt><trkpt lat="45.9547352" lon="12.1233153"><ele>197.0</ele><time>2026-04-03T14:21:15.093Z</time></trkpt><trkpt lat="45.9549398" lon="12.123297"><ele>198.33333333333334</ele><time>2026-04-03T14:21:16.158Z</time></trkpt><trkpt lat="45.9551209" lon="12.1232833"><ele>199.66666666666669</ele><time>2026-04-03T14:21:17.099Z</time></trkpt><trkpt lat="45.9553088" lon="12.123268"><ele>201.0</ele><time>2026-04-03T14:21:18.089Z</time></trkpt><trkpt lat="45.9555106" lon="12.1232505"><ele>202.0</ele><time>2026-04-03T14:21:19.155Z</time></trkpt><trkpt lat="45.9558777" lon="12.1232139"><ele>203.0</ele><time>2026-04-03T14:21:21.093Z</time></trkpt><trkpt lat="45.9560636" lon="12.1231959"><ele>203.0</ele><time>2026-04-03T14:21:22.053Z</time></trkpt><trkpt lat="45.9562571" lon="12.1231798"><ele>203.0</ele><time>2026-04-03T14:21:23.053Z</time></trkpt><trkpt lat="45.9564473" lon="12.1231617"><ele>203.0</ele><time>2026-04-03T14:21:24.038Z</time></trkpt><trkpt lat="45.9566499" lon="12.1231407"><ele>203.0</ele><time>2026-04-03T14:21:25.078Z</time></trkpt><trkpt lat="45.9568464" lon="12.123126"><ele>203.0</ele><time>2026-04-03T14:21:26.073Z</time></trkpt><trkpt lat="45.9570274" lon="12.1231216"><ele>203.0</ele><time>2026-04-03T14:21:27.04Z</time></trkpt><trkpt lat="45.9572095" lon="12.1231317"><ele>203.0</ele><time>2026-04-03T14:21:28.076Z</time></trkpt><trkpt lat="45.957373" lon="12.1231526"><ele>203.0</ele><time>2026-04-03T14:21:29.081Z</time></trkpt><trkpt lat="45.9575324" lon="12.1231805"><ele>203.0</ele><time>2026-04-03T14:21:30.096Z</time></trkpt><trkpt lat="45.9576687" lon="12.1232238"><ele>204.33333333333334</ele><time>2026-04-03T14:21:31.077Z</time></trkpt><trkpt lat="45.9578059" lon="12.1232827"><ele>205.66666666666669</ele><time>2026-04-03T14:21:32.056Z</time></trkpt><trkpt lat="45.9579733" lon="12.1233612"><ele>207.0</ele><time>2026-04-03T14:21:33.14Z</time></trkpt><trkpt lat="45.95812" lon="12.1234556"><ele>207.0</ele><time>2026-04-03T14:21:34.042Z</time></trkpt><trkpt lat="45.9582871" lon="12.1235856"><ele>207.0</ele><time>2026-04-03T14:21:35.057Z</time></trkpt><trkpt lat="45.9584523" lon="12.1237437"><ele>207.0</ele><time>2026-04-03T14:21:36.118Z</time></trkpt><trkpt lat="45.9585921" lon="12.1238984"><ele>208.66666666666669</ele><time>2026-04-03T14:21:37.071Z</time></trkpt><trkpt lat="45.9587282" lon="12.1240677"><ele>210.33333333333334</ele><time>2026-04-03T14:21:38.046Z</time></trkpt><trkpt lat="45.9588685" lon="12.1242508"><ele>212.0</ele><time>2026-04-03T14:21:39.022Z</time></trkpt><trkpt lat="45.9590064" lon="12.1244599"><ele>212.0</ele><time>2026-04-03T14:21:40.042Z</time></trkpt><trkpt lat="45.9591265" lon="12.1246911"><ele>212.0</ele><time>2026-04-03T14:21:41.063Z</time></trkpt><trkpt lat="45.9592374" lon="12.1249211"><ele>212.0</ele><time>2026-04-03T14:21:42.055Z</time></trkpt><trkpt lat="45.9593311" lon="12.1251524"><ele>212.66666666666669</ele><time>2026-04-03T14:21:43.072Z</time></trkpt><trkpt lat="45.9594149" lon="12.125382"><ele>213.33333333333331</ele><time>2026-04-03T14:21:44.079Z</time></trkpt><trkpt lat="45.9594974" lon="12.1256191"><ele>214.0</ele><time>2026-04-03T14:21:45.121Z</time></trkpt><trkpt lat="45.9595831" lon="12.1258683"><ele>214.0</ele><time>2026-04-03T14:21:46.173Z</time></trkpt><trkpt lat="45.9596771" lon="12.1261121"><ele>214.0</ele><time>2026-04-03T14:21:47.079Z</time></trkpt><trkpt lat="45.9597833" lon="12.1264221"><ele>214.0</ele><time>2026-04-03T14:21:48.104Z</time></trkpt><trkpt lat="45.9598794" lon="12.1267108"><ele>214.0</ele><time>2026-04-03T14:21:49.048Z</time></trkpt><trkpt lat="45.9599876" lon="12.1270262"><ele>214.0</ele><time>2026-04-03T14:21:50.088Z</time></trkpt><trkpt lat="45.9600978" lon="12.1273087"><ele>216.0</ele><time>2026-04-03T14:21:51.029Z</time></trkpt><trkpt lat="45.9602531" lon="12.1276308"><ele>218.0</ele><time>2026-04-03T14:21:52.069Z</time></trkpt><trkpt lat="45.9604138" lon="12.1279344"><ele>218.0</ele><time>2026-04-03T14:21:53.073Z</time></trkpt><trkpt lat="45.9605985" lon="12.1282502"><ele>218.0</ele><time>2026-04-03T14:21:54.176Z</time></trkpt><trkpt lat="45.9609331" lon="12.1287171"><ele>217.5</ele><time>2026-04-03T14:21:56.044Z</time></trkpt><trkpt lat="45.9611065" lon="12.1289544"><ele>217.0</ele><time>2026-04-03T14:21:57.047Z</time></trkpt><trkpt lat="45.9612834" lon="12.1292071"><ele>219.0</ele><time>2026-04-03T14:21:58.078Z</time></trkpt><trkpt lat="45.9614596" lon="12.1294521"><ele>221.0</ele><time>2026-04-03T14:21:59.104Z</time></trkpt><trkpt lat="45.961631" lon="12.1296768"><ele>220.5</ele><time>2026-04-03T14:22:00.103Z</time></trkpt><trkpt lat="45.9618183" lon="12.1299258"><ele>220.0</ele><time>2026-04-03T14:22:01.203Z</time></trkpt><trkpt lat="45.962133" lon="12.130352"><ele>220.0</ele><time>2026-04-03T14:22:03.095Z</time></trkpt><trkpt lat="45.962294" lon="12.1305672"><ele>220.0</ele><time>2026-04-03T14:22:04.073Z</time></trkpt><trkpt lat="45.9624599" lon="12.1307927"><ele>220.0</ele><time>2026-04-03T14:22:05.099Z</time></trkpt><trkpt lat="45.9626099" lon="12.1309977"><ele>221.0</ele><time>2026-04-03T14:22:06.038Z</time></trkpt><trkpt lat="45.9627707" lon="12.1312148"><ele>222.0</ele><time>2026-04-03T14:22:07.049Z</time></trkpt><trkpt lat="45.9629242" lon="12.1314212"><ele>223.0</ele><time>2026-04-03T14:22:08.027Z</time></trkpt><trkpt lat="45.9630801" lon="12.1316332"><ele>224.0</ele><time>2026-04-03T14:22:09.039Z</time></trkpt><trkpt lat="45.9632339" lon="12.1318419"><ele>225.0</ele><time>2026-04-03T14:22:10.051Z</time></trkpt><trkpt lat="45.9633872" lon="12.1320495"><ele>226.0</ele><time>2026-04-03T14:22:11.074Z</time></trkpt><trkpt lat="45.963535" lon="12.1322481"><ele>226.66666666666666</ele><time>2026-04-03T14:22:12.069Z</time></trkpt><trkpt lat="45.9636791" lon="12.1324459"><ele>227.33333333333331</ele><time>2026-04-03T14:22:13.058Z</time></trkpt><trkpt lat="45.963826" lon="12.1326494"><ele>228.0</ele><time>2026-04-03T14:22:14.06Z</time></trkpt><trkpt lat="45.9639773" lon="12.1328568"><ele>228.0</ele><time>2026-04-03T14:22:15.082Z</time></trkpt><trkpt lat="45.964128" lon="12.1330628"><ele>228.0</ele><time>2026-04-03T14:22:16.072Z</time></trkpt><trkpt lat="45.9642763" lon="12.1332652"><ele>228.0</ele><time>2026-04-03T14:22:17.031Z</time></trkpt><trkpt lat="45.9644339" lon="12.1334793"><ele>229.33333333333331</ele><time>2026-04-03T14:22:18.046Z</time></trkpt><trkpt lat="45.9645977" lon="12.1336962"><ele>230.66666666666666</ele><time>2026-04-03T14:22:19.093Z</time></trkpt><trkpt lat="45.9647508" lon="12.1338998"><ele>232.0</ele><time>2026-04-03T14:22:20.088Z</time></trkpt><trkpt lat="45.9649039" lon="12.1341059"><ele>233.0</ele><time>2026-04-03T14:22:21.093Z</time></trkpt><trkpt lat="45.9650525" lon="12.134313"><ele>234.0</ele><time>2026-04-03T14:22:22.085Z</time></trkpt><trkpt lat="45.9651974" lon="12.1345309"><ele>235.0</ele><time>2026-04-03T14:22:23.057Z</time></trkpt><trkpt lat="45.9653393" lon="12.1347779"><ele>236.33333333333331</ele><time>2026-04-03T14:22:24.111Z</time></trkpt><trkpt lat="45.9654511" lon="12.1350169"><ele>237.66666666666669</ele><time>2026-04-03T14:22:25.074Z</time></trkpt><trkpt lat="45.9655561" lon="12.135264"><ele>239.0</ele><time>2026-04-03T14:22:26.062Z</time></trkpt><trkpt lat="45.9656371" lon="12.135516"><ele>240.0</ele><time>2026-04-03T14:22:27.056Z</time></trkpt><trkpt lat="45.9657077" lon="12.1358023"><ele>241.0</ele><time>2026-04-03T14:22:28.176Z</time></trkpt><trkpt lat="45.9657549" lon="12.1360148"><ele>242.0</ele><time>2026-04-03T14:22:29.039Z</time></trkpt><trkpt lat="45.9657954" lon="12.1362554"><ele>242.0</ele><time>2026-04-03T14:22:30.053Z</time></trkpt><trkpt lat="45.9658217" lon="12.1364822"><ele>242.0</ele><time>2026-04-03T14:22:31.088Z</time></trkpt><trkpt lat="45.9658352" lon="12.1366693"><ele>242.0</ele><time>2026-04-03T14:22:32.029Z</time></trkpt><trkpt lat="45.9658364" lon="12.1368484"><ele>242.0</ele><time>2026-04-03T14:22:33.073Z</time></trkpt><trkpt lat="45.9658305" lon="12.1370066"><ele>241.66666666666669</ele><time>2026-04-03T14:22:34.118Z</time></trkpt><trkpt lat="45.9658141" lon="12.1371307"><ele>241.33333333333334</ele><time>2026-04-03T14:22:35.118Z</time></trkpt><trkpt lat="45.9657916" lon="12.1372249"><ele>241.0</ele><time>2026-04-03T14:22:36.114Z</time></trkpt><trkpt lat="45.9657552" lon="12.1373592"><ele>240.66666666666669</ele><time>2026-04-03T14:22:38.133Z</time></trkpt><trkpt lat="45.9657853" lon="12.1374506"><ele>240.33333333333334</ele><time>2026-04-03T14:22:40.056Z</time></trkpt><trkpt lat="45.9658521" lon="12.1375488"><ele>240.0</ele><time>2026-04-03T14:22:42.082Z</time></trkpt><trkpt lat="45.9658629" lon="12.137682"><ele>239.75</ele><time>2026-04-03T14:22:43.092Z</time></trkpt><trkpt lat="45.9657756" lon="12.1381001"><ele>239.5</ele><time>2026-04-03T14:22:44.071Z</time></trkpt><trkpt lat="45.96576" lon="12.1381952"><ele>239.25</ele><time>2026-04-03T14:22:45.059Z</time></trkpt><trkpt lat="45.9657476" lon="12.138304"><ele>239.0</ele><time>2026-04-03T14:22:46.059Z</time></trkpt><trkpt lat="45.9657322" lon="12.1384215"><ele>239.0</ele><time>2026-04-03T14:22:47.103Z</time></trkpt><trkpt lat="45.9657218" lon="12.1385424"><ele>239.0</ele><time>2026-04-03T14:22:48.125Z</time></trkpt><trkpt lat="45.9657069" lon="12.1386954"><ele>239.0</ele><time>2026-04-03T14:22:49.076Z</time></trkpt><trkpt lat="45.9656816" lon="12.138903"><ele>239.0</ele><time>2026-04-03T14:22:50.085Z</time></trkpt><trkpt lat="45.9656522" lon="12.139165"><ele>239.0</ele><time>2026-04-03T14:22:51.149Z</time></trkpt><trkpt lat="45.9656167" lon="12.1394884"><ele>239.0</ele><time>2026-04-03T14:22:52.29Z</time></trkpt><trkpt lat="45.9655458" lon="12.1399914"><ele>239.0</ele><time>2026-04-03T14:22:54.051Z</time></trkpt><trkpt lat="45.9655106" lon="12.1402693"><ele>239.0</ele><time>2026-04-03T14:22:55.059Z</time></trkpt><trkpt lat="45.9654768" lon="12.1405392"><ele>239.0</ele><time>2026-04-03T14:22:56.082Z</time></trkpt><trkpt lat="45.96545" lon="12.1407622"><ele>239.6</ele><time>2026-04-03T14:22:57.062Z</time></trkpt><trkpt lat="45.9654255" lon="12.1409562"><ele>240.2</ele><time>2026-04-03T14:22:58.034Z</time></trkpt><trkpt lat="45.965407" lon="12.1411062"><ele>240.79999999999998</ele><time>2026-04-03T14:22:59.035Z</time></trkpt><trkpt lat="45.9653903" lon="12.1412613"><ele>241.39999999999998</ele><time>2026-04-03T14:23:00.159Z</time></trkpt><trkpt lat="45.965377" lon="12.1413835"><ele>242.0</ele><time>2026-04-03T14:23:01.066Z</time></trkpt><trkpt lat="45.9653593" lon="12.1415043"><ele>242.00000000000003</ele><time>2026-04-03T14:23:02.058Z</time></trkpt><trkpt lat="45.9653328" lon="12.141617"><ele>242.0</ele><time>2026-04-03T14:23:03.158Z</time></trkpt><trkpt lat="45.9653042" lon="12.1417122"><ele>242.0</ele><time>2026-04-03T14:23:04.114Z</time></trkpt><trkpt lat="45.9652931" lon="12.1418185"><ele>242.0</ele><time>2026-04-03T14:23:05.089Z</time></trkpt><trkpt lat="45.9653052" lon="12.1419236"><ele>242.00000000000003</ele><time>2026-04-03T14:23:06.06Z</time></trkpt><trkpt lat="45.9653417" lon="12.1420219"><ele>242.0</ele><time>2026-04-03T14:23:07.085Z</time></trkpt><trkpt lat="45.9653843" lon="12.1421336"><ele>242.0</ele><time>2026-04-03T14:23:08.09Z</time></trkpt><trkpt lat="45.9654172" lon="12.1422776"><ele>242.0</ele><time>2026-04-03T14:23:09.082Z</time></trkpt><trkpt lat="45.9654424" lon="12.1424516"><ele>242.0</ele><time>2026-04-03T14:23:10.121Z</time></trkpt><trkpt lat="45.9654707" lon="12.1426539"><ele>242.0</ele><time>2026-04-03T14:23:11.071Z</time></trkpt><trkpt lat="45.9654987" lon="12.1429418"><ele>241.0</ele><time>2026-04-03T14:23:12.093Z</time></trkpt><trkpt lat="45.965534" lon="12.1432398"><ele>240.0</ele><time>2026-04-03T14:23:13.051Z</time></trkpt><trkpt lat="45.9655299" lon="12.1436149"><ele>240.0</ele><time>2026-04-03T14:23:14.106Z</time></trkpt><trkpt lat="45.9655482" lon="12.1438953"><ele>240.0</ele><time>2026-04-03T14:23:15.079Z</time></trkpt><trkpt lat="45.9655535" lon="12.1442075"><ele>240.0</ele><time>2026-04-03T14:23:16.089Z</time></trkpt><trkpt lat="45.9655641" lon="12.1445009"><ele>239.0</ele><time>2026-04-03T14:23:17.039Z</time></trkpt><trkpt lat="45.9655743" lon="12.1448025"><ele>238.0</ele><time>2026-04-03T14:23:18.051Z</time></trkpt><trkpt lat="45.9655873" lon="12.1450999"><ele>237.0</ele><time>2026-04-03T14:23:19.06Z</time></trkpt><trkpt lat="45.9656205" lon="12.1453974"><ele>237.0</ele><time>2026-04-03T14:23:20.044Z</time></trkpt><trkpt lat="45.9656814" lon="12.1457077"><ele>237.0</ele><time>2026-04-03T14:23:21.056Z</time></trkpt><trkpt lat="45.9657704" lon="12.1460196"><ele>238.5</ele><time>2026-04-03T14:23:22.12Z</time></trkpt><trkpt lat="45.965889" lon="12.1463874"><ele>240.0</ele><time>2026-04-03T14:23:23.261Z</time></trkpt><trkpt lat="45.9660925" lon="12.1469314"><ele>240.5</ele><time>2026-04-03T14:23:25.032Z</time></trkpt><trkpt lat="45.9662162" lon="12.1472455"><ele>241.0</ele><time>2026-04-03T14:23:26.051Z</time></trkpt><trkpt lat="45.9663524" lon="12.1475761"><ele>242.0</ele><time>2026-04-03T14:23:27.083Z</time></trkpt><trkpt lat="45.9664756" lon="12.1478877"><ele>243.0</ele><time>2026-04-03T14:23:28.073Z</time></trkpt><trkpt lat="45.9666058" lon="12.1482132"><ele>246.5</ele><time>2026-04-03T14:23:29.067Z</time></trkpt><trkpt lat="45.9667363" lon="12.1485519"><ele>250.0</ele><time>2026-04-03T14:23:30.075Z</time></trkpt><trkpt lat="45.9668524" lon="12.1488725"><ele>250.5</ele><time>2026-04-03T14:23:31.051Z</time></trkpt><trkpt lat="45.9669661" lon="12.1492012"><ele>251.0</ele><time>2026-04-03T14:23:32.073Z</time></trkpt><trkpt lat="45.9670731" lon="12.1495047"><ele>251.0</ele><time>2026-04-03T14:23:33.073Z</time></trkpt><trkpt lat="45.9671778" lon="12.1498118"><ele>251.0</ele><time>2026-04-03T14:23:34.047Z</time></trkpt><trkpt lat="45.9672882" lon="12.1501425"><ele>251.0</ele><time>2026-04-03T14:23:35.064Z</time></trkpt><trkpt lat="45.9673981" lon="12.1504816"><ele>251.0</ele><time>2026-04-03T14:23:36.082Z</time></trkpt><trkpt lat="45.9675011" lon="12.1508158"><ele>256.0</ele><time>2026-04-03T14:23:37.09Z</time></trkpt><trkpt lat="45.9675919" lon="12.1511258"><ele>261.0</ele><time>2026-04-03T14:23:38.101Z</time></trkpt><trkpt lat="45.9676758" lon="12.1514234"><ele>261.0</ele><time>2026-04-03T14:23:39.135Z</time></trkpt><trkpt lat="45.9677483" lon="12.1516589"><ele>261.0</ele><time>2026-04-03T14:23:40.094Z</time></trkpt><trkpt lat="45.9678206" lon="12.1518837"><ele>261.0</ele><time>2026-04-03T14:23:41.112Z</time></trkpt><trkpt lat="45.9678837" lon="12.1520877"><ele>261.0</ele><time>2026-04-03T14:23:42.066Z</time></trkpt><trkpt lat="45.9679511" lon="12.1523127"><ele>261.0</ele><time>2026-04-03T14:23:43.088Z</time></trkpt><trkpt lat="45.9680264" lon="12.1525392"><ele>261.0</ele><time>2026-04-03T14:23:44.128Z</time></trkpt><trkpt lat="45.9680985" lon="12.1527594"><ele>261.3333333333333</ele><time>2026-04-03T14:23:45.062Z</time></trkpt><trkpt lat="45.9681751" lon="12.1530075"><ele>261.66666666666663</ele><time>2026-04-03T14:23:46.057Z</time></trkpt><trkpt lat="45.9682738" lon="12.153279"><ele>262.0</ele><time>2026-04-03T14:23:47.132Z</time></trkpt><trkpt lat="45.9683742" lon="12.1535272"><ele>262.0</ele><time>2026-04-03T14:23:48.103Z</time></trkpt><trkpt lat="45.9684828" lon="12.1537764"><ele>262.0</ele><time>2026-04-03T14:23:49.043Z</time></trkpt><trkpt lat="45.9686279" lon="12.154039"><ele>262.0</ele><time>2026-04-03T14:23:50.083Z</time></trkpt><trkpt lat="45.9687686" lon="12.1542979"><ele>258.5</ele><time>2026-04-03T14:23:51.062Z</time></trkpt><trkpt lat="45.9689166" lon="12.1545725"><ele>255.0</ele><time>2026-04-03T14:23:52.057Z</time></trkpt><trkpt lat="45.9690692" lon="12.1548578"><ele>258.5</ele><time>2026-04-03T14:23:53.057Z</time></trkpt><trkpt lat="45.9692223" lon="12.155161"><ele>262.0</ele><time>2026-04-03T14:23:54.08Z</time></trkpt><trkpt lat="45.9693692" lon="12.1554209"><ele>262.0</ele><time>2026-04-03T14:23:55.056Z</time></trkpt><trkpt lat="45.9695202" lon="12.1556832"><ele>262.0</ele><time>2026-04-03T14:23:56.031Z</time></trkpt><trkpt lat="45.9696802" lon="12.1559645"><ele>256.5</ele><time>2026-04-03T14:23:57.075Z</time></trkpt><trkpt lat="45.9698363" lon="12.1562294"><ele>251.0</ele><time>2026-04-03T14:23:58.084Z</time></trkpt><trkpt lat="45.9699873" lon="12.1564984"><ele>260.5</ele><time>2026-04-03T14:23:59.091Z</time></trkpt><trkpt lat="45.9701259" lon="12.1567656"><ele>270.0</ele><time>2026-04-03T14:24:00.058Z</time></trkpt><trkpt lat="45.970264" lon="12.1570271"><ele>270.0</ele><time>2026-04-03T14:24:01.039Z</time></trkpt><trkpt lat="45.9704078" lon="12.1573006"><ele>270.0</ele><time>2026-04-03T14:24:02.071Z</time></trkpt><trkpt lat="45.9705482" lon="12.1575664"><ele>263.5</ele><time>2026-04-03T14:24:03.052Z</time></trkpt><trkpt lat="45.9706867" lon="12.1578433"><ele>257.0</ele><time>2026-04-03T14:24:04.052Z</time></trkpt><trkpt lat="45.9708129" lon="12.1581331"><ele>267.5</ele><time>2026-04-03T14:24:05.068Z</time></trkpt><trkpt lat="45.9709129" lon="12.1584179"><ele>278.0</ele><time>2026-04-03T14:24:06.018Z</time></trkpt><trkpt lat="45.9710084" lon="12.1587555"><ele>273.5</ele><time>2026-04-03T14:24:07.093Z</time></trkpt><trkpt lat="45.9710883" lon="12.1590695"><ele>269.0</ele><time>2026-04-03T14:24:08.08Z</time></trkpt><trkpt lat="45.9711707" lon="12.1593855"><ele>269.0</ele><time>2026-04-03T14:24:09.079Z</time></trkpt><trkpt lat="45.97126" lon="12.15969"><ele>269.0</ele><time>2026-04-03T14:24:10.078Z</time></trkpt><trkpt lat="45.9713316" lon="12.1599814"><ele>269.0</ele><time>2026-04-03T14:24:11.095Z</time></trkpt><trkpt lat="45.9713962" lon="12.1602467"><ele>253.0</ele><time>2026-04-03T14:24:12.058Z</time></trkpt><trkpt lat="45.9714571" lon="12.1604979"><ele>253.0</ele><time>2026-04-03T14:24:13.01Z</time></trkpt></trkseg></trk></gpx>